<?xml version="1.0" encoding="UTF-8" standalone="no" ?>
<gpx xmlns="http://www.topografix.com/GPX/1/1" xmlns:xsi="http://www.w3.org/2001/XMLSchema-instance" xsi:schemaLocation="http://www.topografix.com/GPX/1/1 http://www.topografix.com/GPX/1/1/gpx.xsd" version="1.1" creator="VisuGPX - https://www.visugpx.com">
  <metadata>
    <name>151216ROBBenjamins</name>
    <desc><![CDATA[excellente sortie]]></desc>
  </metadata>
  <trk>
    <name><![CDATA[151216ROBBenjamins]]></name>
    <trkseg>
      <trkpt lat="43.41578" lon="6.07041">
        <ele>209.39999389648</ele>
        <time>2015-12-16T13:00:19Z</time>
      </trkpt>
      <trkpt lat="43.41578" lon="6.07041">
        <ele>209.60000610352</ele>
        <time>2015-12-16T13:00:24Z</time>
      </trkpt>
      <trkpt lat="43.41578" lon="6.07041">
        <ele>209.39999389648</ele>
        <time>2015-12-16T13:00:26Z</time>
      </trkpt>
      <trkpt lat="43.41578" lon="6.07041">
        <ele>209.39999389648</ele>
        <time>2015-12-16T13:00:28Z</time>
      </trkpt>
      <trkpt lat="43.41578" lon="6.0704">
        <ele>209.80000305176</ele>
        <time>2015-12-16T13:00:30Z</time>
      </trkpt>
      <trkpt lat="43.41578" lon="6.0704">
        <ele>209.60000610352</ele>
        <time>2015-12-16T13:00:32Z</time>
      </trkpt>
      <trkpt lat="43.41578" lon="6.0704">
        <ele>209.80000305176</ele>
        <time>2015-12-16T13:00:36Z</time>
      </trkpt>
      <trkpt lat="43.41578" lon="6.07041">
        <ele>209.39999389648</ele>
        <time>2015-12-16T13:00:38Z</time>
      </trkpt>
      <trkpt lat="43.41578" lon="6.07041">
        <ele>209.80000305176</ele>
        <time>2015-12-16T13:00:42Z</time>
      </trkpt>
      <trkpt lat="43.41578" lon="6.07041">
        <ele>209.80000305176</ele>
        <time>2015-12-16T13:00:46Z</time>
      </trkpt>
      <trkpt lat="43.41579" lon="6.07041">
        <ele>209.80000305176</ele>
        <time>2015-12-16T13:00:48Z</time>
      </trkpt>
      <trkpt lat="43.41579" lon="6.07041">
        <ele>209.80000305176</ele>
        <time>2015-12-16T13:00:50Z</time>
      </trkpt>
      <trkpt lat="43.41579" lon="6.07041">
        <ele>209.80000305176</ele>
        <time>2015-12-16T13:00:52Z</time>
      </trkpt>
      <trkpt lat="43.41579" lon="6.07041">
        <ele>209.80000305176</ele>
        <time>2015-12-16T13:00:53Z</time>
      </trkpt>
      <trkpt lat="43.41578" lon="6.07041">
        <ele>209.80000305176</ele>
        <time>2015-12-16T13:00:54Z</time>
      </trkpt>
      <trkpt lat="43.41578" lon="6.07041">
        <ele>209.60000610352</ele>
        <time>2015-12-16T13:00:58Z</time>
      </trkpt>
      <trkpt lat="43.41578" lon="6.07041">
        <ele>209.80000305176</ele>
        <time>2015-12-16T13:01:00Z</time>
      </trkpt>
      <trkpt lat="43.41578" lon="6.07041">
        <ele>209.80000305176</ele>
        <time>2015-12-16T13:01:10Z</time>
      </trkpt>
      <trkpt lat="43.41578" lon="6.07041">
        <ele>209.60000610352</ele>
        <time>2015-12-16T13:01:14Z</time>
      </trkpt>
      <trkpt lat="43.41578" lon="6.0704">
        <ele>209.60000610352</ele>
        <time>2015-12-16T13:01:16Z</time>
      </trkpt>
      <trkpt lat="43.41579" lon="6.0704">
        <ele>209.60000610352</ele>
        <time>2015-12-16T13:01:18Z</time>
      </trkpt>
      <trkpt lat="43.41578" lon="6.0704">
        <ele>209.60000610352</ele>
        <time>2015-12-16T13:01:20Z</time>
      </trkpt>
      <trkpt lat="43.41578" lon="6.0704">
        <ele>209.80000305176</ele>
        <time>2015-12-16T13:01:22Z</time>
      </trkpt>
      <trkpt lat="43.41578" lon="6.0704">
        <ele>209.80000305176</ele>
        <time>2015-12-16T13:01:24Z</time>
      </trkpt>
      <trkpt lat="43.41578" lon="6.0704">
        <ele>210</ele>
        <time>2015-12-16T13:01:26Z</time>
      </trkpt>
      <trkpt lat="43.41578" lon="6.0704">
        <ele>210</ele>
        <time>2015-12-16T13:01:30Z</time>
      </trkpt>
      <trkpt lat="43.41578" lon="6.0704">
        <ele>209.60000610352</ele>
        <time>2015-12-16T13:01:34Z</time>
      </trkpt>
      <trkpt lat="43.41578" lon="6.0704">
        <ele>209.80000305176</ele>
        <time>2015-12-16T13:01:42Z</time>
      </trkpt>
      <trkpt lat="43.41578" lon="6.0704">
        <ele>210</ele>
        <time>2015-12-16T13:01:44Z</time>
      </trkpt>
      <trkpt lat="43.41578" lon="6.0704">
        <ele>209.80000305176</ele>
        <time>2015-12-16T13:01:46Z</time>
      </trkpt>
      <trkpt lat="43.41578" lon="6.0704">
        <ele>209.60000610352</ele>
        <time>2015-12-16T13:01:47Z</time>
      </trkpt>
      <trkpt lat="43.41578" lon="6.07039">
        <ele>209.39999389648</ele>
        <time>2015-12-16T13:01:48Z</time>
      </trkpt>
      <trkpt lat="43.41579" lon="6.07038">
        <ele>209.60000610352</ele>
        <time>2015-12-16T13:01:50Z</time>
      </trkpt>
      <trkpt lat="43.41579" lon="6.07038">
        <ele>209.60000610352</ele>
        <time>2015-12-16T13:01:52Z</time>
      </trkpt>
      <trkpt lat="43.41579" lon="6.07038">
        <ele>209.80000305176</ele>
        <time>2015-12-16T13:01:54Z</time>
      </trkpt>
      <trkpt lat="43.41579" lon="6.07038">
        <ele>209.80000305176</ele>
        <time>2015-12-16T13:01:55Z</time>
      </trkpt>
      <trkpt lat="43.41579" lon="6.07038">
        <ele>209.80000305176</ele>
        <time>2015-12-16T13:01:58Z</time>
      </trkpt>
      <trkpt lat="43.41579" lon="6.07038">
        <ele>209.60000610352</ele>
        <time>2015-12-16T13:02:00Z</time>
      </trkpt>
      <trkpt lat="43.41579" lon="6.07038">
        <ele>209.80000305176</ele>
        <time>2015-12-16T13:02:02Z</time>
      </trkpt>
      <trkpt lat="43.41579" lon="6.07037">
        <ele>209.60000610352</ele>
        <time>2015-12-16T13:02:06Z</time>
      </trkpt>
      <trkpt lat="43.41579" lon="6.07037">
        <ele>209.60000610352</ele>
        <time>2015-12-16T13:02:08Z</time>
      </trkpt>
      <trkpt lat="43.41579" lon="6.07037">
        <ele>209.80000305176</ele>
        <time>2015-12-16T13:02:12Z</time>
      </trkpt>
      <trkpt lat="43.41579" lon="6.07037">
        <ele>209.39999389648</ele>
        <time>2015-12-16T13:02:18Z</time>
      </trkpt>
      <trkpt lat="43.41579" lon="6.07037">
        <ele>209.39999389648</ele>
        <time>2015-12-16T13:02:22Z</time>
      </trkpt>
      <trkpt lat="43.41579" lon="6.07037">
        <ele>209.60000610352</ele>
        <time>2015-12-16T13:02:24Z</time>
      </trkpt>
      <trkpt lat="43.41579" lon="6.07037">
        <ele>209.60000610352</ele>
        <time>2015-12-16T13:02:26Z</time>
      </trkpt>
      <trkpt lat="43.41579" lon="6.07037">
        <ele>209.80000305176</ele>
        <time>2015-12-16T13:02:28Z</time>
      </trkpt>
      <trkpt lat="43.41579" lon="6.07037">
        <ele>209.60000610352</ele>
        <time>2015-12-16T13:02:30Z</time>
      </trkpt>
      <trkpt lat="43.41579" lon="6.07037">
        <ele>209.60000610352</ele>
        <time>2015-12-16T13:02:32Z</time>
      </trkpt>
      <trkpt lat="43.41579" lon="6.07037">
        <ele>209.60000610352</ele>
        <time>2015-12-16T13:02:34Z</time>
      </trkpt>
      <trkpt lat="43.41579" lon="6.07037">
        <ele>209.39999389648</ele>
        <time>2015-12-16T13:02:42Z</time>
      </trkpt>
      <trkpt lat="43.41579" lon="6.07037">
        <ele>209.60000610352</ele>
        <time>2015-12-16T13:02:44Z</time>
      </trkpt>
      <trkpt lat="43.41579" lon="6.07037">
        <ele>209.39999389648</ele>
        <time>2015-12-16T13:02:48Z</time>
      </trkpt>
      <trkpt lat="43.41579" lon="6.07037">
        <ele>209.39999389648</ele>
        <time>2015-12-16T13:02:54Z</time>
      </trkpt>
      <trkpt lat="43.41579" lon="6.07037">
        <ele>209.60000610352</ele>
        <time>2015-12-16T13:03:02Z</time>
      </trkpt>
      <trkpt lat="43.41579" lon="6.07037">
        <ele>209.60000610352</ele>
        <time>2015-12-16T13:03:06Z</time>
      </trkpt>
      <trkpt lat="43.4158" lon="6.07037">
        <ele>209.80000305176</ele>
        <time>2015-12-16T13:03:08Z</time>
      </trkpt>
      <trkpt lat="43.4158" lon="6.07036">
        <ele>209.60000610352</ele>
        <time>2015-12-16T13:03:10Z</time>
      </trkpt>
      <trkpt lat="43.4158" lon="6.07036">
        <ele>209.60000610352</ele>
        <time>2015-12-16T13:03:12Z</time>
      </trkpt>
      <trkpt lat="43.41581" lon="6.07035">
        <ele>209.80000305176</ele>
        <time>2015-12-16T13:03:14Z</time>
      </trkpt>
      <trkpt lat="43.41581" lon="6.07033">
        <ele>209.60000610352</ele>
        <time>2015-12-16T13:03:16Z</time>
      </trkpt>
      <trkpt lat="43.41583" lon="6.07029">
        <ele>209.39999389648</ele>
        <time>2015-12-16T13:03:18Z</time>
      </trkpt>
      <trkpt lat="43.41584" lon="6.07025">
        <ele>209.39999389648</ele>
        <time>2015-12-16T13:03:20Z</time>
      </trkpt>
      <trkpt lat="43.41583" lon="6.07021">
        <ele>209.80000305176</ele>
        <time>2015-12-16T13:03:22Z</time>
      </trkpt>
      <trkpt lat="43.41582" lon="6.07019">
        <ele>209.80000305176</ele>
        <time>2015-12-16T13:03:23Z</time>
      </trkpt>
      <trkpt lat="43.41581" lon="6.07018">
        <ele>209.80000305176</ele>
        <time>2015-12-16T13:03:24Z</time>
      </trkpt>
      <trkpt lat="43.41581" lon="6.07022">
        <ele>209.80000305176</ele>
        <time>2015-12-16T13:03:27Z</time>
      </trkpt>
      <trkpt lat="43.41582" lon="6.07026">
        <ele>209.80000305176</ele>
        <time>2015-12-16T13:03:29Z</time>
      </trkpt>
      <trkpt lat="43.41583" lon="6.07029">
        <ele>209.80000305176</ele>
        <time>2015-12-16T13:03:30Z</time>
      </trkpt>
      <trkpt lat="43.41583" lon="6.07032">
        <ele>209.80000305176</ele>
        <time>2015-12-16T13:03:31Z</time>
      </trkpt>
      <trkpt lat="43.41582" lon="6.07034">
        <ele>209.80000305176</ele>
        <time>2015-12-16T13:03:32Z</time>
      </trkpt>
      <trkpt lat="43.4158" lon="6.07036">
        <ele>209.60000610352</ele>
        <time>2015-12-16T13:03:35Z</time>
      </trkpt>
      <trkpt lat="43.4158" lon="6.07036">
        <ele>209.60000610352</ele>
        <time>2015-12-16T13:03:37Z</time>
      </trkpt>
      <trkpt lat="43.4158" lon="6.07036">
        <ele>209.60000610352</ele>
        <time>2015-12-16T13:03:38Z</time>
      </trkpt>
      <trkpt lat="43.4158" lon="6.07037">
        <ele>209.39999389648</ele>
        <time>2015-12-16T13:03:41Z</time>
      </trkpt>
      <trkpt lat="43.4158" lon="6.07037">
        <ele>209.60000610352</ele>
        <time>2015-12-16T13:03:43Z</time>
      </trkpt>
      <trkpt lat="43.4158" lon="6.07037">
        <ele>209.39999389648</ele>
        <time>2015-12-16T13:03:49Z</time>
      </trkpt>
      <trkpt lat="43.4158" lon="6.07037">
        <ele>209.39999389648</ele>
        <time>2015-12-16T13:03:53Z</time>
      </trkpt>
      <trkpt lat="43.4158" lon="6.07037">
        <ele>209.60000610352</ele>
        <time>2015-12-16T13:03:55Z</time>
      </trkpt>
      <trkpt lat="43.41579" lon="6.07037">
        <ele>209.60000610352</ele>
        <time>2015-12-16T13:03:57Z</time>
      </trkpt>
      <trkpt lat="43.41579" lon="6.07037">
        <ele>209.39999389648</ele>
        <time>2015-12-16T13:03:59Z</time>
      </trkpt>
      <trkpt lat="43.41579" lon="6.07037">
        <ele>209.39999389648</ele>
        <time>2015-12-16T13:04:00Z</time>
      </trkpt>
      <trkpt lat="43.41579" lon="6.07037">
        <ele>209.39999389648</ele>
        <time>2015-12-16T13:04:02Z</time>
      </trkpt>
      <trkpt lat="43.41579" lon="6.07037">
        <ele>209.60000610352</ele>
        <time>2015-12-16T13:04:05Z</time>
      </trkpt>
      <trkpt lat="43.41579" lon="6.07037">
        <ele>209.39999389648</ele>
        <time>2015-12-16T13:04:07Z</time>
      </trkpt>
      <trkpt lat="43.41579" lon="6.07037">
        <ele>209.39999389648</ele>
        <time>2015-12-16T13:04:17Z</time>
      </trkpt>
      <trkpt lat="43.41579" lon="6.07037">
        <ele>209.39999389648</ele>
        <time>2015-12-16T13:04:21Z</time>
      </trkpt>
      <trkpt lat="43.41579" lon="6.07037">
        <ele>209.39999389648</ele>
        <time>2015-12-16T13:04:22Z</time>
      </trkpt>
      <trkpt lat="43.41579" lon="6.07037">
        <ele>209.60000610352</ele>
        <time>2015-12-16T13:04:24Z</time>
      </trkpt>
      <trkpt lat="43.4158" lon="6.07037">
        <ele>209.39999389648</ele>
        <time>2015-12-16T13:04:25Z</time>
      </trkpt>
      <trkpt lat="43.4158" lon="6.07037">
        <ele>209.60000610352</ele>
        <time>2015-12-16T13:04:27Z</time>
      </trkpt>
      <trkpt lat="43.4158" lon="6.07037">
        <ele>209.80000305176</ele>
        <time>2015-12-16T13:04:28Z</time>
      </trkpt>
      <trkpt lat="43.4158" lon="6.07037">
        <ele>209.60000610352</ele>
        <time>2015-12-16T13:04:34Z</time>
      </trkpt>
      <trkpt lat="43.4158" lon="6.07037">
        <ele>209.39999389648</ele>
        <time>2015-12-16T13:04:41Z</time>
      </trkpt>
      <trkpt lat="43.4158" lon="6.07037">
        <ele>209.39999389648</ele>
        <time>2015-12-16T13:04:44Z</time>
      </trkpt>
      <trkpt lat="43.4158" lon="6.07037">
        <ele>209.39999389648</ele>
        <time>2015-12-16T13:04:46Z</time>
      </trkpt>
      <trkpt lat="43.4158" lon="6.07037">
        <ele>209.60000610352</ele>
        <time>2015-12-16T13:04:48Z</time>
      </trkpt>
      <trkpt lat="43.4158" lon="6.07037">
        <ele>209.60000610352</ele>
        <time>2015-12-16T13:04:50Z</time>
      </trkpt>
      <trkpt lat="43.41579" lon="6.07037">
        <ele>209.39999389648</ele>
        <time>2015-12-16T13:04:53Z</time>
      </trkpt>
      <trkpt lat="43.41579" lon="6.07038">
        <ele>209.60000610352</ele>
        <time>2015-12-16T13:04:55Z</time>
      </trkpt>
      <trkpt lat="43.41579" lon="6.07038">
        <ele>209.39999389648</ele>
        <time>2015-12-16T13:04:57Z</time>
      </trkpt>
      <trkpt lat="43.4158" lon="6.07038">
        <ele>209.39999389648</ele>
        <time>2015-12-16T13:04:59Z</time>
      </trkpt>
      <trkpt lat="43.4158" lon="6.07038">
        <ele>209.39999389648</ele>
        <time>2015-12-16T13:05:04Z</time>
      </trkpt>
      <trkpt lat="43.4158" lon="6.07038">
        <ele>209.39999389648</ele>
        <time>2015-12-16T13:05:07Z</time>
      </trkpt>
      <trkpt lat="43.4158" lon="6.07038">
        <ele>209.39999389648</ele>
        <time>2015-12-16T13:05:11Z</time>
      </trkpt>
      <trkpt lat="43.4158" lon="6.07038">
        <ele>209.19999694824</ele>
        <time>2015-12-16T13:05:17Z</time>
      </trkpt>
      <trkpt lat="43.4158" lon="6.07038">
        <ele>209.39999389648</ele>
        <time>2015-12-16T13:05:18Z</time>
      </trkpt>
      <trkpt lat="43.41579" lon="6.07038">
        <ele>209.60000610352</ele>
        <time>2015-12-16T13:05:21Z</time>
      </trkpt>
      <trkpt lat="43.41579" lon="6.07038">
        <ele>209.60000610352</ele>
        <time>2015-12-16T13:05:22Z</time>
      </trkpt>
      <trkpt lat="43.41579" lon="6.07038">
        <ele>209.39999389648</ele>
        <time>2015-12-16T13:05:27Z</time>
      </trkpt>
      <trkpt lat="43.4158" lon="6.07038">
        <ele>209.39999389648</ele>
        <time>2015-12-16T13:05:30Z</time>
      </trkpt>
      <trkpt lat="43.4158" lon="6.07038">
        <ele>209.39999389648</ele>
        <time>2015-12-16T13:05:32Z</time>
      </trkpt>
      <trkpt lat="43.4158" lon="6.07038">
        <ele>209.60000610352</ele>
        <time>2015-12-16T13:05:34Z</time>
      </trkpt>
      <trkpt lat="43.4158" lon="6.07038">
        <ele>209.60000610352</ele>
        <time>2015-12-16T13:05:36Z</time>
      </trkpt>
      <trkpt lat="43.41579" lon="6.07038">
        <ele>209.39999389648</ele>
        <time>2015-12-16T13:05:39Z</time>
      </trkpt>
      <trkpt lat="43.41579" lon="6.07038">
        <ele>209.19999694824</ele>
        <time>2015-12-16T13:05:43Z</time>
      </trkpt>
      <trkpt lat="43.41579" lon="6.07038">
        <ele>209.19999694824</ele>
        <time>2015-12-16T13:05:45Z</time>
      </trkpt>
      <trkpt lat="43.41579" lon="6.07038">
        <ele>209.19999694824</ele>
        <time>2015-12-16T13:05:48Z</time>
      </trkpt>
      <trkpt lat="43.41579" lon="6.07038">
        <ele>209.39999389648</ele>
        <time>2015-12-16T13:05:50Z</time>
      </trkpt>
      <trkpt lat="43.41579" lon="6.07038">
        <ele>209.39999389648</ele>
        <time>2015-12-16T13:05:53Z</time>
      </trkpt>
      <trkpt lat="43.41579" lon="6.07038">
        <ele>209.60000610352</ele>
        <time>2015-12-16T13:06:00Z</time>
      </trkpt>
      <trkpt lat="43.41579" lon="6.07038">
        <ele>209.60000610352</ele>
        <time>2015-12-16T13:06:02Z</time>
      </trkpt>
      <trkpt lat="43.41579" lon="6.07038">
        <ele>209.60000610352</ele>
        <time>2015-12-16T13:06:05Z</time>
      </trkpt>
      <trkpt lat="43.41579" lon="6.07038">
        <ele>209.60000610352</ele>
        <time>2015-12-16T13:06:06Z</time>
      </trkpt>
      <trkpt lat="43.41579" lon="6.07038">
        <ele>209.39999389648</ele>
        <time>2015-12-16T13:06:10Z</time>
      </trkpt>
      <trkpt lat="43.41579" lon="6.07038">
        <ele>209.60000610352</ele>
        <time>2015-12-16T13:06:14Z</time>
      </trkpt>
      <trkpt lat="43.41579" lon="6.07038">
        <ele>209.39999389648</ele>
        <time>2015-12-16T13:06:16Z</time>
      </trkpt>
      <trkpt lat="43.41579" lon="6.07038">
        <ele>209.60000610352</ele>
        <time>2015-12-16T13:06:18Z</time>
      </trkpt>
      <trkpt lat="43.41578" lon="6.07038">
        <ele>209.39999389648</ele>
        <time>2015-12-16T13:06:21Z</time>
      </trkpt>
      <trkpt lat="43.41578" lon="6.07038">
        <ele>209.39999389648</ele>
        <time>2015-12-16T13:06:25Z</time>
      </trkpt>
      <trkpt lat="43.41578" lon="6.07038">
        <ele>209.19999694824</ele>
        <time>2015-12-16T13:06:27Z</time>
      </trkpt>
      <trkpt lat="43.41578" lon="6.07038">
        <ele>209.39999389648</ele>
        <time>2015-12-16T13:06:29Z</time>
      </trkpt>
      <trkpt lat="43.41577" lon="6.0704">
        <ele>209.39999389648</ele>
        <time>2015-12-16T13:06:31Z</time>
      </trkpt>
      <trkpt lat="43.41577" lon="6.07042">
        <ele>209.39999389648</ele>
        <time>2015-12-16T13:06:32Z</time>
      </trkpt>
      <trkpt lat="43.41578" lon="6.07044">
        <ele>209.39999389648</ele>
        <time>2015-12-16T13:06:33Z</time>
      </trkpt>
      <trkpt lat="43.41578" lon="6.07046">
        <ele>209.39999389648</ele>
        <time>2015-12-16T13:06:34Z</time>
      </trkpt>
      <trkpt lat="43.41579" lon="6.07051">
        <ele>209.19999694824</ele>
        <time>2015-12-16T13:06:36Z</time>
      </trkpt>
      <trkpt lat="43.41579" lon="6.07057">
        <ele>209.39999389648</ele>
        <time>2015-12-16T13:06:38Z</time>
      </trkpt>
      <trkpt lat="43.4158" lon="6.07064">
        <ele>209.39999389648</ele>
        <time>2015-12-16T13:06:40Z</time>
      </trkpt>
      <trkpt lat="43.4158" lon="6.07068">
        <ele>209.60000610352</ele>
        <time>2015-12-16T13:06:41Z</time>
      </trkpt>
      <trkpt lat="43.41581" lon="6.07072">
        <ele>209.60000610352</ele>
        <time>2015-12-16T13:06:42Z</time>
      </trkpt>
      <trkpt lat="43.41582" lon="6.07084">
        <ele>209.19999694824</ele>
        <time>2015-12-16T13:06:45Z</time>
      </trkpt>
      <trkpt lat="43.41583" lon="6.07093">
        <ele>209.19999694824</ele>
        <time>2015-12-16T13:06:47Z</time>
      </trkpt>
      <trkpt lat="43.41584" lon="6.07101">
        <ele>209</ele>
        <time>2015-12-16T13:06:49Z</time>
      </trkpt>
      <trkpt lat="43.41582" lon="6.07105">
        <ele>208.80000305176</ele>
        <time>2015-12-16T13:06:51Z</time>
      </trkpt>
      <trkpt lat="43.4158" lon="6.07106">
        <ele>208.80000305176</ele>
        <time>2015-12-16T13:06:53Z</time>
      </trkpt>
      <trkpt lat="43.41578" lon="6.07108">
        <ele>208.80000305176</ele>
        <time>2015-12-16T13:06:55Z</time>
      </trkpt>
      <trkpt lat="43.41576" lon="6.0711">
        <ele>209</ele>
        <time>2015-12-16T13:06:57Z</time>
      </trkpt>
      <trkpt lat="43.41573" lon="6.07113">
        <ele>209</ele>
        <time>2015-12-16T13:06:59Z</time>
      </trkpt>
      <trkpt lat="43.41569" lon="6.07115">
        <ele>209</ele>
        <time>2015-12-16T13:07:01Z</time>
      </trkpt>
      <trkpt lat="43.41565" lon="6.07117">
        <ele>209</ele>
        <time>2015-12-16T13:07:03Z</time>
      </trkpt>
      <trkpt lat="43.41561" lon="6.07119">
        <ele>209</ele>
        <time>2015-12-16T13:07:05Z</time>
      </trkpt>
      <trkpt lat="43.41557" lon="6.07121">
        <ele>209</ele>
        <time>2015-12-16T13:07:07Z</time>
      </trkpt>
      <trkpt lat="43.41552" lon="6.0712">
        <ele>209.19999694824</ele>
        <time>2015-12-16T13:07:09Z</time>
      </trkpt>
      <trkpt lat="43.41551" lon="6.07118">
        <ele>209</ele>
        <time>2015-12-16T13:07:10Z</time>
      </trkpt>
      <trkpt lat="43.4155" lon="6.07116">
        <ele>208.80000305176</ele>
        <time>2015-12-16T13:07:11Z</time>
      </trkpt>
      <trkpt lat="43.41549" lon="6.0711">
        <ele>209.19999694824</ele>
        <time>2015-12-16T13:07:13Z</time>
      </trkpt>
      <trkpt lat="43.41549" lon="6.07105">
        <ele>208.80000305176</ele>
        <time>2015-12-16T13:07:15Z</time>
      </trkpt>
      <trkpt lat="43.41547" lon="6.07093">
        <ele>208.60000610352</ele>
        <time>2015-12-16T13:07:19Z</time>
      </trkpt>
      <trkpt lat="43.41545" lon="6.07089">
        <ele>208.60000610352</ele>
        <time>2015-12-16T13:07:20Z</time>
      </trkpt>
      <trkpt lat="43.41541" lon="6.07082">
        <ele>208.60000610352</ele>
        <time>2015-12-16T13:07:23Z</time>
      </trkpt>
      <trkpt lat="43.41535" lon="6.0708">
        <ele>208.60000610352</ele>
        <time>2015-12-16T13:07:25Z</time>
      </trkpt>
      <trkpt lat="43.41527" lon="6.07081">
        <ele>208.60000610352</ele>
        <time>2015-12-16T13:07:27Z</time>
      </trkpt>
      <trkpt lat="43.41523" lon="6.07082">
        <ele>208.19999694824</ele>
        <time>2015-12-16T13:07:28Z</time>
      </trkpt>
      <trkpt lat="43.4152" lon="6.07083">
        <ele>208</ele>
        <time>2015-12-16T13:07:29Z</time>
      </trkpt>
      <trkpt lat="43.41515" lon="6.07084">
        <ele>207.80000305176</ele>
        <time>2015-12-16T13:07:30Z</time>
      </trkpt>
      <trkpt lat="43.41509" lon="6.07085">
        <ele>207.60000610352</ele>
        <time>2015-12-16T13:07:32Z</time>
      </trkpt>
      <trkpt lat="43.41502" lon="6.07086">
        <ele>207.80000305176</ele>
        <time>2015-12-16T13:07:34Z</time>
      </trkpt>
      <trkpt lat="43.41499" lon="6.07086">
        <ele>207.80000305176</ele>
        <time>2015-12-16T13:07:35Z</time>
      </trkpt>
      <trkpt lat="43.41496" lon="6.07085">
        <ele>207.60000610352</ele>
        <time>2015-12-16T13:07:36Z</time>
      </trkpt>
      <trkpt lat="43.4149" lon="6.07082">
        <ele>207.39999389648</ele>
        <time>2015-12-16T13:07:38Z</time>
      </trkpt>
      <trkpt lat="43.41485" lon="6.07078">
        <ele>207.39999389648</ele>
        <time>2015-12-16T13:07:41Z</time>
      </trkpt>
      <trkpt lat="43.41482" lon="6.07078">
        <ele>207.60000610352</ele>
        <time>2015-12-16T13:07:42Z</time>
      </trkpt>
      <trkpt lat="43.41478" lon="6.07077">
        <ele>207.80000305176</ele>
        <time>2015-12-16T13:07:44Z</time>
      </trkpt>
      <trkpt lat="43.41475" lon="6.07077">
        <ele>207.39999389648</ele>
        <time>2015-12-16T13:07:46Z</time>
      </trkpt>
      <trkpt lat="43.41471" lon="6.07075">
        <ele>207.19999694824</ele>
        <time>2015-12-16T13:07:48Z</time>
      </trkpt>
      <trkpt lat="43.4147" lon="6.07074">
        <ele>207</ele>
        <time>2015-12-16T13:07:50Z</time>
      </trkpt>
      <trkpt lat="43.4147" lon="6.07074">
        <ele>207</ele>
        <time>2015-12-16T13:07:54Z</time>
      </trkpt>
      <trkpt lat="43.4147" lon="6.07074">
        <ele>207</ele>
        <time>2015-12-16T13:07:56Z</time>
      </trkpt>
      <trkpt lat="43.4147" lon="6.07074">
        <ele>207</ele>
        <time>2015-12-16T13:07:58Z</time>
      </trkpt>
      <trkpt lat="43.4147" lon="6.07074">
        <ele>206.80000305176</ele>
        <time>2015-12-16T13:08:00Z</time>
      </trkpt>
      <trkpt lat="43.4147" lon="6.07074">
        <ele>206.60000610352</ele>
        <time>2015-12-16T13:08:06Z</time>
      </trkpt>
      <trkpt lat="43.4147" lon="6.07074">
        <ele>206.80000305176</ele>
        <time>2015-12-16T13:08:08Z</time>
      </trkpt>
      <trkpt lat="43.4147" lon="6.07074">
        <ele>206.60000610352</ele>
        <time>2015-12-16T13:08:12Z</time>
      </trkpt>
      <trkpt lat="43.4147" lon="6.07074">
        <ele>206.80000305176</ele>
        <time>2015-12-16T13:08:14Z</time>
      </trkpt>
      <trkpt lat="43.41468" lon="6.07071">
        <ele>206.60000610352</ele>
        <time>2015-12-16T13:08:16Z</time>
      </trkpt>
      <trkpt lat="43.41468" lon="6.07068">
        <ele>206.60000610352</ele>
        <time>2015-12-16T13:08:17Z</time>
      </trkpt>
      <trkpt lat="43.4147" lon="6.07063">
        <ele>206.60000610352</ele>
        <time>2015-12-16T13:08:19Z</time>
      </trkpt>
      <trkpt lat="43.41471" lon="6.0706">
        <ele>206.60000610352</ele>
        <time>2015-12-16T13:08:20Z</time>
      </trkpt>
      <trkpt lat="43.41473" lon="6.07055">
        <ele>206.39999389648</ele>
        <time>2015-12-16T13:08:22Z</time>
      </trkpt>
      <trkpt lat="43.41476" lon="6.07049">
        <ele>206.60000610352</ele>
        <time>2015-12-16T13:08:24Z</time>
      </trkpt>
      <trkpt lat="43.41479" lon="6.07043">
        <ele>206.80000305176</ele>
        <time>2015-12-16T13:08:26Z</time>
      </trkpt>
      <trkpt lat="43.41483" lon="6.07034">
        <ele>206.80000305176</ele>
        <time>2015-12-16T13:08:28Z</time>
      </trkpt>
      <trkpt lat="43.41485" lon="6.0703">
        <ele>207</ele>
        <time>2015-12-16T13:08:29Z</time>
      </trkpt>
      <trkpt lat="43.41488" lon="6.07025">
        <ele>207.19999694824</ele>
        <time>2015-12-16T13:08:30Z</time>
      </trkpt>
      <trkpt lat="43.4149" lon="6.07015">
        <ele>207</ele>
        <time>2015-12-16T13:08:32Z</time>
      </trkpt>
      <trkpt lat="43.41494" lon="6.06999">
        <ele>207.19999694824</ele>
        <time>2015-12-16T13:08:35Z</time>
      </trkpt>
      <trkpt lat="43.41494" lon="6.06993">
        <ele>207.39999389648</ele>
        <time>2015-12-16T13:08:36Z</time>
      </trkpt>
      <trkpt lat="43.41493" lon="6.06981">
        <ele>207.60000610352</ele>
        <time>2015-12-16T13:08:38Z</time>
      </trkpt>
      <trkpt lat="43.41491" lon="6.06976">
        <ele>207.80000305176</ele>
        <time>2015-12-16T13:08:39Z</time>
      </trkpt>
      <trkpt lat="43.41489" lon="6.06971">
        <ele>208</ele>
        <time>2015-12-16T13:08:40Z</time>
      </trkpt>
      <trkpt lat="43.41484" lon="6.0696">
        <ele>208.19999694824</ele>
        <time>2015-12-16T13:08:42Z</time>
      </trkpt>
      <trkpt lat="43.41478" lon="6.06951">
        <ele>208.39999389648</ele>
        <time>2015-12-16T13:08:44Z</time>
      </trkpt>
      <trkpt lat="43.41474" lon="6.06943">
        <ele>208.60000610352</ele>
        <time>2015-12-16T13:08:46Z</time>
      </trkpt>
      <trkpt lat="43.4147" lon="6.06935">
        <ele>208.80000305176</ele>
        <time>2015-12-16T13:08:48Z</time>
      </trkpt>
      <trkpt lat="43.41467" lon="6.06929">
        <ele>209</ele>
        <time>2015-12-16T13:08:50Z</time>
      </trkpt>
      <trkpt lat="43.41467" lon="6.06926">
        <ele>209</ele>
        <time>2015-12-16T13:08:51Z</time>
      </trkpt>
      <trkpt lat="43.41468" lon="6.06924">
        <ele>209.19999694824</ele>
        <time>2015-12-16T13:08:52Z</time>
      </trkpt>
      <trkpt lat="43.4147" lon="6.06923">
        <ele>209.39999389648</ele>
        <time>2015-12-16T13:08:53Z</time>
      </trkpt>
      <trkpt lat="43.41471" lon="6.06921">
        <ele>209.39999389648</ele>
        <time>2015-12-16T13:08:54Z</time>
      </trkpt>
      <trkpt lat="43.41473" lon="6.06918">
        <ele>209.19999694824</ele>
        <time>2015-12-16T13:08:56Z</time>
      </trkpt>
      <trkpt lat="43.41474" lon="6.06913">
        <ele>209.19999694824</ele>
        <time>2015-12-16T13:08:58Z</time>
      </trkpt>
      <trkpt lat="43.41476" lon="6.06907">
        <ele>209.19999694824</ele>
        <time>2015-12-16T13:09:00Z</time>
      </trkpt>
      <trkpt lat="43.41476" lon="6.06901">
        <ele>209.39999389648</ele>
        <time>2015-12-16T13:09:02Z</time>
      </trkpt>
      <trkpt lat="43.41475" lon="6.06895">
        <ele>209.39999389648</ele>
        <time>2015-12-16T13:09:04Z</time>
      </trkpt>
      <trkpt lat="43.41475" lon="6.0689">
        <ele>209.19999694824</ele>
        <time>2015-12-16T13:09:06Z</time>
      </trkpt>
      <trkpt lat="43.41476" lon="6.06885">
        <ele>209</ele>
        <time>2015-12-16T13:09:08Z</time>
      </trkpt>
      <trkpt lat="43.41477" lon="6.06875">
        <ele>209.39999389648</ele>
        <time>2015-12-16T13:09:11Z</time>
      </trkpt>
      <trkpt lat="43.41476" lon="6.06871">
        <ele>209.39999389648</ele>
        <time>2015-12-16T13:09:12Z</time>
      </trkpt>
      <trkpt lat="43.41475" lon="6.06864">
        <ele>209.60000610352</ele>
        <time>2015-12-16T13:09:14Z</time>
      </trkpt>
      <trkpt lat="43.41475" lon="6.06856">
        <ele>209.60000610352</ele>
        <time>2015-12-16T13:09:16Z</time>
      </trkpt>
      <trkpt lat="43.41475" lon="6.06852">
        <ele>209.39999389648</ele>
        <time>2015-12-16T13:09:17Z</time>
      </trkpt>
      <trkpt lat="43.41477" lon="6.0684">
        <ele>209.19999694824</ele>
        <time>2015-12-16T13:09:20Z</time>
      </trkpt>
      <trkpt lat="43.41478" lon="6.06833">
        <ele>209</ele>
        <time>2015-12-16T13:09:22Z</time>
      </trkpt>
      <trkpt lat="43.41482" lon="6.06825">
        <ele>208.80000305176</ele>
        <time>2015-12-16T13:09:24Z</time>
      </trkpt>
      <trkpt lat="43.41485" lon="6.06816">
        <ele>208.60000610352</ele>
        <time>2015-12-16T13:09:26Z</time>
      </trkpt>
      <trkpt lat="43.41488" lon="6.06806">
        <ele>208.80000305176</ele>
        <time>2015-12-16T13:09:28Z</time>
      </trkpt>
      <trkpt lat="43.4149" lon="6.06797">
        <ele>209</ele>
        <time>2015-12-16T13:09:30Z</time>
      </trkpt>
      <trkpt lat="43.41492" lon="6.06788">
        <ele>209.39999389648</ele>
        <time>2015-12-16T13:09:32Z</time>
      </trkpt>
      <trkpt lat="43.41494" lon="6.06779">
        <ele>209.60000610352</ele>
        <time>2015-12-16T13:09:34Z</time>
      </trkpt>
      <trkpt lat="43.41494" lon="6.06775">
        <ele>209.60000610352</ele>
        <time>2015-12-16T13:09:35Z</time>
      </trkpt>
      <trkpt lat="43.41495" lon="6.0677">
        <ele>209.80000305176</ele>
        <time>2015-12-16T13:09:36Z</time>
      </trkpt>
      <trkpt lat="43.41497" lon="6.06757">
        <ele>210</ele>
        <time>2015-12-16T13:09:39Z</time>
      </trkpt>
      <trkpt lat="43.41497" lon="6.06752">
        <ele>210</ele>
        <time>2015-12-16T13:09:40Z</time>
      </trkpt>
      <trkpt lat="43.41498" lon="6.06734">
        <ele>210.19999694824</ele>
        <time>2015-12-16T13:09:44Z</time>
      </trkpt>
      <trkpt lat="43.41499" lon="6.06726">
        <ele>210.80000305176</ele>
        <time>2015-12-16T13:09:46Z</time>
      </trkpt>
      <trkpt lat="43.41499" lon="6.06717">
        <ele>211</ele>
        <time>2015-12-16T13:09:48Z</time>
      </trkpt>
      <trkpt lat="43.41499" lon="6.06709">
        <ele>211.39999389648</ele>
        <time>2015-12-16T13:09:50Z</time>
      </trkpt>
      <trkpt lat="43.415" lon="6.067">
        <ele>211.39999389648</ele>
        <time>2015-12-16T13:09:52Z</time>
      </trkpt>
      <trkpt lat="43.41501" lon="6.06691">
        <ele>211.60000610352</ele>
        <time>2015-12-16T13:09:54Z</time>
      </trkpt>
      <trkpt lat="43.41501" lon="6.06687">
        <ele>211.80000305176</ele>
        <time>2015-12-16T13:09:55Z</time>
      </trkpt>
      <trkpt lat="43.41501" lon="6.06682">
        <ele>211.60000610352</ele>
        <time>2015-12-16T13:09:56Z</time>
      </trkpt>
      <trkpt lat="43.41502" lon="6.06678">
        <ele>211.80000305176</ele>
        <time>2015-12-16T13:09:57Z</time>
      </trkpt>
      <trkpt lat="43.41502" lon="6.06672">
        <ele>212</ele>
        <time>2015-12-16T13:09:58Z</time>
      </trkpt>
      <trkpt lat="43.41503" lon="6.06663">
        <ele>212.39999389648</ele>
        <time>2015-12-16T13:10:00Z</time>
      </trkpt>
      <trkpt lat="43.41505" lon="6.06653">
        <ele>212</ele>
        <time>2015-12-16T13:10:02Z</time>
      </trkpt>
      <trkpt lat="43.41508" lon="6.06634">
        <ele>212.19999694824</ele>
        <time>2015-12-16T13:10:06Z</time>
      </trkpt>
      <trkpt lat="43.4151" lon="6.06624">
        <ele>212.19999694824</ele>
        <time>2015-12-16T13:10:08Z</time>
      </trkpt>
      <trkpt lat="43.41512" lon="6.06614">
        <ele>212.39999389648</ele>
        <time>2015-12-16T13:10:10Z</time>
      </trkpt>
      <trkpt lat="43.41513" lon="6.06603">
        <ele>212.39999389648</ele>
        <time>2015-12-16T13:10:12Z</time>
      </trkpt>
      <trkpt lat="43.41515" lon="6.06591">
        <ele>212.19999694824</ele>
        <time>2015-12-16T13:10:14Z</time>
      </trkpt>
      <trkpt lat="43.41516" lon="6.0658">
        <ele>212.60000610352</ele>
        <time>2015-12-16T13:10:16Z</time>
      </trkpt>
      <trkpt lat="43.41519" lon="6.06569">
        <ele>212.80000305176</ele>
        <time>2015-12-16T13:10:18Z</time>
      </trkpt>
      <trkpt lat="43.41522" lon="6.06546">
        <ele>212.80000305176</ele>
        <time>2015-12-16T13:10:22Z</time>
      </trkpt>
      <trkpt lat="43.41524" lon="6.06535">
        <ele>212.80000305176</ele>
        <time>2015-12-16T13:10:24Z</time>
      </trkpt>
      <trkpt lat="43.41526" lon="6.06524">
        <ele>212.60000610352</ele>
        <time>2015-12-16T13:10:26Z</time>
      </trkpt>
      <trkpt lat="43.41529" lon="6.06514">
        <ele>212.60000610352</ele>
        <time>2015-12-16T13:10:28Z</time>
      </trkpt>
      <trkpt lat="43.41534" lon="6.06505">
        <ele>213</ele>
        <time>2015-12-16T13:10:30Z</time>
      </trkpt>
      <trkpt lat="43.41539" lon="6.06496">
        <ele>213.60000610352</ele>
        <time>2015-12-16T13:10:32Z</time>
      </trkpt>
      <trkpt lat="43.41543" lon="6.06488">
        <ele>214.19999694824</ele>
        <time>2015-12-16T13:10:34Z</time>
      </trkpt>
      <trkpt lat="43.41547" lon="6.06479">
        <ele>214.39999389648</ele>
        <time>2015-12-16T13:10:36Z</time>
      </trkpt>
      <trkpt lat="43.41548" lon="6.06473">
        <ele>214.19999694824</ele>
        <time>2015-12-16T13:10:37Z</time>
      </trkpt>
      <trkpt lat="43.41548" lon="6.06467">
        <ele>214.19999694824</ele>
        <time>2015-12-16T13:10:38Z</time>
      </trkpt>
      <trkpt lat="43.41546" lon="6.06454">
        <ele>214</ele>
        <time>2015-12-16T13:10:40Z</time>
      </trkpt>
      <trkpt lat="43.41546" lon="6.06448">
        <ele>214.19999694824</ele>
        <time>2015-12-16T13:10:41Z</time>
      </trkpt>
      <trkpt lat="43.41547" lon="6.06442">
        <ele>214.60000610352</ele>
        <time>2015-12-16T13:10:42Z</time>
      </trkpt>
      <trkpt lat="43.41549" lon="6.06425">
        <ele>215</ele>
        <time>2015-12-16T13:10:45Z</time>
      </trkpt>
      <trkpt lat="43.41551" lon="6.06413">
        <ele>215.19999694824</ele>
        <time>2015-12-16T13:10:47Z</time>
      </trkpt>
      <trkpt lat="43.41552" lon="6.06407">
        <ele>215.60000610352</ele>
        <time>2015-12-16T13:10:48Z</time>
      </trkpt>
      <trkpt lat="43.41555" lon="6.06391">
        <ele>216.60000610352</ele>
        <time>2015-12-16T13:10:51Z</time>
      </trkpt>
      <trkpt lat="43.41556" lon="6.06385">
        <ele>216.80000305176</ele>
        <time>2015-12-16T13:10:52Z</time>
      </trkpt>
      <trkpt lat="43.41558" lon="6.06374">
        <ele>217.39999389648</ele>
        <time>2015-12-16T13:10:54Z</time>
      </trkpt>
      <trkpt lat="43.41559" lon="6.06368">
        <ele>217.80000305176</ele>
        <time>2015-12-16T13:10:55Z</time>
      </trkpt>
      <trkpt lat="43.4156" lon="6.06363">
        <ele>218.19999694824</ele>
        <time>2015-12-16T13:10:56Z</time>
      </trkpt>
      <trkpt lat="43.41563" lon="6.06353">
        <ele>218.80000305176</ele>
        <time>2015-12-16T13:10:58Z</time>
      </trkpt>
      <trkpt lat="43.41569" lon="6.06342">
        <ele>219.39999389648</ele>
        <time>2015-12-16T13:11:01Z</time>
      </trkpt>
      <trkpt lat="43.41571" lon="6.06339">
        <ele>219.80000305176</ele>
        <time>2015-12-16T13:11:02Z</time>
      </trkpt>
      <trkpt lat="43.41575" lon="6.06333">
        <ele>220</ele>
        <time>2015-12-16T13:11:04Z</time>
      </trkpt>
      <trkpt lat="43.41577" lon="6.0633">
        <ele>220.19999694824</ele>
        <time>2015-12-16T13:11:05Z</time>
      </trkpt>
      <trkpt lat="43.41579" lon="6.06327">
        <ele>220.39999389648</ele>
        <time>2015-12-16T13:11:06Z</time>
      </trkpt>
      <trkpt lat="43.41582" lon="6.06321">
        <ele>220.80000305176</ele>
        <time>2015-12-16T13:11:08Z</time>
      </trkpt>
      <trkpt lat="43.41584" lon="6.06318">
        <ele>221</ele>
        <time>2015-12-16T13:11:09Z</time>
      </trkpt>
      <trkpt lat="43.41585" lon="6.06314">
        <ele>221</ele>
        <time>2015-12-16T13:11:10Z</time>
      </trkpt>
      <trkpt lat="43.41587" lon="6.06306">
        <ele>221.39999389648</ele>
        <time>2015-12-16T13:11:12Z</time>
      </trkpt>
      <trkpt lat="43.41588" lon="6.06298">
        <ele>221.80000305176</ele>
        <time>2015-12-16T13:11:14Z</time>
      </trkpt>
      <trkpt lat="43.41588" lon="6.06294">
        <ele>221.80000305176</ele>
        <time>2015-12-16T13:11:15Z</time>
      </trkpt>
      <trkpt lat="43.41587" lon="6.06289">
        <ele>222</ele>
        <time>2015-12-16T13:11:16Z</time>
      </trkpt>
      <trkpt lat="43.41587" lon="6.06281">
        <ele>222.19999694824</ele>
        <time>2015-12-16T13:11:18Z</time>
      </trkpt>
      <trkpt lat="43.41587" lon="6.06274">
        <ele>222.39999389648</ele>
        <time>2015-12-16T13:11:20Z</time>
      </trkpt>
      <trkpt lat="43.4159" lon="6.06266">
        <ele>222.80000305176</ele>
        <time>2015-12-16T13:11:22Z</time>
      </trkpt>
      <trkpt lat="43.41594" lon="6.06261">
        <ele>223.19999694824</ele>
        <time>2015-12-16T13:11:24Z</time>
      </trkpt>
      <trkpt lat="43.41597" lon="6.06257">
        <ele>223.19999694824</ele>
        <time>2015-12-16T13:11:26Z</time>
      </trkpt>
      <trkpt lat="43.41599" lon="6.06257">
        <ele>223.39999389648</ele>
        <time>2015-12-16T13:11:28Z</time>
      </trkpt>
      <trkpt lat="43.41598" lon="6.06257">
        <ele>223.39999389648</ele>
        <time>2015-12-16T13:11:30Z</time>
      </trkpt>
      <trkpt lat="43.41599" lon="6.06256">
        <ele>223.19999694824</ele>
        <time>2015-12-16T13:11:32Z</time>
      </trkpt>
      <trkpt lat="43.41599" lon="6.06256">
        <ele>223.19999694824</ele>
        <time>2015-12-16T13:11:36Z</time>
      </trkpt>
      <trkpt lat="43.41599" lon="6.06256">
        <ele>223.19999694824</ele>
        <time>2015-12-16T13:11:38Z</time>
      </trkpt>
      <trkpt lat="43.41599" lon="6.06256">
        <ele>223.19999694824</ele>
        <time>2015-12-16T13:11:42Z</time>
      </trkpt>
      <trkpt lat="43.416" lon="6.06256">
        <ele>223.19999694824</ele>
        <time>2015-12-16T13:11:43Z</time>
      </trkpt>
      <trkpt lat="43.41601" lon="6.06254">
        <ele>223.19999694824</ele>
        <time>2015-12-16T13:11:44Z</time>
      </trkpt>
      <trkpt lat="43.41603" lon="6.06248">
        <ele>223.39999389648</ele>
        <time>2015-12-16T13:11:46Z</time>
      </trkpt>
      <trkpt lat="43.41604" lon="6.06244">
        <ele>223.19999694824</ele>
        <time>2015-12-16T13:11:47Z</time>
      </trkpt>
      <trkpt lat="43.41605" lon="6.0624">
        <ele>223.19999694824</ele>
        <time>2015-12-16T13:11:48Z</time>
      </trkpt>
      <trkpt lat="43.41611" lon="6.06237">
        <ele>223.39999389648</ele>
        <time>2015-12-16T13:11:50Z</time>
      </trkpt>
      <trkpt lat="43.41615" lon="6.06236">
        <ele>224.19999694824</ele>
        <time>2015-12-16T13:11:52Z</time>
      </trkpt>
      <trkpt lat="43.41618" lon="6.06235">
        <ele>224.19999694824</ele>
        <time>2015-12-16T13:11:53Z</time>
      </trkpt>
      <trkpt lat="43.41621" lon="6.06235">
        <ele>224.19999694824</ele>
        <time>2015-12-16T13:11:54Z</time>
      </trkpt>
      <trkpt lat="43.41625" lon="6.06234">
        <ele>224.39999389648</ele>
        <time>2015-12-16T13:11:56Z</time>
      </trkpt>
      <trkpt lat="43.4163" lon="6.06236">
        <ele>224.80000305176</ele>
        <time>2015-12-16T13:11:58Z</time>
      </trkpt>
      <trkpt lat="43.41635" lon="6.06238">
        <ele>224.80000305176</ele>
        <time>2015-12-16T13:12:00Z</time>
      </trkpt>
      <trkpt lat="43.4164" lon="6.06241">
        <ele>225</ele>
        <time>2015-12-16T13:12:02Z</time>
      </trkpt>
      <trkpt lat="43.4165" lon="6.06246">
        <ele>225.39999389648</ele>
        <time>2015-12-16T13:12:06Z</time>
      </trkpt>
      <trkpt lat="43.41655" lon="6.06248">
        <ele>225.80000305176</ele>
        <time>2015-12-16T13:12:08Z</time>
      </trkpt>
      <trkpt lat="43.41667" lon="6.06252">
        <ele>226.19999694824</ele>
        <time>2015-12-16T13:12:12Z</time>
      </trkpt>
      <trkpt lat="43.41674" lon="6.06253">
        <ele>226.39999389648</ele>
        <time>2015-12-16T13:12:14Z</time>
      </trkpt>
      <trkpt lat="43.41677" lon="6.06253">
        <ele>226.39999389648</ele>
        <time>2015-12-16T13:12:15Z</time>
      </trkpt>
      <trkpt lat="43.41681" lon="6.06254">
        <ele>226.19999694824</ele>
        <time>2015-12-16T13:12:16Z</time>
      </trkpt>
      <trkpt lat="43.41687" lon="6.06254">
        <ele>225.80000305176</ele>
        <time>2015-12-16T13:12:18Z</time>
      </trkpt>
      <trkpt lat="43.41695" lon="6.06254">
        <ele>225.80000305176</ele>
        <time>2015-12-16T13:12:20Z</time>
      </trkpt>
      <trkpt lat="43.41702" lon="6.06254">
        <ele>226.19999694824</ele>
        <time>2015-12-16T13:12:22Z</time>
      </trkpt>
      <trkpt lat="43.4171" lon="6.06254">
        <ele>226.19999694824</ele>
        <time>2015-12-16T13:12:24Z</time>
      </trkpt>
      <trkpt lat="43.41717" lon="6.06253">
        <ele>225.80000305176</ele>
        <time>2015-12-16T13:12:26Z</time>
      </trkpt>
      <trkpt lat="43.41731" lon="6.06253">
        <ele>226.19999694824</ele>
        <time>2015-12-16T13:12:30Z</time>
      </trkpt>
      <trkpt lat="43.41744" lon="6.06255">
        <ele>226.80000305176</ele>
        <time>2015-12-16T13:12:34Z</time>
      </trkpt>
      <trkpt lat="43.4175" lon="6.06257">
        <ele>227</ele>
        <time>2015-12-16T13:12:36Z</time>
      </trkpt>
      <trkpt lat="43.41755" lon="6.06258">
        <ele>227.80000305176</ele>
        <time>2015-12-16T13:12:38Z</time>
      </trkpt>
      <trkpt lat="43.41761" lon="6.06261">
        <ele>228.19999694824</ele>
        <time>2015-12-16T13:12:40Z</time>
      </trkpt>
      <trkpt lat="43.41766" lon="6.06264">
        <ele>228.60000610352</ele>
        <time>2015-12-16T13:12:42Z</time>
      </trkpt>
      <trkpt lat="43.41772" lon="6.06267">
        <ele>229.19999694824</ele>
        <time>2015-12-16T13:12:44Z</time>
      </trkpt>
      <trkpt lat="43.41777" lon="6.06271">
        <ele>229.39999389648</ele>
        <time>2015-12-16T13:12:46Z</time>
      </trkpt>
      <trkpt lat="43.41784" lon="6.06276">
        <ele>229.80000305176</ele>
        <time>2015-12-16T13:12:48Z</time>
      </trkpt>
      <trkpt lat="43.41789" lon="6.06281">
        <ele>230</ele>
        <time>2015-12-16T13:12:50Z</time>
      </trkpt>
      <trkpt lat="43.41794" lon="6.06286">
        <ele>230.19999694824</ele>
        <time>2015-12-16T13:12:52Z</time>
      </trkpt>
      <trkpt lat="43.41796" lon="6.06288">
        <ele>230.39999389648</ele>
        <time>2015-12-16T13:12:53Z</time>
      </trkpt>
      <trkpt lat="43.41799" lon="6.0629">
        <ele>230.60000610352</ele>
        <time>2015-12-16T13:12:54Z</time>
      </trkpt>
      <trkpt lat="43.41805" lon="6.06293">
        <ele>231</ele>
        <time>2015-12-16T13:12:56Z</time>
      </trkpt>
      <trkpt lat="43.41811" lon="6.06295">
        <ele>231.39999389648</ele>
        <time>2015-12-16T13:12:58Z</time>
      </trkpt>
      <trkpt lat="43.41817" lon="6.06296">
        <ele>231.80000305176</ele>
        <time>2015-12-16T13:13:00Z</time>
      </trkpt>
      <trkpt lat="43.41824" lon="6.06296">
        <ele>232</ele>
        <time>2015-12-16T13:13:02Z</time>
      </trkpt>
      <trkpt lat="43.4183" lon="6.06296">
        <ele>232</ele>
        <time>2015-12-16T13:13:04Z</time>
      </trkpt>
      <trkpt lat="43.41835" lon="6.06296">
        <ele>232.39999389648</ele>
        <time>2015-12-16T13:13:06Z</time>
      </trkpt>
      <trkpt lat="43.41838" lon="6.06296">
        <ele>232.60000610352</ele>
        <time>2015-12-16T13:13:07Z</time>
      </trkpt>
      <trkpt lat="43.41842" lon="6.06295">
        <ele>232.80000305176</ele>
        <time>2015-12-16T13:13:08Z</time>
      </trkpt>
      <trkpt lat="43.41847" lon="6.06295">
        <ele>233.19999694824</ele>
        <time>2015-12-16T13:13:10Z</time>
      </trkpt>
      <trkpt lat="43.41853" lon="6.06295">
        <ele>233.39999389648</ele>
        <time>2015-12-16T13:13:12Z</time>
      </trkpt>
      <trkpt lat="43.41858" lon="6.06295">
        <ele>233.80000305176</ele>
        <time>2015-12-16T13:13:14Z</time>
      </trkpt>
      <trkpt lat="43.41864" lon="6.06295">
        <ele>234.19999694824</ele>
        <time>2015-12-16T13:13:16Z</time>
      </trkpt>
      <trkpt lat="43.4187" lon="6.06295">
        <ele>234.39999389648</ele>
        <time>2015-12-16T13:13:18Z</time>
      </trkpt>
      <trkpt lat="43.41882" lon="6.06296">
        <ele>235.39999389648</ele>
        <time>2015-12-16T13:13:22Z</time>
      </trkpt>
      <trkpt lat="43.41887" lon="6.06296">
        <ele>235.60000610352</ele>
        <time>2015-12-16T13:13:24Z</time>
      </trkpt>
      <trkpt lat="43.41893" lon="6.06296">
        <ele>236</ele>
        <time>2015-12-16T13:13:26Z</time>
      </trkpt>
      <trkpt lat="43.41903" lon="6.06296">
        <ele>237</ele>
        <time>2015-12-16T13:13:30Z</time>
      </trkpt>
      <trkpt lat="43.41905" lon="6.06296">
        <ele>237.19999694824</ele>
        <time>2015-12-16T13:13:31Z</time>
      </trkpt>
      <trkpt lat="43.41908" lon="6.06296">
        <ele>237.19999694824</ele>
        <time>2015-12-16T13:13:32Z</time>
      </trkpt>
      <trkpt lat="43.41912" lon="6.06296">
        <ele>237.80000305176</ele>
        <time>2015-12-16T13:13:34Z</time>
      </trkpt>
      <trkpt lat="43.41917" lon="6.06295">
        <ele>238.19999694824</ele>
        <time>2015-12-16T13:13:36Z</time>
      </trkpt>
      <trkpt lat="43.41922" lon="6.06295">
        <ele>238.60000610352</ele>
        <time>2015-12-16T13:13:38Z</time>
      </trkpt>
      <trkpt lat="43.41927" lon="6.06294">
        <ele>238.80000305176</ele>
        <time>2015-12-16T13:13:40Z</time>
      </trkpt>
      <trkpt lat="43.41932" lon="6.06293">
        <ele>238.80000305176</ele>
        <time>2015-12-16T13:13:42Z</time>
      </trkpt>
      <trkpt lat="43.41937" lon="6.06291">
        <ele>239</ele>
        <time>2015-12-16T13:13:44Z</time>
      </trkpt>
      <trkpt lat="43.41943" lon="6.0629">
        <ele>239</ele>
        <time>2015-12-16T13:13:46Z</time>
      </trkpt>
      <trkpt lat="43.41948" lon="6.06288">
        <ele>239</ele>
        <time>2015-12-16T13:13:48Z</time>
      </trkpt>
      <trkpt lat="43.41953" lon="6.06286">
        <ele>239.39999389648</ele>
        <time>2015-12-16T13:13:50Z</time>
      </trkpt>
      <trkpt lat="43.41957" lon="6.06285">
        <ele>239.80000305176</ele>
        <time>2015-12-16T13:13:52Z</time>
      </trkpt>
      <trkpt lat="43.41967" lon="6.06283">
        <ele>240.19999694824</ele>
        <time>2015-12-16T13:13:56Z</time>
      </trkpt>
      <trkpt lat="43.41969" lon="6.06282">
        <ele>240.39999389648</ele>
        <time>2015-12-16T13:13:57Z</time>
      </trkpt>
      <trkpt lat="43.41971" lon="6.06282">
        <ele>240.39999389648</ele>
        <time>2015-12-16T13:13:58Z</time>
      </trkpt>
      <trkpt lat="43.41976" lon="6.0628">
        <ele>240.80000305176</ele>
        <time>2015-12-16T13:14:00Z</time>
      </trkpt>
      <trkpt lat="43.41981" lon="6.06278">
        <ele>241.60000610352</ele>
        <time>2015-12-16T13:14:02Z</time>
      </trkpt>
      <trkpt lat="43.41983" lon="6.06277">
        <ele>241.80000305176</ele>
        <time>2015-12-16T13:14:03Z</time>
      </trkpt>
      <trkpt lat="43.41985" lon="6.06276">
        <ele>242.19999694824</ele>
        <time>2015-12-16T13:14:04Z</time>
      </trkpt>
      <trkpt lat="43.41991" lon="6.06274">
        <ele>243</ele>
        <time>2015-12-16T13:14:06Z</time>
      </trkpt>
      <trkpt lat="43.41993" lon="6.06273">
        <ele>243.19999694824</ele>
        <time>2015-12-16T13:14:07Z</time>
      </trkpt>
      <trkpt lat="43.41996" lon="6.06271">
        <ele>243.60000610352</ele>
        <time>2015-12-16T13:14:08Z</time>
      </trkpt>
      <trkpt lat="43.42001" lon="6.06269">
        <ele>244.19999694824</ele>
        <time>2015-12-16T13:14:10Z</time>
      </trkpt>
      <trkpt lat="43.42003" lon="6.06269">
        <ele>244.39999389648</ele>
        <time>2015-12-16T13:14:11Z</time>
      </trkpt>
      <trkpt lat="43.4201" lon="6.06266">
        <ele>245.39999389648</ele>
        <time>2015-12-16T13:14:14Z</time>
      </trkpt>
      <trkpt lat="43.42014" lon="6.06264">
        <ele>245.80000305176</ele>
        <time>2015-12-16T13:14:16Z</time>
      </trkpt>
      <trkpt lat="43.42019" lon="6.06263">
        <ele>246.39999389648</ele>
        <time>2015-12-16T13:14:18Z</time>
      </trkpt>
      <trkpt lat="43.42022" lon="6.06262">
        <ele>247</ele>
        <time>2015-12-16T13:14:20Z</time>
      </trkpt>
      <trkpt lat="43.42028" lon="6.0626">
        <ele>247.60000610352</ele>
        <time>2015-12-16T13:14:23Z</time>
      </trkpt>
      <trkpt lat="43.42031" lon="6.0626">
        <ele>247.80000305176</ele>
        <time>2015-12-16T13:14:24Z</time>
      </trkpt>
      <trkpt lat="43.42035" lon="6.06259">
        <ele>248.39999389648</ele>
        <time>2015-12-16T13:14:26Z</time>
      </trkpt>
      <trkpt lat="43.42036" lon="6.06258">
        <ele>248.60000610352</ele>
        <time>2015-12-16T13:14:27Z</time>
      </trkpt>
      <trkpt lat="43.42038" lon="6.06257">
        <ele>249</ele>
        <time>2015-12-16T13:14:28Z</time>
      </trkpt>
      <trkpt lat="43.42042" lon="6.06256">
        <ele>249.60000610352</ele>
        <time>2015-12-16T13:14:30Z</time>
      </trkpt>
      <trkpt lat="43.42045" lon="6.06255">
        <ele>250</ele>
        <time>2015-12-16T13:14:32Z</time>
      </trkpt>
      <trkpt lat="43.42048" lon="6.06253">
        <ele>250.19999694824</ele>
        <time>2015-12-16T13:14:34Z</time>
      </trkpt>
      <trkpt lat="43.42052" lon="6.06251">
        <ele>250.60000610352</ele>
        <time>2015-12-16T13:14:36Z</time>
      </trkpt>
      <trkpt lat="43.42055" lon="6.0625">
        <ele>251.19999694824</ele>
        <time>2015-12-16T13:14:38Z</time>
      </trkpt>
      <trkpt lat="43.42059" lon="6.06249">
        <ele>251.60000610352</ele>
        <time>2015-12-16T13:14:40Z</time>
      </trkpt>
      <trkpt lat="43.42062" lon="6.06247">
        <ele>252.19999694824</ele>
        <time>2015-12-16T13:14:42Z</time>
      </trkpt>
      <trkpt lat="43.42067" lon="6.06245">
        <ele>252.60000610352</ele>
        <time>2015-12-16T13:14:44Z</time>
      </trkpt>
      <trkpt lat="43.4207" lon="6.06244">
        <ele>253</ele>
        <time>2015-12-16T13:14:46Z</time>
      </trkpt>
      <trkpt lat="43.42077" lon="6.06241">
        <ele>253.80000305176</ele>
        <time>2015-12-16T13:14:50Z</time>
      </trkpt>
      <trkpt lat="43.4208" lon="6.0624">
        <ele>254.19999694824</ele>
        <time>2015-12-16T13:14:52Z</time>
      </trkpt>
      <trkpt lat="43.42083" lon="6.06239">
        <ele>254.60000610352</ele>
        <time>2015-12-16T13:14:54Z</time>
      </trkpt>
      <trkpt lat="43.42086" lon="6.06238">
        <ele>255</ele>
        <time>2015-12-16T13:14:56Z</time>
      </trkpt>
      <trkpt lat="43.42089" lon="6.06238">
        <ele>255.39999389648</ele>
        <time>2015-12-16T13:14:58Z</time>
      </trkpt>
      <trkpt lat="43.42092" lon="6.06237">
        <ele>255.60000610352</ele>
        <time>2015-12-16T13:15:00Z</time>
      </trkpt>
      <trkpt lat="43.42096" lon="6.06236">
        <ele>256</ele>
        <time>2015-12-16T13:15:03Z</time>
      </trkpt>
      <trkpt lat="43.42097" lon="6.06235">
        <ele>256.20001220703</ele>
        <time>2015-12-16T13:15:04Z</time>
      </trkpt>
      <trkpt lat="43.42101" lon="6.06235">
        <ele>256.39999389648</ele>
        <time>2015-12-16T13:15:06Z</time>
      </trkpt>
      <trkpt lat="43.42104" lon="6.06235">
        <ele>256.60000610352</ele>
        <time>2015-12-16T13:15:08Z</time>
      </trkpt>
      <trkpt lat="43.42109" lon="6.06232">
        <ele>257.39999389648</ele>
        <time>2015-12-16T13:15:12Z</time>
      </trkpt>
      <trkpt lat="43.42112" lon="6.06232">
        <ele>257.79998779297</ele>
        <time>2015-12-16T13:15:14Z</time>
      </trkpt>
      <trkpt lat="43.42115" lon="6.06232">
        <ele>257.79998779297</ele>
        <time>2015-12-16T13:15:16Z</time>
      </trkpt>
      <trkpt lat="43.42119" lon="6.0623">
        <ele>258</ele>
        <time>2015-12-16T13:15:18Z</time>
      </trkpt>
      <trkpt lat="43.42122" lon="6.06229">
        <ele>258.20001220703</ele>
        <time>2015-12-16T13:15:20Z</time>
      </trkpt>
      <trkpt lat="43.42125" lon="6.06228">
        <ele>258.39999389648</ele>
        <time>2015-12-16T13:15:22Z</time>
      </trkpt>
      <trkpt lat="43.42128" lon="6.06226">
        <ele>258.39999389648</ele>
        <time>2015-12-16T13:15:24Z</time>
      </trkpt>
      <trkpt lat="43.42134" lon="6.06224">
        <ele>259</ele>
        <time>2015-12-16T13:15:28Z</time>
      </trkpt>
      <trkpt lat="43.42137" lon="6.06223">
        <ele>259.20001220703</ele>
        <time>2015-12-16T13:15:30Z</time>
      </trkpt>
      <trkpt lat="43.4214" lon="6.06222">
        <ele>259.20001220703</ele>
        <time>2015-12-16T13:15:32Z</time>
      </trkpt>
      <trkpt lat="43.42143" lon="6.06222">
        <ele>259.39999389648</ele>
        <time>2015-12-16T13:15:34Z</time>
      </trkpt>
      <trkpt lat="43.42147" lon="6.06221">
        <ele>259.60000610352</ele>
        <time>2015-12-16T13:15:36Z</time>
      </trkpt>
      <trkpt lat="43.42149" lon="6.06219">
        <ele>259.60000610352</ele>
        <time>2015-12-16T13:15:38Z</time>
      </trkpt>
      <trkpt lat="43.4215" lon="6.06216">
        <ele>259.79998779297</ele>
        <time>2015-12-16T13:15:40Z</time>
      </trkpt>
      <trkpt lat="43.42151" lon="6.06213">
        <ele>259.79998779297</ele>
        <time>2015-12-16T13:15:42Z</time>
      </trkpt>
      <trkpt lat="43.42153" lon="6.06211">
        <ele>259.79998779297</ele>
        <time>2015-12-16T13:15:44Z</time>
      </trkpt>
      <trkpt lat="43.42154" lon="6.06209">
        <ele>259.79998779297</ele>
        <time>2015-12-16T13:15:46Z</time>
      </trkpt>
      <trkpt lat="43.42154" lon="6.06209">
        <ele>260</ele>
        <time>2015-12-16T13:15:48Z</time>
      </trkpt>
      <trkpt lat="43.42154" lon="6.06209">
        <ele>260</ele>
        <time>2015-12-16T13:15:50Z</time>
      </trkpt>
      <trkpt lat="43.42154" lon="6.06209">
        <ele>260.20001220703</ele>
        <time>2015-12-16T13:15:52Z</time>
      </trkpt>
      <trkpt lat="43.42154" lon="6.06209">
        <ele>260</ele>
        <time>2015-12-16T13:15:57Z</time>
      </trkpt>
      <trkpt lat="43.42154" lon="6.06209">
        <ele>259.79998779297</ele>
        <time>2015-12-16T13:16:10Z</time>
      </trkpt>
      <trkpt lat="43.42154" lon="6.06209">
        <ele>260</ele>
        <time>2015-12-16T13:16:18Z</time>
      </trkpt>
      <trkpt lat="43.42154" lon="6.06209">
        <ele>259.79998779297</ele>
        <time>2015-12-16T13:16:24Z</time>
      </trkpt>
      <trkpt lat="43.42154" lon="6.06209">
        <ele>260</ele>
        <time>2015-12-16T13:16:28Z</time>
      </trkpt>
      <trkpt lat="43.42154" lon="6.06209">
        <ele>259.79998779297</ele>
        <time>2015-12-16T13:16:46Z</time>
      </trkpt>
      <trkpt lat="43.42154" lon="6.06209">
        <ele>260</ele>
        <time>2015-12-16T13:16:50Z</time>
      </trkpt>
      <trkpt lat="43.42154" lon="6.06209">
        <ele>259.79998779297</ele>
        <time>2015-12-16T13:16:52Z</time>
      </trkpt>
      <trkpt lat="43.42152" lon="6.06207">
        <ele>260</ele>
        <time>2015-12-16T13:16:56Z</time>
      </trkpt>
      <trkpt lat="43.42152" lon="6.06207">
        <ele>259.79998779297</ele>
        <time>2015-12-16T13:16:58Z</time>
      </trkpt>
      <trkpt lat="43.42152" lon="6.06208">
        <ele>259.79998779297</ele>
        <time>2015-12-16T13:17:02Z</time>
      </trkpt>
      <trkpt lat="43.42152" lon="6.06208">
        <ele>259.60000610352</ele>
        <time>2015-12-16T13:17:04Z</time>
      </trkpt>
      <trkpt lat="43.42152" lon="6.06207">
        <ele>259.60000610352</ele>
        <time>2015-12-16T13:17:06Z</time>
      </trkpt>
      <trkpt lat="43.42152" lon="6.06207">
        <ele>259.79998779297</ele>
        <time>2015-12-16T13:17:08Z</time>
      </trkpt>
      <trkpt lat="43.42152" lon="6.06207">
        <ele>259.79998779297</ele>
        <time>2015-12-16T13:17:10Z</time>
      </trkpt>
      <trkpt lat="43.42152" lon="6.06207">
        <ele>259.79998779297</ele>
        <time>2015-12-16T13:17:12Z</time>
      </trkpt>
      <trkpt lat="43.42152" lon="6.06207">
        <ele>259.79998779297</ele>
        <time>2015-12-16T13:17:18Z</time>
      </trkpt>
      <trkpt lat="43.42152" lon="6.06207">
        <ele>259.79998779297</ele>
        <time>2015-12-16T13:17:20Z</time>
      </trkpt>
      <trkpt lat="43.42152" lon="6.06207">
        <ele>259.79998779297</ele>
        <time>2015-12-16T13:17:22Z</time>
      </trkpt>
      <trkpt lat="43.42152" lon="6.06207">
        <ele>259.79998779297</ele>
        <time>2015-12-16T13:17:24Z</time>
      </trkpt>
      <trkpt lat="43.42151" lon="6.06206">
        <ele>259.79998779297</ele>
        <time>2015-12-16T13:17:25Z</time>
      </trkpt>
      <trkpt lat="43.42151" lon="6.06206">
        <ele>259.79998779297</ele>
        <time>2015-12-16T13:17:26Z</time>
      </trkpt>
      <trkpt lat="43.42151" lon="6.06206">
        <ele>259.60000610352</ele>
        <time>2015-12-16T13:17:28Z</time>
      </trkpt>
      <trkpt lat="43.42151" lon="6.06206">
        <ele>259.60000610352</ele>
        <time>2015-12-16T13:17:32Z</time>
      </trkpt>
      <trkpt lat="43.42151" lon="6.06206">
        <ele>259.79998779297</ele>
        <time>2015-12-16T13:17:34Z</time>
      </trkpt>
      <trkpt lat="43.42151" lon="6.06206">
        <ele>259.79998779297</ele>
        <time>2015-12-16T13:17:36Z</time>
      </trkpt>
      <trkpt lat="43.4215" lon="6.06206">
        <ele>260</ele>
        <time>2015-12-16T13:17:38Z</time>
      </trkpt>
      <trkpt lat="43.4215" lon="6.06206">
        <ele>259.79998779297</ele>
        <time>2015-12-16T13:17:40Z</time>
      </trkpt>
      <trkpt lat="43.4215" lon="6.06206">
        <ele>259.79998779297</ele>
        <time>2015-12-16T13:17:42Z</time>
      </trkpt>
      <trkpt lat="43.4215" lon="6.06206">
        <ele>259.79998779297</ele>
        <time>2015-12-16T13:17:43Z</time>
      </trkpt>
      <trkpt lat="43.42148" lon="6.06207">
        <ele>260</ele>
        <time>2015-12-16T13:17:45Z</time>
      </trkpt>
      <trkpt lat="43.42149" lon="6.0621">
        <ele>259.79998779297</ele>
        <time>2015-12-16T13:17:46Z</time>
      </trkpt>
      <trkpt lat="43.42148" lon="6.06212">
        <ele>260</ele>
        <time>2015-12-16T13:17:47Z</time>
      </trkpt>
      <trkpt lat="43.42147" lon="6.06214">
        <ele>260</ele>
        <time>2015-12-16T13:17:48Z</time>
      </trkpt>
      <trkpt lat="43.42147" lon="6.06218">
        <ele>260</ele>
        <time>2015-12-16T13:17:50Z</time>
      </trkpt>
      <trkpt lat="43.42149" lon="6.06221">
        <ele>259.79998779297</ele>
        <time>2015-12-16T13:17:52Z</time>
      </trkpt>
      <trkpt lat="43.4215" lon="6.06222">
        <ele>259.79998779297</ele>
        <time>2015-12-16T13:17:53Z</time>
      </trkpt>
      <trkpt lat="43.42152" lon="6.06221">
        <ele>259.60000610352</ele>
        <time>2015-12-16T13:17:54Z</time>
      </trkpt>
      <trkpt lat="43.42152" lon="6.06218">
        <ele>259.79998779297</ele>
        <time>2015-12-16T13:17:56Z</time>
      </trkpt>
      <trkpt lat="43.42152" lon="6.06216">
        <ele>260</ele>
        <time>2015-12-16T13:17:57Z</time>
      </trkpt>
      <trkpt lat="43.42152" lon="6.06215">
        <ele>260</ele>
        <time>2015-12-16T13:17:58Z</time>
      </trkpt>
      <trkpt lat="43.42153" lon="6.06211">
        <ele>259.79998779297</ele>
        <time>2015-12-16T13:18:02Z</time>
      </trkpt>
      <trkpt lat="43.42153" lon="6.06211">
        <ele>259.79998779297</ele>
        <time>2015-12-16T13:18:04Z</time>
      </trkpt>
      <trkpt lat="43.42153" lon="6.06211">
        <ele>259.79998779297</ele>
        <time>2015-12-16T13:18:06Z</time>
      </trkpt>
      <trkpt lat="43.42153" lon="6.06211">
        <ele>259.60000610352</ele>
        <time>2015-12-16T13:18:08Z</time>
      </trkpt>
      <trkpt lat="43.42153" lon="6.06211">
        <ele>259.79998779297</ele>
        <time>2015-12-16T13:18:10Z</time>
      </trkpt>
      <trkpt lat="43.42153" lon="6.06211">
        <ele>259.79998779297</ele>
        <time>2015-12-16T13:18:14Z</time>
      </trkpt>
      <trkpt lat="43.42153" lon="6.06211">
        <ele>260</ele>
        <time>2015-12-16T13:18:44Z</time>
      </trkpt>
      <trkpt lat="43.42153" lon="6.06211">
        <ele>260</ele>
        <time>2015-12-16T13:18:50Z</time>
      </trkpt>
      <trkpt lat="43.42153" lon="6.06211">
        <ele>260</ele>
        <time>2015-12-16T13:18:56Z</time>
      </trkpt>
      <trkpt lat="43.42153" lon="6.06211">
        <ele>260.20001220703</ele>
        <time>2015-12-16T13:19:20Z</time>
      </trkpt>
      <trkpt lat="43.42153" lon="6.06211">
        <ele>260</ele>
        <time>2015-12-16T13:19:34Z</time>
      </trkpt>
      <trkpt lat="43.42153" lon="6.06211">
        <ele>260</ele>
        <time>2015-12-16T13:19:36Z</time>
      </trkpt>
      <trkpt lat="43.42153" lon="6.06211">
        <ele>260</ele>
        <time>2015-12-16T13:19:38Z</time>
      </trkpt>
      <trkpt lat="43.42153" lon="6.06211">
        <ele>260</ele>
        <time>2015-12-16T13:19:40Z</time>
      </trkpt>
      <trkpt lat="43.42153" lon="6.06211">
        <ele>260</ele>
        <time>2015-12-16T13:19:42Z</time>
      </trkpt>
      <trkpt lat="43.42153" lon="6.06211">
        <ele>260</ele>
        <time>2015-12-16T13:19:46Z</time>
      </trkpt>
      <trkpt lat="43.42153" lon="6.06211">
        <ele>260</ele>
        <time>2015-12-16T13:19:48Z</time>
      </trkpt>
      <trkpt lat="43.42153" lon="6.0621">
        <ele>260.20001220703</ele>
        <time>2015-12-16T13:19:50Z</time>
      </trkpt>
      <trkpt lat="43.42153" lon="6.0621">
        <ele>260.20001220703</ele>
        <time>2015-12-16T13:19:56Z</time>
      </trkpt>
      <trkpt lat="43.42153" lon="6.0621">
        <ele>260.20001220703</ele>
        <time>2015-12-16T13:19:58Z</time>
      </trkpt>
      <trkpt lat="43.42153" lon="6.0621">
        <ele>260</ele>
        <time>2015-12-16T13:20:04Z</time>
      </trkpt>
      <trkpt lat="43.42153" lon="6.0621">
        <ele>260</ele>
        <time>2015-12-16T13:20:08Z</time>
      </trkpt>
      <trkpt lat="43.42153" lon="6.06209">
        <ele>260</ele>
        <time>2015-12-16T13:20:10Z</time>
      </trkpt>
      <trkpt lat="43.42153" lon="6.06209">
        <ele>260.20001220703</ele>
        <time>2015-12-16T13:20:14Z</time>
      </trkpt>
      <trkpt lat="43.42154" lon="6.06209">
        <ele>260</ele>
        <time>2015-12-16T13:20:16Z</time>
      </trkpt>
      <trkpt lat="43.42153" lon="6.06208">
        <ele>260</ele>
        <time>2015-12-16T13:20:18Z</time>
      </trkpt>
      <trkpt lat="43.42153" lon="6.06208">
        <ele>260</ele>
        <time>2015-12-16T13:20:20Z</time>
      </trkpt>
      <trkpt lat="43.42153" lon="6.06207">
        <ele>260</ele>
        <time>2015-12-16T13:20:22Z</time>
      </trkpt>
      <trkpt lat="43.42153" lon="6.06206">
        <ele>260.20001220703</ele>
        <time>2015-12-16T13:20:24Z</time>
      </trkpt>
      <trkpt lat="43.42152" lon="6.06205">
        <ele>260.20001220703</ele>
        <time>2015-12-16T13:20:25Z</time>
      </trkpt>
      <trkpt lat="43.42152" lon="6.06204">
        <ele>260</ele>
        <time>2015-12-16T13:20:26Z</time>
      </trkpt>
      <trkpt lat="43.4215" lon="6.06199">
        <ele>259.79998779297</ele>
        <time>2015-12-16T13:20:28Z</time>
      </trkpt>
      <trkpt lat="43.42149" lon="6.06192">
        <ele>259.60000610352</ele>
        <time>2015-12-16T13:20:30Z</time>
      </trkpt>
      <trkpt lat="43.42147" lon="6.06188">
        <ele>259.60000610352</ele>
        <time>2015-12-16T13:20:31Z</time>
      </trkpt>
      <trkpt lat="43.42144" lon="6.06179">
        <ele>259.39999389648</ele>
        <time>2015-12-16T13:20:33Z</time>
      </trkpt>
      <trkpt lat="43.42142" lon="6.06174">
        <ele>259.20001220703</ele>
        <time>2015-12-16T13:20:34Z</time>
      </trkpt>
      <trkpt lat="43.42141" lon="6.06169">
        <ele>259</ele>
        <time>2015-12-16T13:20:35Z</time>
      </trkpt>
      <trkpt lat="43.42139" lon="6.06163">
        <ele>259</ele>
        <time>2015-12-16T13:20:36Z</time>
      </trkpt>
      <trkpt lat="43.42134" lon="6.0615">
        <ele>258.39999389648</ele>
        <time>2015-12-16T13:20:38Z</time>
      </trkpt>
      <trkpt lat="43.4213" lon="6.06136">
        <ele>258.20001220703</ele>
        <time>2015-12-16T13:20:40Z</time>
      </trkpt>
      <trkpt lat="43.42128" lon="6.0613">
        <ele>258</ele>
        <time>2015-12-16T13:20:41Z</time>
      </trkpt>
      <trkpt lat="43.42126" lon="6.06122">
        <ele>257.79998779297</ele>
        <time>2015-12-16T13:20:42Z</time>
      </trkpt>
      <trkpt lat="43.42124" lon="6.06107">
        <ele>258.20001220703</ele>
        <time>2015-12-16T13:20:44Z</time>
      </trkpt>
      <trkpt lat="43.42123" lon="6.06101">
        <ele>258.20001220703</ele>
        <time>2015-12-16T13:20:45Z</time>
      </trkpt>
      <trkpt lat="43.42122" lon="6.06088">
        <ele>259</ele>
        <time>2015-12-16T13:20:47Z</time>
      </trkpt>
      <trkpt lat="43.42121" lon="6.06082">
        <ele>259.20001220703</ele>
        <time>2015-12-16T13:20:48Z</time>
      </trkpt>
      <trkpt lat="43.42118" lon="6.06071">
        <ele>260</ele>
        <time>2015-12-16T13:20:50Z</time>
      </trkpt>
      <trkpt lat="43.42117" lon="6.0606">
        <ele>260.60000610352</ele>
        <time>2015-12-16T13:20:52Z</time>
      </trkpt>
      <trkpt lat="43.42113" lon="6.06038">
        <ele>261.20001220703</ele>
        <time>2015-12-16T13:20:56Z</time>
      </trkpt>
      <trkpt lat="43.42112" lon="6.06033">
        <ele>261.39999389648</ele>
        <time>2015-12-16T13:20:57Z</time>
      </trkpt>
      <trkpt lat="43.42109" lon="6.06023">
        <ele>261.60000610352</ele>
        <time>2015-12-16T13:20:59Z</time>
      </trkpt>
      <trkpt lat="43.42107" lon="6.06017">
        <ele>261.79998779297</ele>
        <time>2015-12-16T13:21:00Z</time>
      </trkpt>
      <trkpt lat="43.42101" lon="6.05994">
        <ele>261.60000610352</ele>
        <time>2015-12-16T13:21:04Z</time>
      </trkpt>
      <trkpt lat="43.42099" lon="6.05988">
        <ele>261.60000610352</ele>
        <time>2015-12-16T13:21:05Z</time>
      </trkpt>
      <trkpt lat="43.42095" lon="6.05968">
        <ele>261.60000610352</ele>
        <time>2015-12-16T13:21:08Z</time>
      </trkpt>
      <trkpt lat="43.42092" lon="6.05955">
        <ele>261.20001220703</ele>
        <time>2015-12-16T13:21:10Z</time>
      </trkpt>
      <trkpt lat="43.42085" lon="6.05926">
        <ele>260.79998779297</ele>
        <time>2015-12-16T13:21:14Z</time>
      </trkpt>
      <trkpt lat="43.42081" lon="6.05911">
        <ele>260.39999389648</ele>
        <time>2015-12-16T13:21:16Z</time>
      </trkpt>
      <trkpt lat="43.42077" lon="6.05897">
        <ele>260.60000610352</ele>
        <time>2015-12-16T13:21:18Z</time>
      </trkpt>
      <trkpt lat="43.42075" lon="6.05889">
        <ele>260.60000610352</ele>
        <time>2015-12-16T13:21:19Z</time>
      </trkpt>
      <trkpt lat="43.42072" lon="6.05875">
        <ele>260.39999389648</ele>
        <time>2015-12-16T13:21:21Z</time>
      </trkpt>
      <trkpt lat="43.4207" lon="6.05867">
        <ele>260.20001220703</ele>
        <time>2015-12-16T13:21:22Z</time>
      </trkpt>
      <trkpt lat="43.42066" lon="6.05852">
        <ele>259.79998779297</ele>
        <time>2015-12-16T13:21:24Z</time>
      </trkpt>
      <trkpt lat="43.42062" lon="6.05834">
        <ele>259.20001220703</ele>
        <time>2015-12-16T13:21:26Z</time>
      </trkpt>
      <trkpt lat="43.42057" lon="6.05813">
        <ele>258</ele>
        <time>2015-12-16T13:21:28Z</time>
      </trkpt>
      <trkpt lat="43.42053" lon="6.05792">
        <ele>257.60000610352</ele>
        <time>2015-12-16T13:21:30Z</time>
      </trkpt>
      <trkpt lat="43.4205" lon="6.05771">
        <ele>257</ele>
        <time>2015-12-16T13:21:32Z</time>
      </trkpt>
      <trkpt lat="43.42046" lon="6.0575">
        <ele>256.79998779297</ele>
        <time>2015-12-16T13:21:34Z</time>
      </trkpt>
      <trkpt lat="43.42041" lon="6.05728">
        <ele>256.39999389648</ele>
        <time>2015-12-16T13:21:36Z</time>
      </trkpt>
      <trkpt lat="43.42036" lon="6.05706">
        <ele>256.39999389648</ele>
        <time>2015-12-16T13:21:38Z</time>
      </trkpt>
      <trkpt lat="43.42032" lon="6.05686">
        <ele>256.20001220703</ele>
        <time>2015-12-16T13:21:40Z</time>
      </trkpt>
      <trkpt lat="43.42028" lon="6.05667">
        <ele>256.60000610352</ele>
        <time>2015-12-16T13:21:42Z</time>
      </trkpt>
      <trkpt lat="43.42025" lon="6.05649">
        <ele>257</ele>
        <time>2015-12-16T13:21:44Z</time>
      </trkpt>
      <trkpt lat="43.4202" lon="6.05628">
        <ele>258.39999389648</ele>
        <time>2015-12-16T13:21:47Z</time>
      </trkpt>
      <trkpt lat="43.42018" lon="6.05615">
        <ele>259.60000610352</ele>
        <time>2015-12-16T13:21:49Z</time>
      </trkpt>
      <trkpt lat="43.42017" lon="6.05608">
        <ele>259.60000610352</ele>
        <time>2015-12-16T13:21:50Z</time>
      </trkpt>
      <trkpt lat="43.42015" lon="6.05596">
        <ele>260.39999389648</ele>
        <time>2015-12-16T13:21:52Z</time>
      </trkpt>
      <trkpt lat="43.42014" lon="6.05584">
        <ele>260.79998779297</ele>
        <time>2015-12-16T13:21:54Z</time>
      </trkpt>
      <trkpt lat="43.42012" lon="6.05574">
        <ele>261.39999389648</ele>
        <time>2015-12-16T13:21:56Z</time>
      </trkpt>
      <trkpt lat="43.4201" lon="6.05563">
        <ele>261.60000610352</ele>
        <time>2015-12-16T13:21:58Z</time>
      </trkpt>
      <trkpt lat="43.42009" lon="6.05552">
        <ele>262</ele>
        <time>2015-12-16T13:22:00Z</time>
      </trkpt>
      <trkpt lat="43.42006" lon="6.05532">
        <ele>263.79998779297</ele>
        <time>2015-12-16T13:22:04Z</time>
      </trkpt>
      <trkpt lat="43.42005" lon="6.05528">
        <ele>263.79998779297</ele>
        <time>2015-12-16T13:22:05Z</time>
      </trkpt>
      <trkpt lat="43.42004" lon="6.05518">
        <ele>264.20001220703</ele>
        <time>2015-12-16T13:22:07Z</time>
      </trkpt>
      <trkpt lat="43.42003" lon="6.05514">
        <ele>264.39999389648</ele>
        <time>2015-12-16T13:22:08Z</time>
      </trkpt>
      <trkpt lat="43.42002" lon="6.05505">
        <ele>265.20001220703</ele>
        <time>2015-12-16T13:22:10Z</time>
      </trkpt>
      <trkpt lat="43.42001" lon="6.05497">
        <ele>265.39999389648</ele>
        <time>2015-12-16T13:22:12Z</time>
      </trkpt>
      <trkpt lat="43.42" lon="6.05492">
        <ele>265.60000610352</ele>
        <time>2015-12-16T13:22:13Z</time>
      </trkpt>
      <trkpt lat="43.41999" lon="6.05488">
        <ele>265.60000610352</ele>
        <time>2015-12-16T13:22:14Z</time>
      </trkpt>
      <trkpt lat="43.41998" lon="6.05479">
        <ele>265.79998779297</ele>
        <time>2015-12-16T13:22:16Z</time>
      </trkpt>
      <trkpt lat="43.41995" lon="6.05469">
        <ele>266</ele>
        <time>2015-12-16T13:22:18Z</time>
      </trkpt>
      <trkpt lat="43.41992" lon="6.05457">
        <ele>265.39999389648</ele>
        <time>2015-12-16T13:22:20Z</time>
      </trkpt>
      <trkpt lat="43.41988" lon="6.05444">
        <ele>265</ele>
        <time>2015-12-16T13:22:22Z</time>
      </trkpt>
      <trkpt lat="43.41987" lon="6.05438">
        <ele>265</ele>
        <time>2015-12-16T13:22:23Z</time>
      </trkpt>
      <trkpt lat="43.4198" lon="6.05414">
        <ele>263.60000610352</ele>
        <time>2015-12-16T13:22:26Z</time>
      </trkpt>
      <trkpt lat="43.41975" lon="6.05396">
        <ele>263.39999389648</ele>
        <time>2015-12-16T13:22:28Z</time>
      </trkpt>
      <trkpt lat="43.41972" lon="6.05387">
        <ele>263</ele>
        <time>2015-12-16T13:22:29Z</time>
      </trkpt>
      <trkpt lat="43.4197" lon="6.05377">
        <ele>262.60000610352</ele>
        <time>2015-12-16T13:22:30Z</time>
      </trkpt>
      <trkpt lat="43.41967" lon="6.05367">
        <ele>262.20001220703</ele>
        <time>2015-12-16T13:22:31Z</time>
      </trkpt>
      <trkpt lat="43.41965" lon="6.05357">
        <ele>261.79998779297</ele>
        <time>2015-12-16T13:22:32Z</time>
      </trkpt>
      <trkpt lat="43.4196" lon="6.05336">
        <ele>260.79998779297</ele>
        <time>2015-12-16T13:22:34Z</time>
      </trkpt>
      <trkpt lat="43.41955" lon="6.05314">
        <ele>259.79998779297</ele>
        <time>2015-12-16T13:22:36Z</time>
      </trkpt>
      <trkpt lat="43.41953" lon="6.05303">
        <ele>259.20001220703</ele>
        <time>2015-12-16T13:22:37Z</time>
      </trkpt>
      <trkpt lat="43.4195" lon="6.0529">
        <ele>258.39999389648</ele>
        <time>2015-12-16T13:22:38Z</time>
      </trkpt>
      <trkpt lat="43.41948" lon="6.0528">
        <ele>257.79998779297</ele>
        <time>2015-12-16T13:22:39Z</time>
      </trkpt>
      <trkpt lat="43.41945" lon="6.05268">
        <ele>257.20001220703</ele>
        <time>2015-12-16T13:22:40Z</time>
      </trkpt>
      <trkpt lat="43.41943" lon="6.05259">
        <ele>256.79998779297</ele>
        <time>2015-12-16T13:22:41Z</time>
      </trkpt>
      <trkpt lat="43.41942" lon="6.0525">
        <ele>256</ele>
        <time>2015-12-16T13:22:42Z</time>
      </trkpt>
      <trkpt lat="43.41942" lon="6.05243">
        <ele>255.80000305176</ele>
        <time>2015-12-16T13:22:43Z</time>
      </trkpt>
      <trkpt lat="43.41942" lon="6.05236">
        <ele>255.60000610352</ele>
        <time>2015-12-16T13:22:44Z</time>
      </trkpt>
      <trkpt lat="43.41941" lon="6.05226">
        <ele>254.80000305176</ele>
        <time>2015-12-16T13:22:46Z</time>
      </trkpt>
      <trkpt lat="43.4194" lon="6.05216">
        <ele>254.39999389648</ele>
        <time>2015-12-16T13:22:48Z</time>
      </trkpt>
      <trkpt lat="43.4194" lon="6.05212">
        <ele>254</ele>
        <time>2015-12-16T13:22:49Z</time>
      </trkpt>
      <trkpt lat="43.41941" lon="6.05206">
        <ele>254</ele>
        <time>2015-12-16T13:22:50Z</time>
      </trkpt>
      <trkpt lat="43.4194" lon="6.05191">
        <ele>253.39999389648</ele>
        <time>2015-12-16T13:22:52Z</time>
      </trkpt>
      <trkpt lat="43.4194" lon="6.05184">
        <ele>252.80000305176</ele>
        <time>2015-12-16T13:22:53Z</time>
      </trkpt>
      <trkpt lat="43.41939" lon="6.05175">
        <ele>252.19999694824</ele>
        <time>2015-12-16T13:22:54Z</time>
      </trkpt>
      <trkpt lat="43.41939" lon="6.05167">
        <ele>251.39999389648</ele>
        <time>2015-12-16T13:22:55Z</time>
      </trkpt>
      <trkpt lat="43.4194" lon="6.05159">
        <ele>251.19999694824</ele>
        <time>2015-12-16T13:22:56Z</time>
      </trkpt>
      <trkpt lat="43.41943" lon="6.05153">
        <ele>250.80000305176</ele>
        <time>2015-12-16T13:22:57Z</time>
      </trkpt>
      <trkpt lat="43.41947" lon="6.0515">
        <ele>250.60000610352</ele>
        <time>2015-12-16T13:22:58Z</time>
      </trkpt>
      <trkpt lat="43.41956" lon="6.05146">
        <ele>250.80000305176</ele>
        <time>2015-12-16T13:23:00Z</time>
      </trkpt>
      <trkpt lat="43.41964" lon="6.05142">
        <ele>251.19999694824</ele>
        <time>2015-12-16T13:23:02Z</time>
      </trkpt>
      <trkpt lat="43.41971" lon="6.05139">
        <ele>251.60000610352</ele>
        <time>2015-12-16T13:23:04Z</time>
      </trkpt>
      <trkpt lat="43.41978" lon="6.05138">
        <ele>252.19999694824</ele>
        <time>2015-12-16T13:23:06Z</time>
      </trkpt>
      <trkpt lat="43.41984" lon="6.05137">
        <ele>252.39999389648</ele>
        <time>2015-12-16T13:23:08Z</time>
      </trkpt>
      <trkpt lat="43.41989" lon="6.05137">
        <ele>252.60000610352</ele>
        <time>2015-12-16T13:23:10Z</time>
      </trkpt>
      <trkpt lat="43.41994" lon="6.05137">
        <ele>252.80000305176</ele>
        <time>2015-12-16T13:23:12Z</time>
      </trkpt>
      <trkpt lat="43.41998" lon="6.05136">
        <ele>253</ele>
        <time>2015-12-16T13:23:14Z</time>
      </trkpt>
      <trkpt lat="43.42002" lon="6.05134">
        <ele>253</ele>
        <time>2015-12-16T13:23:16Z</time>
      </trkpt>
      <trkpt lat="43.42004" lon="6.05134">
        <ele>253</ele>
        <time>2015-12-16T13:23:17Z</time>
      </trkpt>
      <trkpt lat="43.42007" lon="6.05133">
        <ele>253</ele>
        <time>2015-12-16T13:23:18Z</time>
      </trkpt>
      <trkpt lat="43.42012" lon="6.05132">
        <ele>253</ele>
        <time>2015-12-16T13:23:20Z</time>
      </trkpt>
      <trkpt lat="43.42019" lon="6.0513">
        <ele>253.19999694824</ele>
        <time>2015-12-16T13:23:22Z</time>
      </trkpt>
      <trkpt lat="43.42025" lon="6.05128">
        <ele>253.19999694824</ele>
        <time>2015-12-16T13:23:24Z</time>
      </trkpt>
      <trkpt lat="43.42028" lon="6.05127">
        <ele>253.39999389648</ele>
        <time>2015-12-16T13:23:25Z</time>
      </trkpt>
      <trkpt lat="43.42031" lon="6.05126">
        <ele>253.60000610352</ele>
        <time>2015-12-16T13:23:26Z</time>
      </trkpt>
      <trkpt lat="43.42037" lon="6.05124">
        <ele>253.60000610352</ele>
        <time>2015-12-16T13:23:28Z</time>
      </trkpt>
      <trkpt lat="43.42043" lon="6.05123">
        <ele>254</ele>
        <time>2015-12-16T13:23:30Z</time>
      </trkpt>
      <trkpt lat="43.4205" lon="6.05122">
        <ele>254.19999694824</ele>
        <time>2015-12-16T13:23:32Z</time>
      </trkpt>
      <trkpt lat="43.42056" lon="6.0512">
        <ele>254.39999389648</ele>
        <time>2015-12-16T13:23:34Z</time>
      </trkpt>
      <trkpt lat="43.42059" lon="6.0512">
        <ele>254.39999389648</ele>
        <time>2015-12-16T13:23:35Z</time>
      </trkpt>
      <trkpt lat="43.42063" lon="6.0512">
        <ele>254.80000305176</ele>
        <time>2015-12-16T13:23:36Z</time>
      </trkpt>
      <trkpt lat="43.42075" lon="6.05119">
        <ele>255.19999694824</ele>
        <time>2015-12-16T13:23:40Z</time>
      </trkpt>
      <trkpt lat="43.42081" lon="6.05119">
        <ele>255.60000610352</ele>
        <time>2015-12-16T13:23:42Z</time>
      </trkpt>
      <trkpt lat="43.42087" lon="6.05119">
        <ele>255.80000305176</ele>
        <time>2015-12-16T13:23:44Z</time>
      </trkpt>
      <trkpt lat="43.42091" lon="6.0512">
        <ele>256</ele>
        <time>2015-12-16T13:23:45Z</time>
      </trkpt>
      <trkpt lat="43.42094" lon="6.0512">
        <ele>256.20001220703</ele>
        <time>2015-12-16T13:23:46Z</time>
      </trkpt>
      <trkpt lat="43.42101" lon="6.05121">
        <ele>256.60000610352</ele>
        <time>2015-12-16T13:23:48Z</time>
      </trkpt>
      <trkpt lat="43.42107" lon="6.05121">
        <ele>256.60000610352</ele>
        <time>2015-12-16T13:23:50Z</time>
      </trkpt>
      <trkpt lat="43.42109" lon="6.05121">
        <ele>257</ele>
        <time>2015-12-16T13:23:51Z</time>
      </trkpt>
      <trkpt lat="43.42112" lon="6.05121">
        <ele>257.20001220703</ele>
        <time>2015-12-16T13:23:52Z</time>
      </trkpt>
      <trkpt lat="43.42118" lon="6.05121">
        <ele>257.60000610352</ele>
        <time>2015-12-16T13:23:54Z</time>
      </trkpt>
      <trkpt lat="43.42122" lon="6.05122">
        <ele>257.79998779297</ele>
        <time>2015-12-16T13:23:56Z</time>
      </trkpt>
      <trkpt lat="43.42123" lon="6.05122">
        <ele>257.79998779297</ele>
        <time>2015-12-16T13:23:57Z</time>
      </trkpt>
      <trkpt lat="43.42125" lon="6.05122">
        <ele>258</ele>
        <time>2015-12-16T13:23:58Z</time>
      </trkpt>
      <trkpt lat="43.42127" lon="6.05123">
        <ele>258.20001220703</ele>
        <time>2015-12-16T13:24:00Z</time>
      </trkpt>
      <trkpt lat="43.42129" lon="6.05124">
        <ele>258.39999389648</ele>
        <time>2015-12-16T13:24:02Z</time>
      </trkpt>
      <trkpt lat="43.4213" lon="6.05124">
        <ele>258.39999389648</ele>
        <time>2015-12-16T13:24:04Z</time>
      </trkpt>
      <trkpt lat="43.4213" lon="6.05124">
        <ele>258.39999389648</ele>
        <time>2015-12-16T13:24:06Z</time>
      </trkpt>
      <trkpt lat="43.4213" lon="6.05124">
        <ele>258.39999389648</ele>
        <time>2015-12-16T13:24:08Z</time>
      </trkpt>
      <trkpt lat="43.4213" lon="6.05124">
        <ele>258.20001220703</ele>
        <time>2015-12-16T13:24:10Z</time>
      </trkpt>
      <trkpt lat="43.4213" lon="6.05124">
        <ele>258.20001220703</ele>
        <time>2015-12-16T13:24:18Z</time>
      </trkpt>
      <trkpt lat="43.4213" lon="6.05124">
        <ele>258.20001220703</ele>
        <time>2015-12-16T13:24:28Z</time>
      </trkpt>
      <trkpt lat="43.4213" lon="6.05124">
        <ele>258.20001220703</ele>
        <time>2015-12-16T13:24:30Z</time>
      </trkpt>
      <trkpt lat="43.4213" lon="6.05124">
        <ele>258.20001220703</ele>
        <time>2015-12-16T13:24:34Z</time>
      </trkpt>
      <trkpt lat="43.4213" lon="6.05124">
        <ele>258.39999389648</ele>
        <time>2015-12-16T13:24:37Z</time>
      </trkpt>
      <trkpt lat="43.4213" lon="6.05124">
        <ele>258.20001220703</ele>
        <time>2015-12-16T13:24:44Z</time>
      </trkpt>
      <trkpt lat="43.4213" lon="6.05124">
        <ele>258.20001220703</ele>
        <time>2015-12-16T13:24:58Z</time>
      </trkpt>
      <trkpt lat="43.4213" lon="6.05124">
        <ele>258.20001220703</ele>
        <time>2015-12-16T13:25:00Z</time>
      </trkpt>
      <trkpt lat="43.4213" lon="6.05125">
        <ele>258.20001220703</ele>
        <time>2015-12-16T13:25:02Z</time>
      </trkpt>
      <trkpt lat="43.4213" lon="6.05125">
        <ele>258.60000610352</ele>
        <time>2015-12-16T13:25:04Z</time>
      </trkpt>
      <trkpt lat="43.4213" lon="6.05125">
        <ele>258.39999389648</ele>
        <time>2015-12-16T13:25:06Z</time>
      </trkpt>
      <trkpt lat="43.4213" lon="6.05125">
        <ele>258.39999389648</ele>
        <time>2015-12-16T13:25:07Z</time>
      </trkpt>
      <trkpt lat="43.4213" lon="6.05125">
        <ele>258.39999389648</ele>
        <time>2015-12-16T13:25:08Z</time>
      </trkpt>
      <trkpt lat="43.42129" lon="6.05127">
        <ele>258.20001220703</ele>
        <time>2015-12-16T13:25:10Z</time>
      </trkpt>
      <trkpt lat="43.42131" lon="6.05131">
        <ele>258.39999389648</ele>
        <time>2015-12-16T13:25:12Z</time>
      </trkpt>
      <trkpt lat="43.42135" lon="6.05136">
        <ele>258.79998779297</ele>
        <time>2015-12-16T13:25:14Z</time>
      </trkpt>
      <trkpt lat="43.42139" lon="6.0514">
        <ele>259</ele>
        <time>2015-12-16T13:25:16Z</time>
      </trkpt>
      <trkpt lat="43.42147" lon="6.0515">
        <ele>259.20001220703</ele>
        <time>2015-12-16T13:25:20Z</time>
      </trkpt>
      <trkpt lat="43.42152" lon="6.05154">
        <ele>259.20001220703</ele>
        <time>2015-12-16T13:25:22Z</time>
      </trkpt>
      <trkpt lat="43.42157" lon="6.05159">
        <ele>259.20001220703</ele>
        <time>2015-12-16T13:25:24Z</time>
      </trkpt>
      <trkpt lat="43.42159" lon="6.05161">
        <ele>259.20001220703</ele>
        <time>2015-12-16T13:25:25Z</time>
      </trkpt>
      <trkpt lat="43.42167" lon="6.05165">
        <ele>259.39999389648</ele>
        <time>2015-12-16T13:25:28Z</time>
      </trkpt>
      <trkpt lat="43.42171" lon="6.05169">
        <ele>259.39999389648</ele>
        <time>2015-12-16T13:25:30Z</time>
      </trkpt>
      <trkpt lat="43.42181" lon="6.05174">
        <ele>260.20001220703</ele>
        <time>2015-12-16T13:25:34Z</time>
      </trkpt>
      <trkpt lat="43.42186" lon="6.05178">
        <ele>260.20001220703</ele>
        <time>2015-12-16T13:25:36Z</time>
      </trkpt>
      <trkpt lat="43.42195" lon="6.05184">
        <ele>260.39999389648</ele>
        <time>2015-12-16T13:25:40Z</time>
      </trkpt>
      <trkpt lat="43.42202" lon="6.05188">
        <ele>261.20001220703</ele>
        <time>2015-12-16T13:25:43Z</time>
      </trkpt>
      <trkpt lat="43.42204" lon="6.05189">
        <ele>261.39999389648</ele>
        <time>2015-12-16T13:25:44Z</time>
      </trkpt>
      <trkpt lat="43.42208" lon="6.05192">
        <ele>261.60000610352</ele>
        <time>2015-12-16T13:25:46Z</time>
      </trkpt>
      <trkpt lat="43.42211" lon="6.05194">
        <ele>261.60000610352</ele>
        <time>2015-12-16T13:25:48Z</time>
      </trkpt>
      <trkpt lat="43.42215" lon="6.05195">
        <ele>261.60000610352</ele>
        <time>2015-12-16T13:25:50Z</time>
      </trkpt>
      <trkpt lat="43.42219" lon="6.05198">
        <ele>261.79998779297</ele>
        <time>2015-12-16T13:25:52Z</time>
      </trkpt>
      <trkpt lat="43.42223" lon="6.052">
        <ele>262</ele>
        <time>2015-12-16T13:25:54Z</time>
      </trkpt>
      <trkpt lat="43.42229" lon="6.05208">
        <ele>262.79998779297</ele>
        <time>2015-12-16T13:25:58Z</time>
      </trkpt>
      <trkpt lat="43.42233" lon="6.05212">
        <ele>262.79998779297</ele>
        <time>2015-12-16T13:26:00Z</time>
      </trkpt>
      <trkpt lat="43.42237" lon="6.05216">
        <ele>262.79998779297</ele>
        <time>2015-12-16T13:26:02Z</time>
      </trkpt>
      <trkpt lat="43.42242" lon="6.05218">
        <ele>263</ele>
        <time>2015-12-16T13:26:04Z</time>
      </trkpt>
      <trkpt lat="43.42245" lon="6.05218">
        <ele>263.60000610352</ele>
        <time>2015-12-16T13:26:05Z</time>
      </trkpt>
      <trkpt lat="43.42248" lon="6.05218">
        <ele>263.60000610352</ele>
        <time>2015-12-16T13:26:06Z</time>
      </trkpt>
      <trkpt lat="43.42253" lon="6.05219">
        <ele>263.60000610352</ele>
        <time>2015-12-16T13:26:08Z</time>
      </trkpt>
      <trkpt lat="43.42258" lon="6.05218">
        <ele>263.60000610352</ele>
        <time>2015-12-16T13:26:10Z</time>
      </trkpt>
      <trkpt lat="43.4226" lon="6.05218">
        <ele>264</ele>
        <time>2015-12-16T13:26:11Z</time>
      </trkpt>
      <trkpt lat="43.42265" lon="6.05218">
        <ele>264.79998779297</ele>
        <time>2015-12-16T13:26:13Z</time>
      </trkpt>
      <trkpt lat="43.42274" lon="6.05218">
        <ele>264.60000610352</ele>
        <time>2015-12-16T13:26:16Z</time>
      </trkpt>
      <trkpt lat="43.42281" lon="6.05219">
        <ele>264.79998779297</ele>
        <time>2015-12-16T13:26:19Z</time>
      </trkpt>
      <trkpt lat="43.42284" lon="6.0522">
        <ele>264.79998779297</ele>
        <time>2015-12-16T13:26:20Z</time>
      </trkpt>
      <trkpt lat="43.42289" lon="6.05221">
        <ele>265.20001220703</ele>
        <time>2015-12-16T13:26:22Z</time>
      </trkpt>
      <trkpt lat="43.42291" lon="6.05222">
        <ele>265.20001220703</ele>
        <time>2015-12-16T13:26:23Z</time>
      </trkpt>
      <trkpt lat="43.42294" lon="6.05223">
        <ele>265.20001220703</ele>
        <time>2015-12-16T13:26:24Z</time>
      </trkpt>
      <trkpt lat="43.423" lon="6.05225">
        <ele>265.39999389648</ele>
        <time>2015-12-16T13:26:26Z</time>
      </trkpt>
      <trkpt lat="43.42302" lon="6.05226">
        <ele>265.39999389648</ele>
        <time>2015-12-16T13:26:27Z</time>
      </trkpt>
      <trkpt lat="43.42305" lon="6.05227">
        <ele>265.20001220703</ele>
        <time>2015-12-16T13:26:28Z</time>
      </trkpt>
      <trkpt lat="43.42309" lon="6.05228">
        <ele>265.60000610352</ele>
        <time>2015-12-16T13:26:30Z</time>
      </trkpt>
      <trkpt lat="43.42313" lon="6.05229">
        <ele>266.20001220703</ele>
        <time>2015-12-16T13:26:32Z</time>
      </trkpt>
      <trkpt lat="43.42315" lon="6.05229">
        <ele>266.20001220703</ele>
        <time>2015-12-16T13:26:33Z</time>
      </trkpt>
      <trkpt lat="43.42318" lon="6.05229">
        <ele>266.39999389648</ele>
        <time>2015-12-16T13:26:34Z</time>
      </trkpt>
      <trkpt lat="43.42319" lon="6.05229">
        <ele>266.39999389648</ele>
        <time>2015-12-16T13:26:35Z</time>
      </trkpt>
      <trkpt lat="43.42323" lon="6.05229">
        <ele>266.39999389648</ele>
        <time>2015-12-16T13:26:36Z</time>
      </trkpt>
      <trkpt lat="43.42327" lon="6.05231">
        <ele>267.20001220703</ele>
        <time>2015-12-16T13:26:38Z</time>
      </trkpt>
      <trkpt lat="43.42329" lon="6.05232">
        <ele>267.79998779297</ele>
        <time>2015-12-16T13:26:39Z</time>
      </trkpt>
      <trkpt lat="43.42331" lon="6.05233">
        <ele>268</ele>
        <time>2015-12-16T13:26:40Z</time>
      </trkpt>
      <trkpt lat="43.42333" lon="6.05233">
        <ele>268.20001220703</ele>
        <time>2015-12-16T13:26:41Z</time>
      </trkpt>
      <trkpt lat="43.42336" lon="6.05234">
        <ele>268.60000610352</ele>
        <time>2015-12-16T13:26:42Z</time>
      </trkpt>
      <trkpt lat="43.42337" lon="6.05235">
        <ele>268.79998779297</ele>
        <time>2015-12-16T13:26:43Z</time>
      </trkpt>
      <trkpt lat="43.4234" lon="6.05235">
        <ele>269.20001220703</ele>
        <time>2015-12-16T13:26:44Z</time>
      </trkpt>
      <trkpt lat="43.42342" lon="6.05236">
        <ele>270</ele>
        <time>2015-12-16T13:26:45Z</time>
      </trkpt>
      <trkpt lat="43.42344" lon="6.05236">
        <ele>270.20001220703</ele>
        <time>2015-12-16T13:26:46Z</time>
      </trkpt>
      <trkpt lat="43.42351" lon="6.05236">
        <ele>269.79998779297</ele>
        <time>2015-12-16T13:26:49Z</time>
      </trkpt>
      <trkpt lat="43.42353" lon="6.05236">
        <ele>270</ele>
        <time>2015-12-16T13:26:50Z</time>
      </trkpt>
      <trkpt lat="43.42356" lon="6.05235">
        <ele>270.39999389648</ele>
        <time>2015-12-16T13:26:52Z</time>
      </trkpt>
      <trkpt lat="43.42363" lon="6.05233">
        <ele>270.60000610352</ele>
        <time>2015-12-16T13:26:55Z</time>
      </trkpt>
      <trkpt lat="43.42365" lon="6.05232">
        <ele>271</ele>
        <time>2015-12-16T13:26:56Z</time>
      </trkpt>
      <trkpt lat="43.42369" lon="6.0523">
        <ele>271.60000610352</ele>
        <time>2015-12-16T13:26:58Z</time>
      </trkpt>
      <trkpt lat="43.42373" lon="6.0523">
        <ele>271.79998779297</ele>
        <time>2015-12-16T13:27:00Z</time>
      </trkpt>
      <trkpt lat="43.42374" lon="6.0523">
        <ele>271.79998779297</ele>
        <time>2015-12-16T13:27:01Z</time>
      </trkpt>
      <trkpt lat="43.42381" lon="6.0523">
        <ele>272</ele>
        <time>2015-12-16T13:27:04Z</time>
      </trkpt>
      <trkpt lat="43.42383" lon="6.0523">
        <ele>272.20001220703</ele>
        <time>2015-12-16T13:27:05Z</time>
      </trkpt>
      <trkpt lat="43.42385" lon="6.05229">
        <ele>272.20001220703</ele>
        <time>2015-12-16T13:27:06Z</time>
      </trkpt>
      <trkpt lat="43.4239" lon="6.05228">
        <ele>272.39999389648</ele>
        <time>2015-12-16T13:27:08Z</time>
      </trkpt>
      <trkpt lat="43.42399" lon="6.05226">
        <ele>273</ele>
        <time>2015-12-16T13:27:12Z</time>
      </trkpt>
      <trkpt lat="43.42403" lon="6.05226">
        <ele>273.20001220703</ele>
        <time>2015-12-16T13:27:14Z</time>
      </trkpt>
      <trkpt lat="43.4241" lon="6.05225">
        <ele>273</ele>
        <time>2015-12-16T13:27:17Z</time>
      </trkpt>
      <trkpt lat="43.42413" lon="6.05226">
        <ele>273.20001220703</ele>
        <time>2015-12-16T13:27:18Z</time>
      </trkpt>
      <trkpt lat="43.42417" lon="6.05227">
        <ele>273.20001220703</ele>
        <time>2015-12-16T13:27:20Z</time>
      </trkpt>
      <trkpt lat="43.42424" lon="6.05227">
        <ele>273.20001220703</ele>
        <time>2015-12-16T13:27:23Z</time>
      </trkpt>
      <trkpt lat="43.42427" lon="6.05227">
        <ele>273.20001220703</ele>
        <time>2015-12-16T13:27:24Z</time>
      </trkpt>
      <trkpt lat="43.42431" lon="6.05227">
        <ele>273.60000610352</ele>
        <time>2015-12-16T13:27:26Z</time>
      </trkpt>
      <trkpt lat="43.42435" lon="6.05226">
        <ele>273.60000610352</ele>
        <time>2015-12-16T13:27:28Z</time>
      </trkpt>
      <trkpt lat="43.4244" lon="6.05226">
        <ele>273.79998779297</ele>
        <time>2015-12-16T13:27:30Z</time>
      </trkpt>
      <trkpt lat="43.42443" lon="6.05223">
        <ele>274.20001220703</ele>
        <time>2015-12-16T13:27:32Z</time>
      </trkpt>
      <trkpt lat="43.42446" lon="6.05223">
        <ele>274.39999389648</ele>
        <time>2015-12-16T13:27:33Z</time>
      </trkpt>
      <trkpt lat="43.42448" lon="6.05222">
        <ele>274.39999389648</ele>
        <time>2015-12-16T13:27:34Z</time>
      </trkpt>
      <trkpt lat="43.42452" lon="6.0522">
        <ele>275</ele>
        <time>2015-12-16T13:27:36Z</time>
      </trkpt>
      <trkpt lat="43.42455" lon="6.05219">
        <ele>275.79998779297</ele>
        <time>2015-12-16T13:27:38Z</time>
      </trkpt>
      <trkpt lat="43.42458" lon="6.05218">
        <ele>276.60000610352</ele>
        <time>2015-12-16T13:27:40Z</time>
      </trkpt>
      <trkpt lat="43.42461" lon="6.05218">
        <ele>277.20001220703</ele>
        <time>2015-12-16T13:27:42Z</time>
      </trkpt>
      <trkpt lat="43.42462" lon="6.05217">
        <ele>277.39999389648</ele>
        <time>2015-12-16T13:27:43Z</time>
      </trkpt>
      <trkpt lat="43.42464" lon="6.05217">
        <ele>277.39999389648</ele>
        <time>2015-12-16T13:27:44Z</time>
      </trkpt>
      <trkpt lat="43.4247" lon="6.05218">
        <ele>278</ele>
        <time>2015-12-16T13:27:48Z</time>
      </trkpt>
      <trkpt lat="43.42474" lon="6.05219">
        <ele>277.79998779297</ele>
        <time>2015-12-16T13:27:50Z</time>
      </trkpt>
      <trkpt lat="43.4248" lon="6.0522">
        <ele>278</ele>
        <time>2015-12-16T13:27:52Z</time>
      </trkpt>
      <trkpt lat="43.42485" lon="6.05223">
        <ele>278.20001220703</ele>
        <time>2015-12-16T13:27:54Z</time>
      </trkpt>
      <trkpt lat="43.42487" lon="6.05225">
        <ele>278</ele>
        <time>2015-12-16T13:27:55Z</time>
      </trkpt>
      <trkpt lat="43.4249" lon="6.05226">
        <ele>277.79998779297</ele>
        <time>2015-12-16T13:27:56Z</time>
      </trkpt>
      <trkpt lat="43.42496" lon="6.05229">
        <ele>277.60000610352</ele>
        <time>2015-12-16T13:27:58Z</time>
      </trkpt>
      <trkpt lat="43.42501" lon="6.0523">
        <ele>277.39999389648</ele>
        <time>2015-12-16T13:28:00Z</time>
      </trkpt>
      <trkpt lat="43.42504" lon="6.0523">
        <ele>277.60000610352</ele>
        <time>2015-12-16T13:28:01Z</time>
      </trkpt>
      <trkpt lat="43.42506" lon="6.0523">
        <ele>277.60000610352</ele>
        <time>2015-12-16T13:28:02Z</time>
      </trkpt>
      <trkpt lat="43.4251" lon="6.0523">
        <ele>277.20001220703</ele>
        <time>2015-12-16T13:28:04Z</time>
      </trkpt>
      <trkpt lat="43.42517" lon="6.0523">
        <ele>277.60000610352</ele>
        <time>2015-12-16T13:28:07Z</time>
      </trkpt>
      <trkpt lat="43.4252" lon="6.0523">
        <ele>277.60000610352</ele>
        <time>2015-12-16T13:28:08Z</time>
      </trkpt>
      <trkpt lat="43.42525" lon="6.0523">
        <ele>278</ele>
        <time>2015-12-16T13:28:10Z</time>
      </trkpt>
      <trkpt lat="43.42528" lon="6.0523">
        <ele>277.79998779297</ele>
        <time>2015-12-16T13:28:12Z</time>
      </trkpt>
      <trkpt lat="43.42532" lon="6.0523">
        <ele>278</ele>
        <time>2015-12-16T13:28:14Z</time>
      </trkpt>
      <trkpt lat="43.42536" lon="6.05228">
        <ele>278.60000610352</ele>
        <time>2015-12-16T13:28:16Z</time>
      </trkpt>
      <trkpt lat="43.42542" lon="6.05227">
        <ele>278.60000610352</ele>
        <time>2015-12-16T13:28:18Z</time>
      </trkpt>
      <trkpt lat="43.42543" lon="6.05226">
        <ele>278.60000610352</ele>
        <time>2015-12-16T13:28:19Z</time>
      </trkpt>
      <trkpt lat="43.42546" lon="6.05225">
        <ele>279</ele>
        <time>2015-12-16T13:28:20Z</time>
      </trkpt>
      <trkpt lat="43.42549" lon="6.05223">
        <ele>280</ele>
        <time>2015-12-16T13:28:22Z</time>
      </trkpt>
      <trkpt lat="43.42551" lon="6.05223">
        <ele>280.20001220703</ele>
        <time>2015-12-16T13:28:23Z</time>
      </trkpt>
      <trkpt lat="43.42553" lon="6.05223">
        <ele>280.39999389648</ele>
        <time>2015-12-16T13:28:24Z</time>
      </trkpt>
      <trkpt lat="43.42555" lon="6.05222">
        <ele>280.79998779297</ele>
        <time>2015-12-16T13:28:25Z</time>
      </trkpt>
      <trkpt lat="43.42557" lon="6.05223">
        <ele>281</ele>
        <time>2015-12-16T13:28:26Z</time>
      </trkpt>
      <trkpt lat="43.42561" lon="6.05222">
        <ele>281</ele>
        <time>2015-12-16T13:28:28Z</time>
      </trkpt>
      <trkpt lat="43.42566" lon="6.05224">
        <ele>280.60000610352</ele>
        <time>2015-12-16T13:28:30Z</time>
      </trkpt>
      <trkpt lat="43.42572" lon="6.05226">
        <ele>280.60000610352</ele>
        <time>2015-12-16T13:28:32Z</time>
      </trkpt>
      <trkpt lat="43.42576" lon="6.05228">
        <ele>280.60000610352</ele>
        <time>2015-12-16T13:28:34Z</time>
      </trkpt>
      <trkpt lat="43.4258" lon="6.05232">
        <ele>280.60000610352</ele>
        <time>2015-12-16T13:28:36Z</time>
      </trkpt>
      <trkpt lat="43.42585" lon="6.05236">
        <ele>280.79998779297</ele>
        <time>2015-12-16T13:28:38Z</time>
      </trkpt>
      <trkpt lat="43.42588" lon="6.0524">
        <ele>280.79998779297</ele>
        <time>2015-12-16T13:28:40Z</time>
      </trkpt>
      <trkpt lat="43.42592" lon="6.05244">
        <ele>280.79998779297</ele>
        <time>2015-12-16T13:28:42Z</time>
      </trkpt>
      <trkpt lat="43.42596" lon="6.05247">
        <ele>281</ele>
        <time>2015-12-16T13:28:44Z</time>
      </trkpt>
      <trkpt lat="43.426" lon="6.05251">
        <ele>280.79998779297</ele>
        <time>2015-12-16T13:28:46Z</time>
      </trkpt>
      <trkpt lat="43.42605" lon="6.05256">
        <ele>280.79998779297</ele>
        <time>2015-12-16T13:28:49Z</time>
      </trkpt>
      <trkpt lat="43.42607" lon="6.05258">
        <ele>280.79998779297</ele>
        <time>2015-12-16T13:28:50Z</time>
      </trkpt>
      <trkpt lat="43.42612" lon="6.05263">
        <ele>280.79998779297</ele>
        <time>2015-12-16T13:28:52Z</time>
      </trkpt>
      <trkpt lat="43.42613" lon="6.05265">
        <ele>281.60000610352</ele>
        <time>2015-12-16T13:28:53Z</time>
      </trkpt>
      <trkpt lat="43.42615" lon="6.05266">
        <ele>282</ele>
        <time>2015-12-16T13:28:54Z</time>
      </trkpt>
      <trkpt lat="43.42618" lon="6.05269">
        <ele>282.39999389648</ele>
        <time>2015-12-16T13:28:56Z</time>
      </trkpt>
      <trkpt lat="43.42623" lon="6.0527">
        <ele>282.60000610352</ele>
        <time>2015-12-16T13:28:58Z</time>
      </trkpt>
      <trkpt lat="43.42625" lon="6.0527">
        <ele>282.39999389648</ele>
        <time>2015-12-16T13:28:59Z</time>
      </trkpt>
      <trkpt lat="43.42627" lon="6.05271">
        <ele>282.39999389648</ele>
        <time>2015-12-16T13:29:00Z</time>
      </trkpt>
      <trkpt lat="43.4263" lon="6.05271">
        <ele>282.60000610352</ele>
        <time>2015-12-16T13:29:02Z</time>
      </trkpt>
      <trkpt lat="43.42632" lon="6.0527">
        <ele>283</ele>
        <time>2015-12-16T13:29:04Z</time>
      </trkpt>
      <trkpt lat="43.42632" lon="6.0527">
        <ele>282.79998779297</ele>
        <time>2015-12-16T13:29:06Z</time>
      </trkpt>
      <trkpt lat="43.42632" lon="6.05271">
        <ele>283</ele>
        <time>2015-12-16T13:29:08Z</time>
      </trkpt>
      <trkpt lat="43.42632" lon="6.05271">
        <ele>283.20001220703</ele>
        <time>2015-12-16T13:29:10Z</time>
      </trkpt>
      <trkpt lat="43.42632" lon="6.05271">
        <ele>283</ele>
        <time>2015-12-16T13:29:12Z</time>
      </trkpt>
      <trkpt lat="43.42632" lon="6.05271">
        <ele>282.79998779297</ele>
        <time>2015-12-16T13:29:16Z</time>
      </trkpt>
      <trkpt lat="43.42632" lon="6.05271">
        <ele>282.79998779297</ele>
        <time>2015-12-16T13:29:18Z</time>
      </trkpt>
      <trkpt lat="43.42632" lon="6.05271">
        <ele>282.79998779297</ele>
        <time>2015-12-16T13:29:20Z</time>
      </trkpt>
      <trkpt lat="43.42632" lon="6.05271">
        <ele>283</ele>
        <time>2015-12-16T13:29:22Z</time>
      </trkpt>
      <trkpt lat="43.42632" lon="6.05271">
        <ele>283</ele>
        <time>2015-12-16T13:29:24Z</time>
      </trkpt>
      <trkpt lat="43.42632" lon="6.05271">
        <ele>283</ele>
        <time>2015-12-16T13:29:26Z</time>
      </trkpt>
      <trkpt lat="43.42632" lon="6.05271">
        <ele>283</ele>
        <time>2015-12-16T13:29:32Z</time>
      </trkpt>
      <trkpt lat="43.42632" lon="6.05271">
        <ele>283.20001220703</ele>
        <time>2015-12-16T13:29:38Z</time>
      </trkpt>
      <trkpt lat="43.42632" lon="6.0527">
        <ele>282.79998779297</ele>
        <time>2015-12-16T13:29:40Z</time>
      </trkpt>
      <trkpt lat="43.42632" lon="6.0527">
        <ele>283.20001220703</ele>
        <time>2015-12-16T13:29:46Z</time>
      </trkpt>
      <trkpt lat="43.42632" lon="6.0527">
        <ele>283.20001220703</ele>
        <time>2015-12-16T13:29:57Z</time>
      </trkpt>
      <trkpt lat="43.42632" lon="6.0527">
        <ele>283.39999389648</ele>
        <time>2015-12-16T13:30:20Z</time>
      </trkpt>
      <trkpt lat="43.42632" lon="6.0527">
        <ele>283.39999389648</ele>
        <time>2015-12-16T13:30:24Z</time>
      </trkpt>
      <trkpt lat="43.42632" lon="6.05271">
        <ele>283.39999389648</ele>
        <time>2015-12-16T13:30:26Z</time>
      </trkpt>
      <trkpt lat="43.42633" lon="6.05271">
        <ele>283.39999389648</ele>
        <time>2015-12-16T13:30:28Z</time>
      </trkpt>
      <trkpt lat="43.42633" lon="6.05271">
        <ele>282.60000610352</ele>
        <time>2015-12-16T13:30:32Z</time>
      </trkpt>
      <trkpt lat="43.42633" lon="6.05271">
        <ele>282.60000610352</ele>
        <time>2015-12-16T13:30:38Z</time>
      </trkpt>
      <trkpt lat="43.42633" lon="6.05271">
        <ele>282.39999389648</ele>
        <time>2015-12-16T13:30:42Z</time>
      </trkpt>
      <trkpt lat="43.42633" lon="6.05271">
        <ele>282.39999389648</ele>
        <time>2015-12-16T13:30:48Z</time>
      </trkpt>
      <trkpt lat="43.42633" lon="6.0527">
        <ele>282.60000610352</ele>
        <time>2015-12-16T13:30:52Z</time>
      </trkpt>
      <trkpt lat="43.42633" lon="6.0527">
        <ele>282.60000610352</ele>
        <time>2015-12-16T13:30:54Z</time>
      </trkpt>
      <trkpt lat="43.42633" lon="6.0527">
        <ele>282.60000610352</ele>
        <time>2015-12-16T13:30:58Z</time>
      </trkpt>
      <trkpt lat="43.42632" lon="6.05271">
        <ele>283</ele>
        <time>2015-12-16T13:31:00Z</time>
      </trkpt>
      <trkpt lat="43.42632" lon="6.0527">
        <ele>283.20001220703</ele>
        <time>2015-12-16T13:31:02Z</time>
      </trkpt>
      <trkpt lat="43.42632" lon="6.0527">
        <ele>283.39999389648</ele>
        <time>2015-12-16T13:31:04Z</time>
      </trkpt>
      <trkpt lat="43.42632" lon="6.0527">
        <ele>283.20001220703</ele>
        <time>2015-12-16T13:31:06Z</time>
      </trkpt>
      <trkpt lat="43.42632" lon="6.0527">
        <ele>283.20001220703</ele>
        <time>2015-12-16T13:31:08Z</time>
      </trkpt>
      <trkpt lat="43.42632" lon="6.0527">
        <ele>283.20001220703</ele>
        <time>2015-12-16T13:31:10Z</time>
      </trkpt>
      <trkpt lat="43.42632" lon="6.0527">
        <ele>283.20001220703</ele>
        <time>2015-12-16T13:31:12Z</time>
      </trkpt>
      <trkpt lat="43.42632" lon="6.05272">
        <ele>283.20001220703</ele>
        <time>2015-12-16T13:31:13Z</time>
      </trkpt>
      <trkpt lat="43.42631" lon="6.05273">
        <ele>283.39999389648</ele>
        <time>2015-12-16T13:31:14Z</time>
      </trkpt>
      <trkpt lat="43.42632" lon="6.05274">
        <ele>283.39999389648</ele>
        <time>2015-12-16T13:31:15Z</time>
      </trkpt>
      <trkpt lat="43.42633" lon="6.05276">
        <ele>283.39999389648</ele>
        <time>2015-12-16T13:31:16Z</time>
      </trkpt>
      <trkpt lat="43.42636" lon="6.0528">
        <ele>283.39999389648</ele>
        <time>2015-12-16T13:31:18Z</time>
      </trkpt>
      <trkpt lat="43.42638" lon="6.05282">
        <ele>283.39999389648</ele>
        <time>2015-12-16T13:31:19Z</time>
      </trkpt>
      <trkpt lat="43.4264" lon="6.05284">
        <ele>283.60000610352</ele>
        <time>2015-12-16T13:31:20Z</time>
      </trkpt>
      <trkpt lat="43.42643" lon="6.05289">
        <ele>284</ele>
        <time>2015-12-16T13:31:22Z</time>
      </trkpt>
      <trkpt lat="43.42648" lon="6.05294">
        <ele>284.39999389648</ele>
        <time>2015-12-16T13:31:24Z</time>
      </trkpt>
      <trkpt lat="43.42651" lon="6.053">
        <ele>284.60000610352</ele>
        <time>2015-12-16T13:31:26Z</time>
      </trkpt>
      <trkpt lat="43.42655" lon="6.05305">
        <ele>285</ele>
        <time>2015-12-16T13:31:28Z</time>
      </trkpt>
      <trkpt lat="43.42659" lon="6.0531">
        <ele>285.20001220703</ele>
        <time>2015-12-16T13:31:30Z</time>
      </trkpt>
      <trkpt lat="43.42662" lon="6.05315">
        <ele>285.79998779297</ele>
        <time>2015-12-16T13:31:32Z</time>
      </trkpt>
      <trkpt lat="43.42665" lon="6.0532">
        <ele>286.20001220703</ele>
        <time>2015-12-16T13:31:34Z</time>
      </trkpt>
      <trkpt lat="43.42668" lon="6.05324">
        <ele>286.20001220703</ele>
        <time>2015-12-16T13:31:36Z</time>
      </trkpt>
      <trkpt lat="43.42671" lon="6.05329">
        <ele>286.60000610352</ele>
        <time>2015-12-16T13:31:38Z</time>
      </trkpt>
      <trkpt lat="43.42673" lon="6.05332">
        <ele>287</ele>
        <time>2015-12-16T13:31:40Z</time>
      </trkpt>
      <trkpt lat="43.42675" lon="6.05335">
        <ele>287.39999389648</ele>
        <time>2015-12-16T13:31:42Z</time>
      </trkpt>
      <trkpt lat="43.42678" lon="6.05338">
        <ele>287.60000610352</ele>
        <time>2015-12-16T13:31:44Z</time>
      </trkpt>
      <trkpt lat="43.4268" lon="6.05341">
        <ele>287.79998779297</ele>
        <time>2015-12-16T13:31:46Z</time>
      </trkpt>
      <trkpt lat="43.42684" lon="6.05343">
        <ele>288.20001220703</ele>
        <time>2015-12-16T13:31:48Z</time>
      </trkpt>
      <trkpt lat="43.42688" lon="6.05344">
        <ele>288.39999389648</ele>
        <time>2015-12-16T13:31:50Z</time>
      </trkpt>
      <trkpt lat="43.42696" lon="6.05345">
        <ele>288.79998779297</ele>
        <time>2015-12-16T13:31:54Z</time>
      </trkpt>
      <trkpt lat="43.42703" lon="6.05346">
        <ele>289.20001220703</ele>
        <time>2015-12-16T13:31:58Z</time>
      </trkpt>
      <trkpt lat="43.42707" lon="6.05345">
        <ele>289.39999389648</ele>
        <time>2015-12-16T13:32:00Z</time>
      </trkpt>
      <trkpt lat="43.4271" lon="6.05345">
        <ele>289.39999389648</ele>
        <time>2015-12-16T13:32:02Z</time>
      </trkpt>
      <trkpt lat="43.42714" lon="6.05345">
        <ele>289.79998779297</ele>
        <time>2015-12-16T13:32:04Z</time>
      </trkpt>
      <trkpt lat="43.42715" lon="6.05345">
        <ele>290</ele>
        <time>2015-12-16T13:32:05Z</time>
      </trkpt>
      <trkpt lat="43.4272" lon="6.05347">
        <ele>290.20001220703</ele>
        <time>2015-12-16T13:32:08Z</time>
      </trkpt>
      <trkpt lat="43.4272" lon="6.0535">
        <ele>290.60000610352</ele>
        <time>2015-12-16T13:32:09Z</time>
      </trkpt>
      <trkpt lat="43.42721" lon="6.05351">
        <ele>290.60000610352</ele>
        <time>2015-12-16T13:32:10Z</time>
      </trkpt>
      <trkpt lat="43.42721" lon="6.05354">
        <ele>291</ele>
        <time>2015-12-16T13:32:12Z</time>
      </trkpt>
      <trkpt lat="43.42721" lon="6.05356">
        <ele>291.20001220703</ele>
        <time>2015-12-16T13:32:13Z</time>
      </trkpt>
      <trkpt lat="43.42722" lon="6.05358">
        <ele>291.20001220703</ele>
        <time>2015-12-16T13:32:14Z</time>
      </trkpt>
      <trkpt lat="43.42722" lon="6.05362">
        <ele>291.20001220703</ele>
        <time>2015-12-16T13:32:16Z</time>
      </trkpt>
      <trkpt lat="43.42721" lon="6.05367">
        <ele>291.20001220703</ele>
        <time>2015-12-16T13:32:18Z</time>
      </trkpt>
      <trkpt lat="43.4272" lon="6.0537">
        <ele>291.39999389648</ele>
        <time>2015-12-16T13:32:19Z</time>
      </trkpt>
      <trkpt lat="43.4272" lon="6.05372">
        <ele>291.39999389648</ele>
        <time>2015-12-16T13:32:20Z</time>
      </trkpt>
      <trkpt lat="43.4272" lon="6.05377">
        <ele>292</ele>
        <time>2015-12-16T13:32:22Z</time>
      </trkpt>
      <trkpt lat="43.4272" lon="6.05382">
        <ele>292.60000610352</ele>
        <time>2015-12-16T13:32:24Z</time>
      </trkpt>
      <trkpt lat="43.4272" lon="6.05386">
        <ele>292.60000610352</ele>
        <time>2015-12-16T13:32:26Z</time>
      </trkpt>
      <trkpt lat="43.42721" lon="6.05391">
        <ele>292.60000610352</ele>
        <time>2015-12-16T13:32:28Z</time>
      </trkpt>
      <trkpt lat="43.42723" lon="6.05395">
        <ele>293</ele>
        <time>2015-12-16T13:32:30Z</time>
      </trkpt>
      <trkpt lat="43.42725" lon="6.05399">
        <ele>293.39999389648</ele>
        <time>2015-12-16T13:32:32Z</time>
      </trkpt>
      <trkpt lat="43.42727" lon="6.05403">
        <ele>293.79998779297</ele>
        <time>2015-12-16T13:32:34Z</time>
      </trkpt>
      <trkpt lat="43.42727" lon="6.05406">
        <ele>294</ele>
        <time>2015-12-16T13:32:36Z</time>
      </trkpt>
      <trkpt lat="43.42728" lon="6.05411">
        <ele>294</ele>
        <time>2015-12-16T13:32:38Z</time>
      </trkpt>
      <trkpt lat="43.42728" lon="6.05413">
        <ele>294.60000610352</ele>
        <time>2015-12-16T13:32:40Z</time>
      </trkpt>
      <trkpt lat="43.4273" lon="6.05413">
        <ele>294.79998779297</ele>
        <time>2015-12-16T13:32:41Z</time>
      </trkpt>
      <trkpt lat="43.42731" lon="6.05414">
        <ele>294.79998779297</ele>
        <time>2015-12-16T13:32:42Z</time>
      </trkpt>
      <trkpt lat="43.42732" lon="6.05418">
        <ele>295</ele>
        <time>2015-12-16T13:32:44Z</time>
      </trkpt>
      <trkpt lat="43.42734" lon="6.05422">
        <ele>295.20001220703</ele>
        <time>2015-12-16T13:32:46Z</time>
      </trkpt>
      <trkpt lat="43.42735" lon="6.05424">
        <ele>295.20001220703</ele>
        <time>2015-12-16T13:32:47Z</time>
      </trkpt>
      <trkpt lat="43.42735" lon="6.05426">
        <ele>295.20001220703</ele>
        <time>2015-12-16T13:32:48Z</time>
      </trkpt>
      <trkpt lat="43.42736" lon="6.0543">
        <ele>295.60000610352</ele>
        <time>2015-12-16T13:32:50Z</time>
      </trkpt>
      <trkpt lat="43.42737" lon="6.05434">
        <ele>295.60000610352</ele>
        <time>2015-12-16T13:32:52Z</time>
      </trkpt>
      <trkpt lat="43.42737" lon="6.05436">
        <ele>295.79998779297</ele>
        <time>2015-12-16T13:32:53Z</time>
      </trkpt>
      <trkpt lat="43.42738" lon="6.05442">
        <ele>296</ele>
        <time>2015-12-16T13:32:56Z</time>
      </trkpt>
      <trkpt lat="43.42738" lon="6.05447">
        <ele>296.20001220703</ele>
        <time>2015-12-16T13:32:58Z</time>
      </trkpt>
      <trkpt lat="43.42738" lon="6.05451">
        <ele>296.39999389648</ele>
        <time>2015-12-16T13:33:00Z</time>
      </trkpt>
      <trkpt lat="43.42737" lon="6.05453">
        <ele>296.60000610352</ele>
        <time>2015-12-16T13:33:01Z</time>
      </trkpt>
      <trkpt lat="43.42736" lon="6.05455">
        <ele>296.79998779297</ele>
        <time>2015-12-16T13:33:02Z</time>
      </trkpt>
      <trkpt lat="43.42733" lon="6.05458">
        <ele>297</ele>
        <time>2015-12-16T13:33:04Z</time>
      </trkpt>
      <trkpt lat="43.42731" lon="6.05462">
        <ele>297</ele>
        <time>2015-12-16T13:33:06Z</time>
      </trkpt>
      <trkpt lat="43.4273" lon="6.05466">
        <ele>297.20001220703</ele>
        <time>2015-12-16T13:33:08Z</time>
      </trkpt>
      <trkpt lat="43.42729" lon="6.05467">
        <ele>297.39999389648</ele>
        <time>2015-12-16T13:33:09Z</time>
      </trkpt>
      <trkpt lat="43.42728" lon="6.05469">
        <ele>297.39999389648</ele>
        <time>2015-12-16T13:33:10Z</time>
      </trkpt>
      <trkpt lat="43.42728" lon="6.05474">
        <ele>297.79998779297</ele>
        <time>2015-12-16T13:33:12Z</time>
      </trkpt>
      <trkpt lat="43.42728" lon="6.05476">
        <ele>298</ele>
        <time>2015-12-16T13:33:13Z</time>
      </trkpt>
      <trkpt lat="43.42728" lon="6.05483">
        <ele>298.20001220703</ele>
        <time>2015-12-16T13:33:16Z</time>
      </trkpt>
      <trkpt lat="43.42728" lon="6.05488">
        <ele>298.39999389648</ele>
        <time>2015-12-16T13:33:18Z</time>
      </trkpt>
      <trkpt lat="43.42729" lon="6.05493">
        <ele>298</ele>
        <time>2015-12-16T13:33:20Z</time>
      </trkpt>
      <trkpt lat="43.42729" lon="6.05495">
        <ele>298.20001220703</ele>
        <time>2015-12-16T13:33:21Z</time>
      </trkpt>
      <trkpt lat="43.4273" lon="6.05498">
        <ele>298.39999389648</ele>
        <time>2015-12-16T13:33:22Z</time>
      </trkpt>
      <trkpt lat="43.4273" lon="6.05503">
        <ele>298.79998779297</ele>
        <time>2015-12-16T13:33:24Z</time>
      </trkpt>
      <trkpt lat="43.42731" lon="6.05507">
        <ele>299.60000610352</ele>
        <time>2015-12-16T13:33:26Z</time>
      </trkpt>
      <trkpt lat="43.42731" lon="6.05512">
        <ele>299.60000610352</ele>
        <time>2015-12-16T13:33:28Z</time>
      </trkpt>
      <trkpt lat="43.42731" lon="6.05516">
        <ele>299.79998779297</ele>
        <time>2015-12-16T13:33:30Z</time>
      </trkpt>
      <trkpt lat="43.42732" lon="6.05521">
        <ele>300</ele>
        <time>2015-12-16T13:33:32Z</time>
      </trkpt>
      <trkpt lat="43.42733" lon="6.0553">
        <ele>300.60000610352</ele>
        <time>2015-12-16T13:33:36Z</time>
      </trkpt>
      <trkpt lat="43.42733" lon="6.05531">
        <ele>300.60000610352</ele>
        <time>2015-12-16T13:33:37Z</time>
      </trkpt>
      <trkpt lat="43.42733" lon="6.05534">
        <ele>300.79998779297</ele>
        <time>2015-12-16T13:33:38Z</time>
      </trkpt>
      <trkpt lat="43.42734" lon="6.05538">
        <ele>301</ele>
        <time>2015-12-16T13:33:40Z</time>
      </trkpt>
      <trkpt lat="43.42735" lon="6.05542">
        <ele>301.39999389648</ele>
        <time>2015-12-16T13:33:42Z</time>
      </trkpt>
      <trkpt lat="43.42735" lon="6.05544">
        <ele>301.39999389648</ele>
        <time>2015-12-16T13:33:43Z</time>
      </trkpt>
      <trkpt lat="43.42738" lon="6.0555">
        <ele>301.39999389648</ele>
        <time>2015-12-16T13:33:46Z</time>
      </trkpt>
      <trkpt lat="43.42739" lon="6.05552">
        <ele>302</ele>
        <time>2015-12-16T13:33:47Z</time>
      </trkpt>
      <trkpt lat="43.42741" lon="6.05556">
        <ele>302</ele>
        <time>2015-12-16T13:33:49Z</time>
      </trkpt>
      <trkpt lat="43.42742" lon="6.0556">
        <ele>302.20001220703</ele>
        <time>2015-12-16T13:33:51Z</time>
      </trkpt>
      <trkpt lat="43.42743" lon="6.05566">
        <ele>302.39999389648</ele>
        <time>2015-12-16T13:33:54Z</time>
      </trkpt>
      <trkpt lat="43.42744" lon="6.05568">
        <ele>302.60000610352</ele>
        <time>2015-12-16T13:33:55Z</time>
      </trkpt>
      <trkpt lat="43.42745" lon="6.05571">
        <ele>303</ele>
        <time>2015-12-16T13:33:57Z</time>
      </trkpt>
      <trkpt lat="43.42746" lon="6.05572">
        <ele>303</ele>
        <time>2015-12-16T13:33:58Z</time>
      </trkpt>
      <trkpt lat="43.42749" lon="6.05576">
        <ele>303.20001220703</ele>
        <time>2015-12-16T13:34:00Z</time>
      </trkpt>
      <trkpt lat="43.42754" lon="6.0558">
        <ele>304.20001220703</ele>
        <time>2015-12-16T13:34:04Z</time>
      </trkpt>
      <trkpt lat="43.42756" lon="6.05584">
        <ele>304.60000610352</ele>
        <time>2015-12-16T13:34:06Z</time>
      </trkpt>
      <trkpt lat="43.42758" lon="6.05587">
        <ele>304.79998779297</ele>
        <time>2015-12-16T13:34:08Z</time>
      </trkpt>
      <trkpt lat="43.4276" lon="6.05592">
        <ele>305.20001220703</ele>
        <time>2015-12-16T13:34:11Z</time>
      </trkpt>
      <trkpt lat="43.42761" lon="6.05597">
        <ele>305.79998779297</ele>
        <time>2015-12-16T13:34:14Z</time>
      </trkpt>
      <trkpt lat="43.42761" lon="6.056">
        <ele>306</ele>
        <time>2015-12-16T13:34:16Z</time>
      </trkpt>
      <trkpt lat="43.4276" lon="6.05604">
        <ele>306.39999389648</ele>
        <time>2015-12-16T13:34:18Z</time>
      </trkpt>
      <trkpt lat="43.4276" lon="6.05607">
        <ele>306.39999389648</ele>
        <time>2015-12-16T13:34:20Z</time>
      </trkpt>
      <trkpt lat="43.42759" lon="6.05611">
        <ele>306.79998779297</ele>
        <time>2015-12-16T13:34:22Z</time>
      </trkpt>
      <trkpt lat="43.42757" lon="6.05614">
        <ele>307.39999389648</ele>
        <time>2015-12-16T13:34:24Z</time>
      </trkpt>
      <trkpt lat="43.42756" lon="6.05619">
        <ele>307.60000610352</ele>
        <time>2015-12-16T13:34:26Z</time>
      </trkpt>
      <trkpt lat="43.42754" lon="6.05622">
        <ele>308</ele>
        <time>2015-12-16T13:34:28Z</time>
      </trkpt>
      <trkpt lat="43.42752" lon="6.05626">
        <ele>308.39999389648</ele>
        <time>2015-12-16T13:34:30Z</time>
      </trkpt>
      <trkpt lat="43.4275" lon="6.0563">
        <ele>308.39999389648</ele>
        <time>2015-12-16T13:34:32Z</time>
      </trkpt>
      <trkpt lat="43.42749" lon="6.05633">
        <ele>309</ele>
        <time>2015-12-16T13:34:34Z</time>
      </trkpt>
      <trkpt lat="43.42747" lon="6.05636">
        <ele>309.20001220703</ele>
        <time>2015-12-16T13:34:36Z</time>
      </trkpt>
      <trkpt lat="43.42744" lon="6.05637">
        <ele>309.20001220703</ele>
        <time>2015-12-16T13:34:38Z</time>
      </trkpt>
      <trkpt lat="43.42741" lon="6.0564">
        <ele>309.20001220703</ele>
        <time>2015-12-16T13:34:40Z</time>
      </trkpt>
      <trkpt lat="43.42739" lon="6.05643">
        <ele>309.39999389648</ele>
        <time>2015-12-16T13:34:42Z</time>
      </trkpt>
      <trkpt lat="43.42736" lon="6.05645">
        <ele>309.60000610352</ele>
        <time>2015-12-16T13:34:44Z</time>
      </trkpt>
      <trkpt lat="43.42734" lon="6.05648">
        <ele>309.60000610352</ele>
        <time>2015-12-16T13:34:46Z</time>
      </trkpt>
      <trkpt lat="43.42733" lon="6.05649">
        <ele>309.79998779297</ele>
        <time>2015-12-16T13:34:47Z</time>
      </trkpt>
      <trkpt lat="43.4273" lon="6.05653">
        <ele>310</ele>
        <time>2015-12-16T13:34:50Z</time>
      </trkpt>
      <trkpt lat="43.42728" lon="6.0566">
        <ele>310.20001220703</ele>
        <time>2015-12-16T13:34:54Z</time>
      </trkpt>
      <trkpt lat="43.42727" lon="6.05664">
        <ele>310.60000610352</ele>
        <time>2015-12-16T13:34:56Z</time>
      </trkpt>
      <trkpt lat="43.42725" lon="6.05667">
        <ele>311</ele>
        <time>2015-12-16T13:34:58Z</time>
      </trkpt>
      <trkpt lat="43.42721" lon="6.05673">
        <ele>311.60000610352</ele>
        <time>2015-12-16T13:35:02Z</time>
      </trkpt>
      <trkpt lat="43.4272" lon="6.05675">
        <ele>311.60000610352</ele>
        <time>2015-12-16T13:35:03Z</time>
      </trkpt>
      <trkpt lat="43.42719" lon="6.05676">
        <ele>311.60000610352</ele>
        <time>2015-12-16T13:35:04Z</time>
      </trkpt>
      <trkpt lat="43.42712" lon="6.05681">
        <ele>312.39999389648</ele>
        <time>2015-12-16T13:35:09Z</time>
      </trkpt>
      <trkpt lat="43.42711" lon="6.05682">
        <ele>312.60000610352</ele>
        <time>2015-12-16T13:35:10Z</time>
      </trkpt>
      <trkpt lat="43.42709" lon="6.05683">
        <ele>313</ele>
        <time>2015-12-16T13:35:12Z</time>
      </trkpt>
      <trkpt lat="43.42709" lon="6.05684">
        <ele>313.20001220703</ele>
        <time>2015-12-16T13:35:13Z</time>
      </trkpt>
      <trkpt lat="43.42708" lon="6.05686">
        <ele>313.39999389648</ele>
        <time>2015-12-16T13:35:14Z</time>
      </trkpt>
      <trkpt lat="43.42707" lon="6.0569">
        <ele>313.60000610352</ele>
        <time>2015-12-16T13:35:16Z</time>
      </trkpt>
      <trkpt lat="43.42706" lon="6.05695">
        <ele>314</ele>
        <time>2015-12-16T13:35:18Z</time>
      </trkpt>
      <trkpt lat="43.42705" lon="6.05699">
        <ele>314.20001220703</ele>
        <time>2015-12-16T13:35:20Z</time>
      </trkpt>
      <trkpt lat="43.42705" lon="6.057">
        <ele>314.39999389648</ele>
        <time>2015-12-16T13:35:21Z</time>
      </trkpt>
      <trkpt lat="43.42704" lon="6.05702">
        <ele>315.20001220703</ele>
        <time>2015-12-16T13:35:24Z</time>
      </trkpt>
      <trkpt lat="43.42703" lon="6.05703">
        <ele>315</ele>
        <time>2015-12-16T13:35:26Z</time>
      </trkpt>
      <trkpt lat="43.42703" lon="6.05704">
        <ele>315.20001220703</ele>
        <time>2015-12-16T13:35:28Z</time>
      </trkpt>
      <trkpt lat="43.42703" lon="6.05704">
        <ele>315.20001220703</ele>
        <time>2015-12-16T13:35:30Z</time>
      </trkpt>
      <trkpt lat="43.42703" lon="6.05705">
        <ele>315.39999389648</ele>
        <time>2015-12-16T13:35:32Z</time>
      </trkpt>
      <trkpt lat="43.42703" lon="6.05705">
        <ele>315.20001220703</ele>
        <time>2015-12-16T13:35:34Z</time>
      </trkpt>
      <trkpt lat="43.42703" lon="6.05705">
        <ele>315</ele>
        <time>2015-12-16T13:35:35Z</time>
      </trkpt>
      <trkpt lat="43.42703" lon="6.05706">
        <ele>315</ele>
        <time>2015-12-16T13:35:36Z</time>
      </trkpt>
      <trkpt lat="43.42702" lon="6.05707">
        <ele>315</ele>
        <time>2015-12-16T13:35:37Z</time>
      </trkpt>
      <trkpt lat="43.42702" lon="6.05709">
        <ele>315.20001220703</ele>
        <time>2015-12-16T13:35:38Z</time>
      </trkpt>
      <trkpt lat="43.42701" lon="6.05711">
        <ele>315.79998779297</ele>
        <time>2015-12-16T13:35:40Z</time>
      </trkpt>
      <trkpt lat="43.427" lon="6.05715">
        <ele>316</ele>
        <time>2015-12-16T13:35:42Z</time>
      </trkpt>
      <trkpt lat="43.427" lon="6.05719">
        <ele>316.60000610352</ele>
        <time>2015-12-16T13:35:44Z</time>
      </trkpt>
      <trkpt lat="43.42699" lon="6.05721">
        <ele>316.79998779297</ele>
        <time>2015-12-16T13:35:45Z</time>
      </trkpt>
      <trkpt lat="43.42699" lon="6.05721">
        <ele>316.79998779297</ele>
        <time>2015-12-16T13:35:46Z</time>
      </trkpt>
      <trkpt lat="43.42699" lon="6.05721">
        <ele>316.79998779297</ele>
        <time>2015-12-16T13:35:48Z</time>
      </trkpt>
      <trkpt lat="43.42699" lon="6.05722">
        <ele>316.79998779297</ele>
        <time>2015-12-16T13:35:49Z</time>
      </trkpt>
      <trkpt lat="43.42698" lon="6.05723">
        <ele>316.79998779297</ele>
        <time>2015-12-16T13:35:50Z</time>
      </trkpt>
      <trkpt lat="43.42698" lon="6.05723">
        <ele>316.79998779297</ele>
        <time>2015-12-16T13:35:52Z</time>
      </trkpt>
      <trkpt lat="43.42698" lon="6.05725">
        <ele>317</ele>
        <time>2015-12-16T13:35:54Z</time>
      </trkpt>
      <trkpt lat="43.42697" lon="6.05726">
        <ele>316.79998779297</ele>
        <time>2015-12-16T13:35:55Z</time>
      </trkpt>
      <trkpt lat="43.42697" lon="6.05727">
        <ele>316.79998779297</ele>
        <time>2015-12-16T13:35:56Z</time>
      </trkpt>
      <trkpt lat="43.42697" lon="6.05731">
        <ele>317</ele>
        <time>2015-12-16T13:35:58Z</time>
      </trkpt>
      <trkpt lat="43.42697" lon="6.05734">
        <ele>317.39999389648</ele>
        <time>2015-12-16T13:36:00Z</time>
      </trkpt>
      <trkpt lat="43.42699" lon="6.05737">
        <ele>318</ele>
        <time>2015-12-16T13:36:02Z</time>
      </trkpt>
      <trkpt lat="43.42701" lon="6.05739">
        <ele>318.39999389648</ele>
        <time>2015-12-16T13:36:04Z</time>
      </trkpt>
      <trkpt lat="43.42708" lon="6.05739">
        <ele>318.79998779297</ele>
        <time>2015-12-16T13:36:08Z</time>
      </trkpt>
      <trkpt lat="43.42712" lon="6.0574">
        <ele>318.60000610352</ele>
        <time>2015-12-16T13:36:10Z</time>
      </trkpt>
      <trkpt lat="43.42714" lon="6.0574">
        <ele>318.60000610352</ele>
        <time>2015-12-16T13:36:11Z</time>
      </trkpt>
      <trkpt lat="43.42719" lon="6.05741">
        <ele>318.79998779297</ele>
        <time>2015-12-16T13:36:14Z</time>
      </trkpt>
      <trkpt lat="43.42721" lon="6.05741">
        <ele>318.79998779297</ele>
        <time>2015-12-16T13:36:15Z</time>
      </trkpt>
      <trkpt lat="43.42723" lon="6.05741">
        <ele>318.60000610352</ele>
        <time>2015-12-16T13:36:16Z</time>
      </trkpt>
      <trkpt lat="43.42727" lon="6.05742">
        <ele>318.79998779297</ele>
        <time>2015-12-16T13:36:18Z</time>
      </trkpt>
      <trkpt lat="43.42733" lon="6.05743">
        <ele>318.79998779297</ele>
        <time>2015-12-16T13:36:22Z</time>
      </trkpt>
      <trkpt lat="43.42737" lon="6.05743">
        <ele>319.20001220703</ele>
        <time>2015-12-16T13:36:24Z</time>
      </trkpt>
      <trkpt lat="43.42739" lon="6.05744">
        <ele>319.20001220703</ele>
        <time>2015-12-16T13:36:26Z</time>
      </trkpt>
      <trkpt lat="43.42742" lon="6.05743">
        <ele>319.79998779297</ele>
        <time>2015-12-16T13:36:28Z</time>
      </trkpt>
      <trkpt lat="43.42746" lon="6.05744">
        <ele>319.79998779297</ele>
        <time>2015-12-16T13:36:30Z</time>
      </trkpt>
      <trkpt lat="43.42749" lon="6.05745">
        <ele>319.79998779297</ele>
        <time>2015-12-16T13:36:32Z</time>
      </trkpt>
      <trkpt lat="43.42752" lon="6.05742">
        <ele>319.60000610352</ele>
        <time>2015-12-16T13:36:34Z</time>
      </trkpt>
      <trkpt lat="43.42755" lon="6.05738">
        <ele>319.79998779297</ele>
        <time>2015-12-16T13:36:36Z</time>
      </trkpt>
      <trkpt lat="43.42759" lon="6.05735">
        <ele>319.79998779297</ele>
        <time>2015-12-16T13:36:38Z</time>
      </trkpt>
      <trkpt lat="43.42762" lon="6.05733">
        <ele>320</ele>
        <time>2015-12-16T13:36:40Z</time>
      </trkpt>
      <trkpt lat="43.42765" lon="6.05732">
        <ele>319.79998779297</ele>
        <time>2015-12-16T13:36:42Z</time>
      </trkpt>
      <trkpt lat="43.42768" lon="6.05733">
        <ele>320</ele>
        <time>2015-12-16T13:36:44Z</time>
      </trkpt>
      <trkpt lat="43.42771" lon="6.05733">
        <ele>320</ele>
        <time>2015-12-16T13:36:46Z</time>
      </trkpt>
      <trkpt lat="43.42775" lon="6.05736">
        <ele>320.20001220703</ele>
        <time>2015-12-16T13:36:48Z</time>
      </trkpt>
      <trkpt lat="43.42777" lon="6.05738">
        <ele>320.60000610352</ele>
        <time>2015-12-16T13:36:50Z</time>
      </trkpt>
      <trkpt lat="43.42779" lon="6.05739">
        <ele>320.79998779297</ele>
        <time>2015-12-16T13:36:51Z</time>
      </trkpt>
      <trkpt lat="43.42781" lon="6.0574">
        <ele>320.60000610352</ele>
        <time>2015-12-16T13:36:52Z</time>
      </trkpt>
      <trkpt lat="43.42784" lon="6.0574">
        <ele>320.79998779297</ele>
        <time>2015-12-16T13:36:54Z</time>
      </trkpt>
      <trkpt lat="43.42786" lon="6.05744">
        <ele>321</ele>
        <time>2015-12-16T13:36:56Z</time>
      </trkpt>
      <trkpt lat="43.42788" lon="6.05745">
        <ele>321.20001220703</ele>
        <time>2015-12-16T13:36:57Z</time>
      </trkpt>
      <trkpt lat="43.42789" lon="6.05746">
        <ele>321.39999389648</ele>
        <time>2015-12-16T13:36:58Z</time>
      </trkpt>
      <trkpt lat="43.42793" lon="6.05747">
        <ele>321.20001220703</ele>
        <time>2015-12-16T13:37:00Z</time>
      </trkpt>
      <trkpt lat="43.42796" lon="6.05748">
        <ele>321.20001220703</ele>
        <time>2015-12-16T13:37:02Z</time>
      </trkpt>
      <trkpt lat="43.42801" lon="6.05745">
        <ele>321.39999389648</ele>
        <time>2015-12-16T13:37:04Z</time>
      </trkpt>
      <trkpt lat="43.42803" lon="6.05744">
        <ele>321.60000610352</ele>
        <time>2015-12-16T13:37:05Z</time>
      </trkpt>
      <trkpt lat="43.42805" lon="6.05742">
        <ele>321.39999389648</ele>
        <time>2015-12-16T13:37:06Z</time>
      </trkpt>
      <trkpt lat="43.42809" lon="6.05739">
        <ele>321.39999389648</ele>
        <time>2015-12-16T13:37:08Z</time>
      </trkpt>
      <trkpt lat="43.4282" lon="6.05738">
        <ele>321.39999389648</ele>
        <time>2015-12-16T13:37:12Z</time>
      </trkpt>
      <trkpt lat="43.42824" lon="6.05737">
        <ele>321.20001220703</ele>
        <time>2015-12-16T13:37:14Z</time>
      </trkpt>
      <trkpt lat="43.42826" lon="6.05736">
        <ele>321</ele>
        <time>2015-12-16T13:37:15Z</time>
      </trkpt>
      <trkpt lat="43.42828" lon="6.05734">
        <ele>321</ele>
        <time>2015-12-16T13:37:16Z</time>
      </trkpt>
      <trkpt lat="43.42831" lon="6.05731">
        <ele>321</ele>
        <time>2015-12-16T13:37:18Z</time>
      </trkpt>
      <trkpt lat="43.42833" lon="6.0573">
        <ele>321.20001220703</ele>
        <time>2015-12-16T13:37:20Z</time>
      </trkpt>
      <trkpt lat="43.42833" lon="6.0573">
        <ele>321.39999389648</ele>
        <time>2015-12-16T13:37:22Z</time>
      </trkpt>
      <trkpt lat="43.42834" lon="6.0573">
        <ele>321.39999389648</ele>
        <time>2015-12-16T13:37:24Z</time>
      </trkpt>
      <trkpt lat="43.42834" lon="6.0573">
        <ele>321.39999389648</ele>
        <time>2015-12-16T13:37:26Z</time>
      </trkpt>
      <trkpt lat="43.42834" lon="6.0573">
        <ele>321.60000610352</ele>
        <time>2015-12-16T13:37:28Z</time>
      </trkpt>
      <trkpt lat="43.42834" lon="6.0573">
        <ele>321.39999389648</ele>
        <time>2015-12-16T13:37:30Z</time>
      </trkpt>
      <trkpt lat="43.42834" lon="6.0573">
        <ele>321.39999389648</ele>
        <time>2015-12-16T13:37:34Z</time>
      </trkpt>
      <trkpt lat="43.42834" lon="6.0573">
        <ele>321.20001220703</ele>
        <time>2015-12-16T13:37:44Z</time>
      </trkpt>
      <trkpt lat="43.42834" lon="6.0573">
        <ele>321.20001220703</ele>
        <time>2015-12-16T13:37:48Z</time>
      </trkpt>
      <trkpt lat="43.42834" lon="6.0573">
        <ele>321.20001220703</ele>
        <time>2015-12-16T13:37:54Z</time>
      </trkpt>
      <trkpt lat="43.42834" lon="6.0573">
        <ele>321</ele>
        <time>2015-12-16T13:38:06Z</time>
      </trkpt>
      <trkpt lat="43.42834" lon="6.0573">
        <ele>321.20001220703</ele>
        <time>2015-12-16T13:38:18Z</time>
      </trkpt>
      <trkpt lat="43.42834" lon="6.0573">
        <ele>321.20001220703</ele>
        <time>2015-12-16T13:38:28Z</time>
      </trkpt>
      <trkpt lat="43.42834" lon="6.0573">
        <ele>321.20001220703</ele>
        <time>2015-12-16T13:38:32Z</time>
      </trkpt>
      <trkpt lat="43.42834" lon="6.0573">
        <ele>321.20001220703</ele>
        <time>2015-12-16T13:38:34Z</time>
      </trkpt>
      <trkpt lat="43.42834" lon="6.0573">
        <ele>321.20001220703</ele>
        <time>2015-12-16T13:38:38Z</time>
      </trkpt>
      <trkpt lat="43.42834" lon="6.0573">
        <ele>321.39999389648</ele>
        <time>2015-12-16T13:38:42Z</time>
      </trkpt>
      <trkpt lat="43.42834" lon="6.05731">
        <ele>321.39999389648</ele>
        <time>2015-12-16T13:38:44Z</time>
      </trkpt>
      <trkpt lat="43.42834" lon="6.05731">
        <ele>321.20001220703</ele>
        <time>2015-12-16T13:38:52Z</time>
      </trkpt>
      <trkpt lat="43.42834" lon="6.05731">
        <ele>321.20001220703</ele>
        <time>2015-12-16T13:38:56Z</time>
      </trkpt>
      <trkpt lat="43.42834" lon="6.05731">
        <ele>321.20001220703</ele>
        <time>2015-12-16T13:39:02Z</time>
      </trkpt>
      <trkpt lat="43.42833" lon="6.05731">
        <ele>321.20001220703</ele>
        <time>2015-12-16T13:39:04Z</time>
      </trkpt>
      <trkpt lat="43.42833" lon="6.05731">
        <ele>321.20001220703</ele>
        <time>2015-12-16T13:39:06Z</time>
      </trkpt>
      <trkpt lat="43.42833" lon="6.05731">
        <ele>321.20001220703</ele>
        <time>2015-12-16T13:39:10Z</time>
      </trkpt>
      <trkpt lat="43.42833" lon="6.05731">
        <ele>321</ele>
        <time>2015-12-16T13:39:16Z</time>
      </trkpt>
      <trkpt lat="43.42833" lon="6.05731">
        <ele>321.20001220703</ele>
        <time>2015-12-16T13:39:20Z</time>
      </trkpt>
      <trkpt lat="43.42833" lon="6.05731">
        <ele>321.20001220703</ele>
        <time>2015-12-16T13:39:22Z</time>
      </trkpt>
      <trkpt lat="43.42833" lon="6.05731">
        <ele>321.20001220703</ele>
        <time>2015-12-16T13:39:24Z</time>
      </trkpt>
      <trkpt lat="43.42833" lon="6.05731">
        <ele>321.20001220703</ele>
        <time>2015-12-16T13:39:26Z</time>
      </trkpt>
      <trkpt lat="43.42833" lon="6.05731">
        <ele>321.39999389648</ele>
        <time>2015-12-16T13:39:32Z</time>
      </trkpt>
      <trkpt lat="43.42833" lon="6.05731">
        <ele>321.20001220703</ele>
        <time>2015-12-16T13:39:34Z</time>
      </trkpt>
      <trkpt lat="43.42833" lon="6.05731">
        <ele>321.39999389648</ele>
        <time>2015-12-16T13:39:38Z</time>
      </trkpt>
      <trkpt lat="43.42833" lon="6.05731">
        <ele>321.39999389648</ele>
        <time>2015-12-16T13:39:40Z</time>
      </trkpt>
      <trkpt lat="43.42833" lon="6.05731">
        <ele>321.39999389648</ele>
        <time>2015-12-16T13:39:46Z</time>
      </trkpt>
      <trkpt lat="43.42833" lon="6.05731">
        <ele>321.39999389648</ele>
        <time>2015-12-16T13:39:50Z</time>
      </trkpt>
      <trkpt lat="43.42833" lon="6.05731">
        <ele>321.20001220703</ele>
        <time>2015-12-16T13:39:52Z</time>
      </trkpt>
      <trkpt lat="43.42833" lon="6.05731">
        <ele>321.20001220703</ele>
        <time>2015-12-16T13:39:53Z</time>
      </trkpt>
      <trkpt lat="43.42833" lon="6.05731">
        <ele>321.20001220703</ele>
        <time>2015-12-16T13:39:56Z</time>
      </trkpt>
      <trkpt lat="43.42833" lon="6.05731">
        <ele>321.39999389648</ele>
        <time>2015-12-16T13:39:58Z</time>
      </trkpt>
      <trkpt lat="43.42833" lon="6.05731">
        <ele>321.39999389648</ele>
        <time>2015-12-16T13:40:02Z</time>
      </trkpt>
      <trkpt lat="43.42833" lon="6.05731">
        <ele>321.60000610352</ele>
        <time>2015-12-16T13:40:04Z</time>
      </trkpt>
      <trkpt lat="43.42833" lon="6.05731">
        <ele>321.60000610352</ele>
        <time>2015-12-16T13:40:06Z</time>
      </trkpt>
      <trkpt lat="43.42833" lon="6.05731">
        <ele>321.39999389648</ele>
        <time>2015-12-16T13:40:08Z</time>
      </trkpt>
      <trkpt lat="43.42833" lon="6.05731">
        <ele>321.60000610352</ele>
        <time>2015-12-16T13:40:10Z</time>
      </trkpt>
      <trkpt lat="43.42833" lon="6.05731">
        <ele>321.39999389648</ele>
        <time>2015-12-16T13:40:16Z</time>
      </trkpt>
      <trkpt lat="43.42833" lon="6.05731">
        <ele>321.60000610352</ele>
        <time>2015-12-16T13:40:32Z</time>
      </trkpt>
      <trkpt lat="43.42833" lon="6.05731">
        <ele>321.39999389648</ele>
        <time>2015-12-16T13:40:46Z</time>
      </trkpt>
      <trkpt lat="43.42833" lon="6.05731">
        <ele>321.60000610352</ele>
        <time>2015-12-16T13:40:48Z</time>
      </trkpt>
      <trkpt lat="43.42833" lon="6.05731">
        <ele>321.39999389648</ele>
        <time>2015-12-16T13:40:50Z</time>
      </trkpt>
      <trkpt lat="43.42833" lon="6.05731">
        <ele>321.20001220703</ele>
        <time>2015-12-16T13:40:52Z</time>
      </trkpt>
      <trkpt lat="43.42833" lon="6.05731">
        <ele>321.39999389648</ele>
        <time>2015-12-16T13:40:54Z</time>
      </trkpt>
      <trkpt lat="43.42833" lon="6.05731">
        <ele>321.39999389648</ele>
        <time>2015-12-16T13:41:04Z</time>
      </trkpt>
      <trkpt lat="43.42833" lon="6.05731">
        <ele>321.60000610352</ele>
        <time>2015-12-16T13:41:24Z</time>
      </trkpt>
      <trkpt lat="43.42833" lon="6.05731">
        <ele>321.39999389648</ele>
        <time>2015-12-16T13:41:36Z</time>
      </trkpt>
      <trkpt lat="43.42833" lon="6.05731">
        <ele>321.39999389648</ele>
        <time>2015-12-16T13:41:48Z</time>
      </trkpt>
      <trkpt lat="43.42833" lon="6.05731">
        <ele>321.39999389648</ele>
        <time>2015-12-16T13:41:50Z</time>
      </trkpt>
      <trkpt lat="43.42833" lon="6.05731">
        <ele>321.39999389648</ele>
        <time>2015-12-16T13:41:52Z</time>
      </trkpt>
      <trkpt lat="43.42833" lon="6.05731">
        <ele>321.39999389648</ele>
        <time>2015-12-16T13:41:54Z</time>
      </trkpt>
      <trkpt lat="43.42833" lon="6.05731">
        <ele>321.39999389648</ele>
        <time>2015-12-16T13:41:56Z</time>
      </trkpt>
      <trkpt lat="43.42833" lon="6.05731">
        <ele>321.20001220703</ele>
        <time>2015-12-16T13:42:00Z</time>
      </trkpt>
      <trkpt lat="43.42833" lon="6.05731">
        <ele>320.79998779297</ele>
        <time>2015-12-16T13:42:04Z</time>
      </trkpt>
      <trkpt lat="43.42833" lon="6.05731">
        <ele>320.79998779297</ele>
        <time>2015-12-16T13:42:08Z</time>
      </trkpt>
      <trkpt lat="43.42833" lon="6.05731">
        <ele>320.79998779297</ele>
        <time>2015-12-16T13:42:10Z</time>
      </trkpt>
      <trkpt lat="43.42833" lon="6.05731">
        <ele>320.79998779297</ele>
        <time>2015-12-16T13:42:12Z</time>
      </trkpt>
      <trkpt lat="43.42833" lon="6.05731">
        <ele>321</ele>
        <time>2015-12-16T13:42:16Z</time>
      </trkpt>
      <trkpt lat="43.42833" lon="6.05731">
        <ele>320.79998779297</ele>
        <time>2015-12-16T13:42:20Z</time>
      </trkpt>
      <trkpt lat="43.42833" lon="6.05731">
        <ele>320.79998779297</ele>
        <time>2015-12-16T13:42:22Z</time>
      </trkpt>
      <trkpt lat="43.42833" lon="6.05731">
        <ele>321</ele>
        <time>2015-12-16T13:42:24Z</time>
      </trkpt>
      <trkpt lat="43.42833" lon="6.05731">
        <ele>321</ele>
        <time>2015-12-16T13:42:27Z</time>
      </trkpt>
      <trkpt lat="43.42833" lon="6.05731">
        <ele>321</ele>
        <time>2015-12-16T13:42:28Z</time>
      </trkpt>
      <trkpt lat="43.42833" lon="6.05731">
        <ele>321</ele>
        <time>2015-12-16T13:42:30Z</time>
      </trkpt>
      <trkpt lat="43.42833" lon="6.05731">
        <ele>321</ele>
        <time>2015-12-16T13:42:32Z</time>
      </trkpt>
      <trkpt lat="43.42833" lon="6.05731">
        <ele>321</ele>
        <time>2015-12-16T13:42:34Z</time>
      </trkpt>
      <trkpt lat="43.42833" lon="6.05731">
        <ele>321</ele>
        <time>2015-12-16T13:42:36Z</time>
      </trkpt>
      <trkpt lat="43.42833" lon="6.05731">
        <ele>321</ele>
        <time>2015-12-16T13:42:38Z</time>
      </trkpt>
      <trkpt lat="43.42833" lon="6.05731">
        <ele>321</ele>
        <time>2015-12-16T13:42:40Z</time>
      </trkpt>
      <trkpt lat="43.42833" lon="6.05731">
        <ele>321</ele>
        <time>2015-12-16T13:42:42Z</time>
      </trkpt>
      <trkpt lat="43.42833" lon="6.05731">
        <ele>321</ele>
        <time>2015-12-16T13:42:44Z</time>
      </trkpt>
      <trkpt lat="43.42833" lon="6.05731">
        <ele>321</ele>
        <time>2015-12-16T13:42:46Z</time>
      </trkpt>
      <trkpt lat="43.42833" lon="6.05731">
        <ele>321.20001220703</ele>
        <time>2015-12-16T13:42:48Z</time>
      </trkpt>
      <trkpt lat="43.42833" lon="6.05731">
        <ele>321.20001220703</ele>
        <time>2015-12-16T13:42:50Z</time>
      </trkpt>
      <trkpt lat="43.42833" lon="6.05731">
        <ele>321</ele>
        <time>2015-12-16T13:42:54Z</time>
      </trkpt>
      <trkpt lat="43.42833" lon="6.05731">
        <ele>321</ele>
        <time>2015-12-16T13:43:14Z</time>
      </trkpt>
      <trkpt lat="43.42833" lon="6.05732">
        <ele>321.20001220703</ele>
        <time>2015-12-16T13:43:19Z</time>
      </trkpt>
      <trkpt lat="43.42833" lon="6.05732">
        <ele>321.20001220703</ele>
        <time>2015-12-16T13:43:22Z</time>
      </trkpt>
      <trkpt lat="43.42833" lon="6.05732">
        <ele>321.60000610352</ele>
        <time>2015-12-16T13:43:24Z</time>
      </trkpt>
      <trkpt lat="43.42833" lon="6.05732">
        <ele>321.79998779297</ele>
        <time>2015-12-16T13:43:26Z</time>
      </trkpt>
      <trkpt lat="43.42833" lon="6.05732">
        <ele>321.79998779297</ele>
        <time>2015-12-16T13:43:28Z</time>
      </trkpt>
      <trkpt lat="43.42833" lon="6.05732">
        <ele>322</ele>
        <time>2015-12-16T13:43:32Z</time>
      </trkpt>
      <trkpt lat="43.42833" lon="6.05732">
        <ele>322</ele>
        <time>2015-12-16T13:43:34Z</time>
      </trkpt>
      <trkpt lat="43.42833" lon="6.05732">
        <ele>322</ele>
        <time>2015-12-16T13:43:38Z</time>
      </trkpt>
      <trkpt lat="43.42833" lon="6.05731">
        <ele>322</ele>
        <time>2015-12-16T13:43:40Z</time>
      </trkpt>
      <trkpt lat="43.42833" lon="6.05731">
        <ele>321.79998779297</ele>
        <time>2015-12-16T13:43:42Z</time>
      </trkpt>
      <trkpt lat="43.42833" lon="6.05731">
        <ele>322</ele>
        <time>2015-12-16T13:43:44Z</time>
      </trkpt>
      <trkpt lat="43.42833" lon="6.05731">
        <ele>322.20001220703</ele>
        <time>2015-12-16T13:43:46Z</time>
      </trkpt>
      <trkpt lat="43.42833" lon="6.05731">
        <ele>322</ele>
        <time>2015-12-16T13:43:50Z</time>
      </trkpt>
      <trkpt lat="43.42834" lon="6.05731">
        <ele>322</ele>
        <time>2015-12-16T13:43:52Z</time>
      </trkpt>
      <trkpt lat="43.42836" lon="6.05729">
        <ele>322</ele>
        <time>2015-12-16T13:43:54Z</time>
      </trkpt>
      <trkpt lat="43.42838" lon="6.05727">
        <ele>322</ele>
        <time>2015-12-16T13:43:56Z</time>
      </trkpt>
      <trkpt lat="43.42838" lon="6.05726">
        <ele>322</ele>
        <time>2015-12-16T13:43:57Z</time>
      </trkpt>
      <trkpt lat="43.42839" lon="6.05725">
        <ele>321.79998779297</ele>
        <time>2015-12-16T13:43:58Z</time>
      </trkpt>
      <trkpt lat="43.4284" lon="6.05722">
        <ele>322</ele>
        <time>2015-12-16T13:44:00Z</time>
      </trkpt>
      <trkpt lat="43.42841" lon="6.05716">
        <ele>322</ele>
        <time>2015-12-16T13:44:02Z</time>
      </trkpt>
      <trkpt lat="43.42843" lon="6.05708">
        <ele>322</ele>
        <time>2015-12-16T13:44:04Z</time>
      </trkpt>
      <trkpt lat="43.42843" lon="6.05704">
        <ele>322.20001220703</ele>
        <time>2015-12-16T13:44:05Z</time>
      </trkpt>
      <trkpt lat="43.42843" lon="6.057">
        <ele>322.20001220703</ele>
        <time>2015-12-16T13:44:06Z</time>
      </trkpt>
      <trkpt lat="43.42844" lon="6.05692">
        <ele>322.39999389648</ele>
        <time>2015-12-16T13:44:08Z</time>
      </trkpt>
      <trkpt lat="43.42845" lon="6.05683">
        <ele>322.60000610352</ele>
        <time>2015-12-16T13:44:10Z</time>
      </trkpt>
      <trkpt lat="43.42845" lon="6.05679">
        <ele>322.60000610352</ele>
        <time>2015-12-16T13:44:11Z</time>
      </trkpt>
      <trkpt lat="43.42846" lon="6.05674">
        <ele>322.39999389648</ele>
        <time>2015-12-16T13:44:12Z</time>
      </trkpt>
      <trkpt lat="43.42847" lon="6.05664">
        <ele>322.39999389648</ele>
        <time>2015-12-16T13:44:14Z</time>
      </trkpt>
      <trkpt lat="43.42849" lon="6.05655">
        <ele>322.20001220703</ele>
        <time>2015-12-16T13:44:16Z</time>
      </trkpt>
      <trkpt lat="43.4285" lon="6.0564">
        <ele>321.20001220703</ele>
        <time>2015-12-16T13:44:19Z</time>
      </trkpt>
      <trkpt lat="43.42851" lon="6.05634">
        <ele>321.39999389648</ele>
        <time>2015-12-16T13:44:20Z</time>
      </trkpt>
      <trkpt lat="43.42852" lon="6.05623">
        <ele>321.39999389648</ele>
        <time>2015-12-16T13:44:22Z</time>
      </trkpt>
      <trkpt lat="43.42853" lon="6.05612">
        <ele>321.79998779297</ele>
        <time>2015-12-16T13:44:24Z</time>
      </trkpt>
      <trkpt lat="43.42854" lon="6.05601">
        <ele>322.20001220703</ele>
        <time>2015-12-16T13:44:26Z</time>
      </trkpt>
      <trkpt lat="43.42855" lon="6.05588">
        <ele>321.79998779297</ele>
        <time>2015-12-16T13:44:28Z</time>
      </trkpt>
      <trkpt lat="43.42857" lon="6.05575">
        <ele>321</ele>
        <time>2015-12-16T13:44:30Z</time>
      </trkpt>
      <trkpt lat="43.42857" lon="6.05569">
        <ele>320.79998779297</ele>
        <time>2015-12-16T13:44:31Z</time>
      </trkpt>
      <trkpt lat="43.42859" lon="6.05563">
        <ele>320.79998779297</ele>
        <time>2015-12-16T13:44:32Z</time>
      </trkpt>
      <trkpt lat="43.4286" lon="6.05551">
        <ele>320</ele>
        <time>2015-12-16T13:44:34Z</time>
      </trkpt>
      <trkpt lat="43.42863" lon="6.05544">
        <ele>320.79998779297</ele>
        <time>2015-12-16T13:44:36Z</time>
      </trkpt>
      <trkpt lat="43.42866" lon="6.05544">
        <ele>321</ele>
        <time>2015-12-16T13:44:37Z</time>
      </trkpt>
      <trkpt lat="43.42868" lon="6.05544">
        <ele>320.79998779297</ele>
        <time>2015-12-16T13:44:38Z</time>
      </trkpt>
      <trkpt lat="43.42875" lon="6.05547">
        <ele>319.60000610352</ele>
        <time>2015-12-16T13:44:40Z</time>
      </trkpt>
      <trkpt lat="43.42878" lon="6.05549">
        <ele>319.20001220703</ele>
        <time>2015-12-16T13:44:41Z</time>
      </trkpt>
      <trkpt lat="43.42882" lon="6.0555">
        <ele>319.79998779297</ele>
        <time>2015-12-16T13:44:42Z</time>
      </trkpt>
      <trkpt lat="43.42889" lon="6.05556">
        <ele>319.60000610352</ele>
        <time>2015-12-16T13:44:44Z</time>
      </trkpt>
      <trkpt lat="43.42893" lon="6.05557">
        <ele>319.39999389648</ele>
        <time>2015-12-16T13:44:45Z</time>
      </trkpt>
      <trkpt lat="43.42897" lon="6.05558">
        <ele>319.39999389648</ele>
        <time>2015-12-16T13:44:46Z</time>
      </trkpt>
      <trkpt lat="43.42906" lon="6.05557">
        <ele>319.60000610352</ele>
        <time>2015-12-16T13:44:48Z</time>
      </trkpt>
      <trkpt lat="43.4291" lon="6.05554">
        <ele>319.79998779297</ele>
        <time>2015-12-16T13:44:49Z</time>
      </trkpt>
      <trkpt lat="43.42914" lon="6.05551">
        <ele>319.39999389648</ele>
        <time>2015-12-16T13:44:50Z</time>
      </trkpt>
      <trkpt lat="43.42918" lon="6.05549">
        <ele>318.79998779297</ele>
        <time>2015-12-16T13:44:51Z</time>
      </trkpt>
      <trkpt lat="43.42923" lon="6.05547">
        <ele>318.20001220703</ele>
        <time>2015-12-16T13:44:52Z</time>
      </trkpt>
      <trkpt lat="43.42929" lon="6.05539">
        <ele>318</ele>
        <time>2015-12-16T13:44:54Z</time>
      </trkpt>
      <trkpt lat="43.42937" lon="6.05534">
        <ele>318.60000610352</ele>
        <time>2015-12-16T13:44:56Z</time>
      </trkpt>
      <trkpt lat="43.42944" lon="6.0553">
        <ele>318.20001220703</ele>
        <time>2015-12-16T13:44:58Z</time>
      </trkpt>
      <trkpt lat="43.42946" lon="6.05528">
        <ele>318.20001220703</ele>
        <time>2015-12-16T13:44:59Z</time>
      </trkpt>
      <trkpt lat="43.42949" lon="6.05527">
        <ele>318.20001220703</ele>
        <time>2015-12-16T13:45:00Z</time>
      </trkpt>
      <trkpt lat="43.42955" lon="6.05524">
        <ele>318.79998779297</ele>
        <time>2015-12-16T13:45:02Z</time>
      </trkpt>
      <trkpt lat="43.42959" lon="6.05522">
        <ele>319.39999389648</ele>
        <time>2015-12-16T13:45:04Z</time>
      </trkpt>
      <trkpt lat="43.42964" lon="6.0552">
        <ele>320</ele>
        <time>2015-12-16T13:45:06Z</time>
      </trkpt>
      <trkpt lat="43.42969" lon="6.05518">
        <ele>320.79998779297</ele>
        <time>2015-12-16T13:45:08Z</time>
      </trkpt>
      <trkpt lat="43.42973" lon="6.05516">
        <ele>321.60000610352</ele>
        <time>2015-12-16T13:45:10Z</time>
      </trkpt>
      <trkpt lat="43.42975" lon="6.05515">
        <ele>322</ele>
        <time>2015-12-16T13:45:11Z</time>
      </trkpt>
      <trkpt lat="43.42977" lon="6.05514">
        <ele>322.79998779297</ele>
        <time>2015-12-16T13:45:12Z</time>
      </trkpt>
      <trkpt lat="43.42981" lon="6.05511">
        <ele>323.39999389648</ele>
        <time>2015-12-16T13:45:14Z</time>
      </trkpt>
      <trkpt lat="43.42984" lon="6.05509">
        <ele>323.79998779297</ele>
        <time>2015-12-16T13:45:16Z</time>
      </trkpt>
      <trkpt lat="43.42988" lon="6.05508">
        <ele>324.39999389648</ele>
        <time>2015-12-16T13:45:18Z</time>
      </trkpt>
      <trkpt lat="43.42992" lon="6.05507">
        <ele>325</ele>
        <time>2015-12-16T13:45:21Z</time>
      </trkpt>
      <trkpt lat="43.42993" lon="6.05508">
        <ele>325.20001220703</ele>
        <time>2015-12-16T13:45:22Z</time>
      </trkpt>
      <trkpt lat="43.42995" lon="6.05508">
        <ele>325.39999389648</ele>
        <time>2015-12-16T13:45:23Z</time>
      </trkpt>
      <trkpt lat="43.42996" lon="6.05508">
        <ele>325.60000610352</ele>
        <time>2015-12-16T13:45:24Z</time>
      </trkpt>
      <trkpt lat="43.43" lon="6.05508">
        <ele>325.79998779297</ele>
        <time>2015-12-16T13:45:26Z</time>
      </trkpt>
      <trkpt lat="43.43002" lon="6.05508">
        <ele>326</ele>
        <time>2015-12-16T13:45:28Z</time>
      </trkpt>
      <trkpt lat="43.43003" lon="6.05508">
        <ele>326.20001220703</ele>
        <time>2015-12-16T13:45:29Z</time>
      </trkpt>
      <trkpt lat="43.43004" lon="6.05507">
        <ele>326.20001220703</ele>
        <time>2015-12-16T13:45:30Z</time>
      </trkpt>
      <trkpt lat="43.43004" lon="6.05507">
        <ele>326</ele>
        <time>2015-12-16T13:45:31Z</time>
      </trkpt>
      <trkpt lat="43.43004" lon="6.05507">
        <ele>326.20001220703</ele>
        <time>2015-12-16T13:45:32Z</time>
      </trkpt>
      <trkpt lat="43.43004" lon="6.05507">
        <ele>326.39999389648</ele>
        <time>2015-12-16T13:45:34Z</time>
      </trkpt>
      <trkpt lat="43.43004" lon="6.05507">
        <ele>326</ele>
        <time>2015-12-16T13:45:42Z</time>
      </trkpt>
      <trkpt lat="43.43004" lon="6.05507">
        <ele>326</ele>
        <time>2015-12-16T13:45:48Z</time>
      </trkpt>
      <trkpt lat="43.43004" lon="6.05506">
        <ele>326</ele>
        <time>2015-12-16T13:45:50Z</time>
      </trkpt>
      <trkpt lat="43.43005" lon="6.05506">
        <ele>326</ele>
        <time>2015-12-16T13:45:52Z</time>
      </trkpt>
      <trkpt lat="43.43004" lon="6.05506">
        <ele>326.20001220703</ele>
        <time>2015-12-16T13:45:54Z</time>
      </trkpt>
      <trkpt lat="43.43004" lon="6.05506">
        <ele>326.20001220703</ele>
        <time>2015-12-16T13:45:58Z</time>
      </trkpt>
      <trkpt lat="43.43004" lon="6.05506">
        <ele>326.20001220703</ele>
        <time>2015-12-16T13:46:00Z</time>
      </trkpt>
      <trkpt lat="43.43004" lon="6.05506">
        <ele>326</ele>
        <time>2015-12-16T13:46:02Z</time>
      </trkpt>
      <trkpt lat="43.43005" lon="6.05506">
        <ele>326</ele>
        <time>2015-12-16T13:46:04Z</time>
      </trkpt>
      <trkpt lat="43.43004" lon="6.05506">
        <ele>326</ele>
        <time>2015-12-16T13:46:06Z</time>
      </trkpt>
      <trkpt lat="43.43004" lon="6.05507">
        <ele>326</ele>
        <time>2015-12-16T13:46:08Z</time>
      </trkpt>
      <trkpt lat="43.43004" lon="6.05507">
        <ele>326</ele>
        <time>2015-12-16T13:46:12Z</time>
      </trkpt>
      <trkpt lat="43.43004" lon="6.05507">
        <ele>326</ele>
        <time>2015-12-16T13:46:14Z</time>
      </trkpt>
      <trkpt lat="43.43004" lon="6.05507">
        <ele>326.20001220703</ele>
        <time>2015-12-16T13:46:16Z</time>
      </trkpt>
      <trkpt lat="43.43004" lon="6.05507">
        <ele>326.20001220703</ele>
        <time>2015-12-16T13:46:18Z</time>
      </trkpt>
      <trkpt lat="43.43004" lon="6.05507">
        <ele>326</ele>
        <time>2015-12-16T13:46:20Z</time>
      </trkpt>
      <trkpt lat="43.43004" lon="6.05506">
        <ele>326</ele>
        <time>2015-12-16T13:46:24Z</time>
      </trkpt>
      <trkpt lat="43.43004" lon="6.05506">
        <ele>326</ele>
        <time>2015-12-16T13:46:26Z</time>
      </trkpt>
      <trkpt lat="43.43004" lon="6.05506">
        <ele>326</ele>
        <time>2015-12-16T13:46:28Z</time>
      </trkpt>
      <trkpt lat="43.43004" lon="6.05506">
        <ele>326</ele>
        <time>2015-12-16T13:46:30Z</time>
      </trkpt>
      <trkpt lat="43.43004" lon="6.05506">
        <ele>326.20001220703</ele>
        <time>2015-12-16T13:46:32Z</time>
      </trkpt>
      <trkpt lat="43.43004" lon="6.05506">
        <ele>326</ele>
        <time>2015-12-16T13:46:34Z</time>
      </trkpt>
      <trkpt lat="43.43004" lon="6.05506">
        <ele>326</ele>
        <time>2015-12-16T13:46:36Z</time>
      </trkpt>
      <trkpt lat="43.43005" lon="6.05507">
        <ele>325.79998779297</ele>
        <time>2015-12-16T13:46:38Z</time>
      </trkpt>
      <trkpt lat="43.43005" lon="6.05507">
        <ele>326.20001220703</ele>
        <time>2015-12-16T13:46:42Z</time>
      </trkpt>
      <trkpt lat="43.43005" lon="6.05507">
        <ele>326.20001220703</ele>
        <time>2015-12-16T13:46:44Z</time>
      </trkpt>
      <trkpt lat="43.43005" lon="6.05508">
        <ele>326</ele>
        <time>2015-12-16T13:46:46Z</time>
      </trkpt>
      <trkpt lat="43.43007" lon="6.05511">
        <ele>326</ele>
        <time>2015-12-16T13:46:48Z</time>
      </trkpt>
      <trkpt lat="43.43008" lon="6.05513">
        <ele>325.79998779297</ele>
        <time>2015-12-16T13:46:49Z</time>
      </trkpt>
      <trkpt lat="43.43009" lon="6.05516">
        <ele>325.60000610352</ele>
        <time>2015-12-16T13:46:50Z</time>
      </trkpt>
      <trkpt lat="43.43012" lon="6.05522">
        <ele>325.39999389648</ele>
        <time>2015-12-16T13:46:52Z</time>
      </trkpt>
      <trkpt lat="43.43013" lon="6.05526">
        <ele>325.20001220703</ele>
        <time>2015-12-16T13:46:53Z</time>
      </trkpt>
      <trkpt lat="43.43013" lon="6.05531">
        <ele>324.79998779297</ele>
        <time>2015-12-16T13:46:54Z</time>
      </trkpt>
      <trkpt lat="43.43015" lon="6.05542">
        <ele>324.60000610352</ele>
        <time>2015-12-16T13:46:56Z</time>
      </trkpt>
      <trkpt lat="43.43016" lon="6.05547">
        <ele>324.39999389648</ele>
        <time>2015-12-16T13:46:57Z</time>
      </trkpt>
      <trkpt lat="43.43018" lon="6.05552">
        <ele>323.39999389648</ele>
        <time>2015-12-16T13:46:58Z</time>
      </trkpt>
      <trkpt lat="43.4302" lon="6.05563">
        <ele>323.60000610352</ele>
        <time>2015-12-16T13:47:00Z</time>
      </trkpt>
      <trkpt lat="43.43021" lon="6.05568">
        <ele>323.60000610352</ele>
        <time>2015-12-16T13:47:01Z</time>
      </trkpt>
      <trkpt lat="43.43021" lon="6.05573">
        <ele>323.60000610352</ele>
        <time>2015-12-16T13:47:02Z</time>
      </trkpt>
      <trkpt lat="43.43025" lon="6.05582">
        <ele>323.39999389648</ele>
        <time>2015-12-16T13:47:04Z</time>
      </trkpt>
      <trkpt lat="43.43026" lon="6.05589">
        <ele>323</ele>
        <time>2015-12-16T13:47:06Z</time>
      </trkpt>
      <trkpt lat="43.43027" lon="6.05593">
        <ele>322.39999389648</ele>
        <time>2015-12-16T13:47:08Z</time>
      </trkpt>
      <trkpt lat="43.43029" lon="6.05595">
        <ele>322.39999389648</ele>
        <time>2015-12-16T13:47:10Z</time>
      </trkpt>
      <trkpt lat="43.43029" lon="6.05595">
        <ele>322.20001220703</ele>
        <time>2015-12-16T13:47:11Z</time>
      </trkpt>
      <trkpt lat="43.43029" lon="6.05595">
        <ele>322.20001220703</ele>
        <time>2015-12-16T13:47:12Z</time>
      </trkpt>
      <trkpt lat="43.43029" lon="6.05595">
        <ele>322.20001220703</ele>
        <time>2015-12-16T13:47:13Z</time>
      </trkpt>
      <trkpt lat="43.4303" lon="6.05596">
        <ele>322.20001220703</ele>
        <time>2015-12-16T13:47:14Z</time>
      </trkpt>
      <trkpt lat="43.4303" lon="6.05597">
        <ele>322.20001220703</ele>
        <time>2015-12-16T13:47:15Z</time>
      </trkpt>
      <trkpt lat="43.4303" lon="6.05599">
        <ele>322</ele>
        <time>2015-12-16T13:47:16Z</time>
      </trkpt>
      <trkpt lat="43.4303" lon="6.05604">
        <ele>322</ele>
        <time>2015-12-16T13:47:18Z</time>
      </trkpt>
      <trkpt lat="43.43031" lon="6.05613">
        <ele>321.79998779297</ele>
        <time>2015-12-16T13:47:20Z</time>
      </trkpt>
      <trkpt lat="43.43029" lon="6.05625">
        <ele>321.20001220703</ele>
        <time>2015-12-16T13:47:23Z</time>
      </trkpt>
      <trkpt lat="43.43029" lon="6.05629">
        <ele>320.79998779297</ele>
        <time>2015-12-16T13:47:24Z</time>
      </trkpt>
      <trkpt lat="43.43028" lon="6.05638">
        <ele>320.39999389648</ele>
        <time>2015-12-16T13:47:26Z</time>
      </trkpt>
      <trkpt lat="43.43026" lon="6.0565">
        <ele>320.39999389648</ele>
        <time>2015-12-16T13:47:28Z</time>
      </trkpt>
      <trkpt lat="43.43026" lon="6.05655">
        <ele>319.79998779297</ele>
        <time>2015-12-16T13:47:29Z</time>
      </trkpt>
      <trkpt lat="43.43026" lon="6.05661">
        <ele>319.20001220703</ele>
        <time>2015-12-16T13:47:30Z</time>
      </trkpt>
      <trkpt lat="43.43026" lon="6.05671">
        <ele>318.60000610352</ele>
        <time>2015-12-16T13:47:32Z</time>
      </trkpt>
      <trkpt lat="43.43028" lon="6.05695">
        <ele>317.79998779297</ele>
        <time>2015-12-16T13:47:36Z</time>
      </trkpt>
      <trkpt lat="43.43024" lon="6.05704">
        <ele>316.60000610352</ele>
        <time>2015-12-16T13:47:38Z</time>
      </trkpt>
      <trkpt lat="43.43023" lon="6.05713">
        <ele>316.79998779297</ele>
        <time>2015-12-16T13:47:40Z</time>
      </trkpt>
      <trkpt lat="43.43021" lon="6.05725">
        <ele>316.79998779297</ele>
        <time>2015-12-16T13:47:42Z</time>
      </trkpt>
      <trkpt lat="43.43019" lon="6.05732">
        <ele>316</ele>
        <time>2015-12-16T13:47:43Z</time>
      </trkpt>
      <trkpt lat="43.43016" lon="6.05737">
        <ele>315.39999389648</ele>
        <time>2015-12-16T13:47:44Z</time>
      </trkpt>
      <trkpt lat="43.43013" lon="6.05741">
        <ele>315</ele>
        <time>2015-12-16T13:47:45Z</time>
      </trkpt>
      <trkpt lat="43.4301" lon="6.05745">
        <ele>315.20001220703</ele>
        <time>2015-12-16T13:47:46Z</time>
      </trkpt>
      <trkpt lat="43.43005" lon="6.05754">
        <ele>314.39999389648</ele>
        <time>2015-12-16T13:47:48Z</time>
      </trkpt>
      <trkpt lat="43.43004" lon="6.05759">
        <ele>314</ele>
        <time>2015-12-16T13:47:49Z</time>
      </trkpt>
      <trkpt lat="43.43003" lon="6.05764">
        <ele>314</ele>
        <time>2015-12-16T13:47:50Z</time>
      </trkpt>
      <trkpt lat="43.43002" lon="6.05777">
        <ele>313.60000610352</ele>
        <time>2015-12-16T13:47:53Z</time>
      </trkpt>
      <trkpt lat="43.43001" lon="6.05781">
        <ele>313.79998779297</ele>
        <time>2015-12-16T13:47:54Z</time>
      </trkpt>
      <trkpt lat="43.43" lon="6.05789">
        <ele>312.39999389648</ele>
        <time>2015-12-16T13:47:56Z</time>
      </trkpt>
      <trkpt lat="43.43003" lon="6.05799">
        <ele>312</ele>
        <time>2015-12-16T13:48:00Z</time>
      </trkpt>
      <trkpt lat="43.43003" lon="6.05803">
        <ele>311.39999389648</ele>
        <time>2015-12-16T13:48:01Z</time>
      </trkpt>
      <trkpt lat="43.43004" lon="6.05806">
        <ele>310.79998779297</ele>
        <time>2015-12-16T13:48:02Z</time>
      </trkpt>
      <trkpt lat="43.43004" lon="6.05813">
        <ele>310.20001220703</ele>
        <time>2015-12-16T13:48:04Z</time>
      </trkpt>
      <trkpt lat="43.43003" lon="6.05822">
        <ele>310</ele>
        <time>2015-12-16T13:48:06Z</time>
      </trkpt>
      <trkpt lat="43.43003" lon="6.05833">
        <ele>309.20001220703</ele>
        <time>2015-12-16T13:48:08Z</time>
      </trkpt>
      <trkpt lat="43.43005" lon="6.05844">
        <ele>307.60000610352</ele>
        <time>2015-12-16T13:48:10Z</time>
      </trkpt>
      <trkpt lat="43.43006" lon="6.05852">
        <ele>306.39999389648</ele>
        <time>2015-12-16T13:48:12Z</time>
      </trkpt>
      <trkpt lat="43.4301" lon="6.05855">
        <ele>305</ele>
        <time>2015-12-16T13:48:14Z</time>
      </trkpt>
      <trkpt lat="43.43011" lon="6.05858">
        <ele>303.79998779297</ele>
        <time>2015-12-16T13:48:15Z</time>
      </trkpt>
      <trkpt lat="43.43013" lon="6.05859">
        <ele>303.20001220703</ele>
        <time>2015-12-16T13:48:16Z</time>
      </trkpt>
      <trkpt lat="43.43016" lon="6.0586">
        <ele>302.60000610352</ele>
        <time>2015-12-16T13:48:17Z</time>
      </trkpt>
      <trkpt lat="43.4302" lon="6.05862">
        <ele>302.20001220703</ele>
        <time>2015-12-16T13:48:18Z</time>
      </trkpt>
      <trkpt lat="43.43024" lon="6.05863">
        <ele>301</ele>
        <time>2015-12-16T13:48:19Z</time>
      </trkpt>
      <trkpt lat="43.43029" lon="6.05863">
        <ele>299.39999389648</ele>
        <time>2015-12-16T13:48:20Z</time>
      </trkpt>
      <trkpt lat="43.43037" lon="6.05861">
        <ele>298.20001220703</ele>
        <time>2015-12-16T13:48:22Z</time>
      </trkpt>
      <trkpt lat="43.43044" lon="6.05859">
        <ele>297</ele>
        <time>2015-12-16T13:48:24Z</time>
      </trkpt>
      <trkpt lat="43.43049" lon="6.05857">
        <ele>296.60000610352</ele>
        <time>2015-12-16T13:48:26Z</time>
      </trkpt>
      <trkpt lat="43.43053" lon="6.05855">
        <ele>296</ele>
        <time>2015-12-16T13:48:27Z</time>
      </trkpt>
      <trkpt lat="43.43058" lon="6.05854">
        <ele>295.60000610352</ele>
        <time>2015-12-16T13:48:28Z</time>
      </trkpt>
      <trkpt lat="43.43062" lon="6.05853">
        <ele>294.39999389648</ele>
        <time>2015-12-16T13:48:29Z</time>
      </trkpt>
      <trkpt lat="43.43066" lon="6.05853">
        <ele>292.60000610352</ele>
        <time>2015-12-16T13:48:30Z</time>
      </trkpt>
      <trkpt lat="43.43073" lon="6.05852">
        <ele>290.60000610352</ele>
        <time>2015-12-16T13:48:32Z</time>
      </trkpt>
      <trkpt lat="43.43076" lon="6.05851">
        <ele>289.39999389648</ele>
        <time>2015-12-16T13:48:33Z</time>
      </trkpt>
      <trkpt lat="43.4308" lon="6.0585">
        <ele>288</ele>
        <time>2015-12-16T13:48:34Z</time>
      </trkpt>
      <trkpt lat="43.43087" lon="6.05848">
        <ele>287.79998779297</ele>
        <time>2015-12-16T13:48:36Z</time>
      </trkpt>
      <trkpt lat="43.43089" lon="6.05847">
        <ele>287.39999389648</ele>
        <time>2015-12-16T13:48:37Z</time>
      </trkpt>
      <trkpt lat="43.43092" lon="6.05847">
        <ele>286.60000610352</ele>
        <time>2015-12-16T13:48:38Z</time>
      </trkpt>
      <trkpt lat="43.43095" lon="6.05847">
        <ele>285.79998779297</ele>
        <time>2015-12-16T13:48:40Z</time>
      </trkpt>
      <trkpt lat="43.43096" lon="6.05847">
        <ele>285.79998779297</ele>
        <time>2015-12-16T13:48:41Z</time>
      </trkpt>
      <trkpt lat="43.43096" lon="6.05846">
        <ele>285.39999389648</ele>
        <time>2015-12-16T13:48:42Z</time>
      </trkpt>
      <trkpt lat="43.43096" lon="6.05846">
        <ele>285</ele>
        <time>2015-12-16T13:48:44Z</time>
      </trkpt>
      <trkpt lat="43.43096" lon="6.05846">
        <ele>285</ele>
        <time>2015-12-16T13:48:46Z</time>
      </trkpt>
      <trkpt lat="43.43096" lon="6.05846">
        <ele>285.20001220703</ele>
        <time>2015-12-16T13:48:48Z</time>
      </trkpt>
      <trkpt lat="43.43097" lon="6.05846">
        <ele>285.20001220703</ele>
        <time>2015-12-16T13:48:50Z</time>
      </trkpt>
      <trkpt lat="43.43096" lon="6.05846">
        <ele>285.20001220703</ele>
        <time>2015-12-16T13:48:52Z</time>
      </trkpt>
      <trkpt lat="43.43096" lon="6.05846">
        <ele>285</ele>
        <time>2015-12-16T13:48:54Z</time>
      </trkpt>
      <trkpt lat="43.43096" lon="6.05846">
        <ele>285.20001220703</ele>
        <time>2015-12-16T13:48:56Z</time>
      </trkpt>
      <trkpt lat="43.43097" lon="6.05846">
        <ele>285.20001220703</ele>
        <time>2015-12-16T13:48:58Z</time>
      </trkpt>
      <trkpt lat="43.43097" lon="6.05846">
        <ele>285.20001220703</ele>
        <time>2015-12-16T13:49:00Z</time>
      </trkpt>
      <trkpt lat="43.43097" lon="6.05846">
        <ele>285</ele>
        <time>2015-12-16T13:49:02Z</time>
      </trkpt>
      <trkpt lat="43.43097" lon="6.05846">
        <ele>285</ele>
        <time>2015-12-16T13:49:04Z</time>
      </trkpt>
      <trkpt lat="43.43097" lon="6.05846">
        <ele>285</ele>
        <time>2015-12-16T13:49:06Z</time>
      </trkpt>
      <trkpt lat="43.43097" lon="6.05846">
        <ele>285</ele>
        <time>2015-12-16T13:49:12Z</time>
      </trkpt>
      <trkpt lat="43.43097" lon="6.05846">
        <ele>285</ele>
        <time>2015-12-16T13:49:16Z</time>
      </trkpt>
      <trkpt lat="43.43097" lon="6.05847">
        <ele>285</ele>
        <time>2015-12-16T13:49:20Z</time>
      </trkpt>
      <trkpt lat="43.43096" lon="6.05847">
        <ele>285</ele>
        <time>2015-12-16T13:49:22Z</time>
      </trkpt>
      <trkpt lat="43.43096" lon="6.05847">
        <ele>285.20001220703</ele>
        <time>2015-12-16T13:49:23Z</time>
      </trkpt>
      <trkpt lat="43.43095" lon="6.05847">
        <ele>285.39999389648</ele>
        <time>2015-12-16T13:49:24Z</time>
      </trkpt>
      <trkpt lat="43.43094" lon="6.05847">
        <ele>285.39999389648</ele>
        <time>2015-12-16T13:49:26Z</time>
      </trkpt>
      <trkpt lat="43.43094" lon="6.05848">
        <ele>285.60000610352</ele>
        <time>2015-12-16T13:49:28Z</time>
      </trkpt>
      <trkpt lat="43.43093" lon="6.05848">
        <ele>285.79998779297</ele>
        <time>2015-12-16T13:49:29Z</time>
      </trkpt>
      <trkpt lat="43.43093" lon="6.05848">
        <ele>286.20001220703</ele>
        <time>2015-12-16T13:49:30Z</time>
      </trkpt>
      <trkpt lat="43.43093" lon="6.05848">
        <ele>286.20001220703</ele>
        <time>2015-12-16T13:49:32Z</time>
      </trkpt>
      <trkpt lat="43.43094" lon="6.05848">
        <ele>286.20001220703</ele>
        <time>2015-12-16T13:49:34Z</time>
      </trkpt>
      <trkpt lat="43.43094" lon="6.05848">
        <ele>286</ele>
        <time>2015-12-16T13:49:36Z</time>
      </trkpt>
      <trkpt lat="43.43094" lon="6.05848">
        <ele>286.20001220703</ele>
        <time>2015-12-16T13:49:40Z</time>
      </trkpt>
      <trkpt lat="43.43094" lon="6.05848">
        <ele>286</ele>
        <time>2015-12-16T13:49:52Z</time>
      </trkpt>
      <trkpt lat="43.43094" lon="6.05848">
        <ele>286</ele>
        <time>2015-12-16T13:49:56Z</time>
      </trkpt>
      <trkpt lat="43.43094" lon="6.05848">
        <ele>286</ele>
        <time>2015-12-16T13:49:58Z</time>
      </trkpt>
      <trkpt lat="43.43094" lon="6.05848">
        <ele>286</ele>
        <time>2015-12-16T13:50:00Z</time>
      </trkpt>
      <trkpt lat="43.43094" lon="6.05848">
        <ele>285.79998779297</ele>
        <time>2015-12-16T13:50:04Z</time>
      </trkpt>
      <trkpt lat="43.43094" lon="6.05848">
        <ele>286.20001220703</ele>
        <time>2015-12-16T13:50:12Z</time>
      </trkpt>
      <trkpt lat="43.43094" lon="6.05848">
        <ele>286.20001220703</ele>
        <time>2015-12-16T13:50:18Z</time>
      </trkpt>
      <trkpt lat="43.43094" lon="6.05847">
        <ele>285.79998779297</ele>
        <time>2015-12-16T13:50:20Z</time>
      </trkpt>
      <trkpt lat="43.43095" lon="6.05847">
        <ele>285.79998779297</ele>
        <time>2015-12-16T13:50:22Z</time>
      </trkpt>
      <trkpt lat="43.43094" lon="6.05847">
        <ele>285.79998779297</ele>
        <time>2015-12-16T13:50:23Z</time>
      </trkpt>
      <trkpt lat="43.43094" lon="6.05847">
        <ele>286</ele>
        <time>2015-12-16T13:50:28Z</time>
      </trkpt>
      <trkpt lat="43.43094" lon="6.05846">
        <ele>286</ele>
        <time>2015-12-16T13:50:32Z</time>
      </trkpt>
      <trkpt lat="43.43094" lon="6.05846">
        <ele>286</ele>
        <time>2015-12-16T13:50:35Z</time>
      </trkpt>
      <trkpt lat="43.43095" lon="6.05847">
        <ele>286</ele>
        <time>2015-12-16T13:50:36Z</time>
      </trkpt>
      <trkpt lat="43.43095" lon="6.05847">
        <ele>285.79998779297</ele>
        <time>2015-12-16T13:50:38Z</time>
      </trkpt>
      <trkpt lat="43.43097" lon="6.05847">
        <ele>285.60000610352</ele>
        <time>2015-12-16T13:50:40Z</time>
      </trkpt>
      <trkpt lat="43.43098" lon="6.05847">
        <ele>285.20001220703</ele>
        <time>2015-12-16T13:50:42Z</time>
      </trkpt>
      <trkpt lat="43.43098" lon="6.05847">
        <ele>284.79998779297</ele>
        <time>2015-12-16T13:50:44Z</time>
      </trkpt>
      <trkpt lat="43.431" lon="6.05846">
        <ele>284.79998779297</ele>
        <time>2015-12-16T13:50:46Z</time>
      </trkpt>
      <trkpt lat="43.43102" lon="6.05845">
        <ele>284.20001220703</ele>
        <time>2015-12-16T13:50:48Z</time>
      </trkpt>
      <trkpt lat="43.43102" lon="6.05845">
        <ele>284</ele>
        <time>2015-12-16T13:50:49Z</time>
      </trkpt>
      <trkpt lat="43.43104" lon="6.05845">
        <ele>284</ele>
        <time>2015-12-16T13:50:50Z</time>
      </trkpt>
      <trkpt lat="43.43108" lon="6.05845">
        <ele>283.79998779297</ele>
        <time>2015-12-16T13:50:52Z</time>
      </trkpt>
      <trkpt lat="43.4311" lon="6.05845">
        <ele>283.39999389648</ele>
        <time>2015-12-16T13:50:53Z</time>
      </trkpt>
      <trkpt lat="43.43113" lon="6.05847">
        <ele>282.39999389648</ele>
        <time>2015-12-16T13:50:54Z</time>
      </trkpt>
      <trkpt lat="43.43116" lon="6.05847">
        <ele>281.60000610352</ele>
        <time>2015-12-16T13:50:56Z</time>
      </trkpt>
      <trkpt lat="43.43118" lon="6.05847">
        <ele>281.20001220703</ele>
        <time>2015-12-16T13:50:57Z</time>
      </trkpt>
      <trkpt lat="43.4312" lon="6.05847">
        <ele>280.79998779297</ele>
        <time>2015-12-16T13:50:58Z</time>
      </trkpt>
      <trkpt lat="43.43123" lon="6.05846">
        <ele>279.79998779297</ele>
        <time>2015-12-16T13:51:00Z</time>
      </trkpt>
      <trkpt lat="43.43132" lon="6.05846">
        <ele>279</ele>
        <time>2015-12-16T13:51:04Z</time>
      </trkpt>
      <trkpt lat="43.43134" lon="6.05845">
        <ele>278.60000610352</ele>
        <time>2015-12-16T13:51:05Z</time>
      </trkpt>
      <trkpt lat="43.43135" lon="6.05845">
        <ele>278.20001220703</ele>
        <time>2015-12-16T13:51:06Z</time>
      </trkpt>
      <trkpt lat="43.43139" lon="6.05844">
        <ele>277.79998779297</ele>
        <time>2015-12-16T13:51:08Z</time>
      </trkpt>
      <trkpt lat="43.43142" lon="6.05844">
        <ele>277.60000610352</ele>
        <time>2015-12-16T13:51:10Z</time>
      </trkpt>
      <trkpt lat="43.43143" lon="6.05844">
        <ele>277.39999389648</ele>
        <time>2015-12-16T13:51:11Z</time>
      </trkpt>
      <trkpt lat="43.43146" lon="6.05843">
        <ele>277</ele>
        <time>2015-12-16T13:51:12Z</time>
      </trkpt>
      <trkpt lat="43.4315" lon="6.05841">
        <ele>276.60000610352</ele>
        <time>2015-12-16T13:51:14Z</time>
      </trkpt>
      <trkpt lat="43.43151" lon="6.05841">
        <ele>276</ele>
        <time>2015-12-16T13:51:15Z</time>
      </trkpt>
      <trkpt lat="43.43151" lon="6.05841">
        <ele>275.60000610352</ele>
        <time>2015-12-16T13:51:16Z</time>
      </trkpt>
      <trkpt lat="43.43151" lon="6.05841">
        <ele>275.60000610352</ele>
        <time>2015-12-16T13:51:17Z</time>
      </trkpt>
      <trkpt lat="43.43153" lon="6.0584">
        <ele>275.60000610352</ele>
        <time>2015-12-16T13:51:18Z</time>
      </trkpt>
      <trkpt lat="43.43156" lon="6.05839">
        <ele>275.20001220703</ele>
        <time>2015-12-16T13:51:20Z</time>
      </trkpt>
      <trkpt lat="43.43157" lon="6.05838">
        <ele>275</ele>
        <time>2015-12-16T13:51:21Z</time>
      </trkpt>
      <trkpt lat="43.43162" lon="6.05837">
        <ele>274</ele>
        <time>2015-12-16T13:51:24Z</time>
      </trkpt>
      <trkpt lat="43.43165" lon="6.05837">
        <ele>273.39999389648</ele>
        <time>2015-12-16T13:51:26Z</time>
      </trkpt>
      <trkpt lat="43.43169" lon="6.05836">
        <ele>273</ele>
        <time>2015-12-16T13:51:28Z</time>
      </trkpt>
      <trkpt lat="43.43171" lon="6.05835">
        <ele>272.39999389648</ele>
        <time>2015-12-16T13:51:29Z</time>
      </trkpt>
      <trkpt lat="43.43173" lon="6.05835">
        <ele>272</ele>
        <time>2015-12-16T13:51:30Z</time>
      </trkpt>
      <trkpt lat="43.43177" lon="6.05832">
        <ele>271.60000610352</ele>
        <time>2015-12-16T13:51:32Z</time>
      </trkpt>
      <trkpt lat="43.43178" lon="6.0583">
        <ele>271.20001220703</ele>
        <time>2015-12-16T13:51:33Z</time>
      </trkpt>
      <trkpt lat="43.43179" lon="6.05828">
        <ele>271</ele>
        <time>2015-12-16T13:51:34Z</time>
      </trkpt>
      <trkpt lat="43.43179" lon="6.05827">
        <ele>271</ele>
        <time>2015-12-16T13:51:36Z</time>
      </trkpt>
      <trkpt lat="43.43179" lon="6.05827">
        <ele>271</ele>
        <time>2015-12-16T13:51:38Z</time>
      </trkpt>
      <trkpt lat="43.43179" lon="6.05827">
        <ele>270.79998779297</ele>
        <time>2015-12-16T13:51:40Z</time>
      </trkpt>
      <trkpt lat="43.43179" lon="6.05826">
        <ele>270.20001220703</ele>
        <time>2015-12-16T13:51:43Z</time>
      </trkpt>
      <trkpt lat="43.43179" lon="6.05827">
        <ele>270.20001220703</ele>
        <time>2015-12-16T13:51:48Z</time>
      </trkpt>
      <trkpt lat="43.43179" lon="6.05827">
        <ele>270.39999389648</ele>
        <time>2015-12-16T13:51:52Z</time>
      </trkpt>
      <trkpt lat="43.43179" lon="6.05826">
        <ele>270.20001220703</ele>
        <time>2015-12-16T13:52:52Z</time>
      </trkpt>
      <trkpt lat="43.43179" lon="6.05826">
        <ele>270.20001220703</ele>
        <time>2015-12-16T13:53:42Z</time>
      </trkpt>
      <trkpt lat="43.43179" lon="6.05826">
        <ele>270.20001220703</ele>
        <time>2015-12-16T13:54:10Z</time>
      </trkpt>
      <trkpt lat="43.43179" lon="6.05826">
        <ele>270.20001220703</ele>
        <time>2015-12-16T13:54:52Z</time>
      </trkpt>
      <trkpt lat="43.43179" lon="6.05826">
        <ele>270.20001220703</ele>
        <time>2015-12-16T13:54:58Z</time>
      </trkpt>
      <trkpt lat="43.43179" lon="6.05826">
        <ele>270.20001220703</ele>
        <time>2015-12-16T13:55:00Z</time>
      </trkpt>
      <trkpt lat="43.43179" lon="6.05826">
        <ele>270.39999389648</ele>
        <time>2015-12-16T13:55:02Z</time>
      </trkpt>
      <trkpt lat="43.4318" lon="6.05826">
        <ele>270.60000610352</ele>
        <time>2015-12-16T13:55:03Z</time>
      </trkpt>
      <trkpt lat="43.4318" lon="6.05826">
        <ele>270.79998779297</ele>
        <time>2015-12-16T13:55:04Z</time>
      </trkpt>
      <trkpt lat="43.4318" lon="6.05826">
        <ele>271</ele>
        <time>2015-12-16T13:55:06Z</time>
      </trkpt>
      <trkpt lat="43.43179" lon="6.05826">
        <ele>271</ele>
        <time>2015-12-16T13:55:08Z</time>
      </trkpt>
      <trkpt lat="43.43179" lon="6.05826">
        <ele>271</ele>
        <time>2015-12-16T13:55:10Z</time>
      </trkpt>
      <trkpt lat="43.43179" lon="6.05826">
        <ele>271</ele>
        <time>2015-12-16T13:55:12Z</time>
      </trkpt>
      <trkpt lat="43.43179" lon="6.05826">
        <ele>271</ele>
        <time>2015-12-16T13:55:14Z</time>
      </trkpt>
      <trkpt lat="43.43179" lon="6.05826">
        <ele>271</ele>
        <time>2015-12-16T13:55:16Z</time>
      </trkpt>
      <trkpt lat="43.43179" lon="6.05826">
        <ele>271</ele>
        <time>2015-12-16T13:55:18Z</time>
      </trkpt>
      <trkpt lat="43.43179" lon="6.05826">
        <ele>271</ele>
        <time>2015-12-16T13:55:20Z</time>
      </trkpt>
      <trkpt lat="43.43179" lon="6.05826">
        <ele>271</ele>
        <time>2015-12-16T13:55:22Z</time>
      </trkpt>
      <trkpt lat="43.43179" lon="6.05826">
        <ele>271</ele>
        <time>2015-12-16T13:55:24Z</time>
      </trkpt>
      <trkpt lat="43.43179" lon="6.05826">
        <ele>271</ele>
        <time>2015-12-16T13:55:26Z</time>
      </trkpt>
      <trkpt lat="43.43179" lon="6.05826">
        <ele>271</ele>
        <time>2015-12-16T13:55:28Z</time>
      </trkpt>
      <trkpt lat="43.43179" lon="6.05826">
        <ele>270.79998779297</ele>
        <time>2015-12-16T13:55:30Z</time>
      </trkpt>
      <trkpt lat="43.43179" lon="6.05826">
        <ele>270.79998779297</ele>
        <time>2015-12-16T13:55:32Z</time>
      </trkpt>
      <trkpt lat="43.43179" lon="6.05826">
        <ele>270.79998779297</ele>
        <time>2015-12-16T13:55:36Z</time>
      </trkpt>
      <trkpt lat="43.43179" lon="6.05826">
        <ele>270.79998779297</ele>
        <time>2015-12-16T13:55:40Z</time>
      </trkpt>
      <trkpt lat="43.43179" lon="6.05826">
        <ele>271</ele>
        <time>2015-12-16T13:55:46Z</time>
      </trkpt>
      <trkpt lat="43.43179" lon="6.05826">
        <ele>270.79998779297</ele>
        <time>2015-12-16T13:55:52Z</time>
      </trkpt>
      <trkpt lat="43.43179" lon="6.05826">
        <ele>270.79998779297</ele>
        <time>2015-12-16T13:55:54Z</time>
      </trkpt>
      <trkpt lat="43.43179" lon="6.05825">
        <ele>270.79998779297</ele>
        <time>2015-12-16T13:55:56Z</time>
      </trkpt>
      <trkpt lat="43.43179" lon="6.05824">
        <ele>270.79998779297</ele>
        <time>2015-12-16T13:55:58Z</time>
      </trkpt>
      <trkpt lat="43.43179" lon="6.05824">
        <ele>270.79998779297</ele>
        <time>2015-12-16T13:56:00Z</time>
      </trkpt>
      <trkpt lat="43.43179" lon="6.05824">
        <ele>270.79998779297</ele>
        <time>2015-12-16T13:56:02Z</time>
      </trkpt>
      <trkpt lat="43.43179" lon="6.05824">
        <ele>270.79998779297</ele>
        <time>2015-12-16T13:56:04Z</time>
      </trkpt>
      <trkpt lat="43.43179" lon="6.05824">
        <ele>270.79998779297</ele>
        <time>2015-12-16T13:56:06Z</time>
      </trkpt>
      <trkpt lat="43.43179" lon="6.05824">
        <ele>270.60000610352</ele>
        <time>2015-12-16T13:56:14Z</time>
      </trkpt>
      <trkpt lat="43.43179" lon="6.05823">
        <ele>270.60000610352</ele>
        <time>2015-12-16T13:56:28Z</time>
      </trkpt>
      <trkpt lat="43.43179" lon="6.05823">
        <ele>270.79998779297</ele>
        <time>2015-12-16T13:56:30Z</time>
      </trkpt>
      <trkpt lat="43.4318" lon="6.05823">
        <ele>270.79998779297</ele>
        <time>2015-12-16T13:56:32Z</time>
      </trkpt>
      <trkpt lat="43.43179" lon="6.05823">
        <ele>270.60000610352</ele>
        <time>2015-12-16T13:56:34Z</time>
      </trkpt>
      <trkpt lat="43.43179" lon="6.05823">
        <ele>270.60000610352</ele>
        <time>2015-12-16T13:56:36Z</time>
      </trkpt>
      <trkpt lat="43.43179" lon="6.05823">
        <ele>270.79998779297</ele>
        <time>2015-12-16T13:56:40Z</time>
      </trkpt>
      <trkpt lat="43.43179" lon="6.05823">
        <ele>270.79998779297</ele>
        <time>2015-12-16T13:56:42Z</time>
      </trkpt>
      <trkpt lat="43.43179" lon="6.05823">
        <ele>270.60000610352</ele>
        <time>2015-12-16T13:56:44Z</time>
      </trkpt>
      <trkpt lat="43.4318" lon="6.05823">
        <ele>270.60000610352</ele>
        <time>2015-12-16T13:56:46Z</time>
      </trkpt>
      <trkpt lat="43.4318" lon="6.05823">
        <ele>270.79998779297</ele>
        <time>2015-12-16T13:56:48Z</time>
      </trkpt>
      <trkpt lat="43.43179" lon="6.05823">
        <ele>270.60000610352</ele>
        <time>2015-12-16T13:56:50Z</time>
      </trkpt>
      <trkpt lat="43.43179" lon="6.05823">
        <ele>270.60000610352</ele>
        <time>2015-12-16T13:56:51Z</time>
      </trkpt>
      <trkpt lat="43.4318" lon="6.05823">
        <ele>270.60000610352</ele>
        <time>2015-12-16T13:56:52Z</time>
      </trkpt>
      <trkpt lat="43.4318" lon="6.05823">
        <ele>270.60000610352</ele>
        <time>2015-12-16T13:56:54Z</time>
      </trkpt>
      <trkpt lat="43.4318" lon="6.05823">
        <ele>270.60000610352</ele>
        <time>2015-12-16T13:56:58Z</time>
      </trkpt>
      <trkpt lat="43.4318" lon="6.05823">
        <ele>270.60000610352</ele>
        <time>2015-12-16T13:57:02Z</time>
      </trkpt>
      <trkpt lat="43.4318" lon="6.05823">
        <ele>270.79998779297</ele>
        <time>2015-12-16T13:57:06Z</time>
      </trkpt>
      <trkpt lat="43.43179" lon="6.05823">
        <ele>270.79998779297</ele>
        <time>2015-12-16T13:57:08Z</time>
      </trkpt>
      <trkpt lat="43.43179" lon="6.05823">
        <ele>270.79998779297</ele>
        <time>2015-12-16T13:57:10Z</time>
      </trkpt>
      <trkpt lat="43.43179" lon="6.05823">
        <ele>270.79998779297</ele>
        <time>2015-12-16T13:57:12Z</time>
      </trkpt>
      <trkpt lat="43.43179" lon="6.05823">
        <ele>270.60000610352</ele>
        <time>2015-12-16T13:57:16Z</time>
      </trkpt>
      <trkpt lat="43.4318" lon="6.05823">
        <ele>270.60000610352</ele>
        <time>2015-12-16T13:57:18Z</time>
      </trkpt>
      <trkpt lat="43.4318" lon="6.05822">
        <ele>270.39999389648</ele>
        <time>2015-12-16T13:57:20Z</time>
      </trkpt>
      <trkpt lat="43.4318" lon="6.05821">
        <ele>270.39999389648</ele>
        <time>2015-12-16T13:57:21Z</time>
      </trkpt>
      <trkpt lat="43.4318" lon="6.05821">
        <ele>270.60000610352</ele>
        <time>2015-12-16T13:57:24Z</time>
      </trkpt>
      <trkpt lat="43.4318" lon="6.05821">
        <ele>270.60000610352</ele>
        <time>2015-12-16T13:57:26Z</time>
      </trkpt>
      <trkpt lat="43.4318" lon="6.05821">
        <ele>270.60000610352</ele>
        <time>2015-12-16T13:57:28Z</time>
      </trkpt>
      <trkpt lat="43.4318" lon="6.05821">
        <ele>270.60000610352</ele>
        <time>2015-12-16T13:57:30Z</time>
      </trkpt>
      <trkpt lat="43.4318" lon="6.05821">
        <ele>270.60000610352</ele>
        <time>2015-12-16T13:57:32Z</time>
      </trkpt>
      <trkpt lat="43.4318" lon="6.05819">
        <ele>270.60000610352</ele>
        <time>2015-12-16T13:57:34Z</time>
      </trkpt>
      <trkpt lat="43.43181" lon="6.05817">
        <ele>270.60000610352</ele>
        <time>2015-12-16T13:57:35Z</time>
      </trkpt>
      <trkpt lat="43.43182" lon="6.05815">
        <ele>270.60000610352</ele>
        <time>2015-12-16T13:57:36Z</time>
      </trkpt>
      <trkpt lat="43.43184" lon="6.05808">
        <ele>270.60000610352</ele>
        <time>2015-12-16T13:57:38Z</time>
      </trkpt>
      <trkpt lat="43.43188" lon="6.05802">
        <ele>270.60000610352</ele>
        <time>2015-12-16T13:57:40Z</time>
      </trkpt>
      <trkpt lat="43.43192" lon="6.05795">
        <ele>270.20001220703</ele>
        <time>2015-12-16T13:57:42Z</time>
      </trkpt>
      <trkpt lat="43.43197" lon="6.05787">
        <ele>269.79998779297</ele>
        <time>2015-12-16T13:57:44Z</time>
      </trkpt>
      <trkpt lat="43.432" lon="6.05783">
        <ele>269.39999389648</ele>
        <time>2015-12-16T13:57:45Z</time>
      </trkpt>
      <trkpt lat="43.43204" lon="6.05779">
        <ele>269</ele>
        <time>2015-12-16T13:57:46Z</time>
      </trkpt>
      <trkpt lat="43.43211" lon="6.05769">
        <ele>268.79998779297</ele>
        <time>2015-12-16T13:57:48Z</time>
      </trkpt>
      <trkpt lat="43.43213" lon="6.05756">
        <ele>268.39999389648</ele>
        <time>2015-12-16T13:57:50Z</time>
      </trkpt>
      <trkpt lat="43.43213" lon="6.0575">
        <ele>268.39999389648</ele>
        <time>2015-12-16T13:57:51Z</time>
      </trkpt>
      <trkpt lat="43.43213" lon="6.05743">
        <ele>268.60000610352</ele>
        <time>2015-12-16T13:57:52Z</time>
      </trkpt>
      <trkpt lat="43.43214" lon="6.05729">
        <ele>268.79998779297</ele>
        <time>2015-12-16T13:57:54Z</time>
      </trkpt>
      <trkpt lat="43.43215" lon="6.05714">
        <ele>269.20001220703</ele>
        <time>2015-12-16T13:57:56Z</time>
      </trkpt>
      <trkpt lat="43.43219" lon="6.05686">
        <ele>269</ele>
        <time>2015-12-16T13:58:00Z</time>
      </trkpt>
      <trkpt lat="43.4322" lon="6.05663">
        <ele>268.60000610352</ele>
        <time>2015-12-16T13:58:03Z</time>
      </trkpt>
      <trkpt lat="43.43221" lon="6.05655">
        <ele>268.60000610352</ele>
        <time>2015-12-16T13:58:04Z</time>
      </trkpt>
      <trkpt lat="43.43224" lon="6.0564">
        <ele>268.20001220703</ele>
        <time>2015-12-16T13:58:06Z</time>
      </trkpt>
      <trkpt lat="43.43227" lon="6.05624">
        <ele>267.60000610352</ele>
        <time>2015-12-16T13:58:08Z</time>
      </trkpt>
      <trkpt lat="43.43227" lon="6.05615">
        <ele>267.60000610352</ele>
        <time>2015-12-16T13:58:09Z</time>
      </trkpt>
      <trkpt lat="43.43227" lon="6.05607">
        <ele>267.79998779297</ele>
        <time>2015-12-16T13:58:10Z</time>
      </trkpt>
      <trkpt lat="43.43228" lon="6.05589">
        <ele>267.79998779297</ele>
        <time>2015-12-16T13:58:12Z</time>
      </trkpt>
      <trkpt lat="43.43229" lon="6.05581">
        <ele>267.79998779297</ele>
        <time>2015-12-16T13:58:13Z</time>
      </trkpt>
      <trkpt lat="43.4323" lon="6.05573">
        <ele>267.79998779297</ele>
        <time>2015-12-16T13:58:14Z</time>
      </trkpt>
      <trkpt lat="43.43232" lon="6.05566">
        <ele>267.60000610352</ele>
        <time>2015-12-16T13:58:15Z</time>
      </trkpt>
      <trkpt lat="43.43234" lon="6.05558">
        <ele>267.39999389648</ele>
        <time>2015-12-16T13:58:16Z</time>
      </trkpt>
      <trkpt lat="43.43239" lon="6.05544">
        <ele>267.39999389648</ele>
        <time>2015-12-16T13:58:18Z</time>
      </trkpt>
      <trkpt lat="43.43243" lon="6.0553">
        <ele>266.60000610352</ele>
        <time>2015-12-16T13:58:20Z</time>
      </trkpt>
      <trkpt lat="43.43247" lon="6.05518">
        <ele>265.79998779297</ele>
        <time>2015-12-16T13:58:22Z</time>
      </trkpt>
      <trkpt lat="43.43248" lon="6.05513">
        <ele>266</ele>
        <time>2015-12-16T13:58:23Z</time>
      </trkpt>
      <trkpt lat="43.43249" lon="6.05507">
        <ele>265.79998779297</ele>
        <time>2015-12-16T13:58:24Z</time>
      </trkpt>
      <trkpt lat="43.4325" lon="6.05502">
        <ele>265.39999389648</ele>
        <time>2015-12-16T13:58:25Z</time>
      </trkpt>
      <trkpt lat="43.43255" lon="6.05485">
        <ele>264.79998779297</ele>
        <time>2015-12-16T13:58:28Z</time>
      </trkpt>
      <trkpt lat="43.43259" lon="6.05474">
        <ele>264.20001220703</ele>
        <time>2015-12-16T13:58:30Z</time>
      </trkpt>
      <trkpt lat="43.43262" lon="6.05468">
        <ele>263</ele>
        <time>2015-12-16T13:58:31Z</time>
      </trkpt>
      <trkpt lat="43.43264" lon="6.05462">
        <ele>262</ele>
        <time>2015-12-16T13:58:32Z</time>
      </trkpt>
      <trkpt lat="43.4327" lon="6.05451">
        <ele>261.20001220703</ele>
        <time>2015-12-16T13:58:34Z</time>
      </trkpt>
      <trkpt lat="43.43272" lon="6.05445">
        <ele>260.79998779297</ele>
        <time>2015-12-16T13:58:35Z</time>
      </trkpt>
      <trkpt lat="43.43275" lon="6.05438">
        <ele>260.79998779297</ele>
        <time>2015-12-16T13:58:36Z</time>
      </trkpt>
      <trkpt lat="43.43277" lon="6.05433">
        <ele>261</ele>
        <time>2015-12-16T13:58:37Z</time>
      </trkpt>
      <trkpt lat="43.43279" lon="6.05427">
        <ele>261</ele>
        <time>2015-12-16T13:58:38Z</time>
      </trkpt>
      <trkpt lat="43.43285" lon="6.05417">
        <ele>261</ele>
        <time>2015-12-16T13:58:40Z</time>
      </trkpt>
      <trkpt lat="43.43288" lon="6.05409">
        <ele>261.39999389648</ele>
        <time>2015-12-16T13:58:42Z</time>
      </trkpt>
      <trkpt lat="43.43291" lon="6.054">
        <ele>261</ele>
        <time>2015-12-16T13:58:44Z</time>
      </trkpt>
      <trkpt lat="43.43296" lon="6.05392">
        <ele>260.39999389648</ele>
        <time>2015-12-16T13:58:46Z</time>
      </trkpt>
      <trkpt lat="43.43298" lon="6.05388">
        <ele>260.79998779297</ele>
        <time>2015-12-16T13:58:47Z</time>
      </trkpt>
      <trkpt lat="43.433" lon="6.05383">
        <ele>261.39999389648</ele>
        <time>2015-12-16T13:58:48Z</time>
      </trkpt>
      <trkpt lat="43.43304" lon="6.05374">
        <ele>261.39999389648</ele>
        <time>2015-12-16T13:58:50Z</time>
      </trkpt>
      <trkpt lat="43.43307" lon="6.05366">
        <ele>261.60000610352</ele>
        <time>2015-12-16T13:58:52Z</time>
      </trkpt>
      <trkpt lat="43.43308" lon="6.05363">
        <ele>261.79998779297</ele>
        <time>2015-12-16T13:58:53Z</time>
      </trkpt>
      <trkpt lat="43.43309" lon="6.0536">
        <ele>262</ele>
        <time>2015-12-16T13:58:54Z</time>
      </trkpt>
      <trkpt lat="43.43313" lon="6.05354">
        <ele>262</ele>
        <time>2015-12-16T13:58:56Z</time>
      </trkpt>
      <trkpt lat="43.43316" lon="6.05348">
        <ele>262.20001220703</ele>
        <time>2015-12-16T13:58:58Z</time>
      </trkpt>
      <trkpt lat="43.43319" lon="6.05341">
        <ele>262</ele>
        <time>2015-12-16T13:59:00Z</time>
      </trkpt>
      <trkpt lat="43.4332" lon="6.05339">
        <ele>261.79998779297</ele>
        <time>2015-12-16T13:59:01Z</time>
      </trkpt>
      <trkpt lat="43.43321" lon="6.05336">
        <ele>261.79998779297</ele>
        <time>2015-12-16T13:59:02Z</time>
      </trkpt>
      <trkpt lat="43.43323" lon="6.05331">
        <ele>262</ele>
        <time>2015-12-16T13:59:04Z</time>
      </trkpt>
      <trkpt lat="43.43325" lon="6.05325">
        <ele>262</ele>
        <time>2015-12-16T13:59:06Z</time>
      </trkpt>
      <trkpt lat="43.43327" lon="6.05318">
        <ele>261.79998779297</ele>
        <time>2015-12-16T13:59:08Z</time>
      </trkpt>
      <trkpt lat="43.4333" lon="6.05311">
        <ele>262</ele>
        <time>2015-12-16T13:59:10Z</time>
      </trkpt>
      <trkpt lat="43.43333" lon="6.05302">
        <ele>261.39999389648</ele>
        <time>2015-12-16T13:59:12Z</time>
      </trkpt>
      <trkpt lat="43.43335" lon="6.05298">
        <ele>261.20001220703</ele>
        <time>2015-12-16T13:59:13Z</time>
      </trkpt>
      <trkpt lat="43.43338" lon="6.05293">
        <ele>261</ele>
        <time>2015-12-16T13:59:14Z</time>
      </trkpt>
      <trkpt lat="43.43341" lon="6.05284">
        <ele>260.79998779297</ele>
        <time>2015-12-16T13:59:16Z</time>
      </trkpt>
      <trkpt lat="43.43343" lon="6.05279">
        <ele>261</ele>
        <time>2015-12-16T13:59:17Z</time>
      </trkpt>
      <trkpt lat="43.43345" lon="6.05274">
        <ele>260.79998779297</ele>
        <time>2015-12-16T13:59:18Z</time>
      </trkpt>
      <trkpt lat="43.43349" lon="6.05263">
        <ele>260.79998779297</ele>
        <time>2015-12-16T13:59:20Z</time>
      </trkpt>
      <trkpt lat="43.43353" lon="6.05253">
        <ele>260.79998779297</ele>
        <time>2015-12-16T13:59:22Z</time>
      </trkpt>
      <trkpt lat="43.43355" lon="6.05247">
        <ele>260.79998779297</ele>
        <time>2015-12-16T13:59:23Z</time>
      </trkpt>
      <trkpt lat="43.43356" lon="6.05242">
        <ele>260.60000610352</ele>
        <time>2015-12-16T13:59:24Z</time>
      </trkpt>
      <trkpt lat="43.43358" lon="6.05236">
        <ele>260.60000610352</ele>
        <time>2015-12-16T13:59:25Z</time>
      </trkpt>
      <trkpt lat="43.43361" lon="6.0523">
        <ele>260.79998779297</ele>
        <time>2015-12-16T13:59:26Z</time>
      </trkpt>
      <trkpt lat="43.43366" lon="6.05218">
        <ele>260.60000610352</ele>
        <time>2015-12-16T13:59:28Z</time>
      </trkpt>
      <trkpt lat="43.43371" lon="6.05206">
        <ele>261</ele>
        <time>2015-12-16T13:59:30Z</time>
      </trkpt>
      <trkpt lat="43.43376" lon="6.05194">
        <ele>261</ele>
        <time>2015-12-16T13:59:32Z</time>
      </trkpt>
      <trkpt lat="43.4338" lon="6.05182">
        <ele>261.39999389648</ele>
        <time>2015-12-16T13:59:34Z</time>
      </trkpt>
      <trkpt lat="43.43383" lon="6.05169">
        <ele>262</ele>
        <time>2015-12-16T13:59:36Z</time>
      </trkpt>
      <trkpt lat="43.43388" lon="6.05157">
        <ele>262.39999389648</ele>
        <time>2015-12-16T13:59:38Z</time>
      </trkpt>
      <trkpt lat="43.43391" lon="6.05146">
        <ele>262.79998779297</ele>
        <time>2015-12-16T13:59:40Z</time>
      </trkpt>
      <trkpt lat="43.43393" lon="6.05137">
        <ele>263.79998779297</ele>
        <time>2015-12-16T13:59:42Z</time>
      </trkpt>
      <trkpt lat="43.43394" lon="6.05131">
        <ele>264</ele>
        <time>2015-12-16T13:59:44Z</time>
      </trkpt>
      <trkpt lat="43.43397" lon="6.05128">
        <ele>263.79998779297</ele>
        <time>2015-12-16T13:59:46Z</time>
      </trkpt>
      <trkpt lat="43.43398" lon="6.05128">
        <ele>263.79998779297</ele>
        <time>2015-12-16T13:59:47Z</time>
      </trkpt>
      <trkpt lat="43.43399" lon="6.05128">
        <ele>263.79998779297</ele>
        <time>2015-12-16T13:59:48Z</time>
      </trkpt>
      <trkpt lat="43.43398" lon="6.05128">
        <ele>264</ele>
        <time>2015-12-16T13:59:50Z</time>
      </trkpt>
      <trkpt lat="43.43398" lon="6.05128">
        <ele>264</ele>
        <time>2015-12-16T13:59:54Z</time>
      </trkpt>
      <trkpt lat="43.43398" lon="6.05128">
        <ele>263.79998779297</ele>
        <time>2015-12-16T13:59:56Z</time>
      </trkpt>
      <trkpt lat="43.43398" lon="6.05128">
        <ele>264</ele>
        <time>2015-12-16T14:00:00Z</time>
      </trkpt>
      <trkpt lat="43.43398" lon="6.05128">
        <ele>263.79998779297</ele>
        <time>2015-12-16T14:00:02Z</time>
      </trkpt>
      <trkpt lat="43.43398" lon="6.05128">
        <ele>263.79998779297</ele>
        <time>2015-12-16T14:00:04Z</time>
      </trkpt>
      <trkpt lat="43.43398" lon="6.05128">
        <ele>263.79998779297</ele>
        <time>2015-12-16T14:00:06Z</time>
      </trkpt>
      <trkpt lat="43.43398" lon="6.05128">
        <ele>264</ele>
        <time>2015-12-16T14:00:08Z</time>
      </trkpt>
      <trkpt lat="43.43398" lon="6.05128">
        <ele>264</ele>
        <time>2015-12-16T14:00:10Z</time>
      </trkpt>
      <trkpt lat="43.43398" lon="6.05128">
        <ele>264</ele>
        <time>2015-12-16T14:00:12Z</time>
      </trkpt>
      <trkpt lat="43.43398" lon="6.0513">
        <ele>264</ele>
        <time>2015-12-16T14:00:13Z</time>
      </trkpt>
      <trkpt lat="43.43398" lon="6.05131">
        <ele>264</ele>
        <time>2015-12-16T14:00:14Z</time>
      </trkpt>
      <trkpt lat="43.43399" lon="6.05138">
        <ele>262.79998779297</ele>
        <time>2015-12-16T14:00:16Z</time>
      </trkpt>
      <trkpt lat="43.43399" lon="6.05146">
        <ele>262.20001220703</ele>
        <time>2015-12-16T14:00:18Z</time>
      </trkpt>
      <trkpt lat="43.43401" lon="6.05154">
        <ele>262.20001220703</ele>
        <time>2015-12-16T14:00:20Z</time>
      </trkpt>
      <trkpt lat="43.43401" lon="6.05159">
        <ele>261.79998779297</ele>
        <time>2015-12-16T14:00:22Z</time>
      </trkpt>
      <trkpt lat="43.434" lon="6.05161">
        <ele>261.60000610352</ele>
        <time>2015-12-16T14:00:23Z</time>
      </trkpt>
      <trkpt lat="43.43399" lon="6.05165">
        <ele>261.39999389648</ele>
        <time>2015-12-16T14:00:24Z</time>
      </trkpt>
      <trkpt lat="43.43399" lon="6.05172">
        <ele>260.39999389648</ele>
        <time>2015-12-16T14:00:26Z</time>
      </trkpt>
      <trkpt lat="43.43399" lon="6.05176">
        <ele>260</ele>
        <time>2015-12-16T14:00:27Z</time>
      </trkpt>
      <trkpt lat="43.43399" lon="6.05178">
        <ele>260</ele>
        <time>2015-12-16T14:00:28Z</time>
      </trkpt>
      <trkpt lat="43.43399" lon="6.05177">
        <ele>260.20001220703</ele>
        <time>2015-12-16T14:00:32Z</time>
      </trkpt>
      <trkpt lat="43.43399" lon="6.05176">
        <ele>260.20001220703</ele>
        <time>2015-12-16T14:00:36Z</time>
      </trkpt>
      <trkpt lat="43.43399" lon="6.05176">
        <ele>260</ele>
        <time>2015-12-16T14:00:40Z</time>
      </trkpt>
      <trkpt lat="43.43399" lon="6.05176">
        <ele>260</ele>
        <time>2015-12-16T14:00:46Z</time>
      </trkpt>
      <trkpt lat="43.43399" lon="6.05176">
        <ele>260</ele>
        <time>2015-12-16T14:01:00Z</time>
      </trkpt>
      <trkpt lat="43.43399" lon="6.05176">
        <ele>260.20001220703</ele>
        <time>2015-12-16T14:01:04Z</time>
      </trkpt>
      <trkpt lat="43.43399" lon="6.05177">
        <ele>260</ele>
        <time>2015-12-16T14:01:06Z</time>
      </trkpt>
      <trkpt lat="43.43399" lon="6.05177">
        <ele>260.20001220703</ele>
        <time>2015-12-16T14:01:08Z</time>
      </trkpt>
      <trkpt lat="43.43399" lon="6.05177">
        <ele>260.20001220703</ele>
        <time>2015-12-16T14:01:11Z</time>
      </trkpt>
      <trkpt lat="43.43399" lon="6.05177">
        <ele>260</ele>
        <time>2015-12-16T14:01:12Z</time>
      </trkpt>
      <trkpt lat="43.43399" lon="6.05177">
        <ele>260</ele>
        <time>2015-12-16T14:01:40Z</time>
      </trkpt>
      <trkpt lat="43.43399" lon="6.05177">
        <ele>260</ele>
        <time>2015-12-16T14:01:44Z</time>
      </trkpt>
      <trkpt lat="43.43399" lon="6.05177">
        <ele>260</ele>
        <time>2015-12-16T14:01:46Z</time>
      </trkpt>
      <trkpt lat="43.43399" lon="6.05177">
        <ele>260</ele>
        <time>2015-12-16T14:01:48Z</time>
      </trkpt>
      <trkpt lat="43.43399" lon="6.05179">
        <ele>260.20001220703</ele>
        <time>2015-12-16T14:01:50Z</time>
      </trkpt>
      <trkpt lat="43.43399" lon="6.05185">
        <ele>260</ele>
        <time>2015-12-16T14:01:52Z</time>
      </trkpt>
      <trkpt lat="43.434" lon="6.05188">
        <ele>259.79998779297</ele>
        <time>2015-12-16T14:01:53Z</time>
      </trkpt>
      <trkpt lat="43.43403" lon="6.05196">
        <ele>259.60000610352</ele>
        <time>2015-12-16T14:01:56Z</time>
      </trkpt>
      <trkpt lat="43.43404" lon="6.052">
        <ele>259.20001220703</ele>
        <time>2015-12-16T14:01:57Z</time>
      </trkpt>
      <trkpt lat="43.43405" lon="6.05205">
        <ele>258.60000610352</ele>
        <time>2015-12-16T14:01:58Z</time>
      </trkpt>
      <trkpt lat="43.43405" lon="6.05214">
        <ele>257.60000610352</ele>
        <time>2015-12-16T14:02:00Z</time>
      </trkpt>
      <trkpt lat="43.43406" lon="6.05219">
        <ele>257.79998779297</ele>
        <time>2015-12-16T14:02:02Z</time>
      </trkpt>
      <trkpt lat="43.43406" lon="6.0522">
        <ele>257.60000610352</ele>
        <time>2015-12-16T14:02:03Z</time>
      </trkpt>
      <trkpt lat="43.43407" lon="6.05223">
        <ele>257.60000610352</ele>
        <time>2015-12-16T14:02:04Z</time>
      </trkpt>
      <trkpt lat="43.43407" lon="6.05227">
        <ele>257.20001220703</ele>
        <time>2015-12-16T14:02:06Z</time>
      </trkpt>
      <trkpt lat="43.43407" lon="6.0523">
        <ele>256.79998779297</ele>
        <time>2015-12-16T14:02:08Z</time>
      </trkpt>
      <trkpt lat="43.43407" lon="6.0523">
        <ele>256.79998779297</ele>
        <time>2015-12-16T14:02:10Z</time>
      </trkpt>
      <trkpt lat="43.43407" lon="6.0523">
        <ele>256.79998779297</ele>
        <time>2015-12-16T14:02:11Z</time>
      </trkpt>
      <trkpt lat="43.43406" lon="6.0523">
        <ele>256.79998779297</ele>
        <time>2015-12-16T14:02:12Z</time>
      </trkpt>
      <trkpt lat="43.43406" lon="6.0523">
        <ele>257</ele>
        <time>2015-12-16T14:02:14Z</time>
      </trkpt>
      <trkpt lat="43.43405" lon="6.05229">
        <ele>257</ele>
        <time>2015-12-16T14:02:18Z</time>
      </trkpt>
      <trkpt lat="43.43404" lon="6.05229">
        <ele>256.60000610352</ele>
        <time>2015-12-16T14:02:20Z</time>
      </trkpt>
      <trkpt lat="43.43404" lon="6.05229">
        <ele>256.39999389648</ele>
        <time>2015-12-16T14:02:22Z</time>
      </trkpt>
      <trkpt lat="43.43404" lon="6.05229">
        <ele>256.39999389648</ele>
        <time>2015-12-16T14:02:24Z</time>
      </trkpt>
      <trkpt lat="43.43404" lon="6.05229">
        <ele>256.39999389648</ele>
        <time>2015-12-16T14:02:28Z</time>
      </trkpt>
      <trkpt lat="43.43404" lon="6.05229">
        <ele>256.20001220703</ele>
        <time>2015-12-16T14:02:36Z</time>
      </trkpt>
      <trkpt lat="43.43404" lon="6.05229">
        <ele>256.60000610352</ele>
        <time>2015-12-16T14:02:54Z</time>
      </trkpt>
      <trkpt lat="43.43404" lon="6.05229">
        <ele>256.39999389648</ele>
        <time>2015-12-16T14:02:58Z</time>
      </trkpt>
      <trkpt lat="43.43404" lon="6.05229">
        <ele>256.39999389648</ele>
        <time>2015-12-16T14:03:02Z</time>
      </trkpt>
      <trkpt lat="43.43404" lon="6.05229">
        <ele>256.39999389648</ele>
        <time>2015-12-16T14:03:05Z</time>
      </trkpt>
      <trkpt lat="43.43404" lon="6.05229">
        <ele>256.39999389648</ele>
        <time>2015-12-16T14:03:10Z</time>
      </trkpt>
      <trkpt lat="43.43404" lon="6.05229">
        <ele>256.39999389648</ele>
        <time>2015-12-16T14:03:12Z</time>
      </trkpt>
      <trkpt lat="43.43405" lon="6.0523">
        <ele>256.60000610352</ele>
        <time>2015-12-16T14:03:16Z</time>
      </trkpt>
      <trkpt lat="43.43406" lon="6.05231">
        <ele>256.60000610352</ele>
        <time>2015-12-16T14:03:17Z</time>
      </trkpt>
      <trkpt lat="43.43405" lon="6.05231">
        <ele>256.60000610352</ele>
        <time>2015-12-16T14:03:18Z</time>
      </trkpt>
      <trkpt lat="43.43405" lon="6.05231">
        <ele>256.60000610352</ele>
        <time>2015-12-16T14:03:20Z</time>
      </trkpt>
      <trkpt lat="43.43405" lon="6.05233">
        <ele>256.79998779297</ele>
        <time>2015-12-16T14:03:22Z</time>
      </trkpt>
      <trkpt lat="43.43405" lon="6.05233">
        <ele>257</ele>
        <time>2015-12-16T14:03:23Z</time>
      </trkpt>
      <trkpt lat="43.43405" lon="6.05235">
        <ele>257.20001220703</ele>
        <time>2015-12-16T14:03:24Z</time>
      </trkpt>
      <trkpt lat="43.43405" lon="6.05236">
        <ele>257.39999389648</ele>
        <time>2015-12-16T14:03:26Z</time>
      </trkpt>
      <trkpt lat="43.43406" lon="6.05237">
        <ele>257.60000610352</ele>
        <time>2015-12-16T14:03:28Z</time>
      </trkpt>
      <trkpt lat="43.43406" lon="6.05238">
        <ele>257.60000610352</ele>
        <time>2015-12-16T14:03:30Z</time>
      </trkpt>
      <trkpt lat="43.43406" lon="6.05239">
        <ele>257.39999389648</ele>
        <time>2015-12-16T14:03:32Z</time>
      </trkpt>
      <trkpt lat="43.43406" lon="6.0524">
        <ele>257.39999389648</ele>
        <time>2015-12-16T14:03:34Z</time>
      </trkpt>
      <trkpt lat="43.43406" lon="6.05242">
        <ele>257.39999389648</ele>
        <time>2015-12-16T14:03:35Z</time>
      </trkpt>
      <trkpt lat="43.43406" lon="6.05243">
        <ele>257.20001220703</ele>
        <time>2015-12-16T14:03:36Z</time>
      </trkpt>
      <trkpt lat="43.43404" lon="6.05246">
        <ele>257.20001220703</ele>
        <time>2015-12-16T14:03:38Z</time>
      </trkpt>
      <trkpt lat="43.43404" lon="6.05248">
        <ele>257.20001220703</ele>
        <time>2015-12-16T14:03:39Z</time>
      </trkpt>
      <trkpt lat="43.43404" lon="6.05251">
        <ele>257.20001220703</ele>
        <time>2015-12-16T14:03:40Z</time>
      </trkpt>
      <trkpt lat="43.43406" lon="6.05255">
        <ele>256.79998779297</ele>
        <time>2015-12-16T14:03:42Z</time>
      </trkpt>
      <trkpt lat="43.43407" lon="6.0526">
        <ele>256.39999389648</ele>
        <time>2015-12-16T14:03:44Z</time>
      </trkpt>
      <trkpt lat="43.43407" lon="6.05265">
        <ele>256.39999389648</ele>
        <time>2015-12-16T14:03:46Z</time>
      </trkpt>
      <trkpt lat="43.43406" lon="6.0527">
        <ele>256.20001220703</ele>
        <time>2015-12-16T14:03:48Z</time>
      </trkpt>
      <trkpt lat="43.43408" lon="6.05283">
        <ele>256.39999389648</ele>
        <time>2015-12-16T14:03:52Z</time>
      </trkpt>
      <trkpt lat="43.43408" lon="6.05287">
        <ele>256.20001220703</ele>
        <time>2015-12-16T14:03:53Z</time>
      </trkpt>
      <trkpt lat="43.43409" lon="6.0529">
        <ele>256</ele>
        <time>2015-12-16T14:03:54Z</time>
      </trkpt>
      <trkpt lat="43.43411" lon="6.05297">
        <ele>255.60000610352</ele>
        <time>2015-12-16T14:03:56Z</time>
      </trkpt>
      <trkpt lat="43.43413" lon="6.05303">
        <ele>255.39999389648</ele>
        <time>2015-12-16T14:03:58Z</time>
      </trkpt>
      <trkpt lat="43.43412" lon="6.0531">
        <ele>255.39999389648</ele>
        <time>2015-12-16T14:04:00Z</time>
      </trkpt>
      <trkpt lat="43.43411" lon="6.05316">
        <ele>255.60000610352</ele>
        <time>2015-12-16T14:04:02Z</time>
      </trkpt>
      <trkpt lat="43.43411" lon="6.05323">
        <ele>256.20001220703</ele>
        <time>2015-12-16T14:04:04Z</time>
      </trkpt>
      <trkpt lat="43.43411" lon="6.05328">
        <ele>256.60000610352</ele>
        <time>2015-12-16T14:04:06Z</time>
      </trkpt>
      <trkpt lat="43.43412" lon="6.0533">
        <ele>256.79998779297</ele>
        <time>2015-12-16T14:04:07Z</time>
      </trkpt>
      <trkpt lat="43.43412" lon="6.05332">
        <ele>256.60000610352</ele>
        <time>2015-12-16T14:04:08Z</time>
      </trkpt>
      <trkpt lat="43.43414" lon="6.05339">
        <ele>255.80000305176</ele>
        <time>2015-12-16T14:04:10Z</time>
      </trkpt>
      <trkpt lat="43.43415" lon="6.05343">
        <ele>255</ele>
        <time>2015-12-16T14:04:11Z</time>
      </trkpt>
      <trkpt lat="43.43416" lon="6.05346">
        <ele>254.60000610352</ele>
        <time>2015-12-16T14:04:12Z</time>
      </trkpt>
      <trkpt lat="43.43417" lon="6.05351">
        <ele>253.80000305176</ele>
        <time>2015-12-16T14:04:14Z</time>
      </trkpt>
      <trkpt lat="43.43417" lon="6.05354">
        <ele>253.80000305176</ele>
        <time>2015-12-16T14:04:16Z</time>
      </trkpt>
      <trkpt lat="43.43417" lon="6.05354">
        <ele>253.60000610352</ele>
        <time>2015-12-16T14:04:18Z</time>
      </trkpt>
      <trkpt lat="43.43417" lon="6.05355">
        <ele>253.60000610352</ele>
        <time>2015-12-16T14:04:20Z</time>
      </trkpt>
      <trkpt lat="43.43417" lon="6.05355">
        <ele>253.60000610352</ele>
        <time>2015-12-16T14:04:26Z</time>
      </trkpt>
      <trkpt lat="43.43416" lon="6.05355">
        <ele>253.39999389648</ele>
        <time>2015-12-16T14:04:28Z</time>
      </trkpt>
      <trkpt lat="43.43417" lon="6.05355">
        <ele>253.39999389648</ele>
        <time>2015-12-16T14:04:30Z</time>
      </trkpt>
      <trkpt lat="43.43416" lon="6.05355">
        <ele>253.39999389648</ele>
        <time>2015-12-16T14:04:32Z</time>
      </trkpt>
      <trkpt lat="43.43416" lon="6.05355">
        <ele>253.60000610352</ele>
        <time>2015-12-16T14:04:34Z</time>
      </trkpt>
      <trkpt lat="43.43416" lon="6.05355">
        <ele>253.39999389648</ele>
        <time>2015-12-16T14:04:38Z</time>
      </trkpt>
      <trkpt lat="43.43415" lon="6.05354">
        <ele>253.80000305176</ele>
        <time>2015-12-16T14:04:40Z</time>
      </trkpt>
      <trkpt lat="43.43415" lon="6.05354">
        <ele>253.80000305176</ele>
        <time>2015-12-16T14:04:41Z</time>
      </trkpt>
      <trkpt lat="43.43415" lon="6.05354">
        <ele>253.80000305176</ele>
        <time>2015-12-16T14:04:42Z</time>
      </trkpt>
      <trkpt lat="43.43415" lon="6.05355">
        <ele>253.80000305176</ele>
        <time>2015-12-16T14:04:44Z</time>
      </trkpt>
      <trkpt lat="43.43415" lon="6.05355">
        <ele>253.80000305176</ele>
        <time>2015-12-16T14:04:46Z</time>
      </trkpt>
      <trkpt lat="43.43415" lon="6.05355">
        <ele>253.60000610352</ele>
        <time>2015-12-16T14:04:48Z</time>
      </trkpt>
      <trkpt lat="43.43415" lon="6.05355">
        <ele>253.80000305176</ele>
        <time>2015-12-16T14:04:51Z</time>
      </trkpt>
      <trkpt lat="43.43415" lon="6.05355">
        <ele>253.39999389648</ele>
        <time>2015-12-16T14:04:56Z</time>
      </trkpt>
      <trkpt lat="43.43415" lon="6.05355">
        <ele>253.60000610352</ele>
        <time>2015-12-16T14:04:58Z</time>
      </trkpt>
      <trkpt lat="43.43415" lon="6.05355">
        <ele>253.60000610352</ele>
        <time>2015-12-16T14:05:00Z</time>
      </trkpt>
      <trkpt lat="43.43415" lon="6.05356">
        <ele>253.39999389648</ele>
        <time>2015-12-16T14:05:04Z</time>
      </trkpt>
      <trkpt lat="43.43415" lon="6.05357">
        <ele>253.60000610352</ele>
        <time>2015-12-16T14:05:08Z</time>
      </trkpt>
      <trkpt lat="43.43415" lon="6.05357">
        <ele>253.60000610352</ele>
        <time>2015-12-16T14:05:10Z</time>
      </trkpt>
      <trkpt lat="43.43415" lon="6.05357">
        <ele>253.60000610352</ele>
        <time>2015-12-16T14:05:12Z</time>
      </trkpt>
      <trkpt lat="43.43415" lon="6.05357">
        <ele>253.60000610352</ele>
        <time>2015-12-16T14:05:14Z</time>
      </trkpt>
      <trkpt lat="43.43415" lon="6.05357">
        <ele>253.60000610352</ele>
        <time>2015-12-16T14:05:16Z</time>
      </trkpt>
      <trkpt lat="43.43415" lon="6.05357">
        <ele>253.39999389648</ele>
        <time>2015-12-16T14:05:18Z</time>
      </trkpt>
      <trkpt lat="43.43415" lon="6.05357">
        <ele>253.39999389648</ele>
        <time>2015-12-16T14:05:20Z</time>
      </trkpt>
      <trkpt lat="43.43415" lon="6.05357">
        <ele>253.39999389648</ele>
        <time>2015-12-16T14:05:22Z</time>
      </trkpt>
      <trkpt lat="43.43415" lon="6.05357">
        <ele>253.39999389648</ele>
        <time>2015-12-16T14:05:24Z</time>
      </trkpt>
      <trkpt lat="43.43415" lon="6.05357">
        <ele>253.60000610352</ele>
        <time>2015-12-16T14:05:26Z</time>
      </trkpt>
      <trkpt lat="43.43415" lon="6.05356">
        <ele>253.80000305176</ele>
        <time>2015-12-16T14:05:28Z</time>
      </trkpt>
      <trkpt lat="43.43414" lon="6.05356">
        <ele>253.80000305176</ele>
        <time>2015-12-16T14:05:30Z</time>
      </trkpt>
      <trkpt lat="43.43414" lon="6.05356">
        <ele>253.80000305176</ele>
        <time>2015-12-16T14:05:32Z</time>
      </trkpt>
      <trkpt lat="43.43414" lon="6.05356">
        <ele>253.80000305176</ele>
        <time>2015-12-16T14:05:34Z</time>
      </trkpt>
      <trkpt lat="43.43414" lon="6.05356">
        <ele>253.80000305176</ele>
        <time>2015-12-16T14:05:36Z</time>
      </trkpt>
      <trkpt lat="43.43414" lon="6.05356">
        <ele>253.80000305176</ele>
        <time>2015-12-16T14:05:38Z</time>
      </trkpt>
      <trkpt lat="43.43414" lon="6.05356">
        <ele>253.80000305176</ele>
        <time>2015-12-16T14:05:40Z</time>
      </trkpt>
      <trkpt lat="43.43414" lon="6.05356">
        <ele>253.60000610352</ele>
        <time>2015-12-16T14:05:46Z</time>
      </trkpt>
      <trkpt lat="43.43414" lon="6.05356">
        <ele>253.60000610352</ele>
        <time>2015-12-16T14:05:54Z</time>
      </trkpt>
      <trkpt lat="43.43414" lon="6.05356">
        <ele>253.39999389648</ele>
        <time>2015-12-16T14:05:56Z</time>
      </trkpt>
      <trkpt lat="43.43414" lon="6.05356">
        <ele>253.39999389648</ele>
        <time>2015-12-16T14:05:58Z</time>
      </trkpt>
      <trkpt lat="43.43414" lon="6.05356">
        <ele>253</ele>
        <time>2015-12-16T14:06:00Z</time>
      </trkpt>
      <trkpt lat="43.43414" lon="6.05356">
        <ele>252.80000305176</ele>
        <time>2015-12-16T14:06:02Z</time>
      </trkpt>
      <trkpt lat="43.43414" lon="6.05356">
        <ele>252.80000305176</ele>
        <time>2015-12-16T14:06:03Z</time>
      </trkpt>
      <trkpt lat="43.43414" lon="6.05356">
        <ele>252.80000305176</ele>
        <time>2015-12-16T14:06:04Z</time>
      </trkpt>
      <trkpt lat="43.43414" lon="6.05355">
        <ele>252.80000305176</ele>
        <time>2015-12-16T14:06:06Z</time>
      </trkpt>
      <trkpt lat="43.43414" lon="6.05355">
        <ele>252.80000305176</ele>
        <time>2015-12-16T14:06:08Z</time>
      </trkpt>
      <trkpt lat="43.43414" lon="6.05355">
        <ele>252.80000305176</ele>
        <time>2015-12-16T14:06:10Z</time>
      </trkpt>
      <trkpt lat="43.43415" lon="6.05355">
        <ele>252.80000305176</ele>
        <time>2015-12-16T14:06:13Z</time>
      </trkpt>
      <trkpt lat="43.43415" lon="6.05355">
        <ele>252.80000305176</ele>
        <time>2015-12-16T14:06:16Z</time>
      </trkpt>
      <trkpt lat="43.43415" lon="6.05355">
        <ele>252.80000305176</ele>
        <time>2015-12-16T14:06:20Z</time>
      </trkpt>
      <trkpt lat="43.43415" lon="6.05355">
        <ele>252.80000305176</ele>
        <time>2015-12-16T14:06:30Z</time>
      </trkpt>
      <trkpt lat="43.43415" lon="6.05355">
        <ele>252.80000305176</ele>
        <time>2015-12-16T14:06:31Z</time>
      </trkpt>
      <trkpt lat="43.43415" lon="6.05355">
        <ele>252.80000305176</ele>
        <time>2015-12-16T14:06:36Z</time>
      </trkpt>
      <trkpt lat="43.43415" lon="6.05355">
        <ele>252.80000305176</ele>
        <time>2015-12-16T14:06:38Z</time>
      </trkpt>
      <trkpt lat="43.43415" lon="6.05355">
        <ele>252.80000305176</ele>
        <time>2015-12-16T14:06:42Z</time>
      </trkpt>
      <trkpt lat="43.43414" lon="6.05355">
        <ele>253.19999694824</ele>
        <time>2015-12-16T14:06:44Z</time>
      </trkpt>
      <trkpt lat="43.43414" lon="6.05355">
        <ele>253.39999389648</ele>
        <time>2015-12-16T14:06:46Z</time>
      </trkpt>
      <trkpt lat="43.43415" lon="6.05355">
        <ele>253.60000610352</ele>
        <time>2015-12-16T14:06:50Z</time>
      </trkpt>
      <trkpt lat="43.43415" lon="6.05355">
        <ele>253.60000610352</ele>
        <time>2015-12-16T14:06:52Z</time>
      </trkpt>
      <trkpt lat="43.43415" lon="6.05355">
        <ele>253.39999389648</ele>
        <time>2015-12-16T14:06:54Z</time>
      </trkpt>
      <trkpt lat="43.43415" lon="6.05355">
        <ele>253.60000610352</ele>
        <time>2015-12-16T14:06:56Z</time>
      </trkpt>
      <trkpt lat="43.43415" lon="6.05355">
        <ele>253.39999389648</ele>
        <time>2015-12-16T14:07:00Z</time>
      </trkpt>
      <trkpt lat="43.43415" lon="6.05355">
        <ele>253.39999389648</ele>
        <time>2015-12-16T14:07:10Z</time>
      </trkpt>
      <trkpt lat="43.43415" lon="6.05355">
        <ele>253.60000610352</ele>
        <time>2015-12-16T14:07:14Z</time>
      </trkpt>
      <trkpt lat="43.43415" lon="6.05355">
        <ele>253.39999389648</ele>
        <time>2015-12-16T14:07:16Z</time>
      </trkpt>
      <trkpt lat="43.43415" lon="6.05355">
        <ele>253.39999389648</ele>
        <time>2015-12-16T14:07:18Z</time>
      </trkpt>
      <trkpt lat="43.43414" lon="6.05356">
        <ele>253.19999694824</ele>
        <time>2015-12-16T14:07:21Z</time>
      </trkpt>
      <trkpt lat="43.43414" lon="6.05356">
        <ele>253.39999389648</ele>
        <time>2015-12-16T14:07:22Z</time>
      </trkpt>
      <trkpt lat="43.43414" lon="6.05356">
        <ele>253.39999389648</ele>
        <time>2015-12-16T14:07:24Z</time>
      </trkpt>
      <trkpt lat="43.43414" lon="6.05356">
        <ele>253.39999389648</ele>
        <time>2015-12-16T14:07:26Z</time>
      </trkpt>
      <trkpt lat="43.43414" lon="6.05357">
        <ele>253.39999389648</ele>
        <time>2015-12-16T14:07:34Z</time>
      </trkpt>
      <trkpt lat="43.43414" lon="6.05357">
        <ele>253.39999389648</ele>
        <time>2015-12-16T14:07:38Z</time>
      </trkpt>
      <trkpt lat="43.43414" lon="6.05357">
        <ele>253.19999694824</ele>
        <time>2015-12-16T14:07:40Z</time>
      </trkpt>
      <trkpt lat="43.43414" lon="6.05357">
        <ele>253.39999389648</ele>
        <time>2015-12-16T14:07:42Z</time>
      </trkpt>
      <trkpt lat="43.43414" lon="6.05357">
        <ele>253.19999694824</ele>
        <time>2015-12-16T14:07:44Z</time>
      </trkpt>
      <trkpt lat="43.43414" lon="6.05357">
        <ele>253.19999694824</ele>
        <time>2015-12-16T14:07:46Z</time>
      </trkpt>
      <trkpt lat="43.43414" lon="6.05357">
        <ele>253.19999694824</ele>
        <time>2015-12-16T14:07:48Z</time>
      </trkpt>
      <trkpt lat="43.43414" lon="6.05357">
        <ele>253.19999694824</ele>
        <time>2015-12-16T14:07:50Z</time>
      </trkpt>
      <trkpt lat="43.43414" lon="6.05357">
        <ele>253.19999694824</ele>
        <time>2015-12-16T14:07:54Z</time>
      </trkpt>
      <trkpt lat="43.43414" lon="6.05357">
        <ele>253.19999694824</ele>
        <time>2015-12-16T14:07:56Z</time>
      </trkpt>
      <trkpt lat="43.43414" lon="6.05357">
        <ele>253.19999694824</ele>
        <time>2015-12-16T14:07:58Z</time>
      </trkpt>
      <trkpt lat="43.43414" lon="6.05357">
        <ele>253.19999694824</ele>
        <time>2015-12-16T14:08:00Z</time>
      </trkpt>
      <trkpt lat="43.43414" lon="6.05358">
        <ele>253.19999694824</ele>
        <time>2015-12-16T14:08:02Z</time>
      </trkpt>
      <trkpt lat="43.43414" lon="6.05358">
        <ele>253.19999694824</ele>
        <time>2015-12-16T14:08:04Z</time>
      </trkpt>
      <trkpt lat="43.43414" lon="6.05358">
        <ele>253.19999694824</ele>
        <time>2015-12-16T14:08:05Z</time>
      </trkpt>
      <trkpt lat="43.43414" lon="6.05359">
        <ele>253.19999694824</ele>
        <time>2015-12-16T14:08:06Z</time>
      </trkpt>
      <trkpt lat="43.43414" lon="6.05359">
        <ele>253.19999694824</ele>
        <time>2015-12-16T14:08:08Z</time>
      </trkpt>
      <trkpt lat="43.43414" lon="6.05359">
        <ele>253</ele>
        <time>2015-12-16T14:08:10Z</time>
      </trkpt>
      <trkpt lat="43.43415" lon="6.05359">
        <ele>253</ele>
        <time>2015-12-16T14:08:12Z</time>
      </trkpt>
      <trkpt lat="43.43415" lon="6.0536">
        <ele>253.19999694824</ele>
        <time>2015-12-16T14:08:14Z</time>
      </trkpt>
      <trkpt lat="43.43416" lon="6.0536">
        <ele>253.19999694824</ele>
        <time>2015-12-16T14:08:16Z</time>
      </trkpt>
      <trkpt lat="43.43416" lon="6.0536">
        <ele>253.19999694824</ele>
        <time>2015-12-16T14:08:18Z</time>
      </trkpt>
      <trkpt lat="43.43416" lon="6.0536">
        <ele>253.19999694824</ele>
        <time>2015-12-16T14:08:20Z</time>
      </trkpt>
      <trkpt lat="43.43417" lon="6.05361">
        <ele>253</ele>
        <time>2015-12-16T14:08:22Z</time>
      </trkpt>
      <trkpt lat="43.43418" lon="6.05362">
        <ele>252.80000305176</ele>
        <time>2015-12-16T14:08:23Z</time>
      </trkpt>
      <trkpt lat="43.43419" lon="6.05362">
        <ele>253</ele>
        <time>2015-12-16T14:08:24Z</time>
      </trkpt>
      <trkpt lat="43.43422" lon="6.05362">
        <ele>253</ele>
        <time>2015-12-16T14:08:26Z</time>
      </trkpt>
      <trkpt lat="43.43423" lon="6.05362">
        <ele>253</ele>
        <time>2015-12-16T14:08:27Z</time>
      </trkpt>
      <trkpt lat="43.43426" lon="6.05362">
        <ele>252.60000610352</ele>
        <time>2015-12-16T14:08:28Z</time>
      </trkpt>
      <trkpt lat="43.43431" lon="6.05362">
        <ele>251.60000610352</ele>
        <time>2015-12-16T14:08:30Z</time>
      </trkpt>
      <trkpt lat="43.43434" lon="6.05362">
        <ele>251.19999694824</ele>
        <time>2015-12-16T14:08:31Z</time>
      </trkpt>
      <trkpt lat="43.43438" lon="6.05361">
        <ele>250.80000305176</ele>
        <time>2015-12-16T14:08:32Z</time>
      </trkpt>
      <trkpt lat="43.43441" lon="6.05358">
        <ele>250.19999694824</ele>
        <time>2015-12-16T14:08:33Z</time>
      </trkpt>
      <trkpt lat="43.43444" lon="6.05353">
        <ele>250.19999694824</ele>
        <time>2015-12-16T14:08:34Z</time>
      </trkpt>
      <trkpt lat="43.43447" lon="6.05349">
        <ele>250</ele>
        <time>2015-12-16T14:08:35Z</time>
      </trkpt>
      <trkpt lat="43.43452" lon="6.05346">
        <ele>249.39999389648</ele>
        <time>2015-12-16T14:08:36Z</time>
      </trkpt>
      <trkpt lat="43.43456" lon="6.05346">
        <ele>248.80000305176</ele>
        <time>2015-12-16T14:08:37Z</time>
      </trkpt>
      <trkpt lat="43.43465" lon="6.05349">
        <ele>246.60000610352</ele>
        <time>2015-12-16T14:08:39Z</time>
      </trkpt>
      <trkpt lat="43.4347" lon="6.0535">
        <ele>246.39999389648</ele>
        <time>2015-12-16T14:08:40Z</time>
      </trkpt>
      <trkpt lat="43.4348" lon="6.05352">
        <ele>246</ele>
        <time>2015-12-16T14:08:42Z</time>
      </trkpt>
      <trkpt lat="43.43491" lon="6.05355">
        <ele>245.80000305176</ele>
        <time>2015-12-16T14:08:44Z</time>
      </trkpt>
      <trkpt lat="43.43495" lon="6.05357">
        <ele>245.80000305176</ele>
        <time>2015-12-16T14:08:45Z</time>
      </trkpt>
      <trkpt lat="43.43501" lon="6.05359">
        <ele>245.60000610352</ele>
        <time>2015-12-16T14:08:46Z</time>
      </trkpt>
      <trkpt lat="43.43505" lon="6.0536">
        <ele>245.39999389648</ele>
        <time>2015-12-16T14:08:47Z</time>
      </trkpt>
      <trkpt lat="43.43509" lon="6.05359">
        <ele>245.19999694824</ele>
        <time>2015-12-16T14:08:48Z</time>
      </trkpt>
      <trkpt lat="43.43512" lon="6.05357">
        <ele>245.39999389648</ele>
        <time>2015-12-16T14:08:49Z</time>
      </trkpt>
      <trkpt lat="43.43514" lon="6.05352">
        <ele>245.19999694824</ele>
        <time>2015-12-16T14:08:50Z</time>
      </trkpt>
      <trkpt lat="43.43521" lon="6.05343">
        <ele>244</ele>
        <time>2015-12-16T14:08:52Z</time>
      </trkpt>
      <trkpt lat="43.43525" lon="6.05338">
        <ele>243.80000305176</ele>
        <time>2015-12-16T14:08:53Z</time>
      </trkpt>
      <trkpt lat="43.43529" lon="6.05334">
        <ele>243.80000305176</ele>
        <time>2015-12-16T14:08:54Z</time>
      </trkpt>
      <trkpt lat="43.43536" lon="6.05333">
        <ele>244.19999694824</ele>
        <time>2015-12-16T14:08:56Z</time>
      </trkpt>
      <trkpt lat="43.43538" lon="6.05334">
        <ele>244.39999389648</ele>
        <time>2015-12-16T14:08:58Z</time>
      </trkpt>
      <trkpt lat="43.43539" lon="6.05333">
        <ele>244.39999389648</ele>
        <time>2015-12-16T14:08:59Z</time>
      </trkpt>
      <trkpt lat="43.43539" lon="6.05333">
        <ele>244.60000610352</ele>
        <time>2015-12-16T14:09:00Z</time>
      </trkpt>
      <trkpt lat="43.43541" lon="6.05334">
        <ele>244.60000610352</ele>
        <time>2015-12-16T14:09:01Z</time>
      </trkpt>
      <trkpt lat="43.43543" lon="6.05334">
        <ele>244.80000305176</ele>
        <time>2015-12-16T14:09:02Z</time>
      </trkpt>
      <trkpt lat="43.43546" lon="6.05335">
        <ele>244.80000305176</ele>
        <time>2015-12-16T14:09:03Z</time>
      </trkpt>
      <trkpt lat="43.43548" lon="6.05336">
        <ele>244.80000305176</ele>
        <time>2015-12-16T14:09:04Z</time>
      </trkpt>
      <trkpt lat="43.43552" lon="6.05338">
        <ele>245</ele>
        <time>2015-12-16T14:09:06Z</time>
      </trkpt>
      <trkpt lat="43.43558" lon="6.0534">
        <ele>245.19999694824</ele>
        <time>2015-12-16T14:09:08Z</time>
      </trkpt>
      <trkpt lat="43.43563" lon="6.05342">
        <ele>245.60000610352</ele>
        <time>2015-12-16T14:09:10Z</time>
      </trkpt>
      <trkpt lat="43.43568" lon="6.05346">
        <ele>245.80000305176</ele>
        <time>2015-12-16T14:09:12Z</time>
      </trkpt>
      <trkpt lat="43.43571" lon="6.05351">
        <ele>246</ele>
        <time>2015-12-16T14:09:14Z</time>
      </trkpt>
      <trkpt lat="43.43572" lon="6.05354">
        <ele>246.39999389648</ele>
        <time>2015-12-16T14:09:15Z</time>
      </trkpt>
      <trkpt lat="43.43573" lon="6.05358">
        <ele>246.60000610352</ele>
        <time>2015-12-16T14:09:16Z</time>
      </trkpt>
      <trkpt lat="43.43574" lon="6.05365">
        <ele>246.80000305176</ele>
        <time>2015-12-16T14:09:18Z</time>
      </trkpt>
      <trkpt lat="43.43574" lon="6.05369">
        <ele>247</ele>
        <time>2015-12-16T14:09:19Z</time>
      </trkpt>
      <trkpt lat="43.43574" lon="6.05374">
        <ele>247.19999694824</ele>
        <time>2015-12-16T14:09:20Z</time>
      </trkpt>
      <trkpt lat="43.43573" lon="6.05382">
        <ele>247.39999389648</ele>
        <time>2015-12-16T14:09:22Z</time>
      </trkpt>
      <trkpt lat="43.43573" lon="6.05391">
        <ele>247.80000305176</ele>
        <time>2015-12-16T14:09:24Z</time>
      </trkpt>
      <trkpt lat="43.43571" lon="6.05399">
        <ele>247.80000305176</ele>
        <time>2015-12-16T14:09:26Z</time>
      </trkpt>
      <trkpt lat="43.4357" lon="6.05407">
        <ele>248.19999694824</ele>
        <time>2015-12-16T14:09:28Z</time>
      </trkpt>
      <trkpt lat="43.43569" lon="6.05414">
        <ele>248.60000610352</ele>
        <time>2015-12-16T14:09:30Z</time>
      </trkpt>
      <trkpt lat="43.43568" lon="6.05421">
        <ele>248.80000305176</ele>
        <time>2015-12-16T14:09:32Z</time>
      </trkpt>
      <trkpt lat="43.43566" lon="6.05432">
        <ele>249.19999694824</ele>
        <time>2015-12-16T14:09:35Z</time>
      </trkpt>
      <trkpt lat="43.43564" lon="6.05443">
        <ele>249.60000610352</ele>
        <time>2015-12-16T14:09:38Z</time>
      </trkpt>
      <trkpt lat="43.43563" lon="6.05451">
        <ele>249.80000305176</ele>
        <time>2015-12-16T14:09:40Z</time>
      </trkpt>
      <trkpt lat="43.43562" lon="6.05455">
        <ele>250</ele>
        <time>2015-12-16T14:09:41Z</time>
      </trkpt>
      <trkpt lat="43.43561" lon="6.05459">
        <ele>250</ele>
        <time>2015-12-16T14:09:42Z</time>
      </trkpt>
      <trkpt lat="43.4356" lon="6.05467">
        <ele>250.19999694824</ele>
        <time>2015-12-16T14:09:44Z</time>
      </trkpt>
      <trkpt lat="43.43559" lon="6.05482">
        <ele>250.80000305176</ele>
        <time>2015-12-16T14:09:48Z</time>
      </trkpt>
      <trkpt lat="43.43559" lon="6.0549">
        <ele>251</ele>
        <time>2015-12-16T14:09:50Z</time>
      </trkpt>
      <trkpt lat="43.43559" lon="6.05498">
        <ele>251.39999389648</ele>
        <time>2015-12-16T14:09:52Z</time>
      </trkpt>
      <trkpt lat="43.4356" lon="6.05506">
        <ele>251.60000610352</ele>
        <time>2015-12-16T14:09:54Z</time>
      </trkpt>
      <trkpt lat="43.4356" lon="6.05509">
        <ele>251.60000610352</ele>
        <time>2015-12-16T14:09:55Z</time>
      </trkpt>
      <trkpt lat="43.43562" lon="6.05523">
        <ele>251.80000305176</ele>
        <time>2015-12-16T14:09:58Z</time>
      </trkpt>
      <trkpt lat="43.43564" lon="6.05532">
        <ele>251.80000305176</ele>
        <time>2015-12-16T14:10:00Z</time>
      </trkpt>
      <trkpt lat="43.43566" lon="6.0554">
        <ele>251.80000305176</ele>
        <time>2015-12-16T14:10:02Z</time>
      </trkpt>
      <trkpt lat="43.43569" lon="6.0555">
        <ele>251.80000305176</ele>
        <time>2015-12-16T14:10:04Z</time>
      </trkpt>
      <trkpt lat="43.43572" lon="6.0556">
        <ele>251.80000305176</ele>
        <time>2015-12-16T14:10:06Z</time>
      </trkpt>
      <trkpt lat="43.43575" lon="6.0557">
        <ele>251.80000305176</ele>
        <time>2015-12-16T14:10:08Z</time>
      </trkpt>
      <trkpt lat="43.43579" lon="6.0558">
        <ele>251.80000305176</ele>
        <time>2015-12-16T14:10:10Z</time>
      </trkpt>
      <trkpt lat="43.43583" lon="6.05589">
        <ele>251.60000610352</ele>
        <time>2015-12-16T14:10:12Z</time>
      </trkpt>
      <trkpt lat="43.43587" lon="6.05599">
        <ele>251.60000610352</ele>
        <time>2015-12-16T14:10:14Z</time>
      </trkpt>
      <trkpt lat="43.43591" lon="6.0561">
        <ele>251.39999389648</ele>
        <time>2015-12-16T14:10:16Z</time>
      </trkpt>
      <trkpt lat="43.43594" lon="6.05616">
        <ele>251</ele>
        <time>2015-12-16T14:10:17Z</time>
      </trkpt>
      <trkpt lat="43.43596" lon="6.05623">
        <ele>250.80000305176</ele>
        <time>2015-12-16T14:10:18Z</time>
      </trkpt>
      <trkpt lat="43.43601" lon="6.05634">
        <ele>250.60000610352</ele>
        <time>2015-12-16T14:10:20Z</time>
      </trkpt>
      <trkpt lat="43.43603" lon="6.05641">
        <ele>250.19999694824</ele>
        <time>2015-12-16T14:10:22Z</time>
      </trkpt>
      <trkpt lat="43.43605" lon="6.05642">
        <ele>250.19999694824</ele>
        <time>2015-12-16T14:10:23Z</time>
      </trkpt>
      <trkpt lat="43.43606" lon="6.05641">
        <ele>250.19999694824</ele>
        <time>2015-12-16T14:10:24Z</time>
      </trkpt>
      <trkpt lat="43.43606" lon="6.05641">
        <ele>250.19999694824</ele>
        <time>2015-12-16T14:10:26Z</time>
      </trkpt>
      <trkpt lat="43.43606" lon="6.05641">
        <ele>250.19999694824</ele>
        <time>2015-12-16T14:10:28Z</time>
      </trkpt>
      <trkpt lat="43.43606" lon="6.0564">
        <ele>250</ele>
        <time>2015-12-16T14:10:30Z</time>
      </trkpt>
      <trkpt lat="43.43607" lon="6.05641">
        <ele>250.19999694824</ele>
        <time>2015-12-16T14:10:34Z</time>
      </trkpt>
      <trkpt lat="43.43608" lon="6.0564">
        <ele>250.19999694824</ele>
        <time>2015-12-16T14:10:35Z</time>
      </trkpt>
      <trkpt lat="43.4361" lon="6.05641">
        <ele>250.39999389648</ele>
        <time>2015-12-16T14:10:36Z</time>
      </trkpt>
      <trkpt lat="43.43616" lon="6.05642">
        <ele>250.39999389648</ele>
        <time>2015-12-16T14:10:38Z</time>
      </trkpt>
      <trkpt lat="43.43621" lon="6.05644">
        <ele>250.80000305176</ele>
        <time>2015-12-16T14:10:40Z</time>
      </trkpt>
      <trkpt lat="43.43623" lon="6.05645">
        <ele>250.80000305176</ele>
        <time>2015-12-16T14:10:41Z</time>
      </trkpt>
      <trkpt lat="43.43626" lon="6.05645">
        <ele>251</ele>
        <time>2015-12-16T14:10:42Z</time>
      </trkpt>
      <trkpt lat="43.43631" lon="6.05646">
        <ele>251.60000610352</ele>
        <time>2015-12-16T14:10:44Z</time>
      </trkpt>
      <trkpt lat="43.43636" lon="6.05645">
        <ele>251.60000610352</ele>
        <time>2015-12-16T14:10:46Z</time>
      </trkpt>
      <trkpt lat="43.43638" lon="6.05643">
        <ele>251.60000610352</ele>
        <time>2015-12-16T14:10:47Z</time>
      </trkpt>
      <trkpt lat="43.4364" lon="6.05642">
        <ele>251.80000305176</ele>
        <time>2015-12-16T14:10:48Z</time>
      </trkpt>
      <trkpt lat="43.43644" lon="6.05639">
        <ele>251.80000305176</ele>
        <time>2015-12-16T14:10:50Z</time>
      </trkpt>
      <trkpt lat="43.43647" lon="6.05635">
        <ele>252.19999694824</ele>
        <time>2015-12-16T14:10:52Z</time>
      </trkpt>
      <trkpt lat="43.43649" lon="6.05632">
        <ele>252.39999389648</ele>
        <time>2015-12-16T14:10:54Z</time>
      </trkpt>
      <trkpt lat="43.43652" lon="6.05628">
        <ele>252.80000305176</ele>
        <time>2015-12-16T14:10:56Z</time>
      </trkpt>
      <trkpt lat="43.43653" lon="6.05626">
        <ele>253</ele>
        <time>2015-12-16T14:10:57Z</time>
      </trkpt>
      <trkpt lat="43.43657" lon="6.05621">
        <ele>253.80000305176</ele>
        <time>2015-12-16T14:11:00Z</time>
      </trkpt>
      <trkpt lat="43.43658" lon="6.05619">
        <ele>254</ele>
        <time>2015-12-16T14:11:01Z</time>
      </trkpt>
      <trkpt lat="43.4366" lon="6.05617">
        <ele>254.19999694824</ele>
        <time>2015-12-16T14:11:02Z</time>
      </trkpt>
      <trkpt lat="43.43663" lon="6.05614">
        <ele>255</ele>
        <time>2015-12-16T14:11:04Z</time>
      </trkpt>
      <trkpt lat="43.43664" lon="6.05612">
        <ele>255.19999694824</ele>
        <time>2015-12-16T14:11:05Z</time>
      </trkpt>
      <trkpt lat="43.43669" lon="6.05605">
        <ele>255.60000610352</ele>
        <time>2015-12-16T14:11:08Z</time>
      </trkpt>
      <trkpt lat="43.43672" lon="6.05601">
        <ele>256.39999389648</ele>
        <time>2015-12-16T14:11:10Z</time>
      </trkpt>
      <trkpt lat="43.43673" lon="6.05596">
        <ele>257</ele>
        <time>2015-12-16T14:11:12Z</time>
      </trkpt>
      <trkpt lat="43.43674" lon="6.05595">
        <ele>257.39999389648</ele>
        <time>2015-12-16T14:11:13Z</time>
      </trkpt>
      <trkpt lat="43.43675" lon="6.05592">
        <ele>257.79998779297</ele>
        <time>2015-12-16T14:11:14Z</time>
      </trkpt>
      <trkpt lat="43.43677" lon="6.05588">
        <ele>258.20001220703</ele>
        <time>2015-12-16T14:11:16Z</time>
      </trkpt>
      <trkpt lat="43.43678" lon="6.05583">
        <ele>258.60000610352</ele>
        <time>2015-12-16T14:11:18Z</time>
      </trkpt>
      <trkpt lat="43.43679" lon="6.05578">
        <ele>258.79998779297</ele>
        <time>2015-12-16T14:11:20Z</time>
      </trkpt>
      <trkpt lat="43.4368" lon="6.05572">
        <ele>259</ele>
        <time>2015-12-16T14:11:22Z</time>
      </trkpt>
      <trkpt lat="43.43681" lon="6.05566">
        <ele>259.20001220703</ele>
        <time>2015-12-16T14:11:24Z</time>
      </trkpt>
      <trkpt lat="43.43682" lon="6.05562">
        <ele>259.60000610352</ele>
        <time>2015-12-16T14:11:26Z</time>
      </trkpt>
      <trkpt lat="43.43683" lon="6.05558">
        <ele>260</ele>
        <time>2015-12-16T14:11:28Z</time>
      </trkpt>
      <trkpt lat="43.43684" lon="6.05553">
        <ele>260.20001220703</ele>
        <time>2015-12-16T14:11:30Z</time>
      </trkpt>
      <trkpt lat="43.43686" lon="6.0555">
        <ele>260.79998779297</ele>
        <time>2015-12-16T14:11:32Z</time>
      </trkpt>
      <trkpt lat="43.43686" lon="6.05548">
        <ele>261</ele>
        <time>2015-12-16T14:11:33Z</time>
      </trkpt>
      <trkpt lat="43.43686" lon="6.05545">
        <ele>261.20001220703</ele>
        <time>2015-12-16T14:11:34Z</time>
      </trkpt>
      <trkpt lat="43.43687" lon="6.0554">
        <ele>261.60000610352</ele>
        <time>2015-12-16T14:11:36Z</time>
      </trkpt>
      <trkpt lat="43.43687" lon="6.05535">
        <ele>261.79998779297</ele>
        <time>2015-12-16T14:11:38Z</time>
      </trkpt>
      <trkpt lat="43.43687" lon="6.05531">
        <ele>262.20001220703</ele>
        <time>2015-12-16T14:11:40Z</time>
      </trkpt>
      <trkpt lat="43.43686" lon="6.05529">
        <ele>262.60000610352</ele>
        <time>2015-12-16T14:11:41Z</time>
      </trkpt>
      <trkpt lat="43.43686" lon="6.05527">
        <ele>263</ele>
        <time>2015-12-16T14:11:42Z</time>
      </trkpt>
      <trkpt lat="43.43684" lon="6.05524">
        <ele>263.39999389648</ele>
        <time>2015-12-16T14:11:44Z</time>
      </trkpt>
      <trkpt lat="43.4368" lon="6.0552">
        <ele>264.20001220703</ele>
        <time>2015-12-16T14:11:48Z</time>
      </trkpt>
      <trkpt lat="43.43678" lon="6.05519">
        <ele>264.39999389648</ele>
        <time>2015-12-16T14:11:49Z</time>
      </trkpt>
      <trkpt lat="43.43677" lon="6.05519">
        <ele>264.60000610352</ele>
        <time>2015-12-16T14:11:50Z</time>
      </trkpt>
      <trkpt lat="43.43673" lon="6.05519">
        <ele>265</ele>
        <time>2015-12-16T14:11:52Z</time>
      </trkpt>
      <trkpt lat="43.4367" lon="6.05518">
        <ele>265.20001220703</ele>
        <time>2015-12-16T14:11:54Z</time>
      </trkpt>
      <trkpt lat="43.43666" lon="6.05517">
        <ele>265.60000610352</ele>
        <time>2015-12-16T14:11:56Z</time>
      </trkpt>
      <trkpt lat="43.43663" lon="6.05516">
        <ele>265.79998779297</ele>
        <time>2015-12-16T14:11:58Z</time>
      </trkpt>
      <trkpt lat="43.4366" lon="6.05515">
        <ele>266</ele>
        <time>2015-12-16T14:12:00Z</time>
      </trkpt>
      <trkpt lat="43.43657" lon="6.05513">
        <ele>266.39999389648</ele>
        <time>2015-12-16T14:12:02Z</time>
      </trkpt>
      <trkpt lat="43.43656" lon="6.05509">
        <ele>267</ele>
        <time>2015-12-16T14:12:04Z</time>
      </trkpt>
      <trkpt lat="43.43655" lon="6.05505">
        <ele>267.39999389648</ele>
        <time>2015-12-16T14:12:06Z</time>
      </trkpt>
      <trkpt lat="43.43656" lon="6.05501">
        <ele>267.60000610352</ele>
        <time>2015-12-16T14:12:08Z</time>
      </trkpt>
      <trkpt lat="43.43657" lon="6.055">
        <ele>267.60000610352</ele>
        <time>2015-12-16T14:12:09Z</time>
      </trkpt>
      <trkpt lat="43.43658" lon="6.05494">
        <ele>267.79998779297</ele>
        <time>2015-12-16T14:12:12Z</time>
      </trkpt>
      <trkpt lat="43.4366" lon="6.0549">
        <ele>268</ele>
        <time>2015-12-16T14:12:14Z</time>
      </trkpt>
      <trkpt lat="43.4366" lon="6.05488">
        <ele>268</ele>
        <time>2015-12-16T14:12:15Z</time>
      </trkpt>
      <trkpt lat="43.43661" lon="6.05486">
        <ele>268.20001220703</ele>
        <time>2015-12-16T14:12:16Z</time>
      </trkpt>
      <trkpt lat="43.43661" lon="6.05481">
        <ele>268.20001220703</ele>
        <time>2015-12-16T14:12:18Z</time>
      </trkpt>
      <trkpt lat="43.43663" lon="6.05476">
        <ele>268.39999389648</ele>
        <time>2015-12-16T14:12:20Z</time>
      </trkpt>
      <trkpt lat="43.43664" lon="6.05472">
        <ele>268.39999389648</ele>
        <time>2015-12-16T14:12:22Z</time>
      </trkpt>
      <trkpt lat="43.43665" lon="6.05466">
        <ele>268.39999389648</ele>
        <time>2015-12-16T14:12:24Z</time>
      </trkpt>
      <trkpt lat="43.43666" lon="6.05462">
        <ele>268.60000610352</ele>
        <time>2015-12-16T14:12:26Z</time>
      </trkpt>
      <trkpt lat="43.43667" lon="6.05455">
        <ele>268.79998779297</ele>
        <time>2015-12-16T14:12:28Z</time>
      </trkpt>
      <trkpt lat="43.43669" lon="6.0545">
        <ele>268.60000610352</ele>
        <time>2015-12-16T14:12:30Z</time>
      </trkpt>
      <trkpt lat="43.4367" lon="6.05444">
        <ele>268.60000610352</ele>
        <time>2015-12-16T14:12:32Z</time>
      </trkpt>
      <trkpt lat="43.43671" lon="6.05438">
        <ele>268.79998779297</ele>
        <time>2015-12-16T14:12:35Z</time>
      </trkpt>
      <trkpt lat="43.43672" lon="6.05436">
        <ele>268.79998779297</ele>
        <time>2015-12-16T14:12:36Z</time>
      </trkpt>
      <trkpt lat="43.43673" lon="6.05432">
        <ele>268.79998779297</ele>
        <time>2015-12-16T14:12:38Z</time>
      </trkpt>
      <trkpt lat="43.43675" lon="6.05428">
        <ele>268.79998779297</ele>
        <time>2015-12-16T14:12:40Z</time>
      </trkpt>
      <trkpt lat="43.43678" lon="6.05425">
        <ele>268.60000610352</ele>
        <time>2015-12-16T14:12:42Z</time>
      </trkpt>
      <trkpt lat="43.43682" lon="6.05424">
        <ele>268.39999389648</ele>
        <time>2015-12-16T14:12:44Z</time>
      </trkpt>
      <trkpt lat="43.43684" lon="6.05423">
        <ele>268</ele>
        <time>2015-12-16T14:12:45Z</time>
      </trkpt>
      <trkpt lat="43.43688" lon="6.05424">
        <ele>267.60000610352</ele>
        <time>2015-12-16T14:12:46Z</time>
      </trkpt>
      <trkpt lat="43.43691" lon="6.05425">
        <ele>267.20001220703</ele>
        <time>2015-12-16T14:12:47Z</time>
      </trkpt>
      <trkpt lat="43.43695" lon="6.05427">
        <ele>266.79998779297</ele>
        <time>2015-12-16T14:12:48Z</time>
      </trkpt>
      <trkpt lat="43.43702" lon="6.05429">
        <ele>266.39999389648</ele>
        <time>2015-12-16T14:12:50Z</time>
      </trkpt>
      <trkpt lat="43.4371" lon="6.0543">
        <ele>266</ele>
        <time>2015-12-16T14:12:52Z</time>
      </trkpt>
      <trkpt lat="43.43714" lon="6.0543">
        <ele>265.79998779297</ele>
        <time>2015-12-16T14:12:53Z</time>
      </trkpt>
      <trkpt lat="43.43718" lon="6.0543">
        <ele>265.60000610352</ele>
        <time>2015-12-16T14:12:54Z</time>
      </trkpt>
      <trkpt lat="43.43722" lon="6.05428">
        <ele>265.60000610352</ele>
        <time>2015-12-16T14:12:55Z</time>
      </trkpt>
      <trkpt lat="43.43723" lon="6.05424">
        <ele>265.39999389648</ele>
        <time>2015-12-16T14:12:56Z</time>
      </trkpt>
      <trkpt lat="43.43724" lon="6.05421">
        <ele>265.20001220703</ele>
        <time>2015-12-16T14:12:57Z</time>
      </trkpt>
      <trkpt lat="43.43726" lon="6.05417">
        <ele>265</ele>
        <time>2015-12-16T14:12:58Z</time>
      </trkpt>
      <trkpt lat="43.43727" lon="6.0541">
        <ele>264.79998779297</ele>
        <time>2015-12-16T14:13:00Z</time>
      </trkpt>
      <trkpt lat="43.43728" lon="6.05403">
        <ele>265</ele>
        <time>2015-12-16T14:13:02Z</time>
      </trkpt>
      <trkpt lat="43.43729" lon="6.054">
        <ele>265</ele>
        <time>2015-12-16T14:13:03Z</time>
      </trkpt>
      <trkpt lat="43.4373" lon="6.05397">
        <ele>265</ele>
        <time>2015-12-16T14:13:04Z</time>
      </trkpt>
      <trkpt lat="43.43732" lon="6.05391">
        <ele>264.79998779297</ele>
        <time>2015-12-16T14:13:06Z</time>
      </trkpt>
      <trkpt lat="43.43734" lon="6.05384">
        <ele>264.39999389648</ele>
        <time>2015-12-16T14:13:08Z</time>
      </trkpt>
      <trkpt lat="43.43735" lon="6.05381">
        <ele>264.20001220703</ele>
        <time>2015-12-16T14:13:09Z</time>
      </trkpt>
      <trkpt lat="43.43736" lon="6.05377">
        <ele>264</ele>
        <time>2015-12-16T14:13:10Z</time>
      </trkpt>
      <trkpt lat="43.43736" lon="6.05373">
        <ele>263.79998779297</ele>
        <time>2015-12-16T14:13:11Z</time>
      </trkpt>
      <trkpt lat="43.43737" lon="6.05368">
        <ele>263.60000610352</ele>
        <time>2015-12-16T14:13:12Z</time>
      </trkpt>
      <trkpt lat="43.43738" lon="6.05361">
        <ele>263.39999389648</ele>
        <time>2015-12-16T14:13:14Z</time>
      </trkpt>
      <trkpt lat="43.43739" lon="6.05357">
        <ele>263.20001220703</ele>
        <time>2015-12-16T14:13:15Z</time>
      </trkpt>
      <trkpt lat="43.43739" lon="6.05353">
        <ele>263.20001220703</ele>
        <time>2015-12-16T14:13:16Z</time>
      </trkpt>
      <trkpt lat="43.43737" lon="6.05343">
        <ele>263.79998779297</ele>
        <time>2015-12-16T14:13:19Z</time>
      </trkpt>
      <trkpt lat="43.43737" lon="6.0534">
        <ele>264.39999389648</ele>
        <time>2015-12-16T14:13:20Z</time>
      </trkpt>
      <trkpt lat="43.43737" lon="6.05337">
        <ele>264.60000610352</ele>
        <time>2015-12-16T14:13:21Z</time>
      </trkpt>
      <trkpt lat="43.43737" lon="6.05334">
        <ele>264.60000610352</ele>
        <time>2015-12-16T14:13:22Z</time>
      </trkpt>
      <trkpt lat="43.43736" lon="6.05327">
        <ele>265</ele>
        <time>2015-12-16T14:13:24Z</time>
      </trkpt>
      <trkpt lat="43.43736" lon="6.0532">
        <ele>265.39999389648</ele>
        <time>2015-12-16T14:13:26Z</time>
      </trkpt>
      <trkpt lat="43.43736" lon="6.05312">
        <ele>265.39999389648</ele>
        <time>2015-12-16T14:13:28Z</time>
      </trkpt>
      <trkpt lat="43.43735" lon="6.05306">
        <ele>265.60000610352</ele>
        <time>2015-12-16T14:13:30Z</time>
      </trkpt>
      <trkpt lat="43.43736" lon="6.053">
        <ele>265.79998779297</ele>
        <time>2015-12-16T14:13:32Z</time>
      </trkpt>
      <trkpt lat="43.43735" lon="6.05297">
        <ele>266</ele>
        <time>2015-12-16T14:13:33Z</time>
      </trkpt>
      <trkpt lat="43.43735" lon="6.05291">
        <ele>266</ele>
        <time>2015-12-16T14:13:35Z</time>
      </trkpt>
      <trkpt lat="43.43734" lon="6.05287">
        <ele>266.20001220703</ele>
        <time>2015-12-16T14:13:36Z</time>
      </trkpt>
      <trkpt lat="43.43734" lon="6.05281">
        <ele>266.20001220703</ele>
        <time>2015-12-16T14:13:38Z</time>
      </trkpt>
      <trkpt lat="43.43735" lon="6.05276">
        <ele>265.60000610352</ele>
        <time>2015-12-16T14:13:40Z</time>
      </trkpt>
      <trkpt lat="43.43736" lon="6.05275">
        <ele>265.60000610352</ele>
        <time>2015-12-16T14:13:41Z</time>
      </trkpt>
      <trkpt lat="43.43736" lon="6.05274">
        <ele>265.39999389648</ele>
        <time>2015-12-16T14:13:42Z</time>
      </trkpt>
      <trkpt lat="43.43736" lon="6.05272">
        <ele>265.39999389648</ele>
        <time>2015-12-16T14:13:46Z</time>
      </trkpt>
      <trkpt lat="43.43736" lon="6.05272">
        <ele>265.39999389648</ele>
        <time>2015-12-16T14:13:48Z</time>
      </trkpt>
      <trkpt lat="43.43736" lon="6.05272">
        <ele>265.39999389648</ele>
        <time>2015-12-16T14:13:54Z</time>
      </trkpt>
      <trkpt lat="43.43736" lon="6.05272">
        <ele>265.39999389648</ele>
        <time>2015-12-16T14:13:56Z</time>
      </trkpt>
      <trkpt lat="43.43736" lon="6.05272">
        <ele>265.39999389648</ele>
        <time>2015-12-16T14:13:58Z</time>
      </trkpt>
      <trkpt lat="43.43737" lon="6.05271">
        <ele>265.20001220703</ele>
        <time>2015-12-16T14:14:00Z</time>
      </trkpt>
      <trkpt lat="43.43739" lon="6.05271">
        <ele>265.20001220703</ele>
        <time>2015-12-16T14:14:01Z</time>
      </trkpt>
      <trkpt lat="43.43742" lon="6.05272">
        <ele>265</ele>
        <time>2015-12-16T14:14:02Z</time>
      </trkpt>
      <trkpt lat="43.4375" lon="6.05272">
        <ele>264.39999389648</ele>
        <time>2015-12-16T14:14:04Z</time>
      </trkpt>
      <trkpt lat="43.43754" lon="6.05272">
        <ele>264</ele>
        <time>2015-12-16T14:14:05Z</time>
      </trkpt>
      <trkpt lat="43.43759" lon="6.05272">
        <ele>263.79998779297</ele>
        <time>2015-12-16T14:14:06Z</time>
      </trkpt>
      <trkpt lat="43.43767" lon="6.05272">
        <ele>264</ele>
        <time>2015-12-16T14:14:08Z</time>
      </trkpt>
      <trkpt lat="43.4379" lon="6.05272">
        <ele>264</ele>
        <time>2015-12-16T14:14:14Z</time>
      </trkpt>
      <trkpt lat="43.43797" lon="6.05273">
        <ele>264.39999389648</ele>
        <time>2015-12-16T14:14:16Z</time>
      </trkpt>
      <trkpt lat="43.43803" lon="6.05277">
        <ele>264.60000610352</ele>
        <time>2015-12-16T14:14:18Z</time>
      </trkpt>
      <trkpt lat="43.43806" lon="6.05279">
        <ele>264.79998779297</ele>
        <time>2015-12-16T14:14:19Z</time>
      </trkpt>
      <trkpt lat="43.4381" lon="6.05281">
        <ele>264.79998779297</ele>
        <time>2015-12-16T14:14:20Z</time>
      </trkpt>
      <trkpt lat="43.43819" lon="6.05285">
        <ele>265.20001220703</ele>
        <time>2015-12-16T14:14:23Z</time>
      </trkpt>
      <trkpt lat="43.43822" lon="6.05285">
        <ele>265.39999389648</ele>
        <time>2015-12-16T14:14:24Z</time>
      </trkpt>
      <trkpt lat="43.43829" lon="6.05285">
        <ele>266</ele>
        <time>2015-12-16T14:14:26Z</time>
      </trkpt>
      <trkpt lat="43.43834" lon="6.05282">
        <ele>266</ele>
        <time>2015-12-16T14:14:28Z</time>
      </trkpt>
      <trkpt lat="43.43835" lon="6.05278">
        <ele>266.20001220703</ele>
        <time>2015-12-16T14:14:29Z</time>
      </trkpt>
      <trkpt lat="43.43836" lon="6.05273">
        <ele>266.39999389648</ele>
        <time>2015-12-16T14:14:30Z</time>
      </trkpt>
      <trkpt lat="43.43838" lon="6.05264">
        <ele>266.79998779297</ele>
        <time>2015-12-16T14:14:32Z</time>
      </trkpt>
      <trkpt lat="43.4384" lon="6.05254">
        <ele>267</ele>
        <time>2015-12-16T14:14:34Z</time>
      </trkpt>
      <trkpt lat="43.43843" lon="6.05235">
        <ele>267.20001220703</ele>
        <time>2015-12-16T14:14:38Z</time>
      </trkpt>
      <trkpt lat="43.43845" lon="6.05225">
        <ele>267.20001220703</ele>
        <time>2015-12-16T14:14:40Z</time>
      </trkpt>
      <trkpt lat="43.43847" lon="6.05215">
        <ele>267.20001220703</ele>
        <time>2015-12-16T14:14:42Z</time>
      </trkpt>
      <trkpt lat="43.43849" lon="6.05206">
        <ele>267.39999389648</ele>
        <time>2015-12-16T14:14:44Z</time>
      </trkpt>
      <trkpt lat="43.43853" lon="6.05198">
        <ele>267.60000610352</ele>
        <time>2015-12-16T14:14:46Z</time>
      </trkpt>
      <trkpt lat="43.43856" lon="6.05193">
        <ele>267.79998779297</ele>
        <time>2015-12-16T14:14:48Z</time>
      </trkpt>
      <trkpt lat="43.43862" lon="6.05189">
        <ele>268.20001220703</ele>
        <time>2015-12-16T14:14:50Z</time>
      </trkpt>
      <trkpt lat="43.43865" lon="6.05189">
        <ele>268.39999389648</ele>
        <time>2015-12-16T14:14:51Z</time>
      </trkpt>
      <trkpt lat="43.43869" lon="6.05188">
        <ele>268.39999389648</ele>
        <time>2015-12-16T14:14:52Z</time>
      </trkpt>
      <trkpt lat="43.43872" lon="6.05188">
        <ele>268.39999389648</ele>
        <time>2015-12-16T14:14:53Z</time>
      </trkpt>
      <trkpt lat="43.43875" lon="6.05188">
        <ele>268.39999389648</ele>
        <time>2015-12-16T14:14:54Z</time>
      </trkpt>
      <trkpt lat="43.43882" lon="6.05187">
        <ele>268.60000610352</ele>
        <time>2015-12-16T14:14:56Z</time>
      </trkpt>
      <trkpt lat="43.43888" lon="6.05188">
        <ele>268.60000610352</ele>
        <time>2015-12-16T14:14:58Z</time>
      </trkpt>
      <trkpt lat="43.43895" lon="6.0519">
        <ele>269</ele>
        <time>2015-12-16T14:15:00Z</time>
      </trkpt>
      <trkpt lat="43.43899" lon="6.0519">
        <ele>269</ele>
        <time>2015-12-16T14:15:01Z</time>
      </trkpt>
      <trkpt lat="43.43903" lon="6.0519">
        <ele>269</ele>
        <time>2015-12-16T14:15:02Z</time>
      </trkpt>
      <trkpt lat="43.4391" lon="6.0519">
        <ele>269.60000610352</ele>
        <time>2015-12-16T14:15:04Z</time>
      </trkpt>
      <trkpt lat="43.43925" lon="6.05191">
        <ele>270</ele>
        <time>2015-12-16T14:15:08Z</time>
      </trkpt>
      <trkpt lat="43.43928" lon="6.05191">
        <ele>270</ele>
        <time>2015-12-16T14:15:09Z</time>
      </trkpt>
      <trkpt lat="43.43932" lon="6.05191">
        <ele>270.20001220703</ele>
        <time>2015-12-16T14:15:10Z</time>
      </trkpt>
      <trkpt lat="43.43939" lon="6.0519">
        <ele>270.60000610352</ele>
        <time>2015-12-16T14:15:12Z</time>
      </trkpt>
      <trkpt lat="43.43943" lon="6.05189">
        <ele>270.79998779297</ele>
        <time>2015-12-16T14:15:13Z</time>
      </trkpt>
      <trkpt lat="43.43946" lon="6.05189">
        <ele>271</ele>
        <time>2015-12-16T14:15:14Z</time>
      </trkpt>
      <trkpt lat="43.43961" lon="6.05187">
        <ele>271.20001220703</ele>
        <time>2015-12-16T14:15:18Z</time>
      </trkpt>
      <trkpt lat="43.43967" lon="6.05187">
        <ele>271.39999389648</ele>
        <time>2015-12-16T14:15:20Z</time>
      </trkpt>
      <trkpt lat="43.43974" lon="6.05188">
        <ele>271.39999389648</ele>
        <time>2015-12-16T14:15:22Z</time>
      </trkpt>
      <trkpt lat="43.43977" lon="6.05187">
        <ele>271.60000610352</ele>
        <time>2015-12-16T14:15:23Z</time>
      </trkpt>
      <trkpt lat="43.43981" lon="6.05188">
        <ele>271.60000610352</ele>
        <time>2015-12-16T14:15:24Z</time>
      </trkpt>
      <trkpt lat="43.43984" lon="6.05188">
        <ele>271.79998779297</ele>
        <time>2015-12-16T14:15:25Z</time>
      </trkpt>
      <trkpt lat="43.43993" lon="6.05189">
        <ele>272</ele>
        <time>2015-12-16T14:15:28Z</time>
      </trkpt>
      <trkpt lat="43.43999" lon="6.05189">
        <ele>272.39999389648</ele>
        <time>2015-12-16T14:15:30Z</time>
      </trkpt>
      <trkpt lat="43.44011" lon="6.05191">
        <ele>272.60000610352</ele>
        <time>2015-12-16T14:15:34Z</time>
      </trkpt>
      <trkpt lat="43.44016" lon="6.05191">
        <ele>272.79998779297</ele>
        <time>2015-12-16T14:15:36Z</time>
      </trkpt>
      <trkpt lat="43.44022" lon="6.05191">
        <ele>272.79998779297</ele>
        <time>2015-12-16T14:15:38Z</time>
      </trkpt>
      <trkpt lat="43.44028" lon="6.05193">
        <ele>272.79998779297</ele>
        <time>2015-12-16T14:15:40Z</time>
      </trkpt>
      <trkpt lat="43.44034" lon="6.05193">
        <ele>273.39999389648</ele>
        <time>2015-12-16T14:15:42Z</time>
      </trkpt>
      <trkpt lat="43.44045" lon="6.05194">
        <ele>273.60000610352</ele>
        <time>2015-12-16T14:15:46Z</time>
      </trkpt>
      <trkpt lat="43.44051" lon="6.05194">
        <ele>273.79998779297</ele>
        <time>2015-12-16T14:15:48Z</time>
      </trkpt>
      <trkpt lat="43.44058" lon="6.05194">
        <ele>274.20001220703</ele>
        <time>2015-12-16T14:15:50Z</time>
      </trkpt>
      <trkpt lat="43.44067" lon="6.05194">
        <ele>274.39999389648</ele>
        <time>2015-12-16T14:15:53Z</time>
      </trkpt>
      <trkpt lat="43.44073" lon="6.05195">
        <ele>274.79998779297</ele>
        <time>2015-12-16T14:15:55Z</time>
      </trkpt>
      <trkpt lat="43.44076" lon="6.05196">
        <ele>275</ele>
        <time>2015-12-16T14:15:56Z</time>
      </trkpt>
      <trkpt lat="43.44081" lon="6.052">
        <ele>275.20001220703</ele>
        <time>2015-12-16T14:15:58Z</time>
      </trkpt>
      <trkpt lat="43.44083" lon="6.05204">
        <ele>275.39999389648</ele>
        <time>2015-12-16T14:15:59Z</time>
      </trkpt>
      <trkpt lat="43.44085" lon="6.05207">
        <ele>276</ele>
        <time>2015-12-16T14:16:00Z</time>
      </trkpt>
      <trkpt lat="43.44088" lon="6.05212">
        <ele>277</ele>
        <time>2015-12-16T14:16:02Z</time>
      </trkpt>
      <trkpt lat="43.44088" lon="6.05214">
        <ele>277.39999389648</ele>
        <time>2015-12-16T14:16:03Z</time>
      </trkpt>
      <trkpt lat="43.44088" lon="6.05216">
        <ele>277.79998779297</ele>
        <time>2015-12-16T14:16:04Z</time>
      </trkpt>
      <trkpt lat="43.44088" lon="6.05217">
        <ele>278.20001220703</ele>
        <time>2015-12-16T14:16:05Z</time>
      </trkpt>
      <trkpt lat="43.44088" lon="6.05217">
        <ele>278.20001220703</ele>
        <time>2015-12-16T14:16:06Z</time>
      </trkpt>
      <trkpt lat="43.44088" lon="6.05217">
        <ele>278.20001220703</ele>
        <time>2015-12-16T14:16:08Z</time>
      </trkpt>
      <trkpt lat="43.44088" lon="6.05217">
        <ele>278.20001220703</ele>
        <time>2015-12-16T14:16:10Z</time>
      </trkpt>
      <trkpt lat="43.44088" lon="6.05217">
        <ele>278.39999389648</ele>
        <time>2015-12-16T14:16:12Z</time>
      </trkpt>
      <trkpt lat="43.44088" lon="6.05217">
        <ele>278.39999389648</ele>
        <time>2015-12-16T14:16:14Z</time>
      </trkpt>
      <trkpt lat="43.44088" lon="6.05217">
        <ele>278.20001220703</ele>
        <time>2015-12-16T14:16:23Z</time>
      </trkpt>
      <trkpt lat="43.44088" lon="6.05217">
        <ele>278.20001220703</ele>
        <time>2015-12-16T14:16:26Z</time>
      </trkpt>
      <trkpt lat="43.44088" lon="6.05217">
        <ele>278.39999389648</ele>
        <time>2015-12-16T14:16:28Z</time>
      </trkpt>
      <trkpt lat="43.44088" lon="6.05219">
        <ele>278.39999389648</ele>
        <time>2015-12-16T14:16:29Z</time>
      </trkpt>
      <trkpt lat="43.44088" lon="6.05222">
        <ele>278.39999389648</ele>
        <time>2015-12-16T14:16:30Z</time>
      </trkpt>
      <trkpt lat="43.44088" lon="6.05232">
        <ele>278.60000610352</ele>
        <time>2015-12-16T14:16:32Z</time>
      </trkpt>
      <trkpt lat="43.44088" lon="6.05243">
        <ele>278.60000610352</ele>
        <time>2015-12-16T14:16:34Z</time>
      </trkpt>
      <trkpt lat="43.44086" lon="6.05256">
        <ele>278.39999389648</ele>
        <time>2015-12-16T14:16:36Z</time>
      </trkpt>
      <trkpt lat="43.44085" lon="6.0527">
        <ele>278.39999389648</ele>
        <time>2015-12-16T14:16:38Z</time>
      </trkpt>
      <trkpt lat="43.44084" lon="6.05283">
        <ele>277.79998779297</ele>
        <time>2015-12-16T14:16:40Z</time>
      </trkpt>
      <trkpt lat="43.44083" lon="6.05289">
        <ele>277.79998779297</ele>
        <time>2015-12-16T14:16:41Z</time>
      </trkpt>
      <trkpt lat="43.44079" lon="6.05309">
        <ele>277.79998779297</ele>
        <time>2015-12-16T14:16:44Z</time>
      </trkpt>
      <trkpt lat="43.44078" lon="6.05322">
        <ele>277.79998779297</ele>
        <time>2015-12-16T14:16:46Z</time>
      </trkpt>
      <trkpt lat="43.44076" lon="6.05335">
        <ele>277.79998779297</ele>
        <time>2015-12-16T14:16:48Z</time>
      </trkpt>
      <trkpt lat="43.44075" lon="6.05347">
        <ele>278</ele>
        <time>2015-12-16T14:16:50Z</time>
      </trkpt>
      <trkpt lat="43.44073" lon="6.05359">
        <ele>278.39999389648</ele>
        <time>2015-12-16T14:16:52Z</time>
      </trkpt>
      <trkpt lat="43.44072" lon="6.0537">
        <ele>278.39999389648</ele>
        <time>2015-12-16T14:16:54Z</time>
      </trkpt>
      <trkpt lat="43.4407" lon="6.05381">
        <ele>278.79998779297</ele>
        <time>2015-12-16T14:16:56Z</time>
      </trkpt>
      <trkpt lat="43.4407" lon="6.05387">
        <ele>279</ele>
        <time>2015-12-16T14:16:57Z</time>
      </trkpt>
      <trkpt lat="43.44069" lon="6.05393">
        <ele>279</ele>
        <time>2015-12-16T14:16:58Z</time>
      </trkpt>
      <trkpt lat="43.44067" lon="6.05406">
        <ele>279.20001220703</ele>
        <time>2015-12-16T14:17:00Z</time>
      </trkpt>
      <trkpt lat="43.44066" lon="6.05419">
        <ele>279</ele>
        <time>2015-12-16T14:17:02Z</time>
      </trkpt>
      <trkpt lat="43.44064" lon="6.05433">
        <ele>278.79998779297</ele>
        <time>2015-12-16T14:17:04Z</time>
      </trkpt>
      <trkpt lat="43.44063" lon="6.05439">
        <ele>278.79998779297</ele>
        <time>2015-12-16T14:17:05Z</time>
      </trkpt>
      <trkpt lat="43.44062" lon="6.05447">
        <ele>278.60000610352</ele>
        <time>2015-12-16T14:17:06Z</time>
      </trkpt>
      <trkpt lat="43.44061" lon="6.0546">
        <ele>278.60000610352</ele>
        <time>2015-12-16T14:17:08Z</time>
      </trkpt>
      <trkpt lat="43.4406" lon="6.05473">
        <ele>278.60000610352</ele>
        <time>2015-12-16T14:17:10Z</time>
      </trkpt>
      <trkpt lat="43.44058" lon="6.05491">
        <ele>278.60000610352</ele>
        <time>2015-12-16T14:17:13Z</time>
      </trkpt>
      <trkpt lat="43.44057" lon="6.05496">
        <ele>278.60000610352</ele>
        <time>2015-12-16T14:17:14Z</time>
      </trkpt>
      <trkpt lat="43.44057" lon="6.05506">
        <ele>278.39999389648</ele>
        <time>2015-12-16T14:17:16Z</time>
      </trkpt>
      <trkpt lat="43.44056" lon="6.05518">
        <ele>278.20001220703</ele>
        <time>2015-12-16T14:17:18Z</time>
      </trkpt>
      <trkpt lat="43.44055" lon="6.0553">
        <ele>278.20001220703</ele>
        <time>2015-12-16T14:17:20Z</time>
      </trkpt>
      <trkpt lat="43.44054" lon="6.05536">
        <ele>278.20001220703</ele>
        <time>2015-12-16T14:17:21Z</time>
      </trkpt>
      <trkpt lat="43.44053" lon="6.05543">
        <ele>278</ele>
        <time>2015-12-16T14:17:22Z</time>
      </trkpt>
      <trkpt lat="43.44052" lon="6.05556">
        <ele>278</ele>
        <time>2015-12-16T14:17:24Z</time>
      </trkpt>
      <trkpt lat="43.44051" lon="6.05571">
        <ele>277.39999389648</ele>
        <time>2015-12-16T14:17:26Z</time>
      </trkpt>
      <trkpt lat="43.44049" lon="6.05585">
        <ele>277.20001220703</ele>
        <time>2015-12-16T14:17:28Z</time>
      </trkpt>
      <trkpt lat="43.44049" lon="6.05592">
        <ele>277.20001220703</ele>
        <time>2015-12-16T14:17:29Z</time>
      </trkpt>
      <trkpt lat="43.44046" lon="6.05615">
        <ele>276.79998779297</ele>
        <time>2015-12-16T14:17:32Z</time>
      </trkpt>
      <trkpt lat="43.44046" lon="6.0563">
        <ele>276.39999389648</ele>
        <time>2015-12-16T14:17:34Z</time>
      </trkpt>
      <trkpt lat="43.44044" lon="6.05636">
        <ele>276.20001220703</ele>
        <time>2015-12-16T14:17:35Z</time>
      </trkpt>
      <trkpt lat="43.44044" lon="6.05644">
        <ele>276</ele>
        <time>2015-12-16T14:17:36Z</time>
      </trkpt>
      <trkpt lat="43.44044" lon="6.0565">
        <ele>276.20001220703</ele>
        <time>2015-12-16T14:17:37Z</time>
      </trkpt>
      <trkpt lat="43.44043" lon="6.05656">
        <ele>276</ele>
        <time>2015-12-16T14:17:38Z</time>
      </trkpt>
      <trkpt lat="43.44043" lon="6.0566">
        <ele>275.79998779297</ele>
        <time>2015-12-16T14:17:39Z</time>
      </trkpt>
      <trkpt lat="43.44042" lon="6.05663">
        <ele>275.60000610352</ele>
        <time>2015-12-16T14:17:40Z</time>
      </trkpt>
      <trkpt lat="43.44043" lon="6.05666">
        <ele>275.60000610352</ele>
        <time>2015-12-16T14:17:41Z</time>
      </trkpt>
      <trkpt lat="43.44043" lon="6.05668">
        <ele>275.60000610352</ele>
        <time>2015-12-16T14:17:42Z</time>
      </trkpt>
      <trkpt lat="43.44044" lon="6.05669">
        <ele>275.39999389648</ele>
        <time>2015-12-16T14:17:43Z</time>
      </trkpt>
      <trkpt lat="43.44046" lon="6.05669">
        <ele>275.20001220703</ele>
        <time>2015-12-16T14:17:44Z</time>
      </trkpt>
      <trkpt lat="43.44047" lon="6.05669">
        <ele>275.39999389648</ele>
        <time>2015-12-16T14:17:45Z</time>
      </trkpt>
      <trkpt lat="43.44048" lon="6.05669">
        <ele>275.39999389648</ele>
        <time>2015-12-16T14:17:46Z</time>
      </trkpt>
      <trkpt lat="43.44051" lon="6.05668">
        <ele>275.20001220703</ele>
        <time>2015-12-16T14:17:48Z</time>
      </trkpt>
      <trkpt lat="43.4406" lon="6.05665">
        <ele>275.39999389648</ele>
        <time>2015-12-16T14:17:52Z</time>
      </trkpt>
      <trkpt lat="43.44066" lon="6.05665">
        <ele>275.60000610352</ele>
        <time>2015-12-16T14:17:54Z</time>
      </trkpt>
      <trkpt lat="43.44072" lon="6.05665">
        <ele>275.79998779297</ele>
        <time>2015-12-16T14:17:56Z</time>
      </trkpt>
      <trkpt lat="43.44086" lon="6.05664">
        <ele>276.20001220703</ele>
        <time>2015-12-16T14:18:00Z</time>
      </trkpt>
      <trkpt lat="43.44093" lon="6.05664">
        <ele>276.60000610352</ele>
        <time>2015-12-16T14:18:02Z</time>
      </trkpt>
      <trkpt lat="43.44099" lon="6.05663">
        <ele>276.60000610352</ele>
        <time>2015-12-16T14:18:04Z</time>
      </trkpt>
      <trkpt lat="43.44105" lon="6.05663">
        <ele>276.79998779297</ele>
        <time>2015-12-16T14:18:06Z</time>
      </trkpt>
      <trkpt lat="43.44111" lon="6.05663">
        <ele>277.39999389648</ele>
        <time>2015-12-16T14:18:08Z</time>
      </trkpt>
      <trkpt lat="43.44117" lon="6.05663">
        <ele>277.39999389648</ele>
        <time>2015-12-16T14:18:10Z</time>
      </trkpt>
      <trkpt lat="43.44123" lon="6.05663">
        <ele>277.79998779297</ele>
        <time>2015-12-16T14:18:12Z</time>
      </trkpt>
      <trkpt lat="43.44126" lon="6.05663">
        <ele>278</ele>
        <time>2015-12-16T14:18:13Z</time>
      </trkpt>
      <trkpt lat="43.44128" lon="6.05662">
        <ele>278.20001220703</ele>
        <time>2015-12-16T14:18:14Z</time>
      </trkpt>
      <trkpt lat="43.4413" lon="6.05662">
        <ele>278.39999389648</ele>
        <time>2015-12-16T14:18:15Z</time>
      </trkpt>
      <trkpt lat="43.44131" lon="6.05663">
        <ele>278.60000610352</ele>
        <time>2015-12-16T14:18:16Z</time>
      </trkpt>
      <trkpt lat="43.4413" lon="6.05662">
        <ele>278.60000610352</ele>
        <time>2015-12-16T14:18:18Z</time>
      </trkpt>
      <trkpt lat="43.4413" lon="6.05662">
        <ele>278.39999389648</ele>
        <time>2015-12-16T14:18:19Z</time>
      </trkpt>
      <trkpt lat="43.4413" lon="6.05663">
        <ele>278.39999389648</ele>
        <time>2015-12-16T14:18:20Z</time>
      </trkpt>
      <trkpt lat="43.4413" lon="6.05663">
        <ele>278.60000610352</ele>
        <time>2015-12-16T14:18:24Z</time>
      </trkpt>
      <trkpt lat="43.4413" lon="6.05663">
        <ele>278.20001220703</ele>
        <time>2015-12-16T14:18:28Z</time>
      </trkpt>
      <trkpt lat="43.4413" lon="6.05663">
        <ele>278.20001220703</ele>
        <time>2015-12-16T14:18:30Z</time>
      </trkpt>
      <trkpt lat="43.4413" lon="6.05663">
        <ele>278.20001220703</ele>
        <time>2015-12-16T14:18:32Z</time>
      </trkpt>
      <trkpt lat="43.4413" lon="6.05663">
        <ele>278.20001220703</ele>
        <time>2015-12-16T14:18:34Z</time>
      </trkpt>
      <trkpt lat="43.44131" lon="6.05662">
        <ele>278.20001220703</ele>
        <time>2015-12-16T14:18:36Z</time>
      </trkpt>
      <trkpt lat="43.44135" lon="6.05661">
        <ele>278.39999389648</ele>
        <time>2015-12-16T14:18:38Z</time>
      </trkpt>
      <trkpt lat="43.44137" lon="6.0566">
        <ele>278.60000610352</ele>
        <time>2015-12-16T14:18:39Z</time>
      </trkpt>
      <trkpt lat="43.44139" lon="6.0566">
        <ele>278.39999389648</ele>
        <time>2015-12-16T14:18:40Z</time>
      </trkpt>
      <trkpt lat="43.44144" lon="6.05658">
        <ele>278.60000610352</ele>
        <time>2015-12-16T14:18:42Z</time>
      </trkpt>
      <trkpt lat="43.44149" lon="6.05656">
        <ele>278.79998779297</ele>
        <time>2015-12-16T14:18:44Z</time>
      </trkpt>
      <trkpt lat="43.44151" lon="6.05655">
        <ele>278.79998779297</ele>
        <time>2015-12-16T14:18:45Z</time>
      </trkpt>
      <trkpt lat="43.44154" lon="6.05654">
        <ele>279</ele>
        <time>2015-12-16T14:18:46Z</time>
      </trkpt>
      <trkpt lat="43.44165" lon="6.0565">
        <ele>279.20001220703</ele>
        <time>2015-12-16T14:18:50Z</time>
      </trkpt>
      <trkpt lat="43.4417" lon="6.05648">
        <ele>279.60000610352</ele>
        <time>2015-12-16T14:18:52Z</time>
      </trkpt>
      <trkpt lat="43.44176" lon="6.05646">
        <ele>279.60000610352</ele>
        <time>2015-12-16T14:18:54Z</time>
      </trkpt>
      <trkpt lat="43.44181" lon="6.05645">
        <ele>279.79998779297</ele>
        <time>2015-12-16T14:18:56Z</time>
      </trkpt>
      <trkpt lat="43.44187" lon="6.05643">
        <ele>280.20001220703</ele>
        <time>2015-12-16T14:18:58Z</time>
      </trkpt>
      <trkpt lat="43.44193" lon="6.05642">
        <ele>280.60000610352</ele>
        <time>2015-12-16T14:19:00Z</time>
      </trkpt>
      <trkpt lat="43.44198" lon="6.0564">
        <ele>280.79998779297</ele>
        <time>2015-12-16T14:19:02Z</time>
      </trkpt>
      <trkpt lat="43.44203" lon="6.05639">
        <ele>281.60000610352</ele>
        <time>2015-12-16T14:19:04Z</time>
      </trkpt>
      <trkpt lat="43.44209" lon="6.05637">
        <ele>281.79998779297</ele>
        <time>2015-12-16T14:19:06Z</time>
      </trkpt>
      <trkpt lat="43.44214" lon="6.05635">
        <ele>281.79998779297</ele>
        <time>2015-12-16T14:19:08Z</time>
      </trkpt>
      <trkpt lat="43.4422" lon="6.05634">
        <ele>281.79998779297</ele>
        <time>2015-12-16T14:19:10Z</time>
      </trkpt>
      <trkpt lat="43.44225" lon="6.05633">
        <ele>282.20001220703</ele>
        <time>2015-12-16T14:19:12Z</time>
      </trkpt>
      <trkpt lat="43.4423" lon="6.05632">
        <ele>282.39999389648</ele>
        <time>2015-12-16T14:19:14Z</time>
      </trkpt>
      <trkpt lat="43.4424" lon="6.05629">
        <ele>283</ele>
        <time>2015-12-16T14:19:18Z</time>
      </trkpt>
      <trkpt lat="43.44245" lon="6.05627">
        <ele>283.39999389648</ele>
        <time>2015-12-16T14:19:20Z</time>
      </trkpt>
      <trkpt lat="43.44249" lon="6.05626">
        <ele>284</ele>
        <time>2015-12-16T14:19:22Z</time>
      </trkpt>
      <trkpt lat="43.44254" lon="6.05626">
        <ele>284.39999389648</ele>
        <time>2015-12-16T14:19:24Z</time>
      </trkpt>
      <trkpt lat="43.44258" lon="6.05625">
        <ele>284.79998779297</ele>
        <time>2015-12-16T14:19:26Z</time>
      </trkpt>
      <trkpt lat="43.44263" lon="6.05623">
        <ele>285.39999389648</ele>
        <time>2015-12-16T14:19:29Z</time>
      </trkpt>
      <trkpt lat="43.44265" lon="6.05623">
        <ele>285.79998779297</ele>
        <time>2015-12-16T14:19:30Z</time>
      </trkpt>
      <trkpt lat="43.44269" lon="6.05621">
        <ele>286</ele>
        <time>2015-12-16T14:19:32Z</time>
      </trkpt>
      <trkpt lat="43.44273" lon="6.0562">
        <ele>286.20001220703</ele>
        <time>2015-12-16T14:19:34Z</time>
      </trkpt>
      <trkpt lat="43.44277" lon="6.05619">
        <ele>286.60000610352</ele>
        <time>2015-12-16T14:19:36Z</time>
      </trkpt>
      <trkpt lat="43.44281" lon="6.05618">
        <ele>287</ele>
        <time>2015-12-16T14:19:38Z</time>
      </trkpt>
      <trkpt lat="43.44289" lon="6.05615">
        <ele>287.60000610352</ele>
        <time>2015-12-16T14:19:42Z</time>
      </trkpt>
      <trkpt lat="43.44293" lon="6.05614">
        <ele>287.79998779297</ele>
        <time>2015-12-16T14:19:44Z</time>
      </trkpt>
      <trkpt lat="43.44296" lon="6.05613">
        <ele>288.20001220703</ele>
        <time>2015-12-16T14:19:46Z</time>
      </trkpt>
      <trkpt lat="43.443" lon="6.05612">
        <ele>289</ele>
        <time>2015-12-16T14:19:48Z</time>
      </trkpt>
      <trkpt lat="43.44307" lon="6.05611">
        <ele>289.39999389648</ele>
        <time>2015-12-16T14:19:52Z</time>
      </trkpt>
      <trkpt lat="43.44315" lon="6.0561">
        <ele>290</ele>
        <time>2015-12-16T14:19:56Z</time>
      </trkpt>
      <trkpt lat="43.44318" lon="6.0561">
        <ele>290.60000610352</ele>
        <time>2015-12-16T14:19:58Z</time>
      </trkpt>
      <trkpt lat="43.44322" lon="6.05609">
        <ele>290.79998779297</ele>
        <time>2015-12-16T14:20:00Z</time>
      </trkpt>
      <trkpt lat="43.44326" lon="6.05609">
        <ele>291</ele>
        <time>2015-12-16T14:20:02Z</time>
      </trkpt>
      <trkpt lat="43.44332" lon="6.0561">
        <ele>291.79998779297</ele>
        <time>2015-12-16T14:20:06Z</time>
      </trkpt>
      <trkpt lat="43.44335" lon="6.05609">
        <ele>292.20001220703</ele>
        <time>2015-12-16T14:20:08Z</time>
      </trkpt>
      <trkpt lat="43.44336" lon="6.05609">
        <ele>292.39999389648</ele>
        <time>2015-12-16T14:20:09Z</time>
      </trkpt>
      <trkpt lat="43.44338" lon="6.05609">
        <ele>292.60000610352</ele>
        <time>2015-12-16T14:20:10Z</time>
      </trkpt>
      <trkpt lat="43.44341" lon="6.05608">
        <ele>293.20001220703</ele>
        <time>2015-12-16T14:20:12Z</time>
      </trkpt>
      <trkpt lat="43.44347" lon="6.05609">
        <ele>293.60000610352</ele>
        <time>2015-12-16T14:20:16Z</time>
      </trkpt>
      <trkpt lat="43.44349" lon="6.05608">
        <ele>294</ele>
        <time>2015-12-16T14:20:18Z</time>
      </trkpt>
      <trkpt lat="43.44352" lon="6.05608">
        <ele>294.20001220703</ele>
        <time>2015-12-16T14:20:20Z</time>
      </trkpt>
      <trkpt lat="43.44357" lon="6.05608">
        <ele>295.39999389648</ele>
        <time>2015-12-16T14:20:24Z</time>
      </trkpt>
      <trkpt lat="43.44361" lon="6.05608">
        <ele>296</ele>
        <time>2015-12-16T14:20:27Z</time>
      </trkpt>
      <trkpt lat="43.44365" lon="6.05608">
        <ele>296.20001220703</ele>
        <time>2015-12-16T14:20:30Z</time>
      </trkpt>
      <trkpt lat="43.44368" lon="6.05609">
        <ele>296.60000610352</ele>
        <time>2015-12-16T14:20:33Z</time>
      </trkpt>
      <trkpt lat="43.44369" lon="6.05609">
        <ele>296.60000610352</ele>
        <time>2015-12-16T14:20:34Z</time>
      </trkpt>
      <trkpt lat="43.44372" lon="6.05611">
        <ele>297</ele>
        <time>2015-12-16T14:20:36Z</time>
      </trkpt>
      <trkpt lat="43.44373" lon="6.05611">
        <ele>297</ele>
        <time>2015-12-16T14:20:37Z</time>
      </trkpt>
      <trkpt lat="43.44374" lon="6.05612">
        <ele>297.39999389648</ele>
        <time>2015-12-16T14:20:38Z</time>
      </trkpt>
      <trkpt lat="43.44377" lon="6.05612">
        <ele>297.79998779297</ele>
        <time>2015-12-16T14:20:40Z</time>
      </trkpt>
      <trkpt lat="43.44379" lon="6.05612">
        <ele>297.79998779297</ele>
        <time>2015-12-16T14:20:42Z</time>
      </trkpt>
      <trkpt lat="43.44381" lon="6.05612">
        <ele>298</ele>
        <time>2015-12-16T14:20:44Z</time>
      </trkpt>
      <trkpt lat="43.44382" lon="6.05613">
        <ele>298.20001220703</ele>
        <time>2015-12-16T14:20:45Z</time>
      </trkpt>
      <trkpt lat="43.44384" lon="6.05613">
        <ele>298.60000610352</ele>
        <time>2015-12-16T14:20:46Z</time>
      </trkpt>
      <trkpt lat="43.44387" lon="6.05613">
        <ele>298.79998779297</ele>
        <time>2015-12-16T14:20:48Z</time>
      </trkpt>
      <trkpt lat="43.44389" lon="6.05613">
        <ele>299</ele>
        <time>2015-12-16T14:20:50Z</time>
      </trkpt>
      <trkpt lat="43.44391" lon="6.05613">
        <ele>299.39999389648</ele>
        <time>2015-12-16T14:20:52Z</time>
      </trkpt>
      <trkpt lat="43.44394" lon="6.05613">
        <ele>299.79998779297</ele>
        <time>2015-12-16T14:20:54Z</time>
      </trkpt>
      <trkpt lat="43.44395" lon="6.05612">
        <ele>299.60000610352</ele>
        <time>2015-12-16T14:20:55Z</time>
      </trkpt>
      <trkpt lat="43.44396" lon="6.05612">
        <ele>299.60000610352</ele>
        <time>2015-12-16T14:20:56Z</time>
      </trkpt>
      <trkpt lat="43.44398" lon="6.05613">
        <ele>300.20001220703</ele>
        <time>2015-12-16T14:20:58Z</time>
      </trkpt>
      <trkpt lat="43.44401" lon="6.05611">
        <ele>300.79998779297</ele>
        <time>2015-12-16T14:21:00Z</time>
      </trkpt>
      <trkpt lat="43.44403" lon="6.05609">
        <ele>301</ele>
        <time>2015-12-16T14:21:02Z</time>
      </trkpt>
      <trkpt lat="43.44404" lon="6.05607">
        <ele>301.39999389648</ele>
        <time>2015-12-16T14:21:04Z</time>
      </trkpt>
      <trkpt lat="43.44406" lon="6.05605">
        <ele>301.60000610352</ele>
        <time>2015-12-16T14:21:06Z</time>
      </trkpt>
      <trkpt lat="43.44407" lon="6.05602">
        <ele>302</ele>
        <time>2015-12-16T14:21:08Z</time>
      </trkpt>
      <trkpt lat="43.44408" lon="6.056">
        <ele>302.39999389648</ele>
        <time>2015-12-16T14:21:10Z</time>
      </trkpt>
      <trkpt lat="43.4441" lon="6.05597">
        <ele>303</ele>
        <time>2015-12-16T14:21:12Z</time>
      </trkpt>
      <trkpt lat="43.4441" lon="6.05594">
        <ele>303.20001220703</ele>
        <time>2015-12-16T14:21:14Z</time>
      </trkpt>
      <trkpt lat="43.44412" lon="6.0559">
        <ele>303.79998779297</ele>
        <time>2015-12-16T14:21:17Z</time>
      </trkpt>
      <trkpt lat="43.44414" lon="6.05586">
        <ele>304.60000610352</ele>
        <time>2015-12-16T14:21:20Z</time>
      </trkpt>
      <trkpt lat="43.44416" lon="6.05583">
        <ele>304.79998779297</ele>
        <time>2015-12-16T14:21:22Z</time>
      </trkpt>
      <trkpt lat="43.44417" lon="6.05581">
        <ele>305.20001220703</ele>
        <time>2015-12-16T14:21:24Z</time>
      </trkpt>
      <trkpt lat="43.44419" lon="6.05579">
        <ele>305.60000610352</ele>
        <time>2015-12-16T14:21:26Z</time>
      </trkpt>
      <trkpt lat="43.44421" lon="6.05576">
        <ele>306</ele>
        <time>2015-12-16T14:21:28Z</time>
      </trkpt>
      <trkpt lat="43.44421" lon="6.05574">
        <ele>306.39999389648</ele>
        <time>2015-12-16T14:21:30Z</time>
      </trkpt>
      <trkpt lat="43.44423" lon="6.05572">
        <ele>306.60000610352</ele>
        <time>2015-12-16T14:21:32Z</time>
      </trkpt>
      <trkpt lat="43.44425" lon="6.05567">
        <ele>307.20001220703</ele>
        <time>2015-12-16T14:21:36Z</time>
      </trkpt>
      <trkpt lat="43.44426" lon="6.05566">
        <ele>307.60000610352</ele>
        <time>2015-12-16T14:21:37Z</time>
      </trkpt>
      <trkpt lat="43.44426" lon="6.05564">
        <ele>307.60000610352</ele>
        <time>2015-12-16T14:21:38Z</time>
      </trkpt>
      <trkpt lat="43.44427" lon="6.05561">
        <ele>308</ele>
        <time>2015-12-16T14:21:40Z</time>
      </trkpt>
      <trkpt lat="43.44428" lon="6.05557">
        <ele>308.39999389648</ele>
        <time>2015-12-16T14:21:42Z</time>
      </trkpt>
      <trkpt lat="43.44429" lon="6.05555">
        <ele>308.60000610352</ele>
        <time>2015-12-16T14:21:44Z</time>
      </trkpt>
      <trkpt lat="43.44429" lon="6.05552">
        <ele>309.20001220703</ele>
        <time>2015-12-16T14:21:46Z</time>
      </trkpt>
      <trkpt lat="43.44432" lon="6.05546">
        <ele>309.79998779297</ele>
        <time>2015-12-16T14:21:50Z</time>
      </trkpt>
      <trkpt lat="43.44433" lon="6.05543">
        <ele>310</ele>
        <time>2015-12-16T14:21:52Z</time>
      </trkpt>
      <trkpt lat="43.44434" lon="6.0554">
        <ele>310.39999389648</ele>
        <time>2015-12-16T14:21:54Z</time>
      </trkpt>
      <trkpt lat="43.44434" lon="6.05537">
        <ele>310.39999389648</ele>
        <time>2015-12-16T14:21:56Z</time>
      </trkpt>
      <trkpt lat="43.44435" lon="6.05534">
        <ele>310.79998779297</ele>
        <time>2015-12-16T14:21:58Z</time>
      </trkpt>
      <trkpt lat="43.44436" lon="6.05532">
        <ele>311.20001220703</ele>
        <time>2015-12-16T14:22:00Z</time>
      </trkpt>
      <trkpt lat="43.44437" lon="6.05529">
        <ele>311.79998779297</ele>
        <time>2015-12-16T14:22:02Z</time>
      </trkpt>
      <trkpt lat="43.44437" lon="6.05528">
        <ele>312</ele>
        <time>2015-12-16T14:22:03Z</time>
      </trkpt>
      <trkpt lat="43.44438" lon="6.05526">
        <ele>312</ele>
        <time>2015-12-16T14:22:04Z</time>
      </trkpt>
      <trkpt lat="43.44439" lon="6.05524">
        <ele>312.39999389648</ele>
        <time>2015-12-16T14:22:06Z</time>
      </trkpt>
      <trkpt lat="43.4444" lon="6.05522">
        <ele>312.79998779297</ele>
        <time>2015-12-16T14:22:08Z</time>
      </trkpt>
      <trkpt lat="43.4444" lon="6.0552">
        <ele>313.20001220703</ele>
        <time>2015-12-16T14:22:10Z</time>
      </trkpt>
      <trkpt lat="43.44441" lon="6.05518">
        <ele>313.20001220703</ele>
        <time>2015-12-16T14:22:11Z</time>
      </trkpt>
      <trkpt lat="43.44441" lon="6.05517">
        <ele>313.39999389648</ele>
        <time>2015-12-16T14:22:12Z</time>
      </trkpt>
      <trkpt lat="43.44442" lon="6.05513">
        <ele>313.60000610352</ele>
        <time>2015-12-16T14:22:14Z</time>
      </trkpt>
      <trkpt lat="43.44443" lon="6.05512">
        <ele>314</ele>
        <time>2015-12-16T14:22:15Z</time>
      </trkpt>
      <trkpt lat="43.44443" lon="6.0551">
        <ele>314.39999389648</ele>
        <time>2015-12-16T14:22:16Z</time>
      </trkpt>
      <trkpt lat="43.44444" lon="6.05506">
        <ele>314.79998779297</ele>
        <time>2015-12-16T14:22:18Z</time>
      </trkpt>
      <trkpt lat="43.44444" lon="6.05505">
        <ele>315</ele>
        <time>2015-12-16T14:22:19Z</time>
      </trkpt>
      <trkpt lat="43.44444" lon="6.05502">
        <ele>315.20001220703</ele>
        <time>2015-12-16T14:22:20Z</time>
      </trkpt>
      <trkpt lat="43.44445" lon="6.05499">
        <ele>315.39999389648</ele>
        <time>2015-12-16T14:22:22Z</time>
      </trkpt>
      <trkpt lat="43.44446" lon="6.05494">
        <ele>316</ele>
        <time>2015-12-16T14:22:25Z</time>
      </trkpt>
      <trkpt lat="43.44446" lon="6.05493">
        <ele>316</ele>
        <time>2015-12-16T14:22:26Z</time>
      </trkpt>
      <trkpt lat="43.44447" lon="6.05487">
        <ele>316.39999389648</ele>
        <time>2015-12-16T14:22:30Z</time>
      </trkpt>
      <trkpt lat="43.44448" lon="6.05483">
        <ele>317</ele>
        <time>2015-12-16T14:22:32Z</time>
      </trkpt>
      <trkpt lat="43.44449" lon="6.0548">
        <ele>317.39999389648</ele>
        <time>2015-12-16T14:22:34Z</time>
      </trkpt>
      <trkpt lat="43.44451" lon="6.05477">
        <ele>317.79998779297</ele>
        <time>2015-12-16T14:22:36Z</time>
      </trkpt>
      <trkpt lat="43.44452" lon="6.05474">
        <ele>318.39999389648</ele>
        <time>2015-12-16T14:22:38Z</time>
      </trkpt>
      <trkpt lat="43.44454" lon="6.05467">
        <ele>319.20001220703</ele>
        <time>2015-12-16T14:22:42Z</time>
      </trkpt>
      <trkpt lat="43.44456" lon="6.05465">
        <ele>319.79998779297</ele>
        <time>2015-12-16T14:22:44Z</time>
      </trkpt>
      <trkpt lat="43.44456" lon="6.05461">
        <ele>320.39999389648</ele>
        <time>2015-12-16T14:22:46Z</time>
      </trkpt>
      <trkpt lat="43.44457" lon="6.05457">
        <ele>320.60000610352</ele>
        <time>2015-12-16T14:22:48Z</time>
      </trkpt>
      <trkpt lat="43.44458" lon="6.05454">
        <ele>321</ele>
        <time>2015-12-16T14:22:50Z</time>
      </trkpt>
      <trkpt lat="43.44459" lon="6.05451">
        <ele>321.39999389648</ele>
        <time>2015-12-16T14:22:52Z</time>
      </trkpt>
      <trkpt lat="43.4446" lon="6.05449">
        <ele>321.60000610352</ele>
        <time>2015-12-16T14:22:53Z</time>
      </trkpt>
      <trkpt lat="43.4446" lon="6.05448">
        <ele>322</ele>
        <time>2015-12-16T14:22:54Z</time>
      </trkpt>
      <trkpt lat="43.44461" lon="6.05445">
        <ele>322.39999389648</ele>
        <time>2015-12-16T14:22:56Z</time>
      </trkpt>
      <trkpt lat="43.44462" lon="6.05442">
        <ele>322.60000610352</ele>
        <time>2015-12-16T14:22:58Z</time>
      </trkpt>
      <trkpt lat="43.44462" lon="6.05441">
        <ele>322.79998779297</ele>
        <time>2015-12-16T14:22:59Z</time>
      </trkpt>
      <trkpt lat="43.44462" lon="6.05439">
        <ele>323</ele>
        <time>2015-12-16T14:23:00Z</time>
      </trkpt>
      <trkpt lat="43.44463" lon="6.05435">
        <ele>323.39999389648</ele>
        <time>2015-12-16T14:23:02Z</time>
      </trkpt>
      <trkpt lat="43.44464" lon="6.05432">
        <ele>323.39999389648</ele>
        <time>2015-12-16T14:23:04Z</time>
      </trkpt>
      <trkpt lat="43.44466" lon="6.05427">
        <ele>323.60000610352</ele>
        <time>2015-12-16T14:23:08Z</time>
      </trkpt>
      <trkpt lat="43.44467" lon="6.05425">
        <ele>324</ele>
        <time>2015-12-16T14:23:10Z</time>
      </trkpt>
      <trkpt lat="43.44468" lon="6.05422">
        <ele>323.79998779297</ele>
        <time>2015-12-16T14:23:12Z</time>
      </trkpt>
      <trkpt lat="43.44468" lon="6.05422">
        <ele>323.79998779297</ele>
        <time>2015-12-16T14:23:13Z</time>
      </trkpt>
      <trkpt lat="43.44468" lon="6.05422">
        <ele>324</ele>
        <time>2015-12-16T14:23:14Z</time>
      </trkpt>
      <trkpt lat="43.44468" lon="6.05421">
        <ele>324</ele>
        <time>2015-12-16T14:23:16Z</time>
      </trkpt>
      <trkpt lat="43.44467" lon="6.0542">
        <ele>324</ele>
        <time>2015-12-16T14:23:18Z</time>
      </trkpt>
      <trkpt lat="43.44467" lon="6.05419">
        <ele>324</ele>
        <time>2015-12-16T14:23:20Z</time>
      </trkpt>
      <trkpt lat="43.44467" lon="6.05419">
        <ele>324</ele>
        <time>2015-12-16T14:23:22Z</time>
      </trkpt>
      <trkpt lat="43.44467" lon="6.05418">
        <ele>324</ele>
        <time>2015-12-16T14:23:23Z</time>
      </trkpt>
      <trkpt lat="43.44467" lon="6.05418">
        <ele>324</ele>
        <time>2015-12-16T14:23:26Z</time>
      </trkpt>
      <trkpt lat="43.44467" lon="6.05418">
        <ele>324</ele>
        <time>2015-12-16T14:23:30Z</time>
      </trkpt>
      <trkpt lat="43.44467" lon="6.05418">
        <ele>324</ele>
        <time>2015-12-16T14:23:34Z</time>
      </trkpt>
      <trkpt lat="43.44467" lon="6.05418">
        <ele>323.79998779297</ele>
        <time>2015-12-16T14:23:36Z</time>
      </trkpt>
      <trkpt lat="43.44467" lon="6.05418">
        <ele>323.79998779297</ele>
        <time>2015-12-16T14:23:39Z</time>
      </trkpt>
      <trkpt lat="43.44467" lon="6.05418">
        <ele>324.20001220703</ele>
        <time>2015-12-16T14:23:44Z</time>
      </trkpt>
      <trkpt lat="43.44467" lon="6.05418">
        <ele>324</ele>
        <time>2015-12-16T14:23:46Z</time>
      </trkpt>
      <trkpt lat="43.44467" lon="6.05418">
        <ele>324</ele>
        <time>2015-12-16T14:23:48Z</time>
      </trkpt>
      <trkpt lat="43.44467" lon="6.05418">
        <ele>324</ele>
        <time>2015-12-16T14:23:50Z</time>
      </trkpt>
      <trkpt lat="43.44467" lon="6.05418">
        <ele>324</ele>
        <time>2015-12-16T14:23:52Z</time>
      </trkpt>
      <trkpt lat="43.44467" lon="6.05418">
        <ele>324.20001220703</ele>
        <time>2015-12-16T14:23:54Z</time>
      </trkpt>
      <trkpt lat="43.44467" lon="6.05418">
        <ele>324</ele>
        <time>2015-12-16T14:23:58Z</time>
      </trkpt>
      <trkpt lat="43.44467" lon="6.05418">
        <ele>324</ele>
        <time>2015-12-16T14:24:02Z</time>
      </trkpt>
      <trkpt lat="43.44467" lon="6.05418">
        <ele>323.79998779297</ele>
        <time>2015-12-16T14:24:08Z</time>
      </trkpt>
      <trkpt lat="43.44467" lon="6.05418">
        <ele>324</ele>
        <time>2015-12-16T14:24:14Z</time>
      </trkpt>
      <trkpt lat="43.44466" lon="6.05418">
        <ele>324</ele>
        <time>2015-12-16T14:24:16Z</time>
      </trkpt>
      <trkpt lat="43.44466" lon="6.05418">
        <ele>323.79998779297</ele>
        <time>2015-12-16T14:24:18Z</time>
      </trkpt>
      <trkpt lat="43.44466" lon="6.05418">
        <ele>324</ele>
        <time>2015-12-16T14:24:20Z</time>
      </trkpt>
      <trkpt lat="43.44466" lon="6.05418">
        <ele>324</ele>
        <time>2015-12-16T14:24:22Z</time>
      </trkpt>
      <trkpt lat="43.44466" lon="6.05418">
        <ele>323.79998779297</ele>
        <time>2015-12-16T14:24:24Z</time>
      </trkpt>
      <trkpt lat="43.44466" lon="6.05418">
        <ele>323.79998779297</ele>
        <time>2015-12-16T14:24:26Z</time>
      </trkpt>
      <trkpt lat="43.44466" lon="6.05418">
        <ele>324</ele>
        <time>2015-12-16T14:24:28Z</time>
      </trkpt>
      <trkpt lat="43.44466" lon="6.05417">
        <ele>324</ele>
        <time>2015-12-16T14:24:30Z</time>
      </trkpt>
      <trkpt lat="43.44465" lon="6.05417">
        <ele>324</ele>
        <time>2015-12-16T14:24:34Z</time>
      </trkpt>
      <trkpt lat="43.44465" lon="6.05417">
        <ele>324</ele>
        <time>2015-12-16T14:24:36Z</time>
      </trkpt>
      <trkpt lat="43.44464" lon="6.05417">
        <ele>324</ele>
        <time>2015-12-16T14:24:38Z</time>
      </trkpt>
      <trkpt lat="43.44464" lon="6.05417">
        <ele>324</ele>
        <time>2015-12-16T14:24:40Z</time>
      </trkpt>
      <trkpt lat="43.44464" lon="6.05417">
        <ele>324.20001220703</ele>
        <time>2015-12-16T14:24:42Z</time>
      </trkpt>
      <trkpt lat="43.44464" lon="6.05417">
        <ele>324.20001220703</ele>
        <time>2015-12-16T14:24:44Z</time>
      </trkpt>
      <trkpt lat="43.44464" lon="6.05417">
        <ele>324</ele>
        <time>2015-12-16T14:24:47Z</time>
      </trkpt>
      <trkpt lat="43.44464" lon="6.05418">
        <ele>324</ele>
        <time>2015-12-16T14:24:52Z</time>
      </trkpt>
      <trkpt lat="43.44464" lon="6.05418">
        <ele>324</ele>
        <time>2015-12-16T14:24:54Z</time>
      </trkpt>
      <trkpt lat="43.44464" lon="6.05418">
        <ele>324.20001220703</ele>
        <time>2015-12-16T14:24:56Z</time>
      </trkpt>
      <trkpt lat="43.44464" lon="6.05417">
        <ele>324</ele>
        <time>2015-12-16T14:24:58Z</time>
      </trkpt>
      <trkpt lat="43.44464" lon="6.05417">
        <ele>324</ele>
        <time>2015-12-16T14:25:04Z</time>
      </trkpt>
      <trkpt lat="43.44464" lon="6.05417">
        <ele>324.20001220703</ele>
        <time>2015-12-16T14:25:06Z</time>
      </trkpt>
      <trkpt lat="43.44464" lon="6.05417">
        <ele>324.20001220703</ele>
        <time>2015-12-16T14:25:08Z</time>
      </trkpt>
      <trkpt lat="43.44464" lon="6.05417">
        <ele>324.20001220703</ele>
        <time>2015-12-16T14:25:09Z</time>
      </trkpt>
      <trkpt lat="43.44464" lon="6.05417">
        <ele>324</ele>
        <time>2015-12-16T14:25:12Z</time>
      </trkpt>
      <trkpt lat="43.44464" lon="6.05417">
        <ele>324</ele>
        <time>2015-12-16T14:25:14Z</time>
      </trkpt>
      <trkpt lat="43.44464" lon="6.05417">
        <ele>324</ele>
        <time>2015-12-16T14:25:16Z</time>
      </trkpt>
      <trkpt lat="43.44464" lon="6.05417">
        <ele>324</ele>
        <time>2015-12-16T14:25:18Z</time>
      </trkpt>
      <trkpt lat="43.44464" lon="6.05417">
        <ele>323.79998779297</ele>
        <time>2015-12-16T14:25:20Z</time>
      </trkpt>
      <trkpt lat="43.44464" lon="6.05417">
        <ele>324</ele>
        <time>2015-12-16T14:25:23Z</time>
      </trkpt>
      <trkpt lat="43.44464" lon="6.05417">
        <ele>324</ele>
        <time>2015-12-16T14:25:30Z</time>
      </trkpt>
      <trkpt lat="43.44464" lon="6.05417">
        <ele>324</ele>
        <time>2015-12-16T14:25:36Z</time>
      </trkpt>
      <trkpt lat="43.44464" lon="6.05417">
        <ele>324</ele>
        <time>2015-12-16T14:25:38Z</time>
      </trkpt>
      <trkpt lat="43.44464" lon="6.05417">
        <ele>323.79998779297</ele>
        <time>2015-12-16T14:25:42Z</time>
      </trkpt>
      <trkpt lat="43.44464" lon="6.05416">
        <ele>324</ele>
        <time>2015-12-16T14:25:50Z</time>
      </trkpt>
      <trkpt lat="43.44464" lon="6.05416">
        <ele>324.20001220703</ele>
        <time>2015-12-16T14:25:52Z</time>
      </trkpt>
      <trkpt lat="43.44464" lon="6.05416">
        <ele>324</ele>
        <time>2015-12-16T14:25:54Z</time>
      </trkpt>
      <trkpt lat="43.44464" lon="6.05416">
        <ele>324</ele>
        <time>2015-12-16T14:25:56Z</time>
      </trkpt>
      <trkpt lat="43.44464" lon="6.05416">
        <ele>324</ele>
        <time>2015-12-16T14:25:58Z</time>
      </trkpt>
      <trkpt lat="43.44464" lon="6.05416">
        <ele>323.79998779297</ele>
        <time>2015-12-16T14:26:04Z</time>
      </trkpt>
      <trkpt lat="43.44464" lon="6.05416">
        <ele>323.79998779297</ele>
        <time>2015-12-16T14:26:26Z</time>
      </trkpt>
      <trkpt lat="43.44464" lon="6.05416">
        <ele>324</ele>
        <time>2015-12-16T14:26:32Z</time>
      </trkpt>
      <trkpt lat="43.44463" lon="6.05416">
        <ele>324</ele>
        <time>2015-12-16T14:26:34Z</time>
      </trkpt>
      <trkpt lat="43.44464" lon="6.05416">
        <ele>324</ele>
        <time>2015-12-16T14:26:36Z</time>
      </trkpt>
      <trkpt lat="43.44464" lon="6.05416">
        <ele>324</ele>
        <time>2015-12-16T14:26:37Z</time>
      </trkpt>
      <trkpt lat="43.44464" lon="6.05416">
        <ele>324</ele>
        <time>2015-12-16T14:26:38Z</time>
      </trkpt>
      <trkpt lat="43.44464" lon="6.05416">
        <ele>323.79998779297</ele>
        <time>2015-12-16T14:26:40Z</time>
      </trkpt>
      <trkpt lat="43.44464" lon="6.05416">
        <ele>324</ele>
        <time>2015-12-16T14:26:42Z</time>
      </trkpt>
      <trkpt lat="43.44464" lon="6.05416">
        <ele>323.79998779297</ele>
        <time>2015-12-16T14:26:44Z</time>
      </trkpt>
      <trkpt lat="43.44464" lon="6.05416">
        <ele>324</ele>
        <time>2015-12-16T14:26:46Z</time>
      </trkpt>
      <trkpt lat="43.44464" lon="6.05416">
        <ele>324</ele>
        <time>2015-12-16T14:26:48Z</time>
      </trkpt>
      <trkpt lat="43.44464" lon="6.05417">
        <ele>324</ele>
        <time>2015-12-16T14:26:50Z</time>
      </trkpt>
      <trkpt lat="43.44464" lon="6.05417">
        <ele>324</ele>
        <time>2015-12-16T14:26:52Z</time>
      </trkpt>
      <trkpt lat="43.44464" lon="6.05417">
        <ele>324</ele>
        <time>2015-12-16T14:26:54Z</time>
      </trkpt>
      <trkpt lat="43.44464" lon="6.05417">
        <ele>324</ele>
        <time>2015-12-16T14:26:56Z</time>
      </trkpt>
      <trkpt lat="43.44464" lon="6.05417">
        <ele>323.79998779297</ele>
        <time>2015-12-16T14:26:58Z</time>
      </trkpt>
      <trkpt lat="43.44464" lon="6.05417">
        <ele>323.79998779297</ele>
        <time>2015-12-16T14:27:12Z</time>
      </trkpt>
      <trkpt lat="43.44464" lon="6.05417">
        <ele>323.79998779297</ele>
        <time>2015-12-16T14:27:44Z</time>
      </trkpt>
      <trkpt lat="43.44464" lon="6.05417">
        <ele>323.79998779297</ele>
        <time>2015-12-16T14:27:52Z</time>
      </trkpt>
      <trkpt lat="43.44464" lon="6.05417">
        <ele>323.79998779297</ele>
        <time>2015-12-16T14:27:58Z</time>
      </trkpt>
      <trkpt lat="43.44464" lon="6.05416">
        <ele>323.79998779297</ele>
        <time>2015-12-16T14:28:00Z</time>
      </trkpt>
      <trkpt lat="43.44464" lon="6.05416">
        <ele>323.60000610352</ele>
        <time>2015-12-16T14:28:04Z</time>
      </trkpt>
      <trkpt lat="43.44464" lon="6.05416">
        <ele>323.79998779297</ele>
        <time>2015-12-16T14:28:06Z</time>
      </trkpt>
      <trkpt lat="43.44464" lon="6.05416">
        <ele>323.79998779297</ele>
        <time>2015-12-16T14:28:08Z</time>
      </trkpt>
      <trkpt lat="43.44464" lon="6.05416">
        <ele>324</ele>
        <time>2015-12-16T14:28:10Z</time>
      </trkpt>
      <trkpt lat="43.44464" lon="6.05416">
        <ele>323.79998779297</ele>
        <time>2015-12-16T14:28:11Z</time>
      </trkpt>
      <trkpt lat="43.44464" lon="6.05415">
        <ele>323.60000610352</ele>
        <time>2015-12-16T14:28:12Z</time>
      </trkpt>
      <trkpt lat="43.44465" lon="6.05413">
        <ele>323.60000610352</ele>
        <time>2015-12-16T14:28:14Z</time>
      </trkpt>
      <trkpt lat="43.44468" lon="6.05408">
        <ele>324</ele>
        <time>2015-12-16T14:28:17Z</time>
      </trkpt>
      <trkpt lat="43.44468" lon="6.05406">
        <ele>324</ele>
        <time>2015-12-16T14:28:18Z</time>
      </trkpt>
      <trkpt lat="43.4447" lon="6.05402">
        <ele>324.20001220703</ele>
        <time>2015-12-16T14:28:20Z</time>
      </trkpt>
      <trkpt lat="43.44472" lon="6.05398">
        <ele>324.39999389648</ele>
        <time>2015-12-16T14:28:22Z</time>
      </trkpt>
      <trkpt lat="43.44474" lon="6.05395">
        <ele>324.60000610352</ele>
        <time>2015-12-16T14:28:24Z</time>
      </trkpt>
      <trkpt lat="43.44476" lon="6.05392">
        <ele>325.20001220703</ele>
        <time>2015-12-16T14:28:26Z</time>
      </trkpt>
      <trkpt lat="43.4448" lon="6.05384">
        <ele>325.20001220703</ele>
        <time>2015-12-16T14:28:30Z</time>
      </trkpt>
      <trkpt lat="43.44484" lon="6.05375">
        <ele>326</ele>
        <time>2015-12-16T14:28:34Z</time>
      </trkpt>
      <trkpt lat="43.44489" lon="6.05366">
        <ele>326.39999389648</ele>
        <time>2015-12-16T14:28:38Z</time>
      </trkpt>
      <trkpt lat="43.4449" lon="6.05364">
        <ele>326.60000610352</ele>
        <time>2015-12-16T14:28:39Z</time>
      </trkpt>
      <trkpt lat="43.44494" lon="6.05356">
        <ele>326.39999389648</ele>
        <time>2015-12-16T14:28:42Z</time>
      </trkpt>
      <trkpt lat="43.445" lon="6.05348">
        <ele>326.79998779297</ele>
        <time>2015-12-16T14:28:46Z</time>
      </trkpt>
      <trkpt lat="43.44503" lon="6.05344">
        <ele>327</ele>
        <time>2015-12-16T14:28:48Z</time>
      </trkpt>
      <trkpt lat="43.44505" lon="6.05339">
        <ele>327</ele>
        <time>2015-12-16T14:28:50Z</time>
      </trkpt>
      <trkpt lat="43.44509" lon="6.05335">
        <ele>326.79998779297</ele>
        <time>2015-12-16T14:28:52Z</time>
      </trkpt>
      <trkpt lat="43.4451" lon="6.05332">
        <ele>327</ele>
        <time>2015-12-16T14:28:53Z</time>
      </trkpt>
      <trkpt lat="43.44512" lon="6.05329">
        <ele>327</ele>
        <time>2015-12-16T14:28:54Z</time>
      </trkpt>
      <trkpt lat="43.44514" lon="6.05324">
        <ele>327</ele>
        <time>2015-12-16T14:28:56Z</time>
      </trkpt>
      <trkpt lat="43.44518" lon="6.05319">
        <ele>327.20001220703</ele>
        <time>2015-12-16T14:28:58Z</time>
      </trkpt>
      <trkpt lat="43.44521" lon="6.05314">
        <ele>327.39999389648</ele>
        <time>2015-12-16T14:29:00Z</time>
      </trkpt>
      <trkpt lat="43.44523" lon="6.05309">
        <ele>327.79998779297</ele>
        <time>2015-12-16T14:29:02Z</time>
      </trkpt>
      <trkpt lat="43.44526" lon="6.05303">
        <ele>328</ele>
        <time>2015-12-16T14:29:04Z</time>
      </trkpt>
      <trkpt lat="43.44529" lon="6.05298">
        <ele>328</ele>
        <time>2015-12-16T14:29:06Z</time>
      </trkpt>
      <trkpt lat="43.44532" lon="6.05293">
        <ele>328.39999389648</ele>
        <time>2015-12-16T14:29:08Z</time>
      </trkpt>
      <trkpt lat="43.44534" lon="6.05287">
        <ele>328.39999389648</ele>
        <time>2015-12-16T14:29:10Z</time>
      </trkpt>
      <trkpt lat="43.44537" lon="6.05282">
        <ele>328.39999389648</ele>
        <time>2015-12-16T14:29:12Z</time>
      </trkpt>
      <trkpt lat="43.44541" lon="6.05276">
        <ele>328.39999389648</ele>
        <time>2015-12-16T14:29:14Z</time>
      </trkpt>
      <trkpt lat="43.44543" lon="6.0527">
        <ele>328.79998779297</ele>
        <time>2015-12-16T14:29:16Z</time>
      </trkpt>
      <trkpt lat="43.44547" lon="6.05264">
        <ele>329</ele>
        <time>2015-12-16T14:29:18Z</time>
      </trkpt>
      <trkpt lat="43.4455" lon="6.05259">
        <ele>328.79998779297</ele>
        <time>2015-12-16T14:29:20Z</time>
      </trkpt>
      <trkpt lat="43.44553" lon="6.05253">
        <ele>328.79998779297</ele>
        <time>2015-12-16T14:29:22Z</time>
      </trkpt>
      <trkpt lat="43.44556" lon="6.05247">
        <ele>328.79998779297</ele>
        <time>2015-12-16T14:29:24Z</time>
      </trkpt>
      <trkpt lat="43.44559" lon="6.05242">
        <ele>329</ele>
        <time>2015-12-16T14:29:26Z</time>
      </trkpt>
      <trkpt lat="43.4457" lon="6.05227">
        <ele>328.79998779297</ele>
        <time>2015-12-16T14:29:32Z</time>
      </trkpt>
      <trkpt lat="43.44573" lon="6.05221">
        <ele>328.60000610352</ele>
        <time>2015-12-16T14:29:34Z</time>
      </trkpt>
      <trkpt lat="43.44576" lon="6.05214">
        <ele>328.60000610352</ele>
        <time>2015-12-16T14:29:36Z</time>
      </trkpt>
      <trkpt lat="43.44577" lon="6.05211">
        <ele>328.60000610352</ele>
        <time>2015-12-16T14:29:37Z</time>
      </trkpt>
      <trkpt lat="43.44579" lon="6.05209">
        <ele>328.39999389648</ele>
        <time>2015-12-16T14:29:38Z</time>
      </trkpt>
      <trkpt lat="43.44583" lon="6.05205">
        <ele>328.60000610352</ele>
        <time>2015-12-16T14:29:40Z</time>
      </trkpt>
      <trkpt lat="43.44588" lon="6.05199">
        <ele>328.79998779297</ele>
        <time>2015-12-16T14:29:44Z</time>
      </trkpt>
      <trkpt lat="43.4459" lon="6.05197">
        <ele>329</ele>
        <time>2015-12-16T14:29:46Z</time>
      </trkpt>
      <trkpt lat="43.44592" lon="6.05195">
        <ele>329</ele>
        <time>2015-12-16T14:29:48Z</time>
      </trkpt>
      <trkpt lat="43.44595" lon="6.05194">
        <ele>329.60000610352</ele>
        <time>2015-12-16T14:29:50Z</time>
      </trkpt>
      <trkpt lat="43.44596" lon="6.05192">
        <ele>329.60000610352</ele>
        <time>2015-12-16T14:29:51Z</time>
      </trkpt>
      <trkpt lat="43.44597" lon="6.05191">
        <ele>329.60000610352</ele>
        <time>2015-12-16T14:29:52Z</time>
      </trkpt>
      <trkpt lat="43.44599" lon="6.0519">
        <ele>330</ele>
        <time>2015-12-16T14:29:54Z</time>
      </trkpt>
      <trkpt lat="43.44601" lon="6.05189">
        <ele>330</ele>
        <time>2015-12-16T14:29:55Z</time>
      </trkpt>
      <trkpt lat="43.44602" lon="6.05188">
        <ele>330</ele>
        <time>2015-12-16T14:29:56Z</time>
      </trkpt>
      <trkpt lat="43.4461" lon="6.05184">
        <ele>331.20001220703</ele>
        <time>2015-12-16T14:30:01Z</time>
      </trkpt>
      <trkpt lat="43.44612" lon="6.05184">
        <ele>331.60000610352</ele>
        <time>2015-12-16T14:30:02Z</time>
      </trkpt>
      <trkpt lat="43.44616" lon="6.05184">
        <ele>332</ele>
        <time>2015-12-16T14:30:04Z</time>
      </trkpt>
      <trkpt lat="43.44624" lon="6.05184">
        <ele>332.79998779297</ele>
        <time>2015-12-16T14:30:08Z</time>
      </trkpt>
      <trkpt lat="43.44629" lon="6.05183">
        <ele>332.79998779297</ele>
        <time>2015-12-16T14:30:10Z</time>
      </trkpt>
      <trkpt lat="43.44637" lon="6.05183">
        <ele>334</ele>
        <time>2015-12-16T14:30:14Z</time>
      </trkpt>
      <trkpt lat="43.44642" lon="6.05182">
        <ele>334.60000610352</ele>
        <time>2015-12-16T14:30:16Z</time>
      </trkpt>
      <trkpt lat="43.44646" lon="6.05181">
        <ele>335</ele>
        <time>2015-12-16T14:30:18Z</time>
      </trkpt>
      <trkpt lat="43.4465" lon="6.05181">
        <ele>335.39999389648</ele>
        <time>2015-12-16T14:30:20Z</time>
      </trkpt>
      <trkpt lat="43.44654" lon="6.05181">
        <ele>335.60000610352</ele>
        <time>2015-12-16T14:30:22Z</time>
      </trkpt>
      <trkpt lat="43.44659" lon="6.0518">
        <ele>335.60000610352</ele>
        <time>2015-12-16T14:30:24Z</time>
      </trkpt>
      <trkpt lat="43.44663" lon="6.0518">
        <ele>335.60000610352</ele>
        <time>2015-12-16T14:30:26Z</time>
      </trkpt>
      <trkpt lat="43.44666" lon="6.0518">
        <ele>335.60000610352</ele>
        <time>2015-12-16T14:30:27Z</time>
      </trkpt>
      <trkpt lat="43.44669" lon="6.0518">
        <ele>335.60000610352</ele>
        <time>2015-12-16T14:30:28Z</time>
      </trkpt>
      <trkpt lat="43.44673" lon="6.0518">
        <ele>335.79998779297</ele>
        <time>2015-12-16T14:30:30Z</time>
      </trkpt>
      <trkpt lat="43.44677" lon="6.05181">
        <ele>336.39999389648</ele>
        <time>2015-12-16T14:30:32Z</time>
      </trkpt>
      <trkpt lat="43.44678" lon="6.05182">
        <ele>336.39999389648</ele>
        <time>2015-12-16T14:30:33Z</time>
      </trkpt>
      <trkpt lat="43.4468" lon="6.05183">
        <ele>336.79998779297</ele>
        <time>2015-12-16T14:30:34Z</time>
      </trkpt>
      <trkpt lat="43.44682" lon="6.05183">
        <ele>337</ele>
        <time>2015-12-16T14:30:35Z</time>
      </trkpt>
      <trkpt lat="43.44684" lon="6.05183">
        <ele>337</ele>
        <time>2015-12-16T14:30:36Z</time>
      </trkpt>
      <trkpt lat="43.44687" lon="6.05183">
        <ele>337</ele>
        <time>2015-12-16T14:30:38Z</time>
      </trkpt>
      <trkpt lat="43.4469" lon="6.05182">
        <ele>337.39999389648</ele>
        <time>2015-12-16T14:30:40Z</time>
      </trkpt>
      <trkpt lat="43.44691" lon="6.05182">
        <ele>337.39999389648</ele>
        <time>2015-12-16T14:30:41Z</time>
      </trkpt>
      <trkpt lat="43.44693" lon="6.05182">
        <ele>337.60000610352</ele>
        <time>2015-12-16T14:30:42Z</time>
      </trkpt>
      <trkpt lat="43.44696" lon="6.05182">
        <ele>337.79998779297</ele>
        <time>2015-12-16T14:30:44Z</time>
      </trkpt>
      <trkpt lat="43.447" lon="6.05183">
        <ele>337.79998779297</ele>
        <time>2015-12-16T14:30:46Z</time>
      </trkpt>
      <trkpt lat="43.44703" lon="6.05183">
        <ele>338</ele>
        <time>2015-12-16T14:30:48Z</time>
      </trkpt>
      <trkpt lat="43.44706" lon="6.05184">
        <ele>338.39999389648</ele>
        <time>2015-12-16T14:30:50Z</time>
      </trkpt>
      <trkpt lat="43.44709" lon="6.05185">
        <ele>338.79998779297</ele>
        <time>2015-12-16T14:30:52Z</time>
      </trkpt>
      <trkpt lat="43.44712" lon="6.05187">
        <ele>338.79998779297</ele>
        <time>2015-12-16T14:30:54Z</time>
      </trkpt>
      <trkpt lat="43.44716" lon="6.05189">
        <ele>338.79998779297</ele>
        <time>2015-12-16T14:30:56Z</time>
      </trkpt>
      <trkpt lat="43.44719" lon="6.0519">
        <ele>338.79998779297</ele>
        <time>2015-12-16T14:30:58Z</time>
      </trkpt>
      <trkpt lat="43.4472" lon="6.05191">
        <ele>339</ele>
        <time>2015-12-16T14:30:59Z</time>
      </trkpt>
      <trkpt lat="43.44722" lon="6.05191">
        <ele>339.39999389648</ele>
        <time>2015-12-16T14:31:00Z</time>
      </trkpt>
      <trkpt lat="43.44726" lon="6.05194">
        <ele>340</ele>
        <time>2015-12-16T14:31:03Z</time>
      </trkpt>
      <trkpt lat="43.44728" lon="6.05197">
        <ele>340.20001220703</ele>
        <time>2015-12-16T14:31:05Z</time>
      </trkpt>
      <trkpt lat="43.44729" lon="6.05198">
        <ele>340.20001220703</ele>
        <time>2015-12-16T14:31:06Z</time>
      </trkpt>
      <trkpt lat="43.4473" lon="6.05199">
        <ele>340.20001220703</ele>
        <time>2015-12-16T14:31:07Z</time>
      </trkpt>
      <trkpt lat="43.44732" lon="6.05201">
        <ele>340.79998779297</ele>
        <time>2015-12-16T14:31:09Z</time>
      </trkpt>
      <trkpt lat="43.44733" lon="6.05202">
        <ele>341</ele>
        <time>2015-12-16T14:31:10Z</time>
      </trkpt>
      <trkpt lat="43.44735" lon="6.05204">
        <ele>341</ele>
        <time>2015-12-16T14:31:12Z</time>
      </trkpt>
      <trkpt lat="43.44739" lon="6.05206">
        <ele>341.20001220703</ele>
        <time>2015-12-16T14:31:15Z</time>
      </trkpt>
      <trkpt lat="43.44741" lon="6.05207">
        <ele>341.60000610352</ele>
        <time>2015-12-16T14:31:17Z</time>
      </trkpt>
      <trkpt lat="43.44743" lon="6.05208">
        <ele>341.79998779297</ele>
        <time>2015-12-16T14:31:18Z</time>
      </trkpt>
      <trkpt lat="43.44744" lon="6.05209">
        <ele>342</ele>
        <time>2015-12-16T14:31:20Z</time>
      </trkpt>
      <trkpt lat="43.44745" lon="6.0521">
        <ele>342.20001220703</ele>
        <time>2015-12-16T14:31:21Z</time>
      </trkpt>
      <trkpt lat="43.44746" lon="6.05211">
        <ele>342.39999389648</ele>
        <time>2015-12-16T14:31:22Z</time>
      </trkpt>
      <trkpt lat="43.44747" lon="6.05214">
        <ele>342.60000610352</ele>
        <time>2015-12-16T14:31:24Z</time>
      </trkpt>
      <trkpt lat="43.44749" lon="6.05216">
        <ele>342.60000610352</ele>
        <time>2015-12-16T14:31:26Z</time>
      </trkpt>
      <trkpt lat="43.44751" lon="6.05219">
        <ele>343</ele>
        <time>2015-12-16T14:31:28Z</time>
      </trkpt>
      <trkpt lat="43.44752" lon="6.05224">
        <ele>343.79998779297</ele>
        <time>2015-12-16T14:31:31Z</time>
      </trkpt>
      <trkpt lat="43.44754" lon="6.05231">
        <ele>343.79998779297</ele>
        <time>2015-12-16T14:31:34Z</time>
      </trkpt>
      <trkpt lat="43.44756" lon="6.05239">
        <ele>344</ele>
        <time>2015-12-16T14:31:38Z</time>
      </trkpt>
      <trkpt lat="43.44756" lon="6.05243">
        <ele>344</ele>
        <time>2015-12-16T14:31:40Z</time>
      </trkpt>
      <trkpt lat="43.44756" lon="6.05252">
        <ele>344.79998779297</ele>
        <time>2015-12-16T14:31:44Z</time>
      </trkpt>
      <trkpt lat="43.44756" lon="6.05254">
        <ele>344.79998779297</ele>
        <time>2015-12-16T14:31:45Z</time>
      </trkpt>
      <trkpt lat="43.44756" lon="6.05256">
        <ele>345</ele>
        <time>2015-12-16T14:31:46Z</time>
      </trkpt>
      <trkpt lat="43.44756" lon="6.0526">
        <ele>345.20001220703</ele>
        <time>2015-12-16T14:31:48Z</time>
      </trkpt>
      <trkpt lat="43.44756" lon="6.05269">
        <ele>345.60000610352</ele>
        <time>2015-12-16T14:31:52Z</time>
      </trkpt>
      <trkpt lat="43.44756" lon="6.05273">
        <ele>345.60000610352</ele>
        <time>2015-12-16T14:31:54Z</time>
      </trkpt>
      <trkpt lat="43.44756" lon="6.05276">
        <ele>346</ele>
        <time>2015-12-16T14:31:56Z</time>
      </trkpt>
      <trkpt lat="43.44756" lon="6.0528">
        <ele>346.60000610352</ele>
        <time>2015-12-16T14:31:58Z</time>
      </trkpt>
      <trkpt lat="43.44756" lon="6.05284">
        <ele>346.39999389648</ele>
        <time>2015-12-16T14:32:00Z</time>
      </trkpt>
      <trkpt lat="43.44757" lon="6.05288">
        <ele>346.60000610352</ele>
        <time>2015-12-16T14:32:02Z</time>
      </trkpt>
      <trkpt lat="43.44757" lon="6.05292">
        <ele>346.39999389648</ele>
        <time>2015-12-16T14:32:04Z</time>
      </trkpt>
      <trkpt lat="43.44756" lon="6.05301">
        <ele>347</ele>
        <time>2015-12-16T14:32:08Z</time>
      </trkpt>
      <trkpt lat="43.44756" lon="6.05305">
        <ele>347.20001220703</ele>
        <time>2015-12-16T14:32:10Z</time>
      </trkpt>
      <trkpt lat="43.44755" lon="6.05309">
        <ele>347.39999389648</ele>
        <time>2015-12-16T14:32:12Z</time>
      </trkpt>
      <trkpt lat="43.44755" lon="6.05311">
        <ele>347.39999389648</ele>
        <time>2015-12-16T14:32:13Z</time>
      </trkpt>
      <trkpt lat="43.44755" lon="6.05314">
        <ele>347.39999389648</ele>
        <time>2015-12-16T14:32:14Z</time>
      </trkpt>
      <trkpt lat="43.44755" lon="6.05318">
        <ele>347.60000610352</ele>
        <time>2015-12-16T14:32:16Z</time>
      </trkpt>
      <trkpt lat="43.44756" lon="6.05322">
        <ele>348.20001220703</ele>
        <time>2015-12-16T14:32:18Z</time>
      </trkpt>
      <trkpt lat="43.44756" lon="6.05326">
        <ele>348.20001220703</ele>
        <time>2015-12-16T14:32:20Z</time>
      </trkpt>
      <trkpt lat="43.44756" lon="6.0533">
        <ele>348.39999389648</ele>
        <time>2015-12-16T14:32:22Z</time>
      </trkpt>
      <trkpt lat="43.44757" lon="6.05334">
        <ele>348.60000610352</ele>
        <time>2015-12-16T14:32:24Z</time>
      </trkpt>
      <trkpt lat="43.44756" lon="6.05342">
        <ele>349.39999389648</ele>
        <time>2015-12-16T14:32:28Z</time>
      </trkpt>
      <trkpt lat="43.44755" lon="6.05345">
        <ele>349.79998779297</ele>
        <time>2015-12-16T14:32:30Z</time>
      </trkpt>
      <trkpt lat="43.44755" lon="6.05346">
        <ele>350</ele>
        <time>2015-12-16T14:32:31Z</time>
      </trkpt>
      <trkpt lat="43.44754" lon="6.05349">
        <ele>350.60000610352</ele>
        <time>2015-12-16T14:32:33Z</time>
      </trkpt>
      <trkpt lat="43.44754" lon="6.05352">
        <ele>350.79998779297</ele>
        <time>2015-12-16T14:32:34Z</time>
      </trkpt>
      <trkpt lat="43.44754" lon="6.05353">
        <ele>351.20001220703</ele>
        <time>2015-12-16T14:32:35Z</time>
      </trkpt>
      <trkpt lat="43.44754" lon="6.05355">
        <ele>351.60000610352</ele>
        <time>2015-12-16T14:32:36Z</time>
      </trkpt>
      <trkpt lat="43.44754" lon="6.05357">
        <ele>351.60000610352</ele>
        <time>2015-12-16T14:32:37Z</time>
      </trkpt>
      <trkpt lat="43.44754" lon="6.05359">
        <ele>351.79998779297</ele>
        <time>2015-12-16T14:32:38Z</time>
      </trkpt>
      <trkpt lat="43.44753" lon="6.05362">
        <ele>352</ele>
        <time>2015-12-16T14:32:40Z</time>
      </trkpt>
      <trkpt lat="43.44753" lon="6.05366">
        <ele>352.60000610352</ele>
        <time>2015-12-16T14:32:42Z</time>
      </trkpt>
      <trkpt lat="43.44752" lon="6.0537">
        <ele>353</ele>
        <time>2015-12-16T14:32:44Z</time>
      </trkpt>
      <trkpt lat="43.44752" lon="6.05374">
        <ele>353.39999389648</ele>
        <time>2015-12-16T14:32:46Z</time>
      </trkpt>
      <trkpt lat="43.4475" lon="6.05387">
        <ele>354.20001220703</ele>
        <time>2015-12-16T14:32:52Z</time>
      </trkpt>
      <trkpt lat="43.44749" lon="6.05389">
        <ele>354.39999389648</ele>
        <time>2015-12-16T14:32:53Z</time>
      </trkpt>
      <trkpt lat="43.44749" lon="6.05392">
        <ele>354.39999389648</ele>
        <time>2015-12-16T14:32:54Z</time>
      </trkpt>
      <trkpt lat="43.4475" lon="6.05395">
        <ele>354</ele>
        <time>2015-12-16T14:32:56Z</time>
      </trkpt>
      <trkpt lat="43.44749" lon="6.05399">
        <ele>354.60000610352</ele>
        <time>2015-12-16T14:32:58Z</time>
      </trkpt>
      <trkpt lat="43.44749" lon="6.05409">
        <ele>355.20001220703</ele>
        <time>2015-12-16T14:33:02Z</time>
      </trkpt>
      <trkpt lat="43.4475" lon="6.05414">
        <ele>355.60000610352</ele>
        <time>2015-12-16T14:33:04Z</time>
      </trkpt>
      <trkpt lat="43.4475" lon="6.05418">
        <ele>355.60000610352</ele>
        <time>2015-12-16T14:33:06Z</time>
      </trkpt>
      <trkpt lat="43.4475" lon="6.05423">
        <ele>356</ele>
        <time>2015-12-16T14:33:08Z</time>
      </trkpt>
      <trkpt lat="43.44749" lon="6.05428">
        <ele>356</ele>
        <time>2015-12-16T14:33:10Z</time>
      </trkpt>
      <trkpt lat="43.44749" lon="6.05432">
        <ele>356.60000610352</ele>
        <time>2015-12-16T14:33:12Z</time>
      </trkpt>
      <trkpt lat="43.44749" lon="6.05435">
        <ele>356.60000610352</ele>
        <time>2015-12-16T14:33:14Z</time>
      </trkpt>
      <trkpt lat="43.44748" lon="6.05439">
        <ele>357</ele>
        <time>2015-12-16T14:33:16Z</time>
      </trkpt>
      <trkpt lat="43.44748" lon="6.05443">
        <ele>357.20001220703</ele>
        <time>2015-12-16T14:33:18Z</time>
      </trkpt>
      <trkpt lat="43.44748" lon="6.05447">
        <ele>357.20001220703</ele>
        <time>2015-12-16T14:33:20Z</time>
      </trkpt>
      <trkpt lat="43.44748" lon="6.0545">
        <ele>357.79998779297</ele>
        <time>2015-12-16T14:33:22Z</time>
      </trkpt>
      <trkpt lat="43.44749" lon="6.05454">
        <ele>358.20001220703</ele>
        <time>2015-12-16T14:33:24Z</time>
      </trkpt>
      <trkpt lat="43.44749" lon="6.05456">
        <ele>358.60000610352</ele>
        <time>2015-12-16T14:33:26Z</time>
      </trkpt>
      <trkpt lat="43.44751" lon="6.05457">
        <ele>358.79998779297</ele>
        <time>2015-12-16T14:33:28Z</time>
      </trkpt>
      <trkpt lat="43.44751" lon="6.05465">
        <ele>359.20001220703</ele>
        <time>2015-12-16T14:33:32Z</time>
      </trkpt>
      <trkpt lat="43.44752" lon="6.05469">
        <ele>359.39999389648</ele>
        <time>2015-12-16T14:33:34Z</time>
      </trkpt>
      <trkpt lat="43.44751" lon="6.05471">
        <ele>359.39999389648</ele>
        <time>2015-12-16T14:33:35Z</time>
      </trkpt>
      <trkpt lat="43.44751" lon="6.05473">
        <ele>359.39999389648</ele>
        <time>2015-12-16T14:33:36Z</time>
      </trkpt>
      <trkpt lat="43.44751" lon="6.05478">
        <ele>359.79998779297</ele>
        <time>2015-12-16T14:33:38Z</time>
      </trkpt>
      <trkpt lat="43.44752" lon="6.0548">
        <ele>360</ele>
        <time>2015-12-16T14:33:39Z</time>
      </trkpt>
      <trkpt lat="43.44752" lon="6.05482">
        <ele>360.39999389648</ele>
        <time>2015-12-16T14:33:40Z</time>
      </trkpt>
      <trkpt lat="43.44753" lon="6.0549">
        <ele>361.39999389648</ele>
        <time>2015-12-16T14:33:44Z</time>
      </trkpt>
      <trkpt lat="43.44753" lon="6.05492">
        <ele>361.60000610352</ele>
        <time>2015-12-16T14:33:45Z</time>
      </trkpt>
      <trkpt lat="43.44753" lon="6.05493">
        <ele>361.79998779297</ele>
        <time>2015-12-16T14:33:46Z</time>
      </trkpt>
      <trkpt lat="43.44755" lon="6.05495">
        <ele>362.20001220703</ele>
        <time>2015-12-16T14:33:48Z</time>
      </trkpt>
      <trkpt lat="43.44756" lon="6.05496">
        <ele>362.20001220703</ele>
        <time>2015-12-16T14:33:50Z</time>
      </trkpt>
      <trkpt lat="43.44756" lon="6.05496">
        <ele>362.20001220703</ele>
        <time>2015-12-16T14:33:51Z</time>
      </trkpt>
      <trkpt lat="43.44756" lon="6.05496">
        <ele>362.20001220703</ele>
        <time>2015-12-16T14:33:52Z</time>
      </trkpt>
      <trkpt lat="43.44757" lon="6.05496">
        <ele>362.20001220703</ele>
        <time>2015-12-16T14:33:54Z</time>
      </trkpt>
      <trkpt lat="43.44757" lon="6.05497">
        <ele>362.39999389648</ele>
        <time>2015-12-16T14:33:56Z</time>
      </trkpt>
      <trkpt lat="43.44757" lon="6.05497">
        <ele>362.20001220703</ele>
        <time>2015-12-16T14:34:00Z</time>
      </trkpt>
      <trkpt lat="43.44757" lon="6.05496">
        <ele>362.39999389648</ele>
        <time>2015-12-16T14:34:12Z</time>
      </trkpt>
      <trkpt lat="43.44757" lon="6.05496">
        <ele>362.20001220703</ele>
        <time>2015-12-16T14:34:14Z</time>
      </trkpt>
      <trkpt lat="43.44757" lon="6.05496">
        <ele>362.20001220703</ele>
        <time>2015-12-16T14:34:16Z</time>
      </trkpt>
      <trkpt lat="43.44758" lon="6.05496">
        <ele>362.39999389648</ele>
        <time>2015-12-16T14:34:18Z</time>
      </trkpt>
      <trkpt lat="43.44758" lon="6.05496">
        <ele>362.20001220703</ele>
        <time>2015-12-16T14:34:20Z</time>
      </trkpt>
      <trkpt lat="43.44757" lon="6.05496">
        <ele>362.20001220703</ele>
        <time>2015-12-16T14:34:22Z</time>
      </trkpt>
      <trkpt lat="43.44757" lon="6.05496">
        <ele>362.20001220703</ele>
        <time>2015-12-16T14:34:28Z</time>
      </trkpt>
      <trkpt lat="43.44757" lon="6.05496">
        <ele>362</ele>
        <time>2015-12-16T14:35:00Z</time>
      </trkpt>
      <trkpt lat="43.44757" lon="6.05496">
        <ele>362</ele>
        <time>2015-12-16T14:35:04Z</time>
      </trkpt>
      <trkpt lat="43.44757" lon="6.05496">
        <ele>362</ele>
        <time>2015-12-16T14:35:06Z</time>
      </trkpt>
      <trkpt lat="43.44758" lon="6.05496">
        <ele>362</ele>
        <time>2015-12-16T14:35:08Z</time>
      </trkpt>
      <trkpt lat="43.44758" lon="6.05496">
        <ele>362</ele>
        <time>2015-12-16T14:35:10Z</time>
      </trkpt>
      <trkpt lat="43.44758" lon="6.05496">
        <ele>362.20001220703</ele>
        <time>2015-12-16T14:35:12Z</time>
      </trkpt>
      <trkpt lat="43.44758" lon="6.05496">
        <ele>362</ele>
        <time>2015-12-16T14:35:14Z</time>
      </trkpt>
      <trkpt lat="43.44758" lon="6.05496">
        <ele>362.20001220703</ele>
        <time>2015-12-16T14:35:26Z</time>
      </trkpt>
      <trkpt lat="43.44758" lon="6.05496">
        <ele>362.39999389648</ele>
        <time>2015-12-16T14:35:30Z</time>
      </trkpt>
      <trkpt lat="43.44758" lon="6.05496">
        <ele>362.20001220703</ele>
        <time>2015-12-16T14:35:32Z</time>
      </trkpt>
      <trkpt lat="43.44757" lon="6.05496">
        <ele>362.20001220703</ele>
        <time>2015-12-16T14:35:36Z</time>
      </trkpt>
      <trkpt lat="43.44757" lon="6.05496">
        <ele>362</ele>
        <time>2015-12-16T14:35:38Z</time>
      </trkpt>
      <trkpt lat="43.44757" lon="6.05496">
        <ele>362.20001220703</ele>
        <time>2015-12-16T14:35:40Z</time>
      </trkpt>
      <trkpt lat="43.44757" lon="6.05496">
        <ele>362.20001220703</ele>
        <time>2015-12-16T14:35:42Z</time>
      </trkpt>
      <trkpt lat="43.44757" lon="6.05496">
        <ele>362.20001220703</ele>
        <time>2015-12-16T14:35:48Z</time>
      </trkpt>
      <trkpt lat="43.44757" lon="6.05496">
        <ele>362.20001220703</ele>
        <time>2015-12-16T14:35:52Z</time>
      </trkpt>
      <trkpt lat="43.44757" lon="6.05496">
        <ele>362</ele>
        <time>2015-12-16T14:35:56Z</time>
      </trkpt>
      <trkpt lat="43.44758" lon="6.05496">
        <ele>362.20001220703</ele>
        <time>2015-12-16T14:35:58Z</time>
      </trkpt>
      <trkpt lat="43.44757" lon="6.05496">
        <ele>362</ele>
        <time>2015-12-16T14:36:00Z</time>
      </trkpt>
      <trkpt lat="43.44757" lon="6.05496">
        <ele>362</ele>
        <time>2015-12-16T14:36:02Z</time>
      </trkpt>
      <trkpt lat="43.44757" lon="6.05496">
        <ele>362.39999389648</ele>
        <time>2015-12-16T14:36:04Z</time>
      </trkpt>
      <trkpt lat="43.44758" lon="6.05496">
        <ele>362.20001220703</ele>
        <time>2015-12-16T14:36:06Z</time>
      </trkpt>
      <trkpt lat="43.44757" lon="6.05496">
        <ele>362.20001220703</ele>
        <time>2015-12-16T14:36:07Z</time>
      </trkpt>
      <trkpt lat="43.44757" lon="6.05496">
        <ele>362.20001220703</ele>
        <time>2015-12-16T14:36:12Z</time>
      </trkpt>
      <trkpt lat="43.44757" lon="6.05496">
        <ele>362.20001220703</ele>
        <time>2015-12-16T14:36:14Z</time>
      </trkpt>
      <trkpt lat="43.44757" lon="6.05496">
        <ele>362</ele>
        <time>2015-12-16T14:36:16Z</time>
      </trkpt>
      <trkpt lat="43.44758" lon="6.05496">
        <ele>362.20001220703</ele>
        <time>2015-12-16T14:36:18Z</time>
      </trkpt>
      <trkpt lat="43.44758" lon="6.05496">
        <ele>362</ele>
        <time>2015-12-16T14:36:24Z</time>
      </trkpt>
      <trkpt lat="43.44758" lon="6.05496">
        <ele>362.20001220703</ele>
        <time>2015-12-16T14:36:26Z</time>
      </trkpt>
      <trkpt lat="43.44757" lon="6.05496">
        <ele>362</ele>
        <time>2015-12-16T14:36:28Z</time>
      </trkpt>
      <trkpt lat="43.44758" lon="6.05496">
        <ele>362</ele>
        <time>2015-12-16T14:36:30Z</time>
      </trkpt>
      <trkpt lat="43.44758" lon="6.05496">
        <ele>362.20001220703</ele>
        <time>2015-12-16T14:36:34Z</time>
      </trkpt>
      <trkpt lat="43.44758" lon="6.05496">
        <ele>362.39999389648</ele>
        <time>2015-12-16T14:36:38Z</time>
      </trkpt>
      <trkpt lat="43.44758" lon="6.05496">
        <ele>362.20001220703</ele>
        <time>2015-12-16T14:36:48Z</time>
      </trkpt>
      <trkpt lat="43.44758" lon="6.05496">
        <ele>362.20001220703</ele>
        <time>2015-12-16T14:36:50Z</time>
      </trkpt>
      <trkpt lat="43.44758" lon="6.05497">
        <ele>362.39999389648</ele>
        <time>2015-12-16T14:36:52Z</time>
      </trkpt>
      <trkpt lat="43.44758" lon="6.05497">
        <ele>362.20001220703</ele>
        <time>2015-12-16T14:36:56Z</time>
      </trkpt>
      <trkpt lat="43.44758" lon="6.05497">
        <ele>362.39999389648</ele>
        <time>2015-12-16T14:37:46Z</time>
      </trkpt>
      <trkpt lat="43.44758" lon="6.05496">
        <ele>362.20001220703</ele>
        <time>2015-12-16T14:37:59Z</time>
      </trkpt>
      <trkpt lat="43.44758" lon="6.05496">
        <ele>362.20001220703</ele>
        <time>2015-12-16T14:38:00Z</time>
      </trkpt>
      <trkpt lat="43.44758" lon="6.05496">
        <ele>362.39999389648</ele>
        <time>2015-12-16T14:38:04Z</time>
      </trkpt>
      <trkpt lat="43.44758" lon="6.05496">
        <ele>362.39999389648</ele>
        <time>2015-12-16T14:38:10Z</time>
      </trkpt>
      <trkpt lat="43.44758" lon="6.05496">
        <ele>362.39999389648</ele>
        <time>2015-12-16T14:38:16Z</time>
      </trkpt>
      <trkpt lat="43.44758" lon="6.05496">
        <ele>362.39999389648</ele>
        <time>2015-12-16T14:38:20Z</time>
      </trkpt>
      <trkpt lat="43.44759" lon="6.05496">
        <ele>362.39999389648</ele>
        <time>2015-12-16T14:38:22Z</time>
      </trkpt>
      <trkpt lat="43.44758" lon="6.05496">
        <ele>362.39999389648</ele>
        <time>2015-12-16T14:38:24Z</time>
      </trkpt>
      <trkpt lat="43.44759" lon="6.05497">
        <ele>362.60000610352</ele>
        <time>2015-12-16T14:38:28Z</time>
      </trkpt>
      <trkpt lat="43.44759" lon="6.05497">
        <ele>362.60000610352</ele>
        <time>2015-12-16T14:38:30Z</time>
      </trkpt>
      <trkpt lat="43.44759" lon="6.05497">
        <ele>362.39999389648</ele>
        <time>2015-12-16T14:38:32Z</time>
      </trkpt>
      <trkpt lat="43.44759" lon="6.05497">
        <ele>362.39999389648</ele>
        <time>2015-12-16T14:38:38Z</time>
      </trkpt>
      <trkpt lat="43.44759" lon="6.05497">
        <ele>362.39999389648</ele>
        <time>2015-12-16T14:38:42Z</time>
      </trkpt>
      <trkpt lat="43.44759" lon="6.05497">
        <ele>362.39999389648</ele>
        <time>2015-12-16T14:38:50Z</time>
      </trkpt>
      <trkpt lat="43.44759" lon="6.05497">
        <ele>362.39999389648</ele>
        <time>2015-12-16T14:38:52Z</time>
      </trkpt>
      <trkpt lat="43.44759" lon="6.05497">
        <ele>362.60000610352</ele>
        <time>2015-12-16T14:38:54Z</time>
      </trkpt>
      <trkpt lat="43.44759" lon="6.05497">
        <ele>362.39999389648</ele>
        <time>2015-12-16T14:38:56Z</time>
      </trkpt>
      <trkpt lat="43.4476" lon="6.05497">
        <ele>362.60000610352</ele>
        <time>2015-12-16T14:38:58Z</time>
      </trkpt>
      <trkpt lat="43.44759" lon="6.05497">
        <ele>362.39999389648</ele>
        <time>2015-12-16T14:39:00Z</time>
      </trkpt>
      <trkpt lat="43.44759" lon="6.05497">
        <ele>362.39999389648</ele>
        <time>2015-12-16T14:39:02Z</time>
      </trkpt>
      <trkpt lat="43.44759" lon="6.05497">
        <ele>362.60000610352</ele>
        <time>2015-12-16T14:39:06Z</time>
      </trkpt>
      <trkpt lat="43.44759" lon="6.05497">
        <ele>362.39999389648</ele>
        <time>2015-12-16T14:39:08Z</time>
      </trkpt>
      <trkpt lat="43.44759" lon="6.05497">
        <ele>362.39999389648</ele>
        <time>2015-12-16T14:39:12Z</time>
      </trkpt>
      <trkpt lat="43.4476" lon="6.05497">
        <ele>362.60000610352</ele>
        <time>2015-12-16T14:39:14Z</time>
      </trkpt>
      <trkpt lat="43.4476" lon="6.05497">
        <ele>362.60000610352</ele>
        <time>2015-12-16T14:39:18Z</time>
      </trkpt>
      <trkpt lat="43.4476" lon="6.05497">
        <ele>362.39999389648</ele>
        <time>2015-12-16T14:39:20Z</time>
      </trkpt>
      <trkpt lat="43.44761" lon="6.05497">
        <ele>362.39999389648</ele>
        <time>2015-12-16T14:39:22Z</time>
      </trkpt>
      <trkpt lat="43.44761" lon="6.05497">
        <ele>362.39999389648</ele>
        <time>2015-12-16T14:39:24Z</time>
      </trkpt>
      <trkpt lat="43.44761" lon="6.05497">
        <ele>362.39999389648</ele>
        <time>2015-12-16T14:39:26Z</time>
      </trkpt>
      <trkpt lat="43.44761" lon="6.05497">
        <ele>362.39999389648</ele>
        <time>2015-12-16T14:39:28Z</time>
      </trkpt>
      <trkpt lat="43.44761" lon="6.05497">
        <ele>362.20001220703</ele>
        <time>2015-12-16T14:39:50Z</time>
      </trkpt>
      <trkpt lat="43.44761" lon="6.05497">
        <ele>362.20001220703</ele>
        <time>2015-12-16T14:39:58Z</time>
      </trkpt>
      <trkpt lat="43.44761" lon="6.05496">
        <ele>362.39999389648</ele>
        <time>2015-12-16T14:40:05Z</time>
      </trkpt>
      <trkpt lat="43.44761" lon="6.05497">
        <ele>362.20001220703</ele>
        <time>2015-12-16T14:40:32Z</time>
      </trkpt>
      <trkpt lat="43.44761" lon="6.05497">
        <ele>362.39999389648</ele>
        <time>2015-12-16T14:40:36Z</time>
      </trkpt>
      <trkpt lat="43.44761" lon="6.05497">
        <ele>362.39999389648</ele>
        <time>2015-12-16T14:40:42Z</time>
      </trkpt>
      <trkpt lat="43.44761" lon="6.05497">
        <ele>362.20001220703</ele>
        <time>2015-12-16T14:41:00Z</time>
      </trkpt>
      <trkpt lat="43.44761" lon="6.05497">
        <ele>362.20001220703</ele>
        <time>2015-12-16T14:41:34Z</time>
      </trkpt>
      <trkpt lat="43.44761" lon="6.05497">
        <ele>362.20001220703</ele>
        <time>2015-12-16T14:41:43Z</time>
      </trkpt>
      <trkpt lat="43.44761" lon="6.05497">
        <ele>362.20001220703</ele>
        <time>2015-12-16T14:41:44Z</time>
      </trkpt>
      <trkpt lat="43.44761" lon="6.05497">
        <ele>362.39999389648</ele>
        <time>2015-12-16T14:41:46Z</time>
      </trkpt>
      <trkpt lat="43.44761" lon="6.05497">
        <ele>362.39999389648</ele>
        <time>2015-12-16T14:41:48Z</time>
      </trkpt>
      <trkpt lat="43.44761" lon="6.05497">
        <ele>362.39999389648</ele>
        <time>2015-12-16T14:41:52Z</time>
      </trkpt>
      <trkpt lat="43.44761" lon="6.05497">
        <ele>362.20001220703</ele>
        <time>2015-12-16T14:41:56Z</time>
      </trkpt>
      <trkpt lat="43.44761" lon="6.05497">
        <ele>362.20001220703</ele>
        <time>2015-12-16T14:41:58Z</time>
      </trkpt>
      <trkpt lat="43.44761" lon="6.05497">
        <ele>362.39999389648</ele>
        <time>2015-12-16T14:42:00Z</time>
      </trkpt>
      <trkpt lat="43.4476" lon="6.05498">
        <ele>362.39999389648</ele>
        <time>2015-12-16T14:42:02Z</time>
      </trkpt>
      <trkpt lat="43.4476" lon="6.05497">
        <ele>362.60000610352</ele>
        <time>2015-12-16T14:42:04Z</time>
      </trkpt>
      <trkpt lat="43.4476" lon="6.05498">
        <ele>362.60000610352</ele>
        <time>2015-12-16T14:42:06Z</time>
      </trkpt>
      <trkpt lat="43.4476" lon="6.05498">
        <ele>362.39999389648</ele>
        <time>2015-12-16T14:42:08Z</time>
      </trkpt>
      <trkpt lat="43.4476" lon="6.05498">
        <ele>362.39999389648</ele>
        <time>2015-12-16T14:42:11Z</time>
      </trkpt>
      <trkpt lat="43.4476" lon="6.05497">
        <ele>362.39999389648</ele>
        <time>2015-12-16T14:42:12Z</time>
      </trkpt>
      <trkpt lat="43.44761" lon="6.05498">
        <ele>362.39999389648</ele>
        <time>2015-12-16T14:42:14Z</time>
      </trkpt>
      <trkpt lat="43.44761" lon="6.05498">
        <ele>362.20001220703</ele>
        <time>2015-12-16T14:42:16Z</time>
      </trkpt>
      <trkpt lat="43.44761" lon="6.05499">
        <ele>362.39999389648</ele>
        <time>2015-12-16T14:42:20Z</time>
      </trkpt>
      <trkpt lat="43.44761" lon="6.05499">
        <ele>362.20001220703</ele>
        <time>2015-12-16T14:42:22Z</time>
      </trkpt>
      <trkpt lat="43.44761" lon="6.05499">
        <ele>362.39999389648</ele>
        <time>2015-12-16T14:42:24Z</time>
      </trkpt>
      <trkpt lat="43.44761" lon="6.05499">
        <ele>362.39999389648</ele>
        <time>2015-12-16T14:42:26Z</time>
      </trkpt>
      <trkpt lat="43.44761" lon="6.05499">
        <ele>362.39999389648</ele>
        <time>2015-12-16T14:42:28Z</time>
      </trkpt>
      <trkpt lat="43.44761" lon="6.05499">
        <ele>362.20001220703</ele>
        <time>2015-12-16T14:42:30Z</time>
      </trkpt>
      <trkpt lat="43.44761" lon="6.05499">
        <ele>362.20001220703</ele>
        <time>2015-12-16T14:42:32Z</time>
      </trkpt>
      <trkpt lat="43.44761" lon="6.05499">
        <ele>362.60000610352</ele>
        <time>2015-12-16T14:42:34Z</time>
      </trkpt>
      <trkpt lat="43.44761" lon="6.05499">
        <ele>362.60000610352</ele>
        <time>2015-12-16T14:42:36Z</time>
      </trkpt>
      <trkpt lat="43.44761" lon="6.05499">
        <ele>362.60000610352</ele>
        <time>2015-12-16T14:42:38Z</time>
      </trkpt>
      <trkpt lat="43.44761" lon="6.05499">
        <ele>362.60000610352</ele>
        <time>2015-12-16T14:42:40Z</time>
      </trkpt>
      <trkpt lat="43.44761" lon="6.05499">
        <ele>362.60000610352</ele>
        <time>2015-12-16T14:42:42Z</time>
      </trkpt>
      <trkpt lat="43.44761" lon="6.05499">
        <ele>362.60000610352</ele>
        <time>2015-12-16T14:42:44Z</time>
      </trkpt>
      <trkpt lat="43.44761" lon="6.05499">
        <ele>362.60000610352</ele>
        <time>2015-12-16T14:42:47Z</time>
      </trkpt>
      <trkpt lat="43.44761" lon="6.05499">
        <ele>362.39999389648</ele>
        <time>2015-12-16T14:42:56Z</time>
      </trkpt>
      <trkpt lat="43.44761" lon="6.05499">
        <ele>362.39999389648</ele>
        <time>2015-12-16T14:43:16Z</time>
      </trkpt>
      <trkpt lat="43.44761" lon="6.05499">
        <ele>362.20001220703</ele>
        <time>2015-12-16T14:43:20Z</time>
      </trkpt>
      <trkpt lat="43.44761" lon="6.05498">
        <ele>362.39999389648</ele>
        <time>2015-12-16T14:43:22Z</time>
      </trkpt>
      <trkpt lat="43.44761" lon="6.05498">
        <ele>362.20001220703</ele>
        <time>2015-12-16T14:43:24Z</time>
      </trkpt>
      <trkpt lat="43.44761" lon="6.05498">
        <ele>362.39999389648</ele>
        <time>2015-12-16T14:43:28Z</time>
      </trkpt>
      <trkpt lat="43.44761" lon="6.05498">
        <ele>362.39999389648</ele>
        <time>2015-12-16T14:43:30Z</time>
      </trkpt>
      <trkpt lat="43.44761" lon="6.05498">
        <ele>362.20001220703</ele>
        <time>2015-12-16T14:43:34Z</time>
      </trkpt>
      <trkpt lat="43.44761" lon="6.05498">
        <ele>362.20001220703</ele>
        <time>2015-12-16T14:44:08Z</time>
      </trkpt>
      <trkpt lat="43.44761" lon="6.05498">
        <ele>362.39999389648</ele>
        <time>2015-12-16T14:44:14Z</time>
      </trkpt>
      <trkpt lat="43.44761" lon="6.05498">
        <ele>362.20001220703</ele>
        <time>2015-12-16T14:44:18Z</time>
      </trkpt>
      <trkpt lat="43.44761" lon="6.05498">
        <ele>362.39999389648</ele>
        <time>2015-12-16T14:44:22Z</time>
      </trkpt>
      <trkpt lat="43.44761" lon="6.05498">
        <ele>362.39999389648</ele>
        <time>2015-12-16T14:44:24Z</time>
      </trkpt>
      <trkpt lat="43.44761" lon="6.05499">
        <ele>362.39999389648</ele>
        <time>2015-12-16T14:44:28Z</time>
      </trkpt>
      <trkpt lat="43.44761" lon="6.05502">
        <ele>362.39999389648</ele>
        <time>2015-12-16T14:44:30Z</time>
      </trkpt>
      <trkpt lat="43.44763" lon="6.05504">
        <ele>362.39999389648</ele>
        <time>2015-12-16T14:44:32Z</time>
      </trkpt>
      <trkpt lat="43.44765" lon="6.05507">
        <ele>362.20001220703</ele>
        <time>2015-12-16T14:44:34Z</time>
      </trkpt>
      <trkpt lat="43.44767" lon="6.05509">
        <ele>362.39999389648</ele>
        <time>2015-12-16T14:44:36Z</time>
      </trkpt>
      <trkpt lat="43.44768" lon="6.0551">
        <ele>362.60000610352</ele>
        <time>2015-12-16T14:44:37Z</time>
      </trkpt>
      <trkpt lat="43.44771" lon="6.05514">
        <ele>362.79998779297</ele>
        <time>2015-12-16T14:44:40Z</time>
      </trkpt>
      <trkpt lat="43.44774" lon="6.05517">
        <ele>362.79998779297</ele>
        <time>2015-12-16T14:44:42Z</time>
      </trkpt>
      <trkpt lat="43.44776" lon="6.05519">
        <ele>363.20001220703</ele>
        <time>2015-12-16T14:44:43Z</time>
      </trkpt>
      <trkpt lat="43.44777" lon="6.0552">
        <ele>363.20001220703</ele>
        <time>2015-12-16T14:44:44Z</time>
      </trkpt>
      <trkpt lat="43.44783" lon="6.05528">
        <ele>363.79998779297</ele>
        <time>2015-12-16T14:44:48Z</time>
      </trkpt>
      <trkpt lat="43.44785" lon="6.05529">
        <ele>364</ele>
        <time>2015-12-16T14:44:49Z</time>
      </trkpt>
      <trkpt lat="43.44786" lon="6.0553">
        <ele>364.20001220703</ele>
        <time>2015-12-16T14:44:50Z</time>
      </trkpt>
      <trkpt lat="43.44788" lon="6.05531">
        <ele>364.60000610352</ele>
        <time>2015-12-16T14:44:51Z</time>
      </trkpt>
      <trkpt lat="43.4479" lon="6.05532">
        <ele>364.39999389648</ele>
        <time>2015-12-16T14:44:52Z</time>
      </trkpt>
      <trkpt lat="43.44794" lon="6.05534">
        <ele>364.39999389648</ele>
        <time>2015-12-16T14:44:54Z</time>
      </trkpt>
      <trkpt lat="43.44796" lon="6.05536">
        <ele>364.60000610352</ele>
        <time>2015-12-16T14:44:55Z</time>
      </trkpt>
      <trkpt lat="43.44801" lon="6.05541">
        <ele>365.79998779297</ele>
        <time>2015-12-16T14:44:58Z</time>
      </trkpt>
      <trkpt lat="43.44804" lon="6.05544">
        <ele>367</ele>
        <time>2015-12-16T14:45:00Z</time>
      </trkpt>
      <trkpt lat="43.44808" lon="6.05546">
        <ele>367</ele>
        <time>2015-12-16T14:45:02Z</time>
      </trkpt>
      <trkpt lat="43.44812" lon="6.05547">
        <ele>366.79998779297</ele>
        <time>2015-12-16T14:45:04Z</time>
      </trkpt>
      <trkpt lat="43.44818" lon="6.05549">
        <ele>366.79998779297</ele>
        <time>2015-12-16T14:45:06Z</time>
      </trkpt>
      <trkpt lat="43.44823" lon="6.05551">
        <ele>366.39999389648</ele>
        <time>2015-12-16T14:45:08Z</time>
      </trkpt>
      <trkpt lat="43.44828" lon="6.05554">
        <ele>366.39999389648</ele>
        <time>2015-12-16T14:45:10Z</time>
      </trkpt>
      <trkpt lat="43.44833" lon="6.05558">
        <ele>366.60000610352</ele>
        <time>2015-12-16T14:45:12Z</time>
      </trkpt>
      <trkpt lat="43.44838" lon="6.05562">
        <ele>366.60000610352</ele>
        <time>2015-12-16T14:45:14Z</time>
      </trkpt>
      <trkpt lat="43.44843" lon="6.05564">
        <ele>367</ele>
        <time>2015-12-16T14:45:16Z</time>
      </trkpt>
      <trkpt lat="43.44847" lon="6.05562">
        <ele>367.39999389648</ele>
        <time>2015-12-16T14:45:18Z</time>
      </trkpt>
      <trkpt lat="43.44851" lon="6.05563">
        <ele>368</ele>
        <time>2015-12-16T14:45:20Z</time>
      </trkpt>
      <trkpt lat="43.44853" lon="6.05563">
        <ele>368.20001220703</ele>
        <time>2015-12-16T14:45:21Z</time>
      </trkpt>
      <trkpt lat="43.44856" lon="6.05565">
        <ele>368.60000610352</ele>
        <time>2015-12-16T14:45:23Z</time>
      </trkpt>
      <trkpt lat="43.44857" lon="6.05565">
        <ele>368.79998779297</ele>
        <time>2015-12-16T14:45:24Z</time>
      </trkpt>
      <trkpt lat="43.4486" lon="6.05568">
        <ele>369</ele>
        <time>2015-12-16T14:45:26Z</time>
      </trkpt>
      <trkpt lat="43.44862" lon="6.05571">
        <ele>369.60000610352</ele>
        <time>2015-12-16T14:45:29Z</time>
      </trkpt>
      <trkpt lat="43.44864" lon="6.05572">
        <ele>369.60000610352</ele>
        <time>2015-12-16T14:45:30Z</time>
      </trkpt>
      <trkpt lat="43.44865" lon="6.05574">
        <ele>370.20001220703</ele>
        <time>2015-12-16T14:45:32Z</time>
      </trkpt>
      <trkpt lat="43.44869" lon="6.0558">
        <ele>371</ele>
        <time>2015-12-16T14:45:36Z</time>
      </trkpt>
      <trkpt lat="43.44871" lon="6.05582">
        <ele>371</ele>
        <time>2015-12-16T14:45:38Z</time>
      </trkpt>
      <trkpt lat="43.44873" lon="6.05588">
        <ele>371.60000610352</ele>
        <time>2015-12-16T14:45:42Z</time>
      </trkpt>
      <trkpt lat="43.44875" lon="6.05589">
        <ele>371.79998779297</ele>
        <time>2015-12-16T14:45:44Z</time>
      </trkpt>
      <trkpt lat="43.44875" lon="6.0559">
        <ele>372</ele>
        <time>2015-12-16T14:45:45Z</time>
      </trkpt>
      <trkpt lat="43.44877" lon="6.05591">
        <ele>372.20001220703</ele>
        <time>2015-12-16T14:45:46Z</time>
      </trkpt>
      <trkpt lat="43.44879" lon="6.05594">
        <ele>372.39999389648</ele>
        <time>2015-12-16T14:45:48Z</time>
      </trkpt>
      <trkpt lat="43.4488" lon="6.05596">
        <ele>372.79998779297</ele>
        <time>2015-12-16T14:45:49Z</time>
      </trkpt>
      <trkpt lat="43.44881" lon="6.05596">
        <ele>373.20001220703</ele>
        <time>2015-12-16T14:45:50Z</time>
      </trkpt>
      <trkpt lat="43.44883" lon="6.05597">
        <ele>373.60000610352</ele>
        <time>2015-12-16T14:45:52Z</time>
      </trkpt>
      <trkpt lat="43.44885" lon="6.05597">
        <ele>373.79998779297</ele>
        <time>2015-12-16T14:45:53Z</time>
      </trkpt>
      <trkpt lat="43.44887" lon="6.05597">
        <ele>374</ele>
        <time>2015-12-16T14:45:54Z</time>
      </trkpt>
      <trkpt lat="43.4489" lon="6.05598">
        <ele>374.20001220703</ele>
        <time>2015-12-16T14:45:56Z</time>
      </trkpt>
      <trkpt lat="43.44891" lon="6.05598">
        <ele>374.20001220703</ele>
        <time>2015-12-16T14:45:57Z</time>
      </trkpt>
      <trkpt lat="43.44892" lon="6.05598">
        <ele>374.39999389648</ele>
        <time>2015-12-16T14:45:58Z</time>
      </trkpt>
      <trkpt lat="43.44894" lon="6.05598">
        <ele>374.79998779297</ele>
        <time>2015-12-16T14:46:00Z</time>
      </trkpt>
      <trkpt lat="43.44895" lon="6.05598">
        <ele>374.79998779297</ele>
        <time>2015-12-16T14:46:01Z</time>
      </trkpt>
      <trkpt lat="43.44896" lon="6.05597">
        <ele>374.79998779297</ele>
        <time>2015-12-16T14:46:02Z</time>
      </trkpt>
      <trkpt lat="43.44897" lon="6.05597">
        <ele>375</ele>
        <time>2015-12-16T14:46:03Z</time>
      </trkpt>
      <trkpt lat="43.44899" lon="6.05596">
        <ele>375</ele>
        <time>2015-12-16T14:46:04Z</time>
      </trkpt>
      <trkpt lat="43.44901" lon="6.05595">
        <ele>375.20001220703</ele>
        <time>2015-12-16T14:46:06Z</time>
      </trkpt>
      <trkpt lat="43.44903" lon="6.05593">
        <ele>375.39999389648</ele>
        <time>2015-12-16T14:46:08Z</time>
      </trkpt>
      <trkpt lat="43.4491" lon="6.05587">
        <ele>375.39999389648</ele>
        <time>2015-12-16T14:46:14Z</time>
      </trkpt>
      <trkpt lat="43.44914" lon="6.05582">
        <ele>375.60000610352</ele>
        <time>2015-12-16T14:46:18Z</time>
      </trkpt>
      <trkpt lat="43.44917" lon="6.05581">
        <ele>375.79998779297</ele>
        <time>2015-12-16T14:46:20Z</time>
      </trkpt>
      <trkpt lat="43.44918" lon="6.05578">
        <ele>375.79998779297</ele>
        <time>2015-12-16T14:46:22Z</time>
      </trkpt>
      <trkpt lat="43.44921" lon="6.05575">
        <ele>376.20001220703</ele>
        <time>2015-12-16T14:46:24Z</time>
      </trkpt>
      <trkpt lat="43.44921" lon="6.05574">
        <ele>376.39999389648</ele>
        <time>2015-12-16T14:46:25Z</time>
      </trkpt>
      <trkpt lat="43.44922" lon="6.05572">
        <ele>376.39999389648</ele>
        <time>2015-12-16T14:46:26Z</time>
      </trkpt>
      <trkpt lat="43.44924" lon="6.05569">
        <ele>376.39999389648</ele>
        <time>2015-12-16T14:46:28Z</time>
      </trkpt>
      <trkpt lat="43.44927" lon="6.05566">
        <ele>376.39999389648</ele>
        <time>2015-12-16T14:46:30Z</time>
      </trkpt>
      <trkpt lat="43.4493" lon="6.0556">
        <ele>376</ele>
        <time>2015-12-16T14:46:32Z</time>
      </trkpt>
      <trkpt lat="43.44933" lon="6.05555">
        <ele>376</ele>
        <time>2015-12-16T14:46:34Z</time>
      </trkpt>
      <trkpt lat="43.44934" lon="6.0555">
        <ele>376.20001220703</ele>
        <time>2015-12-16T14:46:36Z</time>
      </trkpt>
      <trkpt lat="43.44935" lon="6.0555">
        <ele>376.20001220703</ele>
        <time>2015-12-16T14:46:37Z</time>
      </trkpt>
      <trkpt lat="43.44936" lon="6.05548">
        <ele>376.20001220703</ele>
        <time>2015-12-16T14:46:38Z</time>
      </trkpt>
      <trkpt lat="43.44937" lon="6.05546">
        <ele>376.20001220703</ele>
        <time>2015-12-16T14:46:39Z</time>
      </trkpt>
      <trkpt lat="43.44938" lon="6.05544">
        <ele>376.20001220703</ele>
        <time>2015-12-16T14:46:40Z</time>
      </trkpt>
      <trkpt lat="43.44939" lon="6.05541">
        <ele>375.79998779297</ele>
        <time>2015-12-16T14:46:42Z</time>
      </trkpt>
      <trkpt lat="43.44941" lon="6.05537">
        <ele>376.20001220703</ele>
        <time>2015-12-16T14:46:44Z</time>
      </trkpt>
      <trkpt lat="43.44943" lon="6.05533">
        <ele>376.39999389648</ele>
        <time>2015-12-16T14:46:46Z</time>
      </trkpt>
      <trkpt lat="43.44945" lon="6.0553">
        <ele>376.60000610352</ele>
        <time>2015-12-16T14:46:48Z</time>
      </trkpt>
      <trkpt lat="43.44947" lon="6.05526">
        <ele>376.79998779297</ele>
        <time>2015-12-16T14:46:50Z</time>
      </trkpt>
      <trkpt lat="43.44951" lon="6.05519">
        <ele>377.39999389648</ele>
        <time>2015-12-16T14:46:54Z</time>
      </trkpt>
      <trkpt lat="43.44952" lon="6.05516">
        <ele>377.39999389648</ele>
        <time>2015-12-16T14:46:55Z</time>
      </trkpt>
      <trkpt lat="43.44953" lon="6.05512">
        <ele>378</ele>
        <time>2015-12-16T14:46:57Z</time>
      </trkpt>
      <trkpt lat="43.44954" lon="6.0551">
        <ele>378.20001220703</ele>
        <time>2015-12-16T14:46:58Z</time>
      </trkpt>
      <trkpt lat="43.44956" lon="6.05505">
        <ele>378.20001220703</ele>
        <time>2015-12-16T14:47:00Z</time>
      </trkpt>
      <trkpt lat="43.44958" lon="6.05501">
        <ele>378.20001220703</ele>
        <time>2015-12-16T14:47:02Z</time>
      </trkpt>
      <trkpt lat="43.44959" lon="6.05497">
        <ele>378.39999389648</ele>
        <time>2015-12-16T14:47:04Z</time>
      </trkpt>
      <trkpt lat="43.4496" lon="6.05495">
        <ele>378.39999389648</ele>
        <time>2015-12-16T14:47:05Z</time>
      </trkpt>
      <trkpt lat="43.44961" lon="6.05493">
        <ele>378.60000610352</ele>
        <time>2015-12-16T14:47:06Z</time>
      </trkpt>
      <trkpt lat="43.44963" lon="6.05489">
        <ele>378.60000610352</ele>
        <time>2015-12-16T14:47:08Z</time>
      </trkpt>
      <trkpt lat="43.44965" lon="6.05484">
        <ele>378.60000610352</ele>
        <time>2015-12-16T14:47:10Z</time>
      </trkpt>
      <trkpt lat="43.4497" lon="6.05472">
        <ele>378.39999389648</ele>
        <time>2015-12-16T14:47:14Z</time>
      </trkpt>
      <trkpt lat="43.44981" lon="6.05457">
        <ele>378.20001220703</ele>
        <time>2015-12-16T14:47:20Z</time>
      </trkpt>
      <trkpt lat="43.44983" lon="6.05455">
        <ele>378</ele>
        <time>2015-12-16T14:47:21Z</time>
      </trkpt>
      <trkpt lat="43.44989" lon="6.05448">
        <ele>377.60000610352</ele>
        <time>2015-12-16T14:47:24Z</time>
      </trkpt>
      <trkpt lat="43.44991" lon="6.05447">
        <ele>377.39999389648</ele>
        <time>2015-12-16T14:47:25Z</time>
      </trkpt>
      <trkpt lat="43.44993" lon="6.05447">
        <ele>377.60000610352</ele>
        <time>2015-12-16T14:47:26Z</time>
      </trkpt>
      <trkpt lat="43.44995" lon="6.05449">
        <ele>377.60000610352</ele>
        <time>2015-12-16T14:47:27Z</time>
      </trkpt>
      <trkpt lat="43.45001" lon="6.05454">
        <ele>377.39999389648</ele>
        <time>2015-12-16T14:47:30Z</time>
      </trkpt>
      <trkpt lat="43.45005" lon="6.05459">
        <ele>377.39999389648</ele>
        <time>2015-12-16T14:47:32Z</time>
      </trkpt>
      <trkpt lat="43.45007" lon="6.05461">
        <ele>377.39999389648</ele>
        <time>2015-12-16T14:47:33Z</time>
      </trkpt>
      <trkpt lat="43.45008" lon="6.05463">
        <ele>377.39999389648</ele>
        <time>2015-12-16T14:47:34Z</time>
      </trkpt>
      <trkpt lat="43.45011" lon="6.05466">
        <ele>377.39999389648</ele>
        <time>2015-12-16T14:47:36Z</time>
      </trkpt>
      <trkpt lat="43.45016" lon="6.05474">
        <ele>377.60000610352</ele>
        <time>2015-12-16T14:47:40Z</time>
      </trkpt>
      <trkpt lat="43.45018" lon="6.05478">
        <ele>378</ele>
        <time>2015-12-16T14:47:42Z</time>
      </trkpt>
      <trkpt lat="43.4502" lon="6.05481">
        <ele>377.79998779297</ele>
        <time>2015-12-16T14:47:44Z</time>
      </trkpt>
      <trkpt lat="43.45022" lon="6.05485">
        <ele>378.20001220703</ele>
        <time>2015-12-16T14:47:46Z</time>
      </trkpt>
      <trkpt lat="43.45024" lon="6.05488">
        <ele>378.60000610352</ele>
        <time>2015-12-16T14:47:48Z</time>
      </trkpt>
      <trkpt lat="43.45026" lon="6.0549">
        <ele>378.60000610352</ele>
        <time>2015-12-16T14:47:50Z</time>
      </trkpt>
      <trkpt lat="43.45029" lon="6.05493">
        <ele>379</ele>
        <time>2015-12-16T14:47:52Z</time>
      </trkpt>
      <trkpt lat="43.45031" lon="6.05501">
        <ele>379.79998779297</ele>
        <time>2015-12-16T14:47:56Z</time>
      </trkpt>
      <trkpt lat="43.4503" lon="6.05503">
        <ele>380</ele>
        <time>2015-12-16T14:47:57Z</time>
      </trkpt>
      <trkpt lat="43.45027" lon="6.05507">
        <ele>381</ele>
        <time>2015-12-16T14:48:00Z</time>
      </trkpt>
      <trkpt lat="43.45025" lon="6.05512">
        <ele>381.79998779297</ele>
        <time>2015-12-16T14:48:03Z</time>
      </trkpt>
      <trkpt lat="43.45024" lon="6.05517">
        <ele>382.39999389648</ele>
        <time>2015-12-16T14:48:06Z</time>
      </trkpt>
      <trkpt lat="43.45024" lon="6.05521">
        <ele>382.79998779297</ele>
        <time>2015-12-16T14:48:08Z</time>
      </trkpt>
      <trkpt lat="43.45028" lon="6.05529">
        <ele>384.39999389648</ele>
        <time>2015-12-16T14:48:14Z</time>
      </trkpt>
      <trkpt lat="43.4503" lon="6.05532">
        <ele>385.39999389648</ele>
        <time>2015-12-16T14:48:16Z</time>
      </trkpt>
      <trkpt lat="43.45034" lon="6.05534">
        <ele>386.20001220703</ele>
        <time>2015-12-16T14:48:20Z</time>
      </trkpt>
      <trkpt lat="43.45036" lon="6.05535">
        <ele>386.60000610352</ele>
        <time>2015-12-16T14:48:21Z</time>
      </trkpt>
      <trkpt lat="43.45036" lon="6.05535">
        <ele>386.79998779297</ele>
        <time>2015-12-16T14:48:22Z</time>
      </trkpt>
      <trkpt lat="43.45039" lon="6.05536">
        <ele>387.20001220703</ele>
        <time>2015-12-16T14:48:24Z</time>
      </trkpt>
      <trkpt lat="43.45041" lon="6.05537">
        <ele>387.60000610352</ele>
        <time>2015-12-16T14:48:26Z</time>
      </trkpt>
      <trkpt lat="43.45042" lon="6.05538">
        <ele>388</ele>
        <time>2015-12-16T14:48:27Z</time>
      </trkpt>
      <trkpt lat="43.45043" lon="6.05538">
        <ele>388</ele>
        <time>2015-12-16T14:48:28Z</time>
      </trkpt>
      <trkpt lat="43.45045" lon="6.05539">
        <ele>388.39999389648</ele>
        <time>2015-12-16T14:48:30Z</time>
      </trkpt>
      <trkpt lat="43.45046" lon="6.05539">
        <ele>388.60000610352</ele>
        <time>2015-12-16T14:48:31Z</time>
      </trkpt>
      <trkpt lat="43.45047" lon="6.05539">
        <ele>388.79998779297</ele>
        <time>2015-12-16T14:48:32Z</time>
      </trkpt>
      <trkpt lat="43.45049" lon="6.0554">
        <ele>389.39999389648</ele>
        <time>2015-12-16T14:48:34Z</time>
      </trkpt>
      <trkpt lat="43.45049" lon="6.05539">
        <ele>389.79998779297</ele>
        <time>2015-12-16T14:48:36Z</time>
      </trkpt>
      <trkpt lat="43.45049" lon="6.05539">
        <ele>389.60000610352</ele>
        <time>2015-12-16T14:48:38Z</time>
      </trkpt>
      <trkpt lat="43.45049" lon="6.05539">
        <ele>389.39999389648</ele>
        <time>2015-12-16T14:48:40Z</time>
      </trkpt>
      <trkpt lat="43.45049" lon="6.05539">
        <ele>389.79998779297</ele>
        <time>2015-12-16T14:48:42Z</time>
      </trkpt>
      <trkpt lat="43.45049" lon="6.05539">
        <ele>389.79998779297</ele>
        <time>2015-12-16T14:48:46Z</time>
      </trkpt>
      <trkpt lat="43.45049" lon="6.05539">
        <ele>389.79998779297</ele>
        <time>2015-12-16T14:48:48Z</time>
      </trkpt>
      <trkpt lat="43.4505" lon="6.05539">
        <ele>390</ele>
        <time>2015-12-16T14:48:50Z</time>
      </trkpt>
      <trkpt lat="43.45051" lon="6.05537">
        <ele>389.79998779297</ele>
        <time>2015-12-16T14:48:52Z</time>
      </trkpt>
      <trkpt lat="43.45052" lon="6.05537">
        <ele>390.20001220703</ele>
        <time>2015-12-16T14:48:54Z</time>
      </trkpt>
      <trkpt lat="43.45052" lon="6.05537">
        <ele>390.39999389648</ele>
        <time>2015-12-16T14:48:58Z</time>
      </trkpt>
      <trkpt lat="43.45052" lon="6.05537">
        <ele>390</ele>
        <time>2015-12-16T14:49:00Z</time>
      </trkpt>
      <trkpt lat="43.45052" lon="6.05537">
        <ele>390.20001220703</ele>
        <time>2015-12-16T14:49:04Z</time>
      </trkpt>
      <trkpt lat="43.45052" lon="6.05537">
        <ele>390.20001220703</ele>
        <time>2015-12-16T14:49:06Z</time>
      </trkpt>
      <trkpt lat="43.45052" lon="6.05537">
        <ele>390.20001220703</ele>
        <time>2015-12-16T14:49:08Z</time>
      </trkpt>
      <trkpt lat="43.45052" lon="6.05537">
        <ele>390.20001220703</ele>
        <time>2015-12-16T14:49:10Z</time>
      </trkpt>
      <trkpt lat="43.45052" lon="6.05537">
        <ele>390</ele>
        <time>2015-12-16T14:49:12Z</time>
      </trkpt>
      <trkpt lat="43.45052" lon="6.05537">
        <ele>390.20001220703</ele>
        <time>2015-12-16T14:49:14Z</time>
      </trkpt>
      <trkpt lat="43.45052" lon="6.05537">
        <ele>390.20001220703</ele>
        <time>2015-12-16T14:49:16Z</time>
      </trkpt>
      <trkpt lat="43.45052" lon="6.05537">
        <ele>390.20001220703</ele>
        <time>2015-12-16T14:49:20Z</time>
      </trkpt>
      <trkpt lat="43.45052" lon="6.05537">
        <ele>390</ele>
        <time>2015-12-16T14:49:22Z</time>
      </trkpt>
      <trkpt lat="43.45052" lon="6.05536">
        <ele>390</ele>
        <time>2015-12-16T14:49:26Z</time>
      </trkpt>
      <trkpt lat="43.45052" lon="6.05536">
        <ele>390.20001220703</ele>
        <time>2015-12-16T14:49:29Z</time>
      </trkpt>
      <trkpt lat="43.45052" lon="6.05536">
        <ele>390.39999389648</ele>
        <time>2015-12-16T14:49:42Z</time>
      </trkpt>
      <trkpt lat="43.45052" lon="6.05536">
        <ele>390.20001220703</ele>
        <time>2015-12-16T14:49:44Z</time>
      </trkpt>
      <trkpt lat="43.45052" lon="6.05536">
        <ele>390.20001220703</ele>
        <time>2015-12-16T14:49:50Z</time>
      </trkpt>
      <trkpt lat="43.45052" lon="6.05536">
        <ele>390.39999389648</ele>
        <time>2015-12-16T14:50:20Z</time>
      </trkpt>
      <trkpt lat="43.45052" lon="6.05536">
        <ele>390.39999389648</ele>
        <time>2015-12-16T14:50:23Z</time>
      </trkpt>
      <trkpt lat="43.45052" lon="6.05536">
        <ele>390.39999389648</ele>
        <time>2015-12-16T14:50:24Z</time>
      </trkpt>
      <trkpt lat="43.45052" lon="6.05536">
        <ele>390.20001220703</ele>
        <time>2015-12-16T14:50:26Z</time>
      </trkpt>
      <trkpt lat="43.45052" lon="6.05537">
        <ele>390.20001220703</ele>
        <time>2015-12-16T14:50:28Z</time>
      </trkpt>
      <trkpt lat="43.45052" lon="6.05537">
        <ele>390.20001220703</ele>
        <time>2015-12-16T14:50:30Z</time>
      </trkpt>
      <trkpt lat="43.45052" lon="6.05537">
        <ele>390.20001220703</ele>
        <time>2015-12-16T14:50:31Z</time>
      </trkpt>
      <trkpt lat="43.45052" lon="6.05537">
        <ele>390.39999389648</ele>
        <time>2015-12-16T14:50:32Z</time>
      </trkpt>
      <trkpt lat="43.45052" lon="6.05537">
        <ele>390.60000610352</ele>
        <time>2015-12-16T14:50:34Z</time>
      </trkpt>
      <trkpt lat="43.45052" lon="6.05537">
        <ele>390.39999389648</ele>
        <time>2015-12-16T14:50:35Z</time>
      </trkpt>
      <trkpt lat="43.45052" lon="6.05537">
        <ele>390.39999389648</ele>
        <time>2015-12-16T14:50:42Z</time>
      </trkpt>
      <trkpt lat="43.45052" lon="6.05537">
        <ele>390.39999389648</ele>
        <time>2015-12-16T14:50:46Z</time>
      </trkpt>
      <trkpt lat="43.45052" lon="6.05537">
        <ele>390.20001220703</ele>
        <time>2015-12-16T14:50:50Z</time>
      </trkpt>
      <trkpt lat="43.45052" lon="6.05537">
        <ele>390.20001220703</ele>
        <time>2015-12-16T14:50:54Z</time>
      </trkpt>
      <trkpt lat="43.45052" lon="6.05537">
        <ele>390</ele>
        <time>2015-12-16T14:50:56Z</time>
      </trkpt>
      <trkpt lat="43.45052" lon="6.05537">
        <ele>390</ele>
        <time>2015-12-16T14:50:58Z</time>
      </trkpt>
      <trkpt lat="43.45052" lon="6.05537">
        <ele>390</ele>
        <time>2015-12-16T14:51:00Z</time>
      </trkpt>
      <trkpt lat="43.45053" lon="6.05536">
        <ele>390</ele>
        <time>2015-12-16T14:51:04Z</time>
      </trkpt>
      <trkpt lat="43.45053" lon="6.05536">
        <ele>390.20001220703</ele>
        <time>2015-12-16T14:51:06Z</time>
      </trkpt>
      <trkpt lat="43.45053" lon="6.05536">
        <ele>390.20001220703</ele>
        <time>2015-12-16T14:51:08Z</time>
      </trkpt>
      <trkpt lat="43.45053" lon="6.05536">
        <ele>390.39999389648</ele>
        <time>2015-12-16T14:51:10Z</time>
      </trkpt>
      <trkpt lat="43.45053" lon="6.05536">
        <ele>390.39999389648</ele>
        <time>2015-12-16T14:51:12Z</time>
      </trkpt>
      <trkpt lat="43.45054" lon="6.05537">
        <ele>390.60000610352</ele>
        <time>2015-12-16T14:51:13Z</time>
      </trkpt>
      <trkpt lat="43.45056" lon="6.05537">
        <ele>390.60000610352</ele>
        <time>2015-12-16T14:51:14Z</time>
      </trkpt>
      <trkpt lat="43.45059" lon="6.05536">
        <ele>390.79998779297</ele>
        <time>2015-12-16T14:51:16Z</time>
      </trkpt>
      <trkpt lat="43.45062" lon="6.05537">
        <ele>391.60000610352</ele>
        <time>2015-12-16T14:51:18Z</time>
      </trkpt>
      <trkpt lat="43.45064" lon="6.05537">
        <ele>392.39999389648</ele>
        <time>2015-12-16T14:51:20Z</time>
      </trkpt>
      <trkpt lat="43.45065" lon="6.05537">
        <ele>392.60000610352</ele>
        <time>2015-12-16T14:51:21Z</time>
      </trkpt>
      <trkpt lat="43.45068" lon="6.05537">
        <ele>392.79998779297</ele>
        <time>2015-12-16T14:51:22Z</time>
      </trkpt>
      <trkpt lat="43.45069" lon="6.05537">
        <ele>393.20001220703</ele>
        <time>2015-12-16T14:51:23Z</time>
      </trkpt>
      <trkpt lat="43.4507" lon="6.05536">
        <ele>393.60000610352</ele>
        <time>2015-12-16T14:51:24Z</time>
      </trkpt>
      <trkpt lat="43.45074" lon="6.05536">
        <ele>393.60000610352</ele>
        <time>2015-12-16T14:51:26Z</time>
      </trkpt>
      <trkpt lat="43.45078" lon="6.05534">
        <ele>394.20001220703</ele>
        <time>2015-12-16T14:51:28Z</time>
      </trkpt>
      <trkpt lat="43.45082" lon="6.05534">
        <ele>395.39999389648</ele>
        <time>2015-12-16T14:51:31Z</time>
      </trkpt>
      <trkpt lat="43.45084" lon="6.05535">
        <ele>395.60000610352</ele>
        <time>2015-12-16T14:51:32Z</time>
      </trkpt>
      <trkpt lat="43.45086" lon="6.05535">
        <ele>396</ele>
        <time>2015-12-16T14:51:34Z</time>
      </trkpt>
      <trkpt lat="43.45089" lon="6.05535">
        <ele>396.60000610352</ele>
        <time>2015-12-16T14:51:36Z</time>
      </trkpt>
      <trkpt lat="43.45091" lon="6.05536">
        <ele>397</ele>
        <time>2015-12-16T14:51:38Z</time>
      </trkpt>
      <trkpt lat="43.45091" lon="6.05537">
        <ele>397.39999389648</ele>
        <time>2015-12-16T14:51:39Z</time>
      </trkpt>
      <trkpt lat="43.45091" lon="6.05536">
        <ele>397.60000610352</ele>
        <time>2015-12-16T14:51:40Z</time>
      </trkpt>
      <trkpt lat="43.45091" lon="6.05536">
        <ele>397.79998779297</ele>
        <time>2015-12-16T14:51:42Z</time>
      </trkpt>
      <trkpt lat="43.45091" lon="6.05537">
        <ele>397.79998779297</ele>
        <time>2015-12-16T14:51:44Z</time>
      </trkpt>
      <trkpt lat="43.45092" lon="6.05537">
        <ele>397.79998779297</ele>
        <time>2015-12-16T14:51:46Z</time>
      </trkpt>
      <trkpt lat="43.45092" lon="6.05536">
        <ele>397.79998779297</ele>
        <time>2015-12-16T14:51:47Z</time>
      </trkpt>
      <trkpt lat="43.45092" lon="6.05536">
        <ele>397.79998779297</ele>
        <time>2015-12-16T14:51:48Z</time>
      </trkpt>
      <trkpt lat="43.45094" lon="6.05536">
        <ele>398.39999389648</ele>
        <time>2015-12-16T14:51:50Z</time>
      </trkpt>
      <trkpt lat="43.45094" lon="6.05536">
        <ele>398.20001220703</ele>
        <time>2015-12-16T14:51:52Z</time>
      </trkpt>
      <trkpt lat="43.45094" lon="6.05536">
        <ele>398.39999389648</ele>
        <time>2015-12-16T14:51:54Z</time>
      </trkpt>
      <trkpt lat="43.45095" lon="6.05536">
        <ele>398.39999389648</ele>
        <time>2015-12-16T14:51:56Z</time>
      </trkpt>
      <trkpt lat="43.45094" lon="6.05536">
        <ele>398.60000610352</ele>
        <time>2015-12-16T14:51:58Z</time>
      </trkpt>
      <trkpt lat="43.45095" lon="6.05537">
        <ele>399</ele>
        <time>2015-12-16T14:52:00Z</time>
      </trkpt>
      <trkpt lat="43.45095" lon="6.05537">
        <ele>399</ele>
        <time>2015-12-16T14:52:01Z</time>
      </trkpt>
      <trkpt lat="43.45096" lon="6.05537">
        <ele>399</ele>
        <time>2015-12-16T14:52:02Z</time>
      </trkpt>
      <trkpt lat="43.45096" lon="6.05537">
        <ele>399.20001220703</ele>
        <time>2015-12-16T14:52:04Z</time>
      </trkpt>
      <trkpt lat="43.45097" lon="6.05538">
        <ele>399.20001220703</ele>
        <time>2015-12-16T14:52:06Z</time>
      </trkpt>
      <trkpt lat="43.45098" lon="6.05538">
        <ele>399.39999389648</ele>
        <time>2015-12-16T14:52:08Z</time>
      </trkpt>
      <trkpt lat="43.45098" lon="6.05538">
        <ele>399.39999389648</ele>
        <time>2015-12-16T14:52:09Z</time>
      </trkpt>
      <trkpt lat="43.45098" lon="6.05537">
        <ele>399.60000610352</ele>
        <time>2015-12-16T14:52:12Z</time>
      </trkpt>
      <trkpt lat="43.45098" lon="6.05538">
        <ele>399.79998779297</ele>
        <time>2015-12-16T14:52:15Z</time>
      </trkpt>
      <trkpt lat="43.45099" lon="6.05538">
        <ele>399.79998779297</ele>
        <time>2015-12-16T14:52:16Z</time>
      </trkpt>
      <trkpt lat="43.45099" lon="6.05538">
        <ele>399.79998779297</ele>
        <time>2015-12-16T14:52:18Z</time>
      </trkpt>
      <trkpt lat="43.45099" lon="6.05538">
        <ele>399.79998779297</ele>
        <time>2015-12-16T14:52:20Z</time>
      </trkpt>
      <trkpt lat="43.45099" lon="6.05538">
        <ele>399.79998779297</ele>
        <time>2015-12-16T14:52:22Z</time>
      </trkpt>
      <trkpt lat="43.45099" lon="6.05538">
        <ele>399.79998779297</ele>
        <time>2015-12-16T14:52:24Z</time>
      </trkpt>
      <trkpt lat="43.451" lon="6.05538">
        <ele>400</ele>
        <time>2015-12-16T14:52:26Z</time>
      </trkpt>
      <trkpt lat="43.45101" lon="6.05538">
        <ele>400.20001220703</ele>
        <time>2015-12-16T14:52:28Z</time>
      </trkpt>
      <trkpt lat="43.45102" lon="6.05538">
        <ele>400.20001220703</ele>
        <time>2015-12-16T14:52:29Z</time>
      </trkpt>
      <trkpt lat="43.45102" lon="6.05538">
        <ele>400.20001220703</ele>
        <time>2015-12-16T14:52:30Z</time>
      </trkpt>
      <trkpt lat="43.45103" lon="6.05538">
        <ele>400.39999389648</ele>
        <time>2015-12-16T14:52:31Z</time>
      </trkpt>
      <trkpt lat="43.45103" lon="6.05538">
        <ele>400.60000610352</ele>
        <time>2015-12-16T14:52:32Z</time>
      </trkpt>
      <trkpt lat="43.45103" lon="6.05538">
        <ele>400.39999389648</ele>
        <time>2015-12-16T14:52:36Z</time>
      </trkpt>
      <trkpt lat="43.45103" lon="6.05538">
        <ele>400.39999389648</ele>
        <time>2015-12-16T14:52:40Z</time>
      </trkpt>
      <trkpt lat="43.45103" lon="6.05538">
        <ele>400.60000610352</ele>
        <time>2015-12-16T14:52:42Z</time>
      </trkpt>
      <trkpt lat="43.45103" lon="6.05538">
        <ele>400.39999389648</ele>
        <time>2015-12-16T14:52:44Z</time>
      </trkpt>
      <trkpt lat="43.45103" lon="6.05538">
        <ele>400.60000610352</ele>
        <time>2015-12-16T14:52:47Z</time>
      </trkpt>
      <trkpt lat="43.45105" lon="6.05538">
        <ele>401</ele>
        <time>2015-12-16T14:52:48Z</time>
      </trkpt>
      <trkpt lat="43.45108" lon="6.05538">
        <ele>401.39999389648</ele>
        <time>2015-12-16T14:52:50Z</time>
      </trkpt>
      <trkpt lat="43.45109" lon="6.05537">
        <ele>401.60000610352</ele>
        <time>2015-12-16T14:52:51Z</time>
      </trkpt>
      <trkpt lat="43.4511" lon="6.05537">
        <ele>401.79998779297</ele>
        <time>2015-12-16T14:52:52Z</time>
      </trkpt>
      <trkpt lat="43.45114" lon="6.05536">
        <ele>402.20001220703</ele>
        <time>2015-12-16T14:52:54Z</time>
      </trkpt>
      <trkpt lat="43.45117" lon="6.05535">
        <ele>402</ele>
        <time>2015-12-16T14:52:56Z</time>
      </trkpt>
      <trkpt lat="43.4512" lon="6.05533">
        <ele>402.39999389648</ele>
        <time>2015-12-16T14:52:58Z</time>
      </trkpt>
      <trkpt lat="43.45123" lon="6.05532">
        <ele>403</ele>
        <time>2015-12-16T14:53:00Z</time>
      </trkpt>
      <trkpt lat="43.45126" lon="6.0553">
        <ele>403.20001220703</ele>
        <time>2015-12-16T14:53:02Z</time>
      </trkpt>
      <trkpt lat="43.4513" lon="6.05529">
        <ele>403</ele>
        <time>2015-12-16T14:53:04Z</time>
      </trkpt>
      <trkpt lat="43.45133" lon="6.05529">
        <ele>403.20001220703</ele>
        <time>2015-12-16T14:53:06Z</time>
      </trkpt>
      <trkpt lat="43.45137" lon="6.05528">
        <ele>404.20001220703</ele>
        <time>2015-12-16T14:53:08Z</time>
      </trkpt>
      <trkpt lat="43.45147" lon="6.05529">
        <ele>405.39999389648</ele>
        <time>2015-12-16T14:53:14Z</time>
      </trkpt>
      <trkpt lat="43.4515" lon="6.0553">
        <ele>405.39999389648</ele>
        <time>2015-12-16T14:53:16Z</time>
      </trkpt>
      <trkpt lat="43.45152" lon="6.0553">
        <ele>405.79998779297</ele>
        <time>2015-12-16T14:53:17Z</time>
      </trkpt>
      <trkpt lat="43.45153" lon="6.05531">
        <ele>406.60000610352</ele>
        <time>2015-12-16T14:53:18Z</time>
      </trkpt>
      <trkpt lat="43.45155" lon="6.05532">
        <ele>406.79998779297</ele>
        <time>2015-12-16T14:53:19Z</time>
      </trkpt>
      <trkpt lat="43.45157" lon="6.05533">
        <ele>407.60000610352</ele>
        <time>2015-12-16T14:53:22Z</time>
      </trkpt>
      <trkpt lat="43.45158" lon="6.05533">
        <ele>407.60000610352</ele>
        <time>2015-12-16T14:53:24Z</time>
      </trkpt>
      <trkpt lat="43.45158" lon="6.05533">
        <ele>407.79998779297</ele>
        <time>2015-12-16T14:53:28Z</time>
      </trkpt>
      <trkpt lat="43.45158" lon="6.05533">
        <ele>407.79998779297</ele>
        <time>2015-12-16T14:53:30Z</time>
      </trkpt>
      <trkpt lat="43.45158" lon="6.05532">
        <ele>407.60000610352</ele>
        <time>2015-12-16T14:53:32Z</time>
      </trkpt>
      <trkpt lat="43.45158" lon="6.05532">
        <ele>407.60000610352</ele>
        <time>2015-12-16T14:53:34Z</time>
      </trkpt>
      <trkpt lat="43.45158" lon="6.05532">
        <ele>407.60000610352</ele>
        <time>2015-12-16T14:53:36Z</time>
      </trkpt>
      <trkpt lat="43.45158" lon="6.05532">
        <ele>407.60000610352</ele>
        <time>2015-12-16T14:53:40Z</time>
      </trkpt>
      <trkpt lat="43.45158" lon="6.05532">
        <ele>407.60000610352</ele>
        <time>2015-12-16T14:53:46Z</time>
      </trkpt>
      <trkpt lat="43.45158" lon="6.05532">
        <ele>407.60000610352</ele>
        <time>2015-12-16T14:53:54Z</time>
      </trkpt>
      <trkpt lat="43.45158" lon="6.05532">
        <ele>407.60000610352</ele>
        <time>2015-12-16T14:53:56Z</time>
      </trkpt>
      <trkpt lat="43.45158" lon="6.05532">
        <ele>407.60000610352</ele>
        <time>2015-12-16T14:53:58Z</time>
      </trkpt>
      <trkpt lat="43.45158" lon="6.05533">
        <ele>407.79998779297</ele>
        <time>2015-12-16T14:54:00Z</time>
      </trkpt>
      <trkpt lat="43.45158" lon="6.05533">
        <ele>407.60000610352</ele>
        <time>2015-12-16T14:54:02Z</time>
      </trkpt>
      <trkpt lat="43.45158" lon="6.05533">
        <ele>407.79998779297</ele>
        <time>2015-12-16T14:54:06Z</time>
      </trkpt>
      <trkpt lat="43.45158" lon="6.05533">
        <ele>407.79998779297</ele>
        <time>2015-12-16T14:54:12Z</time>
      </trkpt>
      <trkpt lat="43.45158" lon="6.05533">
        <ele>407.60000610352</ele>
        <time>2015-12-16T14:54:14Z</time>
      </trkpt>
      <trkpt lat="43.45158" lon="6.05533">
        <ele>407.79998779297</ele>
        <time>2015-12-16T14:54:18Z</time>
      </trkpt>
      <trkpt lat="43.45158" lon="6.05533">
        <ele>407.79998779297</ele>
        <time>2015-12-16T14:54:38Z</time>
      </trkpt>
      <trkpt lat="43.45158" lon="6.05533">
        <ele>407.39999389648</ele>
        <time>2015-12-16T14:54:40Z</time>
      </trkpt>
      <trkpt lat="43.45158" lon="6.05533">
        <ele>407.20001220703</ele>
        <time>2015-12-16T14:54:44Z</time>
      </trkpt>
      <trkpt lat="43.45158" lon="6.05533">
        <ele>407.39999389648</ele>
        <time>2015-12-16T14:54:58Z</time>
      </trkpt>
      <trkpt lat="43.45158" lon="6.05533">
        <ele>407.60000610352</ele>
        <time>2015-12-16T14:55:02Z</time>
      </trkpt>
      <trkpt lat="43.45157" lon="6.05533">
        <ele>407.60000610352</ele>
        <time>2015-12-16T14:55:04Z</time>
      </trkpt>
      <trkpt lat="43.45157" lon="6.05533">
        <ele>407.60000610352</ele>
        <time>2015-12-16T14:55:06Z</time>
      </trkpt>
      <trkpt lat="43.45157" lon="6.05533">
        <ele>407.60000610352</ele>
        <time>2015-12-16T14:55:07Z</time>
      </trkpt>
      <trkpt lat="43.45157" lon="6.05533">
        <ele>407.60000610352</ele>
        <time>2015-12-16T14:55:08Z</time>
      </trkpt>
      <trkpt lat="43.45157" lon="6.05533">
        <ele>407.60000610352</ele>
        <time>2015-12-16T14:55:12Z</time>
      </trkpt>
      <trkpt lat="43.45158" lon="6.05533">
        <ele>407.60000610352</ele>
        <time>2015-12-16T14:55:14Z</time>
      </trkpt>
      <trkpt lat="43.45158" lon="6.05533">
        <ele>407.39999389648</ele>
        <time>2015-12-16T14:55:16Z</time>
      </trkpt>
      <trkpt lat="43.45158" lon="6.05533">
        <ele>407.60000610352</ele>
        <time>2015-12-16T14:55:18Z</time>
      </trkpt>
      <trkpt lat="43.45158" lon="6.05533">
        <ele>407.79998779297</ele>
        <time>2015-12-16T14:55:24Z</time>
      </trkpt>
      <trkpt lat="43.45158" lon="6.05533">
        <ele>407.39999389648</ele>
        <time>2015-12-16T14:55:30Z</time>
      </trkpt>
      <trkpt lat="43.45158" lon="6.05533">
        <ele>407.60000610352</ele>
        <time>2015-12-16T14:55:34Z</time>
      </trkpt>
      <trkpt lat="43.45158" lon="6.05533">
        <ele>407.60000610352</ele>
        <time>2015-12-16T14:55:36Z</time>
      </trkpt>
      <trkpt lat="43.45158" lon="6.05533">
        <ele>407.60000610352</ele>
        <time>2015-12-16T14:55:38Z</time>
      </trkpt>
      <trkpt lat="43.45159" lon="6.05533">
        <ele>407.39999389648</ele>
        <time>2015-12-16T14:55:42Z</time>
      </trkpt>
      <trkpt lat="43.45159" lon="6.05533">
        <ele>407.60000610352</ele>
        <time>2015-12-16T14:55:44Z</time>
      </trkpt>
      <trkpt lat="43.45159" lon="6.05532">
        <ele>407.39999389648</ele>
        <time>2015-12-16T14:55:46Z</time>
      </trkpt>
      <trkpt lat="43.45159" lon="6.05533">
        <ele>407.39999389648</ele>
        <time>2015-12-16T14:55:48Z</time>
      </trkpt>
      <trkpt lat="43.45159" lon="6.05533">
        <ele>407.60000610352</ele>
        <time>2015-12-16T14:55:50Z</time>
      </trkpt>
      <trkpt lat="43.45161" lon="6.05533">
        <ele>407.39999389648</ele>
        <time>2015-12-16T14:55:53Z</time>
      </trkpt>
      <trkpt lat="43.45162" lon="6.05532">
        <ele>407.39999389648</ele>
        <time>2015-12-16T14:55:54Z</time>
      </trkpt>
      <trkpt lat="43.45164" lon="6.05529">
        <ele>407.39999389648</ele>
        <time>2015-12-16T14:55:56Z</time>
      </trkpt>
      <trkpt lat="43.45168" lon="6.05525">
        <ele>407</ele>
        <time>2015-12-16T14:55:58Z</time>
      </trkpt>
      <trkpt lat="43.45173" lon="6.05519">
        <ele>407.20001220703</ele>
        <time>2015-12-16T14:56:00Z</time>
      </trkpt>
      <trkpt lat="43.45177" lon="6.05513">
        <ele>406.60000610352</ele>
        <time>2015-12-16T14:56:02Z</time>
      </trkpt>
      <trkpt lat="43.4518" lon="6.0551">
        <ele>406.39999389648</ele>
        <time>2015-12-16T14:56:03Z</time>
      </trkpt>
      <trkpt lat="43.45183" lon="6.05507">
        <ele>406</ele>
        <time>2015-12-16T14:56:04Z</time>
      </trkpt>
      <trkpt lat="43.45189" lon="6.055">
        <ele>405.60000610352</ele>
        <time>2015-12-16T14:56:06Z</time>
      </trkpt>
      <trkpt lat="43.45196" lon="6.05491">
        <ele>405.60000610352</ele>
        <time>2015-12-16T14:56:08Z</time>
      </trkpt>
      <trkpt lat="43.45204" lon="6.05483">
        <ele>405.20001220703</ele>
        <time>2015-12-16T14:56:10Z</time>
      </trkpt>
      <trkpt lat="43.45207" lon="6.05479">
        <ele>405.60000610352</ele>
        <time>2015-12-16T14:56:11Z</time>
      </trkpt>
      <trkpt lat="43.4521" lon="6.05475">
        <ele>405.20001220703</ele>
        <time>2015-12-16T14:56:12Z</time>
      </trkpt>
      <trkpt lat="43.45217" lon="6.05469">
        <ele>405.20001220703</ele>
        <time>2015-12-16T14:56:14Z</time>
      </trkpt>
      <trkpt lat="43.45225" lon="6.05463">
        <ele>405.39999389648</ele>
        <time>2015-12-16T14:56:16Z</time>
      </trkpt>
      <trkpt lat="43.45227" lon="6.05459">
        <ele>404.79998779297</ele>
        <time>2015-12-16T14:56:17Z</time>
      </trkpt>
      <trkpt lat="43.4523" lon="6.05454">
        <ele>404.60000610352</ele>
        <time>2015-12-16T14:56:18Z</time>
      </trkpt>
      <trkpt lat="43.45236" lon="6.05447">
        <ele>404.20001220703</ele>
        <time>2015-12-16T14:56:20Z</time>
      </trkpt>
      <trkpt lat="43.45239" lon="6.05446">
        <ele>403.79998779297</ele>
        <time>2015-12-16T14:56:21Z</time>
      </trkpt>
      <trkpt lat="43.45242" lon="6.05445">
        <ele>403.60000610352</ele>
        <time>2015-12-16T14:56:22Z</time>
      </trkpt>
      <trkpt lat="43.45246" lon="6.05447">
        <ele>403.39999389648</ele>
        <time>2015-12-16T14:56:24Z</time>
      </trkpt>
      <trkpt lat="43.45248" lon="6.05453">
        <ele>402.79998779297</ele>
        <time>2015-12-16T14:56:26Z</time>
      </trkpt>
      <trkpt lat="43.45247" lon="6.05464">
        <ele>401.79998779297</ele>
        <time>2015-12-16T14:56:28Z</time>
      </trkpt>
      <trkpt lat="43.45247" lon="6.05469">
        <ele>401.39999389648</ele>
        <time>2015-12-16T14:56:29Z</time>
      </trkpt>
      <trkpt lat="43.45246" lon="6.05476">
        <ele>401</ele>
        <time>2015-12-16T14:56:30Z</time>
      </trkpt>
      <trkpt lat="43.45244" lon="6.05488">
        <ele>400</ele>
        <time>2015-12-16T14:56:32Z</time>
      </trkpt>
      <trkpt lat="43.45242" lon="6.05501">
        <ele>398.79998779297</ele>
        <time>2015-12-16T14:56:34Z</time>
      </trkpt>
      <trkpt lat="43.4524" lon="6.05508">
        <ele>397.20001220703</ele>
        <time>2015-12-16T14:56:35Z</time>
      </trkpt>
      <trkpt lat="43.45237" lon="6.05523">
        <ele>398.39999389648</ele>
        <time>2015-12-16T14:56:37Z</time>
      </trkpt>
      <trkpt lat="43.45235" lon="6.05531">
        <ele>397</ele>
        <time>2015-12-16T14:56:38Z</time>
      </trkpt>
      <trkpt lat="43.45234" lon="6.05538">
        <ele>394.60000610352</ele>
        <time>2015-12-16T14:56:39Z</time>
      </trkpt>
      <trkpt lat="43.4523" lon="6.05559">
        <ele>393.60000610352</ele>
        <time>2015-12-16T14:56:42Z</time>
      </trkpt>
      <trkpt lat="43.45229" lon="6.05565">
        <ele>391</ele>
        <time>2015-12-16T14:56:43Z</time>
      </trkpt>
      <trkpt lat="43.45228" lon="6.05577">
        <ele>390</ele>
        <time>2015-12-16T14:56:45Z</time>
      </trkpt>
      <trkpt lat="43.45227" lon="6.05583">
        <ele>390</ele>
        <time>2015-12-16T14:56:46Z</time>
      </trkpt>
      <trkpt lat="43.45228" lon="6.05595">
        <ele>389</ele>
        <time>2015-12-16T14:56:48Z</time>
      </trkpt>
      <trkpt lat="43.45227" lon="6.05601">
        <ele>386.79998779297</ele>
        <time>2015-12-16T14:56:49Z</time>
      </trkpt>
      <trkpt lat="43.45227" lon="6.05607">
        <ele>385.79998779297</ele>
        <time>2015-12-16T14:56:50Z</time>
      </trkpt>
      <trkpt lat="43.45226" lon="6.05612">
        <ele>385.60000610352</ele>
        <time>2015-12-16T14:56:51Z</time>
      </trkpt>
      <trkpt lat="43.45226" lon="6.05618">
        <ele>385.20001220703</ele>
        <time>2015-12-16T14:56:52Z</time>
      </trkpt>
      <trkpt lat="43.45224" lon="6.05623">
        <ele>385.20001220703</ele>
        <time>2015-12-16T14:56:53Z</time>
      </trkpt>
      <trkpt lat="43.45223" lon="6.05629">
        <ele>384.20001220703</ele>
        <time>2015-12-16T14:56:54Z</time>
      </trkpt>
      <trkpt lat="43.4522" lon="6.05639">
        <ele>383</ele>
        <time>2015-12-16T14:56:56Z</time>
      </trkpt>
      <trkpt lat="43.45217" lon="6.0565">
        <ele>381.39999389648</ele>
        <time>2015-12-16T14:56:58Z</time>
      </trkpt>
      <trkpt lat="43.45216" lon="6.05656">
        <ele>380.39999389648</ele>
        <time>2015-12-16T14:56:59Z</time>
      </trkpt>
      <trkpt lat="43.45214" lon="6.05663">
        <ele>379.60000610352</ele>
        <time>2015-12-16T14:57:00Z</time>
      </trkpt>
      <trkpt lat="43.45211" lon="6.05669">
        <ele>379.20001220703</ele>
        <time>2015-12-16T14:57:01Z</time>
      </trkpt>
      <trkpt lat="43.45209" lon="6.05674">
        <ele>378.79998779297</ele>
        <time>2015-12-16T14:57:02Z</time>
      </trkpt>
      <trkpt lat="43.45206" lon="6.05678">
        <ele>377.79998779297</ele>
        <time>2015-12-16T14:57:03Z</time>
      </trkpt>
      <trkpt lat="43.45203" lon="6.05681">
        <ele>377.39999389648</ele>
        <time>2015-12-16T14:57:04Z</time>
      </trkpt>
      <trkpt lat="43.45195" lon="6.05686">
        <ele>376.79998779297</ele>
        <time>2015-12-16T14:57:06Z</time>
      </trkpt>
      <trkpt lat="43.45192" lon="6.05688">
        <ele>376.60000610352</ele>
        <time>2015-12-16T14:57:07Z</time>
      </trkpt>
      <trkpt lat="43.45188" lon="6.0569">
        <ele>376.20001220703</ele>
        <time>2015-12-16T14:57:08Z</time>
      </trkpt>
      <trkpt lat="43.45184" lon="6.05693">
        <ele>375.79998779297</ele>
        <time>2015-12-16T14:57:09Z</time>
      </trkpt>
      <trkpt lat="43.4518" lon="6.05696">
        <ele>375.79998779297</ele>
        <time>2015-12-16T14:57:10Z</time>
      </trkpt>
      <trkpt lat="43.45174" lon="6.05705">
        <ele>374</ele>
        <time>2015-12-16T14:57:12Z</time>
      </trkpt>
      <trkpt lat="43.45171" lon="6.0571">
        <ele>373.20001220703</ele>
        <time>2015-12-16T14:57:13Z</time>
      </trkpt>
      <trkpt lat="43.45169" lon="6.05716">
        <ele>373.39999389648</ele>
        <time>2015-12-16T14:57:14Z</time>
      </trkpt>
      <trkpt lat="43.4517" lon="6.05729">
        <ele>371.60000610352</ele>
        <time>2015-12-16T14:57:16Z</time>
      </trkpt>
      <trkpt lat="43.45171" lon="6.05734">
        <ele>370.39999389648</ele>
        <time>2015-12-16T14:57:17Z</time>
      </trkpt>
      <trkpt lat="43.45171" lon="6.0574">
        <ele>370</ele>
        <time>2015-12-16T14:57:18Z</time>
      </trkpt>
      <trkpt lat="43.4517" lon="6.05751">
        <ele>369.39999389648</ele>
        <time>2015-12-16T14:57:20Z</time>
      </trkpt>
      <trkpt lat="43.4517" lon="6.05757">
        <ele>368.60000610352</ele>
        <time>2015-12-16T14:57:21Z</time>
      </trkpt>
      <trkpt lat="43.45169" lon="6.05765">
        <ele>368</ele>
        <time>2015-12-16T14:57:22Z</time>
      </trkpt>
      <trkpt lat="43.45169" lon="6.05772">
        <ele>367</ele>
        <time>2015-12-16T14:57:23Z</time>
      </trkpt>
      <trkpt lat="43.45169" lon="6.05779">
        <ele>366</ele>
        <time>2015-12-16T14:57:24Z</time>
      </trkpt>
      <trkpt lat="43.45169" lon="6.05792">
        <ele>364</ele>
        <time>2015-12-16T14:57:26Z</time>
      </trkpt>
      <trkpt lat="43.45169" lon="6.05806">
        <ele>362.79998779297</ele>
        <time>2015-12-16T14:57:28Z</time>
      </trkpt>
      <trkpt lat="43.45169" lon="6.05813">
        <ele>361.79998779297</ele>
        <time>2015-12-16T14:57:29Z</time>
      </trkpt>
      <trkpt lat="43.45169" lon="6.05821">
        <ele>361.20001220703</ele>
        <time>2015-12-16T14:57:30Z</time>
      </trkpt>
      <trkpt lat="43.45169" lon="6.05859">
        <ele>357</ele>
        <time>2015-12-16T14:57:35Z</time>
      </trkpt>
      <trkpt lat="43.45169" lon="6.05868">
        <ele>355.20001220703</ele>
        <time>2015-12-16T14:57:36Z</time>
      </trkpt>
      <trkpt lat="43.4517" lon="6.05885">
        <ele>353.60000610352</ele>
        <time>2015-12-16T14:57:38Z</time>
      </trkpt>
      <trkpt lat="43.45171" lon="6.05893">
        <ele>351.39999389648</ele>
        <time>2015-12-16T14:57:39Z</time>
      </trkpt>
      <trkpt lat="43.45172" lon="6.05901">
        <ele>350.39999389648</ele>
        <time>2015-12-16T14:57:40Z</time>
      </trkpt>
      <trkpt lat="43.45173" lon="6.0591">
        <ele>349.20001220703</ele>
        <time>2015-12-16T14:57:41Z</time>
      </trkpt>
      <trkpt lat="43.45173" lon="6.05919">
        <ele>348.20001220703</ele>
        <time>2015-12-16T14:57:42Z</time>
      </trkpt>
      <trkpt lat="43.45173" lon="6.05939">
        <ele>348</ele>
        <time>2015-12-16T14:57:44Z</time>
      </trkpt>
      <trkpt lat="43.45173" lon="6.05956">
        <ele>346.20001220703</ele>
        <time>2015-12-16T14:57:46Z</time>
      </trkpt>
      <trkpt lat="43.45174" lon="6.05965">
        <ele>344.20001220703</ele>
        <time>2015-12-16T14:57:47Z</time>
      </trkpt>
      <trkpt lat="43.45173" lon="6.05974">
        <ele>344</ele>
        <time>2015-12-16T14:57:48Z</time>
      </trkpt>
      <trkpt lat="43.45172" lon="6.05993">
        <ele>344.39999389648</ele>
        <time>2015-12-16T14:57:50Z</time>
      </trkpt>
      <trkpt lat="43.45172" lon="6.06011">
        <ele>342.79998779297</ele>
        <time>2015-12-16T14:57:52Z</time>
      </trkpt>
      <trkpt lat="43.45173" lon="6.06018">
        <ele>341.60000610352</ele>
        <time>2015-12-16T14:57:53Z</time>
      </trkpt>
      <trkpt lat="43.45174" lon="6.06025">
        <ele>340.60000610352</ele>
        <time>2015-12-16T14:57:54Z</time>
      </trkpt>
      <trkpt lat="43.45176" lon="6.06031">
        <ele>339.79998779297</ele>
        <time>2015-12-16T14:57:55Z</time>
      </trkpt>
      <trkpt lat="43.45177" lon="6.06038">
        <ele>339</ele>
        <time>2015-12-16T14:57:56Z</time>
      </trkpt>
      <trkpt lat="43.45178" lon="6.06043">
        <ele>338.60000610352</ele>
        <time>2015-12-16T14:57:57Z</time>
      </trkpt>
      <trkpt lat="43.45179" lon="6.06048">
        <ele>338.39999389648</ele>
        <time>2015-12-16T14:57:58Z</time>
      </trkpt>
      <trkpt lat="43.4518" lon="6.06053">
        <ele>338</ele>
        <time>2015-12-16T14:57:59Z</time>
      </trkpt>
      <trkpt lat="43.45181" lon="6.06057">
        <ele>338</ele>
        <time>2015-12-16T14:58:00Z</time>
      </trkpt>
      <trkpt lat="43.45183" lon="6.06064">
        <ele>337</ele>
        <time>2015-12-16T14:58:02Z</time>
      </trkpt>
      <trkpt lat="43.45184" lon="6.06068">
        <ele>336.20001220703</ele>
        <time>2015-12-16T14:58:04Z</time>
      </trkpt>
      <trkpt lat="43.45183" lon="6.06069">
        <ele>335.79998779297</ele>
        <time>2015-12-16T14:58:06Z</time>
      </trkpt>
      <trkpt lat="43.45184" lon="6.06069">
        <ele>336</ele>
        <time>2015-12-16T14:58:08Z</time>
      </trkpt>
      <trkpt lat="43.45184" lon="6.06069">
        <ele>336</ele>
        <time>2015-12-16T14:58:10Z</time>
      </trkpt>
      <trkpt lat="43.45183" lon="6.06069">
        <ele>335.79998779297</ele>
        <time>2015-12-16T14:58:12Z</time>
      </trkpt>
      <trkpt lat="43.45183" lon="6.06069">
        <ele>335.79998779297</ele>
        <time>2015-12-16T14:58:14Z</time>
      </trkpt>
      <trkpt lat="43.45183" lon="6.06069">
        <ele>336</ele>
        <time>2015-12-16T14:58:16Z</time>
      </trkpt>
      <trkpt lat="43.45183" lon="6.06069">
        <ele>335.79998779297</ele>
        <time>2015-12-16T14:58:18Z</time>
      </trkpt>
      <trkpt lat="43.45184" lon="6.06069">
        <ele>336</ele>
        <time>2015-12-16T14:58:20Z</time>
      </trkpt>
      <trkpt lat="43.45184" lon="6.06069">
        <ele>336</ele>
        <time>2015-12-16T14:58:22Z</time>
      </trkpt>
      <trkpt lat="43.45184" lon="6.06069">
        <ele>335.79998779297</ele>
        <time>2015-12-16T14:58:26Z</time>
      </trkpt>
      <trkpt lat="43.45184" lon="6.0607">
        <ele>335.60000610352</ele>
        <time>2015-12-16T14:58:28Z</time>
      </trkpt>
      <trkpt lat="43.45184" lon="6.0607">
        <ele>335.79998779297</ele>
        <time>2015-12-16T14:58:30Z</time>
      </trkpt>
      <trkpt lat="43.45183" lon="6.06071">
        <ele>335.79998779297</ele>
        <time>2015-12-16T14:58:32Z</time>
      </trkpt>
      <trkpt lat="43.45183" lon="6.06071">
        <ele>335.79998779297</ele>
        <time>2015-12-16T14:58:34Z</time>
      </trkpt>
      <trkpt lat="43.45183" lon="6.06071">
        <ele>335.79998779297</ele>
        <time>2015-12-16T14:58:36Z</time>
      </trkpt>
      <trkpt lat="43.45183" lon="6.06071">
        <ele>335.79998779297</ele>
        <time>2015-12-16T14:58:38Z</time>
      </trkpt>
      <trkpt lat="43.45183" lon="6.06071">
        <ele>335.60000610352</ele>
        <time>2015-12-16T14:58:42Z</time>
      </trkpt>
      <trkpt lat="43.45183" lon="6.06071">
        <ele>335.79998779297</ele>
        <time>2015-12-16T14:58:50Z</time>
      </trkpt>
      <trkpt lat="43.45183" lon="6.06071">
        <ele>335.60000610352</ele>
        <time>2015-12-16T14:59:02Z</time>
      </trkpt>
      <trkpt lat="43.45183" lon="6.06071">
        <ele>335.79998779297</ele>
        <time>2015-12-16T14:59:06Z</time>
      </trkpt>
      <trkpt lat="43.45183" lon="6.06071">
        <ele>335.60000610352</ele>
        <time>2015-12-16T14:59:10Z</time>
      </trkpt>
      <trkpt lat="43.45183" lon="6.06071">
        <ele>335.79998779297</ele>
        <time>2015-12-16T14:59:16Z</time>
      </trkpt>
      <trkpt lat="43.45184" lon="6.06071">
        <ele>335.79998779297</ele>
        <time>2015-12-16T14:59:18Z</time>
      </trkpt>
      <trkpt lat="43.45183" lon="6.0607">
        <ele>335.79998779297</ele>
        <time>2015-12-16T14:59:20Z</time>
      </trkpt>
      <trkpt lat="43.45183" lon="6.0607">
        <ele>335.60000610352</ele>
        <time>2015-12-16T14:59:22Z</time>
      </trkpt>
      <trkpt lat="43.45183" lon="6.0607">
        <ele>335.60000610352</ele>
        <time>2015-12-16T14:59:24Z</time>
      </trkpt>
      <trkpt lat="43.45183" lon="6.06071">
        <ele>335.60000610352</ele>
        <time>2015-12-16T14:59:26Z</time>
      </trkpt>
      <trkpt lat="43.45183" lon="6.06071">
        <ele>335.60000610352</ele>
        <time>2015-12-16T14:59:28Z</time>
      </trkpt>
      <trkpt lat="43.45183" lon="6.0607">
        <ele>335.60000610352</ele>
        <time>2015-12-16T14:59:34Z</time>
      </trkpt>
      <trkpt lat="43.45183" lon="6.0607">
        <ele>335.79998779297</ele>
        <time>2015-12-16T14:59:36Z</time>
      </trkpt>
      <trkpt lat="43.45183" lon="6.0607">
        <ele>335.60000610352</ele>
        <time>2015-12-16T14:59:42Z</time>
      </trkpt>
      <trkpt lat="43.45183" lon="6.0607">
        <ele>335.60000610352</ele>
        <time>2015-12-16T14:59:46Z</time>
      </trkpt>
      <trkpt lat="43.45183" lon="6.06071">
        <ele>335.60000610352</ele>
        <time>2015-12-16T14:59:48Z</time>
      </trkpt>
      <trkpt lat="43.45183" lon="6.06071">
        <ele>335.60000610352</ele>
        <time>2015-12-16T14:59:50Z</time>
      </trkpt>
      <trkpt lat="43.45183" lon="6.0607">
        <ele>335.60000610352</ele>
        <time>2015-12-16T14:59:52Z</time>
      </trkpt>
      <trkpt lat="43.45183" lon="6.06068">
        <ele>335.79998779297</ele>
        <time>2015-12-16T14:59:54Z</time>
      </trkpt>
      <trkpt lat="43.45183" lon="6.06066">
        <ele>336.39999389648</ele>
        <time>2015-12-16T14:59:56Z</time>
      </trkpt>
      <trkpt lat="43.45182" lon="6.06063">
        <ele>336.60000610352</ele>
        <time>2015-12-16T14:59:58Z</time>
      </trkpt>
      <trkpt lat="43.45182" lon="6.06062">
        <ele>337</ele>
        <time>2015-12-16T15:00:00Z</time>
      </trkpt>
      <trkpt lat="43.45181" lon="6.06054">
        <ele>337.60000610352</ele>
        <time>2015-12-16T15:00:04Z</time>
      </trkpt>
      <trkpt lat="43.45179" lon="6.0605">
        <ele>337.79998779297</ele>
        <time>2015-12-16T15:00:06Z</time>
      </trkpt>
      <trkpt lat="43.45179" lon="6.06048">
        <ele>338.39999389648</ele>
        <time>2015-12-16T15:00:07Z</time>
      </trkpt>
      <trkpt lat="43.45178" lon="6.06046">
        <ele>338.39999389648</ele>
        <time>2015-12-16T15:00:08Z</time>
      </trkpt>
      <trkpt lat="43.45177" lon="6.06044">
        <ele>338.20001220703</ele>
        <time>2015-12-16T15:00:09Z</time>
      </trkpt>
      <trkpt lat="43.45177" lon="6.06042">
        <ele>338.60000610352</ele>
        <time>2015-12-16T15:00:10Z</time>
      </trkpt>
      <trkpt lat="43.45176" lon="6.06038">
        <ele>339</ele>
        <time>2015-12-16T15:00:12Z</time>
      </trkpt>
      <trkpt lat="43.45175" lon="6.06033">
        <ele>339.20001220703</ele>
        <time>2015-12-16T15:00:14Z</time>
      </trkpt>
      <trkpt lat="43.45174" lon="6.06028">
        <ele>339.39999389648</ele>
        <time>2015-12-16T15:00:16Z</time>
      </trkpt>
      <trkpt lat="43.45174" lon="6.06022">
        <ele>339.39999389648</ele>
        <time>2015-12-16T15:00:18Z</time>
      </trkpt>
      <trkpt lat="43.45174" lon="6.06017">
        <ele>340</ele>
        <time>2015-12-16T15:00:20Z</time>
      </trkpt>
      <trkpt lat="43.45173" lon="6.06011">
        <ele>340.20001220703</ele>
        <time>2015-12-16T15:00:22Z</time>
      </trkpt>
      <trkpt lat="43.45174" lon="6.06007">
        <ele>340.39999389648</ele>
        <time>2015-12-16T15:00:24Z</time>
      </trkpt>
      <trkpt lat="43.45176" lon="6.05998">
        <ele>340.79998779297</ele>
        <time>2015-12-16T15:00:28Z</time>
      </trkpt>
      <trkpt lat="43.45176" lon="6.05994">
        <ele>341</ele>
        <time>2015-12-16T15:00:30Z</time>
      </trkpt>
      <trkpt lat="43.45176" lon="6.0599">
        <ele>341.39999389648</ele>
        <time>2015-12-16T15:00:32Z</time>
      </trkpt>
      <trkpt lat="43.45176" lon="6.05984">
        <ele>341.79998779297</ele>
        <time>2015-12-16T15:00:35Z</time>
      </trkpt>
      <trkpt lat="43.45176" lon="6.05981">
        <ele>342</ele>
        <time>2015-12-16T15:00:36Z</time>
      </trkpt>
      <trkpt lat="43.45177" lon="6.05977">
        <ele>342.39999389648</ele>
        <time>2015-12-16T15:00:38Z</time>
      </trkpt>
      <trkpt lat="43.45176" lon="6.05965">
        <ele>343</ele>
        <time>2015-12-16T15:00:44Z</time>
      </trkpt>
      <trkpt lat="43.45176" lon="6.05961">
        <ele>343.60000610352</ele>
        <time>2015-12-16T15:00:46Z</time>
      </trkpt>
      <trkpt lat="43.45176" lon="6.05959">
        <ele>344</ele>
        <time>2015-12-16T15:00:47Z</time>
      </trkpt>
      <trkpt lat="43.45176" lon="6.05957">
        <ele>344.20001220703</ele>
        <time>2015-12-16T15:00:48Z</time>
      </trkpt>
      <trkpt lat="43.45174" lon="6.05954">
        <ele>344.60000610352</ele>
        <time>2015-12-16T15:00:50Z</time>
      </trkpt>
      <trkpt lat="43.45174" lon="6.05949">
        <ele>344.60000610352</ele>
        <time>2015-12-16T15:00:52Z</time>
      </trkpt>
      <trkpt lat="43.45173" lon="6.05944">
        <ele>345.20001220703</ele>
        <time>2015-12-16T15:00:54Z</time>
      </trkpt>
      <trkpt lat="43.45174" lon="6.0594">
        <ele>345.60000610352</ele>
        <time>2015-12-16T15:00:56Z</time>
      </trkpt>
      <trkpt lat="43.45174" lon="6.05937">
        <ele>345.79998779297</ele>
        <time>2015-12-16T15:00:58Z</time>
      </trkpt>
      <trkpt lat="43.45174" lon="6.05933">
        <ele>346.20001220703</ele>
        <time>2015-12-16T15:01:00Z</time>
      </trkpt>
      <trkpt lat="43.45174" lon="6.0593">
        <ele>346.39999389648</ele>
        <time>2015-12-16T15:01:02Z</time>
      </trkpt>
      <trkpt lat="43.45174" lon="6.05926">
        <ele>346.60000610352</ele>
        <time>2015-12-16T15:01:04Z</time>
      </trkpt>
      <trkpt lat="43.45175" lon="6.05922">
        <ele>347</ele>
        <time>2015-12-16T15:01:06Z</time>
      </trkpt>
      <trkpt lat="43.45176" lon="6.05916">
        <ele>348</ele>
        <time>2015-12-16T15:01:10Z</time>
      </trkpt>
      <trkpt lat="43.45177" lon="6.05909">
        <ele>348.60000610352</ele>
        <time>2015-12-16T15:01:14Z</time>
      </trkpt>
      <trkpt lat="43.45176" lon="6.05903">
        <ele>349.20001220703</ele>
        <time>2015-12-16T15:01:18Z</time>
      </trkpt>
      <trkpt lat="43.45176" lon="6.05898">
        <ele>350</ele>
        <time>2015-12-16T15:01:22Z</time>
      </trkpt>
      <trkpt lat="43.45175" lon="6.05895">
        <ele>350.20001220703</ele>
        <time>2015-12-16T15:01:24Z</time>
      </trkpt>
      <trkpt lat="43.45175" lon="6.05892">
        <ele>350.39999389648</ele>
        <time>2015-12-16T15:01:26Z</time>
      </trkpt>
      <trkpt lat="43.45175" lon="6.05891">
        <ele>350.60000610352</ele>
        <time>2015-12-16T15:01:27Z</time>
      </trkpt>
      <trkpt lat="43.45175" lon="6.05889">
        <ele>350.79998779297</ele>
        <time>2015-12-16T15:01:28Z</time>
      </trkpt>
      <trkpt lat="43.45175" lon="6.05886">
        <ele>351.20001220703</ele>
        <time>2015-12-16T15:01:30Z</time>
      </trkpt>
      <trkpt lat="43.45175" lon="6.05885">
        <ele>351.20001220703</ele>
        <time>2015-12-16T15:01:31Z</time>
      </trkpt>
      <trkpt lat="43.45175" lon="6.05883">
        <ele>351.39999389648</ele>
        <time>2015-12-16T15:01:32Z</time>
      </trkpt>
      <trkpt lat="43.45175" lon="6.05882">
        <ele>351.60000610352</ele>
        <time>2015-12-16T15:01:33Z</time>
      </trkpt>
      <trkpt lat="43.45174" lon="6.05877">
        <ele>352.20001220703</ele>
        <time>2015-12-16T15:01:36Z</time>
      </trkpt>
      <trkpt lat="43.45173" lon="6.05875">
        <ele>352.60000610352</ele>
        <time>2015-12-16T15:01:38Z</time>
      </trkpt>
      <trkpt lat="43.45173" lon="6.05873">
        <ele>352.79998779297</ele>
        <time>2015-12-16T15:01:39Z</time>
      </trkpt>
      <trkpt lat="43.45172" lon="6.05869">
        <ele>353</ele>
        <time>2015-12-16T15:01:42Z</time>
      </trkpt>
      <trkpt lat="43.45172" lon="6.05865">
        <ele>353.39999389648</ele>
        <time>2015-12-16T15:01:44Z</time>
      </trkpt>
      <trkpt lat="43.45172" lon="6.05863">
        <ele>354</ele>
        <time>2015-12-16T15:01:46Z</time>
      </trkpt>
      <trkpt lat="43.45172" lon="6.05857">
        <ele>354.79998779297</ele>
        <time>2015-12-16T15:01:50Z</time>
      </trkpt>
      <trkpt lat="43.45171" lon="6.05855">
        <ele>355.20001220703</ele>
        <time>2015-12-16T15:01:52Z</time>
      </trkpt>
      <trkpt lat="43.45171" lon="6.05854">
        <ele>355.20001220703</ele>
        <time>2015-12-16T15:01:56Z</time>
      </trkpt>
      <trkpt lat="43.45171" lon="6.05854">
        <ele>355.39999389648</ele>
        <time>2015-12-16T15:01:58Z</time>
      </trkpt>
      <trkpt lat="43.45171" lon="6.05854">
        <ele>355.39999389648</ele>
        <time>2015-12-16T15:01:59Z</time>
      </trkpt>
      <trkpt lat="43.45171" lon="6.05853">
        <ele>355.39999389648</ele>
        <time>2015-12-16T15:02:00Z</time>
      </trkpt>
      <trkpt lat="43.45172" lon="6.05852">
        <ele>355.60000610352</ele>
        <time>2015-12-16T15:02:02Z</time>
      </trkpt>
      <trkpt lat="43.45172" lon="6.05851">
        <ele>355.79998779297</ele>
        <time>2015-12-16T15:02:04Z</time>
      </trkpt>
      <trkpt lat="43.45173" lon="6.05849">
        <ele>355.79998779297</ele>
        <time>2015-12-16T15:02:06Z</time>
      </trkpt>
      <trkpt lat="43.45173" lon="6.05848">
        <ele>355.79998779297</ele>
        <time>2015-12-16T15:02:08Z</time>
      </trkpt>
      <trkpt lat="43.45173" lon="6.05849">
        <ele>355.79998779297</ele>
        <time>2015-12-16T15:02:10Z</time>
      </trkpt>
      <trkpt lat="43.45173" lon="6.05848">
        <ele>355.60000610352</ele>
        <time>2015-12-16T15:02:11Z</time>
      </trkpt>
      <trkpt lat="43.45172" lon="6.05848">
        <ele>355.39999389648</ele>
        <time>2015-12-16T15:02:12Z</time>
      </trkpt>
      <trkpt lat="43.45172" lon="6.05848">
        <ele>355.60000610352</ele>
        <time>2015-12-16T15:02:14Z</time>
      </trkpt>
      <trkpt lat="43.45172" lon="6.05848">
        <ele>355.39999389648</ele>
        <time>2015-12-16T15:02:18Z</time>
      </trkpt>
      <trkpt lat="43.45172" lon="6.05848">
        <ele>355.39999389648</ele>
        <time>2015-12-16T15:02:26Z</time>
      </trkpt>
      <trkpt lat="43.45172" lon="6.05848">
        <ele>355.20001220703</ele>
        <time>2015-12-16T15:02:36Z</time>
      </trkpt>
      <trkpt lat="43.45172" lon="6.05848">
        <ele>355.20001220703</ele>
        <time>2015-12-16T15:02:40Z</time>
      </trkpt>
      <trkpt lat="43.45172" lon="6.05848">
        <ele>355.39999389648</ele>
        <time>2015-12-16T15:02:44Z</time>
      </trkpt>
      <trkpt lat="43.45172" lon="6.05848">
        <ele>355.39999389648</ele>
        <time>2015-12-16T15:02:55Z</time>
      </trkpt>
      <trkpt lat="43.45172" lon="6.05848">
        <ele>355.39999389648</ele>
        <time>2015-12-16T15:03:16Z</time>
      </trkpt>
      <trkpt lat="43.45172" lon="6.05848">
        <ele>355.20001220703</ele>
        <time>2015-12-16T15:03:30Z</time>
      </trkpt>
      <trkpt lat="43.45172" lon="6.05848">
        <ele>355.20001220703</ele>
        <time>2015-12-16T15:03:50Z</time>
      </trkpt>
      <trkpt lat="43.45172" lon="6.05848">
        <ele>355</ele>
        <time>2015-12-16T15:04:32Z</time>
      </trkpt>
      <trkpt lat="43.45172" lon="6.05848">
        <ele>355.20001220703</ele>
        <time>2015-12-16T15:04:52Z</time>
      </trkpt>
      <trkpt lat="43.45172" lon="6.05848">
        <ele>355</ele>
        <time>2015-12-16T15:04:56Z</time>
      </trkpt>
      <trkpt lat="43.45172" lon="6.05848">
        <ele>355</ele>
        <time>2015-12-16T15:05:04Z</time>
      </trkpt>
      <trkpt lat="43.45172" lon="6.05848">
        <ele>355</ele>
        <time>2015-12-16T15:05:20Z</time>
      </trkpt>
      <trkpt lat="43.45172" lon="6.05848">
        <ele>355.20001220703</ele>
        <time>2015-12-16T15:05:28Z</time>
      </trkpt>
      <trkpt lat="43.45172" lon="6.05848">
        <ele>355.39999389648</ele>
        <time>2015-12-16T15:05:38Z</time>
      </trkpt>
      <trkpt lat="43.45172" lon="6.05848">
        <ele>355.39999389648</ele>
        <time>2015-12-16T15:05:42Z</time>
      </trkpt>
      <trkpt lat="43.45172" lon="6.05848">
        <ele>355.39999389648</ele>
        <time>2015-12-16T15:05:44Z</time>
      </trkpt>
      <trkpt lat="43.45172" lon="6.05848">
        <ele>355.20001220703</ele>
        <time>2015-12-16T15:05:50Z</time>
      </trkpt>
      <trkpt lat="43.45172" lon="6.05847">
        <ele>355.20001220703</ele>
        <time>2015-12-16T15:05:58Z</time>
      </trkpt>
      <trkpt lat="43.45172" lon="6.05848">
        <ele>355</ele>
        <time>2015-12-16T15:06:00Z</time>
      </trkpt>
      <trkpt lat="43.45172" lon="6.05848">
        <ele>355.20001220703</ele>
        <time>2015-12-16T15:06:06Z</time>
      </trkpt>
      <trkpt lat="43.45172" lon="6.05848">
        <ele>355.20001220703</ele>
        <time>2015-12-16T15:06:14Z</time>
      </trkpt>
      <trkpt lat="43.45172" lon="6.05848">
        <ele>355.20001220703</ele>
        <time>2015-12-16T15:06:26Z</time>
      </trkpt>
      <trkpt lat="43.45172" lon="6.05848">
        <ele>355.20001220703</ele>
        <time>2015-12-16T15:06:32Z</time>
      </trkpt>
      <trkpt lat="43.45172" lon="6.05848">
        <ele>355.39999389648</ele>
        <time>2015-12-16T15:06:44Z</time>
      </trkpt>
      <trkpt lat="43.45172" lon="6.05848">
        <ele>355.20001220703</ele>
        <time>2015-12-16T15:06:49Z</time>
      </trkpt>
      <trkpt lat="43.45172" lon="6.05848">
        <ele>355.39999389648</ele>
        <time>2015-12-16T15:06:58Z</time>
      </trkpt>
      <trkpt lat="43.45172" lon="6.05848">
        <ele>355.39999389648</ele>
        <time>2015-12-16T15:07:02Z</time>
      </trkpt>
      <trkpt lat="43.45172" lon="6.05848">
        <ele>355.39999389648</ele>
        <time>2015-12-16T15:07:08Z</time>
      </trkpt>
      <trkpt lat="43.45172" lon="6.05848">
        <ele>355.39999389648</ele>
        <time>2015-12-16T15:07:16Z</time>
      </trkpt>
      <trkpt lat="43.45172" lon="6.05848">
        <ele>355.20001220703</ele>
        <time>2015-12-16T15:07:24Z</time>
      </trkpt>
      <trkpt lat="43.45172" lon="6.05848">
        <ele>355.20001220703</ele>
        <time>2015-12-16T15:07:36Z</time>
      </trkpt>
      <trkpt lat="43.45172" lon="6.05848">
        <ele>355</ele>
        <time>2015-12-16T15:07:50Z</time>
      </trkpt>
      <trkpt lat="43.45172" lon="6.05848">
        <ele>355.20001220703</ele>
        <time>2015-12-16T15:08:16Z</time>
      </trkpt>
      <trkpt lat="43.45172" lon="6.05848">
        <ele>355.20001220703</ele>
        <time>2015-12-16T15:08:20Z</time>
      </trkpt>
      <trkpt lat="43.45172" lon="6.05848">
        <ele>355</ele>
        <time>2015-12-16T15:08:30Z</time>
      </trkpt>
      <trkpt lat="43.45172" lon="6.05848">
        <ele>355</ele>
        <time>2015-12-16T15:08:34Z</time>
      </trkpt>
      <trkpt lat="43.45172" lon="6.05848">
        <ele>354.79998779297</ele>
        <time>2015-12-16T15:08:48Z</time>
      </trkpt>
      <trkpt lat="43.45172" lon="6.05848">
        <ele>355</ele>
        <time>2015-12-16T15:08:52Z</time>
      </trkpt>
      <trkpt lat="43.45172" lon="6.05848">
        <ele>354.79998779297</ele>
        <time>2015-12-16T15:09:00Z</time>
      </trkpt>
      <trkpt lat="43.45172" lon="6.05848">
        <ele>355</ele>
        <time>2015-12-16T15:09:08Z</time>
      </trkpt>
      <trkpt lat="43.45172" lon="6.05848">
        <ele>355</ele>
        <time>2015-12-16T15:09:10Z</time>
      </trkpt>
      <trkpt lat="43.45172" lon="6.05848">
        <ele>355</ele>
        <time>2015-12-16T15:09:14Z</time>
      </trkpt>
      <trkpt lat="43.45172" lon="6.05848">
        <ele>354.79998779297</ele>
        <time>2015-12-16T15:09:46Z</time>
      </trkpt>
      <trkpt lat="43.45172" lon="6.05848">
        <ele>354.79998779297</ele>
        <time>2015-12-16T15:09:56Z</time>
      </trkpt>
      <trkpt lat="43.45172" lon="6.05848">
        <ele>354.60000610352</ele>
        <time>2015-12-16T15:10:00Z</time>
      </trkpt>
      <trkpt lat="43.45172" lon="6.05848">
        <ele>354.79998779297</ele>
        <time>2015-12-16T15:10:02Z</time>
      </trkpt>
      <trkpt lat="43.45172" lon="6.05848">
        <ele>355</ele>
        <time>2015-12-16T15:10:04Z</time>
      </trkpt>
      <trkpt lat="43.45173" lon="6.0585">
        <ele>355</ele>
        <time>2015-12-16T15:10:06Z</time>
      </trkpt>
      <trkpt lat="43.45173" lon="6.05851">
        <ele>355</ele>
        <time>2015-12-16T15:10:07Z</time>
      </trkpt>
      <trkpt lat="43.45173" lon="6.05851">
        <ele>354.79998779297</ele>
        <time>2015-12-16T15:10:08Z</time>
      </trkpt>
      <trkpt lat="43.45174" lon="6.05854">
        <ele>354.79998779297</ele>
        <time>2015-12-16T15:10:10Z</time>
      </trkpt>
      <trkpt lat="43.45174" lon="6.05856">
        <ele>354.39999389648</ele>
        <time>2015-12-16T15:10:11Z</time>
      </trkpt>
      <trkpt lat="43.45174" lon="6.0586">
        <ele>354.20001220703</ele>
        <time>2015-12-16T15:10:12Z</time>
      </trkpt>
      <trkpt lat="43.45173" lon="6.05865">
        <ele>353.79998779297</ele>
        <time>2015-12-16T15:10:13Z</time>
      </trkpt>
      <trkpt lat="43.45174" lon="6.05871">
        <ele>353.60000610352</ele>
        <time>2015-12-16T15:10:14Z</time>
      </trkpt>
      <trkpt lat="43.45174" lon="6.05876">
        <ele>353.39999389648</ele>
        <time>2015-12-16T15:10:15Z</time>
      </trkpt>
      <trkpt lat="43.45175" lon="6.05881">
        <ele>352.60000610352</ele>
        <time>2015-12-16T15:10:16Z</time>
      </trkpt>
      <trkpt lat="43.45175" lon="6.05886">
        <ele>351.60000610352</ele>
        <time>2015-12-16T15:10:17Z</time>
      </trkpt>
      <trkpt lat="43.45175" lon="6.05891">
        <ele>351</ele>
        <time>2015-12-16T15:10:18Z</time>
      </trkpt>
      <trkpt lat="43.45176" lon="6.05896">
        <ele>350.20001220703</ele>
        <time>2015-12-16T15:10:19Z</time>
      </trkpt>
      <trkpt lat="43.45177" lon="6.05901">
        <ele>349.60000610352</ele>
        <time>2015-12-16T15:10:20Z</time>
      </trkpt>
      <trkpt lat="43.45177" lon="6.05911">
        <ele>348.79998779297</ele>
        <time>2015-12-16T15:10:22Z</time>
      </trkpt>
      <trkpt lat="43.45176" lon="6.05917">
        <ele>347.79998779297</ele>
        <time>2015-12-16T15:10:23Z</time>
      </trkpt>
      <trkpt lat="43.45177" lon="6.05922">
        <ele>347.20001220703</ele>
        <time>2015-12-16T15:10:24Z</time>
      </trkpt>
      <trkpt lat="43.45176" lon="6.05932">
        <ele>345.60000610352</ele>
        <time>2015-12-16T15:10:26Z</time>
      </trkpt>
      <trkpt lat="43.45176" lon="6.05938">
        <ele>345.39999389648</ele>
        <time>2015-12-16T15:10:27Z</time>
      </trkpt>
      <trkpt lat="43.45176" lon="6.05945">
        <ele>345.39999389648</ele>
        <time>2015-12-16T15:10:28Z</time>
      </trkpt>
      <trkpt lat="43.45176" lon="6.05958">
        <ele>344</ele>
        <time>2015-12-16T15:10:30Z</time>
      </trkpt>
      <trkpt lat="43.45176" lon="6.05975">
        <ele>343</ele>
        <time>2015-12-16T15:10:32Z</time>
      </trkpt>
      <trkpt lat="43.45176" lon="6.05984">
        <ele>342.60000610352</ele>
        <time>2015-12-16T15:10:33Z</time>
      </trkpt>
      <trkpt lat="43.45175" lon="6.05995">
        <ele>341</ele>
        <time>2015-12-16T15:10:34Z</time>
      </trkpt>
      <trkpt lat="43.45175" lon="6.06004">
        <ele>339.79998779297</ele>
        <time>2015-12-16T15:10:35Z</time>
      </trkpt>
      <trkpt lat="43.45175" lon="6.06014">
        <ele>339.39999389648</ele>
        <time>2015-12-16T15:10:36Z</time>
      </trkpt>
      <trkpt lat="43.45176" lon="6.0603">
        <ele>338.20001220703</ele>
        <time>2015-12-16T15:10:38Z</time>
      </trkpt>
      <trkpt lat="43.45179" lon="6.06046">
        <ele>337.39999389648</ele>
        <time>2015-12-16T15:10:40Z</time>
      </trkpt>
      <trkpt lat="43.45183" lon="6.06067">
        <ele>336.79998779297</ele>
        <time>2015-12-16T15:10:43Z</time>
      </trkpt>
      <trkpt lat="43.45183" lon="6.06083">
        <ele>335</ele>
        <time>2015-12-16T15:10:45Z</time>
      </trkpt>
      <trkpt lat="43.45182" lon="6.06091">
        <ele>334.20001220703</ele>
        <time>2015-12-16T15:10:46Z</time>
      </trkpt>
      <trkpt lat="43.4518" lon="6.06098">
        <ele>333.79998779297</ele>
        <time>2015-12-16T15:10:47Z</time>
      </trkpt>
      <trkpt lat="43.45177" lon="6.06104">
        <ele>333.20001220703</ele>
        <time>2015-12-16T15:10:48Z</time>
      </trkpt>
      <trkpt lat="43.45174" lon="6.06108">
        <ele>333</ele>
        <time>2015-12-16T15:10:49Z</time>
      </trkpt>
      <trkpt lat="43.45174" lon="6.06111">
        <ele>332.79998779297</ele>
        <time>2015-12-16T15:10:50Z</time>
      </trkpt>
      <trkpt lat="43.45174" lon="6.06111">
        <ele>332.79998779297</ele>
        <time>2015-12-16T15:10:52Z</time>
      </trkpt>
      <trkpt lat="43.45174" lon="6.06111">
        <ele>332.79998779297</ele>
        <time>2015-12-16T15:10:54Z</time>
      </trkpt>
      <trkpt lat="43.45173" lon="6.06112">
        <ele>332.79998779297</ele>
        <time>2015-12-16T15:10:56Z</time>
      </trkpt>
      <trkpt lat="43.45173" lon="6.06112">
        <ele>332.60000610352</ele>
        <time>2015-12-16T15:10:58Z</time>
      </trkpt>
      <trkpt lat="43.45173" lon="6.06112">
        <ele>332.60000610352</ele>
        <time>2015-12-16T15:11:02Z</time>
      </trkpt>
      <trkpt lat="43.45173" lon="6.06112">
        <ele>332.60000610352</ele>
        <time>2015-12-16T15:11:03Z</time>
      </trkpt>
      <trkpt lat="43.45173" lon="6.06112">
        <ele>332.60000610352</ele>
        <time>2015-12-16T15:11:06Z</time>
      </trkpt>
      <trkpt lat="43.45173" lon="6.06112">
        <ele>332.60000610352</ele>
        <time>2015-12-16T15:11:08Z</time>
      </trkpt>
      <trkpt lat="43.45173" lon="6.06112">
        <ele>332.60000610352</ele>
        <time>2015-12-16T15:11:10Z</time>
      </trkpt>
      <trkpt lat="43.45173" lon="6.06112">
        <ele>332.60000610352</ele>
        <time>2015-12-16T15:11:12Z</time>
      </trkpt>
      <trkpt lat="43.45172" lon="6.06113">
        <ele>332.60000610352</ele>
        <time>2015-12-16T15:11:14Z</time>
      </trkpt>
      <trkpt lat="43.45171" lon="6.06115">
        <ele>332.60000610352</ele>
        <time>2015-12-16T15:11:16Z</time>
      </trkpt>
      <trkpt lat="43.45171" lon="6.06115">
        <ele>332.60000610352</ele>
        <time>2015-12-16T15:11:18Z</time>
      </trkpt>
      <trkpt lat="43.45171" lon="6.06115">
        <ele>332.60000610352</ele>
        <time>2015-12-16T15:11:20Z</time>
      </trkpt>
      <trkpt lat="43.45171" lon="6.06115">
        <ele>332.60000610352</ele>
        <time>2015-12-16T15:11:22Z</time>
      </trkpt>
      <trkpt lat="43.45171" lon="6.06115">
        <ele>332.60000610352</ele>
        <time>2015-12-16T15:11:24Z</time>
      </trkpt>
      <trkpt lat="43.45171" lon="6.06116">
        <ele>332.39999389648</ele>
        <time>2015-12-16T15:11:26Z</time>
      </trkpt>
      <trkpt lat="43.45171" lon="6.06116">
        <ele>332.39999389648</ele>
        <time>2015-12-16T15:11:27Z</time>
      </trkpt>
      <trkpt lat="43.45171" lon="6.06116">
        <ele>332.39999389648</ele>
        <time>2015-12-16T15:11:28Z</time>
      </trkpt>
      <trkpt lat="43.4517" lon="6.06116">
        <ele>332.60000610352</ele>
        <time>2015-12-16T15:11:30Z</time>
      </trkpt>
      <trkpt lat="43.45169" lon="6.0612">
        <ele>332.39999389648</ele>
        <time>2015-12-16T15:11:32Z</time>
      </trkpt>
      <trkpt lat="43.45168" lon="6.06122">
        <ele>332.39999389648</ele>
        <time>2015-12-16T15:11:34Z</time>
      </trkpt>
      <trkpt lat="43.45166" lon="6.06125">
        <ele>332.39999389648</ele>
        <time>2015-12-16T15:11:36Z</time>
      </trkpt>
      <trkpt lat="43.45164" lon="6.06129">
        <ele>332.39999389648</ele>
        <time>2015-12-16T15:11:38Z</time>
      </trkpt>
      <trkpt lat="43.45161" lon="6.06135">
        <ele>331.79998779297</ele>
        <time>2015-12-16T15:11:40Z</time>
      </trkpt>
      <trkpt lat="43.45159" lon="6.06141">
        <ele>332</ele>
        <time>2015-12-16T15:11:42Z</time>
      </trkpt>
      <trkpt lat="43.45157" lon="6.06147">
        <ele>331.79998779297</ele>
        <time>2015-12-16T15:11:44Z</time>
      </trkpt>
      <trkpt lat="43.45155" lon="6.06153">
        <ele>331.79998779297</ele>
        <time>2015-12-16T15:11:46Z</time>
      </trkpt>
      <trkpt lat="43.45154" lon="6.06156">
        <ele>331.79998779297</ele>
        <time>2015-12-16T15:11:47Z</time>
      </trkpt>
      <trkpt lat="43.45153" lon="6.0616">
        <ele>331.79998779297</ele>
        <time>2015-12-16T15:11:48Z</time>
      </trkpt>
      <trkpt lat="43.4515" lon="6.06167">
        <ele>331.60000610352</ele>
        <time>2015-12-16T15:11:50Z</time>
      </trkpt>
      <trkpt lat="43.45148" lon="6.06175">
        <ele>331.39999389648</ele>
        <time>2015-12-16T15:11:52Z</time>
      </trkpt>
      <trkpt lat="43.45145" lon="6.06182">
        <ele>332</ele>
        <time>2015-12-16T15:11:54Z</time>
      </trkpt>
      <trkpt lat="43.45142" lon="6.06188">
        <ele>331.79998779297</ele>
        <time>2015-12-16T15:11:56Z</time>
      </trkpt>
      <trkpt lat="43.45139" lon="6.06193">
        <ele>332</ele>
        <time>2015-12-16T15:11:58Z</time>
      </trkpt>
      <trkpt lat="43.45136" lon="6.06198">
        <ele>332.60000610352</ele>
        <time>2015-12-16T15:12:00Z</time>
      </trkpt>
      <trkpt lat="43.45133" lon="6.06204">
        <ele>332.79998779297</ele>
        <time>2015-12-16T15:12:02Z</time>
      </trkpt>
      <trkpt lat="43.45131" lon="6.0621">
        <ele>333.20001220703</ele>
        <time>2015-12-16T15:12:04Z</time>
      </trkpt>
      <trkpt lat="43.45129" lon="6.06216">
        <ele>333.20001220703</ele>
        <time>2015-12-16T15:12:06Z</time>
      </trkpt>
      <trkpt lat="43.45128" lon="6.06221">
        <ele>333.20001220703</ele>
        <time>2015-12-16T15:12:08Z</time>
      </trkpt>
      <trkpt lat="43.45127" lon="6.06226">
        <ele>333.60000610352</ele>
        <time>2015-12-16T15:12:10Z</time>
      </trkpt>
      <trkpt lat="43.45127" lon="6.06226">
        <ele>334</ele>
        <time>2015-12-16T15:12:14Z</time>
      </trkpt>
      <trkpt lat="43.45127" lon="6.06226">
        <ele>333.79998779297</ele>
        <time>2015-12-16T15:12:18Z</time>
      </trkpt>
      <trkpt lat="43.45127" lon="6.06226">
        <ele>333.79998779297</ele>
        <time>2015-12-16T15:12:20Z</time>
      </trkpt>
      <trkpt lat="43.45127" lon="6.06227">
        <ele>333.79998779297</ele>
        <time>2015-12-16T15:12:22Z</time>
      </trkpt>
      <trkpt lat="43.45127" lon="6.06227">
        <ele>334</ele>
        <time>2015-12-16T15:12:24Z</time>
      </trkpt>
      <trkpt lat="43.45127" lon="6.06227">
        <ele>334.20001220703</ele>
        <time>2015-12-16T15:12:25Z</time>
      </trkpt>
      <trkpt lat="43.45127" lon="6.06228">
        <ele>333.79998779297</ele>
        <time>2015-12-16T15:12:26Z</time>
      </trkpt>
      <trkpt lat="43.45127" lon="6.0623">
        <ele>334</ele>
        <time>2015-12-16T15:12:28Z</time>
      </trkpt>
      <trkpt lat="43.45127" lon="6.06235">
        <ele>334</ele>
        <time>2015-12-16T15:12:30Z</time>
      </trkpt>
      <trkpt lat="43.45128" lon="6.06239">
        <ele>334.39999389648</ele>
        <time>2015-12-16T15:12:32Z</time>
      </trkpt>
      <trkpt lat="43.45128" lon="6.06244">
        <ele>334.79998779297</ele>
        <time>2015-12-16T15:12:34Z</time>
      </trkpt>
      <trkpt lat="43.45128" lon="6.06249">
        <ele>335.39999389648</ele>
        <time>2015-12-16T15:12:36Z</time>
      </trkpt>
      <trkpt lat="43.45129" lon="6.06254">
        <ele>336</ele>
        <time>2015-12-16T15:12:38Z</time>
      </trkpt>
      <trkpt lat="43.4513" lon="6.06259">
        <ele>336.20001220703</ele>
        <time>2015-12-16T15:12:40Z</time>
      </trkpt>
      <trkpt lat="43.4513" lon="6.06263">
        <ele>336.60000610352</ele>
        <time>2015-12-16T15:12:42Z</time>
      </trkpt>
      <trkpt lat="43.45131" lon="6.06267">
        <ele>336.79998779297</ele>
        <time>2015-12-16T15:12:44Z</time>
      </trkpt>
      <trkpt lat="43.45131" lon="6.06273">
        <ele>337.79998779297</ele>
        <time>2015-12-16T15:12:47Z</time>
      </trkpt>
      <trkpt lat="43.45132" lon="6.06275">
        <ele>338</ele>
        <time>2015-12-16T15:12:48Z</time>
      </trkpt>
      <trkpt lat="43.45132" lon="6.06276">
        <ele>338.39999389648</ele>
        <time>2015-12-16T15:12:49Z</time>
      </trkpt>
      <trkpt lat="43.45132" lon="6.06282">
        <ele>339</ele>
        <time>2015-12-16T15:12:52Z</time>
      </trkpt>
      <trkpt lat="43.45132" lon="6.06285">
        <ele>339.39999389648</ele>
        <time>2015-12-16T15:12:54Z</time>
      </trkpt>
      <trkpt lat="43.45132" lon="6.06293">
        <ele>340.60000610352</ele>
        <time>2015-12-16T15:12:58Z</time>
      </trkpt>
      <trkpt lat="43.45132" lon="6.06298">
        <ele>340.79998779297</ele>
        <time>2015-12-16T15:13:00Z</time>
      </trkpt>
      <trkpt lat="43.4513" lon="6.06304">
        <ele>341.60000610352</ele>
        <time>2015-12-16T15:13:04Z</time>
      </trkpt>
      <trkpt lat="43.45129" lon="6.06307">
        <ele>341.79998779297</ele>
        <time>2015-12-16T15:13:06Z</time>
      </trkpt>
      <trkpt lat="43.45129" lon="6.0631">
        <ele>342.20001220703</ele>
        <time>2015-12-16T15:13:08Z</time>
      </trkpt>
      <trkpt lat="43.4513" lon="6.06314">
        <ele>342.39999389648</ele>
        <time>2015-12-16T15:13:10Z</time>
      </trkpt>
      <trkpt lat="43.4513" lon="6.06317">
        <ele>342.79998779297</ele>
        <time>2015-12-16T15:13:12Z</time>
      </trkpt>
      <trkpt lat="43.4513" lon="6.0632">
        <ele>343</ele>
        <time>2015-12-16T15:13:14Z</time>
      </trkpt>
      <trkpt lat="43.4513" lon="6.06323">
        <ele>342.79998779297</ele>
        <time>2015-12-16T15:13:16Z</time>
      </trkpt>
      <trkpt lat="43.45129" lon="6.06325">
        <ele>342.79998779297</ele>
        <time>2015-12-16T15:13:18Z</time>
      </trkpt>
      <trkpt lat="43.45129" lon="6.06327">
        <ele>342.60000610352</ele>
        <time>2015-12-16T15:13:20Z</time>
      </trkpt>
      <trkpt lat="43.45128" lon="6.06327">
        <ele>342.60000610352</ele>
        <time>2015-12-16T15:13:21Z</time>
      </trkpt>
      <trkpt lat="43.45128" lon="6.06327">
        <ele>342.79998779297</ele>
        <time>2015-12-16T15:13:22Z</time>
      </trkpt>
      <trkpt lat="43.45128" lon="6.06327">
        <ele>342.79998779297</ele>
        <time>2015-12-16T15:13:24Z</time>
      </trkpt>
      <trkpt lat="43.45128" lon="6.06327">
        <ele>342.79998779297</ele>
        <time>2015-12-16T15:13:26Z</time>
      </trkpt>
      <trkpt lat="43.45128" lon="6.06328">
        <ele>342.79998779297</ele>
        <time>2015-12-16T15:13:34Z</time>
      </trkpt>
      <trkpt lat="43.45128" lon="6.06328">
        <ele>342.79998779297</ele>
        <time>2015-12-16T15:13:40Z</time>
      </trkpt>
      <trkpt lat="43.45128" lon="6.06328">
        <ele>342.79998779297</ele>
        <time>2015-12-16T15:13:44Z</time>
      </trkpt>
      <trkpt lat="43.45128" lon="6.06328">
        <ele>342.79998779297</ele>
        <time>2015-12-16T15:13:50Z</time>
      </trkpt>
      <trkpt lat="43.45128" lon="6.06328">
        <ele>342.79998779297</ele>
        <time>2015-12-16T15:13:54Z</time>
      </trkpt>
      <trkpt lat="43.45128" lon="6.06328">
        <ele>343</ele>
        <time>2015-12-16T15:14:15Z</time>
      </trkpt>
      <trkpt lat="43.45128" lon="6.06328">
        <ele>342.79998779297</ele>
        <time>2015-12-16T15:14:22Z</time>
      </trkpt>
      <trkpt lat="43.45128" lon="6.06328">
        <ele>342.60000610352</ele>
        <time>2015-12-16T15:14:30Z</time>
      </trkpt>
      <trkpt lat="43.45128" lon="6.06328">
        <ele>342.79998779297</ele>
        <time>2015-12-16T15:14:36Z</time>
      </trkpt>
      <trkpt lat="43.45128" lon="6.06328">
        <ele>342.79998779297</ele>
        <time>2015-12-16T15:14:37Z</time>
      </trkpt>
      <trkpt lat="43.45128" lon="6.06328">
        <ele>342.79998779297</ele>
        <time>2015-12-16T15:14:38Z</time>
      </trkpt>
      <trkpt lat="43.45128" lon="6.06329">
        <ele>342.60000610352</ele>
        <time>2015-12-16T15:14:40Z</time>
      </trkpt>
      <trkpt lat="43.45128" lon="6.06334">
        <ele>342.39999389648</ele>
        <time>2015-12-16T15:14:42Z</time>
      </trkpt>
      <trkpt lat="43.45127" lon="6.06338">
        <ele>342</ele>
        <time>2015-12-16T15:14:43Z</time>
      </trkpt>
      <trkpt lat="43.45127" lon="6.06343">
        <ele>341.39999389648</ele>
        <time>2015-12-16T15:14:44Z</time>
      </trkpt>
      <trkpt lat="43.45126" lon="6.06356">
        <ele>341.39999389648</ele>
        <time>2015-12-16T15:14:46Z</time>
      </trkpt>
      <trkpt lat="43.45126" lon="6.06363">
        <ele>341</ele>
        <time>2015-12-16T15:14:47Z</time>
      </trkpt>
      <trkpt lat="43.45125" lon="6.06378">
        <ele>339.60000610352</ele>
        <time>2015-12-16T15:14:49Z</time>
      </trkpt>
      <trkpt lat="43.45125" lon="6.06386">
        <ele>339.20001220703</ele>
        <time>2015-12-16T15:14:50Z</time>
      </trkpt>
      <trkpt lat="43.45125" lon="6.06392">
        <ele>338.20001220703</ele>
        <time>2015-12-16T15:14:51Z</time>
      </trkpt>
      <trkpt lat="43.45124" lon="6.064">
        <ele>337.20001220703</ele>
        <time>2015-12-16T15:14:52Z</time>
      </trkpt>
      <trkpt lat="43.45123" lon="6.06415">
        <ele>336</ele>
        <time>2015-12-16T15:14:54Z</time>
      </trkpt>
      <trkpt lat="43.45122" lon="6.06421">
        <ele>335</ele>
        <time>2015-12-16T15:14:55Z</time>
      </trkpt>
      <trkpt lat="43.45121" lon="6.06425">
        <ele>334.79998779297</ele>
        <time>2015-12-16T15:14:56Z</time>
      </trkpt>
      <trkpt lat="43.45118" lon="6.06434">
        <ele>334.39999389648</ele>
        <time>2015-12-16T15:14:58Z</time>
      </trkpt>
      <trkpt lat="43.45115" lon="6.06446">
        <ele>333.39999389648</ele>
        <time>2015-12-16T15:15:00Z</time>
      </trkpt>
      <trkpt lat="43.45111" lon="6.0646">
        <ele>332</ele>
        <time>2015-12-16T15:15:02Z</time>
      </trkpt>
      <trkpt lat="43.45108" lon="6.06469">
        <ele>330.39999389648</ele>
        <time>2015-12-16T15:15:03Z</time>
      </trkpt>
      <trkpt lat="43.45105" lon="6.06477">
        <ele>329</ele>
        <time>2015-12-16T15:15:04Z</time>
      </trkpt>
      <trkpt lat="43.451" lon="6.06495">
        <ele>327.79998779297</ele>
        <time>2015-12-16T15:15:06Z</time>
      </trkpt>
      <trkpt lat="43.45099" lon="6.06503">
        <ele>327.60000610352</ele>
        <time>2015-12-16T15:15:07Z</time>
      </trkpt>
      <trkpt lat="43.45098" lon="6.06513">
        <ele>327.79998779297</ele>
        <time>2015-12-16T15:15:08Z</time>
      </trkpt>
      <trkpt lat="43.45097" lon="6.0653">
        <ele>327.20001220703</ele>
        <time>2015-12-16T15:15:10Z</time>
      </trkpt>
      <trkpt lat="43.45094" lon="6.06536">
        <ele>325.79998779297</ele>
        <time>2015-12-16T15:15:11Z</time>
      </trkpt>
      <trkpt lat="43.4509" lon="6.06541">
        <ele>325</ele>
        <time>2015-12-16T15:15:12Z</time>
      </trkpt>
      <trkpt lat="43.45083" lon="6.06552">
        <ele>325.60000610352</ele>
        <time>2015-12-16T15:15:14Z</time>
      </trkpt>
      <trkpt lat="43.4508" lon="6.06559">
        <ele>324.79998779297</ele>
        <time>2015-12-16T15:15:15Z</time>
      </trkpt>
      <trkpt lat="43.45077" lon="6.06566">
        <ele>323.60000610352</ele>
        <time>2015-12-16T15:15:16Z</time>
      </trkpt>
      <trkpt lat="43.45075" lon="6.06573">
        <ele>322.39999389648</ele>
        <time>2015-12-16T15:15:17Z</time>
      </trkpt>
      <trkpt lat="43.45072" lon="6.0658">
        <ele>321.20001220703</ele>
        <time>2015-12-16T15:15:18Z</time>
      </trkpt>
      <trkpt lat="43.4507" lon="6.06588">
        <ele>320.20001220703</ele>
        <time>2015-12-16T15:15:19Z</time>
      </trkpt>
      <trkpt lat="43.45068" lon="6.06595">
        <ele>318.79998779297</ele>
        <time>2015-12-16T15:15:20Z</time>
      </trkpt>
      <trkpt lat="43.45068" lon="6.0661">
        <ele>316.79998779297</ele>
        <time>2015-12-16T15:15:22Z</time>
      </trkpt>
      <trkpt lat="43.45068" lon="6.06616">
        <ele>316</ele>
        <time>2015-12-16T15:15:23Z</time>
      </trkpt>
      <trkpt lat="43.45068" lon="6.06623">
        <ele>315.79998779297</ele>
        <time>2015-12-16T15:15:24Z</time>
      </trkpt>
      <trkpt lat="43.45065" lon="6.06634">
        <ele>313.20001220703</ele>
        <time>2015-12-16T15:15:26Z</time>
      </trkpt>
      <trkpt lat="43.45062" lon="6.0664">
        <ele>312.39999389648</ele>
        <time>2015-12-16T15:15:27Z</time>
      </trkpt>
      <trkpt lat="43.45055" lon="6.06658">
        <ele>311.79998779297</ele>
        <time>2015-12-16T15:15:30Z</time>
      </trkpt>
      <trkpt lat="43.45052" lon="6.06665">
        <ele>311</ele>
        <time>2015-12-16T15:15:31Z</time>
      </trkpt>
      <trkpt lat="43.4505" lon="6.06671">
        <ele>310</ele>
        <time>2015-12-16T15:15:32Z</time>
      </trkpt>
      <trkpt lat="43.45047" lon="6.06675">
        <ele>309.39999389648</ele>
        <time>2015-12-16T15:15:33Z</time>
      </trkpt>
      <trkpt lat="43.45037" lon="6.06683">
        <ele>307.39999389648</ele>
        <time>2015-12-16T15:15:36Z</time>
      </trkpt>
      <trkpt lat="43.45033" lon="6.06685">
        <ele>307</ele>
        <time>2015-12-16T15:15:37Z</time>
      </trkpt>
      <trkpt lat="43.45029" lon="6.06687">
        <ele>306.20001220703</ele>
        <time>2015-12-16T15:15:38Z</time>
      </trkpt>
      <trkpt lat="43.45022" lon="6.0669">
        <ele>305</ele>
        <time>2015-12-16T15:15:40Z</time>
      </trkpt>
      <trkpt lat="43.45018" lon="6.06694">
        <ele>303.79998779297</ele>
        <time>2015-12-16T15:15:41Z</time>
      </trkpt>
      <trkpt lat="43.45014" lon="6.06698">
        <ele>302.60000610352</ele>
        <time>2015-12-16T15:15:42Z</time>
      </trkpt>
      <trkpt lat="43.4501" lon="6.06703">
        <ele>301.39999389648</ele>
        <time>2015-12-16T15:15:43Z</time>
      </trkpt>
      <trkpt lat="43.45005" lon="6.06709">
        <ele>300.79998779297</ele>
        <time>2015-12-16T15:15:44Z</time>
      </trkpt>
      <trkpt lat="43.44999" lon="6.06723">
        <ele>299.60000610352</ele>
        <time>2015-12-16T15:15:46Z</time>
      </trkpt>
      <trkpt lat="43.44999" lon="6.06731">
        <ele>299.79998779297</ele>
        <time>2015-12-16T15:15:48Z</time>
      </trkpt>
      <trkpt lat="43.44998" lon="6.06732">
        <ele>300</ele>
        <time>2015-12-16T15:15:49Z</time>
      </trkpt>
      <trkpt lat="43.44998" lon="6.06732">
        <ele>300</ele>
        <time>2015-12-16T15:15:50Z</time>
      </trkpt>
      <trkpt lat="43.44998" lon="6.06733">
        <ele>299.79998779297</ele>
        <time>2015-12-16T15:15:52Z</time>
      </trkpt>
      <trkpt lat="43.44998" lon="6.06733">
        <ele>299.79998779297</ele>
        <time>2015-12-16T15:15:53Z</time>
      </trkpt>
      <trkpt lat="43.44998" lon="6.06733">
        <ele>299.79998779297</ele>
        <time>2015-12-16T15:15:54Z</time>
      </trkpt>
      <trkpt lat="43.44998" lon="6.06733">
        <ele>299.79998779297</ele>
        <time>2015-12-16T15:15:56Z</time>
      </trkpt>
      <trkpt lat="43.44998" lon="6.06733">
        <ele>299.79998779297</ele>
        <time>2015-12-16T15:15:58Z</time>
      </trkpt>
      <trkpt lat="43.44998" lon="6.06733">
        <ele>299.79998779297</ele>
        <time>2015-12-16T15:16:00Z</time>
      </trkpt>
      <trkpt lat="43.44998" lon="6.06733">
        <ele>299.79998779297</ele>
        <time>2015-12-16T15:16:02Z</time>
      </trkpt>
      <trkpt lat="43.44998" lon="6.06733">
        <ele>299.79998779297</ele>
        <time>2015-12-16T15:16:04Z</time>
      </trkpt>
      <trkpt lat="43.44998" lon="6.06733">
        <ele>299.79998779297</ele>
        <time>2015-12-16T15:16:08Z</time>
      </trkpt>
      <trkpt lat="43.44998" lon="6.06733">
        <ele>299.79998779297</ele>
        <time>2015-12-16T15:16:12Z</time>
      </trkpt>
      <trkpt lat="43.44998" lon="6.06733">
        <ele>299.60000610352</ele>
        <time>2015-12-16T15:16:20Z</time>
      </trkpt>
      <trkpt lat="43.44998" lon="6.06733">
        <ele>299.60000610352</ele>
        <time>2015-12-16T15:16:24Z</time>
      </trkpt>
      <trkpt lat="43.44998" lon="6.06733">
        <ele>299.79998779297</ele>
        <time>2015-12-16T15:16:26Z</time>
      </trkpt>
      <trkpt lat="43.44998" lon="6.06733">
        <ele>299.79998779297</ele>
        <time>2015-12-16T15:16:28Z</time>
      </trkpt>
      <trkpt lat="43.44998" lon="6.06733">
        <ele>299.79998779297</ele>
        <time>2015-12-16T15:16:30Z</time>
      </trkpt>
      <trkpt lat="43.44997" lon="6.06736">
        <ele>299.60000610352</ele>
        <time>2015-12-16T15:16:32Z</time>
      </trkpt>
      <trkpt lat="43.44996" lon="6.0674">
        <ele>299.79998779297</ele>
        <time>2015-12-16T15:16:34Z</time>
      </trkpt>
      <trkpt lat="43.44996" lon="6.06743">
        <ele>299.79998779297</ele>
        <time>2015-12-16T15:16:35Z</time>
      </trkpt>
      <trkpt lat="43.44996" lon="6.06745">
        <ele>299.60000610352</ele>
        <time>2015-12-16T15:16:36Z</time>
      </trkpt>
      <trkpt lat="43.44995" lon="6.06751">
        <ele>299.79998779297</ele>
        <time>2015-12-16T15:16:38Z</time>
      </trkpt>
      <trkpt lat="43.44997" lon="6.06756">
        <ele>300.20001220703</ele>
        <time>2015-12-16T15:16:40Z</time>
      </trkpt>
      <trkpt lat="43.44998" lon="6.06761">
        <ele>299.60000610352</ele>
        <time>2015-12-16T15:16:42Z</time>
      </trkpt>
      <trkpt lat="43.44997" lon="6.06764">
        <ele>299.60000610352</ele>
        <time>2015-12-16T15:16:43Z</time>
      </trkpt>
      <trkpt lat="43.44995" lon="6.06767">
        <ele>299.79998779297</ele>
        <time>2015-12-16T15:16:44Z</time>
      </trkpt>
      <trkpt lat="43.44992" lon="6.0677">
        <ele>300</ele>
        <time>2015-12-16T15:16:46Z</time>
      </trkpt>
      <trkpt lat="43.44988" lon="6.06774">
        <ele>300.20001220703</ele>
        <time>2015-12-16T15:16:48Z</time>
      </trkpt>
      <trkpt lat="43.44985" lon="6.06776">
        <ele>300.20001220703</ele>
        <time>2015-12-16T15:16:49Z</time>
      </trkpt>
      <trkpt lat="43.44982" lon="6.06779">
        <ele>300</ele>
        <time>2015-12-16T15:16:50Z</time>
      </trkpt>
      <trkpt lat="43.44976" lon="6.06786">
        <ele>299.60000610352</ele>
        <time>2015-12-16T15:16:52Z</time>
      </trkpt>
      <trkpt lat="43.44969" lon="6.06796">
        <ele>298.60000610352</ele>
        <time>2015-12-16T15:16:54Z</time>
      </trkpt>
      <trkpt lat="43.44966" lon="6.06801">
        <ele>298.20001220703</ele>
        <time>2015-12-16T15:16:55Z</time>
      </trkpt>
      <trkpt lat="43.44962" lon="6.06814">
        <ele>297</ele>
        <time>2015-12-16T15:16:57Z</time>
      </trkpt>
      <trkpt lat="43.44958" lon="6.06823">
        <ele>296.39999389648</ele>
        <time>2015-12-16T15:16:58Z</time>
      </trkpt>
      <trkpt lat="43.44956" lon="6.06832">
        <ele>295.60000610352</ele>
        <time>2015-12-16T15:16:59Z</time>
      </trkpt>
      <trkpt lat="43.44953" lon="6.06843">
        <ele>295</ele>
        <time>2015-12-16T15:17:00Z</time>
      </trkpt>
      <trkpt lat="43.44949" lon="6.0685">
        <ele>294.60000610352</ele>
        <time>2015-12-16T15:17:01Z</time>
      </trkpt>
      <trkpt lat="43.44944" lon="6.06857">
        <ele>294</ele>
        <time>2015-12-16T15:17:02Z</time>
      </trkpt>
      <trkpt lat="43.44933" lon="6.06869">
        <ele>293.39999389648</ele>
        <time>2015-12-16T15:17:04Z</time>
      </trkpt>
      <trkpt lat="43.44925" lon="6.0688">
        <ele>292.79998779297</ele>
        <time>2015-12-16T15:17:06Z</time>
      </trkpt>
      <trkpt lat="43.44923" lon="6.06888">
        <ele>292.79998779297</ele>
        <time>2015-12-16T15:17:07Z</time>
      </trkpt>
      <trkpt lat="43.4492" lon="6.06894">
        <ele>292.60000610352</ele>
        <time>2015-12-16T15:17:08Z</time>
      </trkpt>
      <trkpt lat="43.44919" lon="6.069">
        <ele>292.20001220703</ele>
        <time>2015-12-16T15:17:09Z</time>
      </trkpt>
      <trkpt lat="43.44918" lon="6.06907">
        <ele>291.79998779297</ele>
        <time>2015-12-16T15:17:10Z</time>
      </trkpt>
      <trkpt lat="43.44918" lon="6.06914">
        <ele>291.20001220703</ele>
        <time>2015-12-16T15:17:11Z</time>
      </trkpt>
      <trkpt lat="43.44918" lon="6.06921">
        <ele>290.39999389648</ele>
        <time>2015-12-16T15:17:12Z</time>
      </trkpt>
      <trkpt lat="43.44915" lon="6.06933">
        <ele>288.39999389648</ele>
        <time>2015-12-16T15:17:14Z</time>
      </trkpt>
      <trkpt lat="43.44908" lon="6.06945">
        <ele>287.39999389648</ele>
        <time>2015-12-16T15:17:16Z</time>
      </trkpt>
      <trkpt lat="43.449" lon="6.06952">
        <ele>286.20001220703</ele>
        <time>2015-12-16T15:17:18Z</time>
      </trkpt>
      <trkpt lat="43.44893" lon="6.06958">
        <ele>285.39999389648</ele>
        <time>2015-12-16T15:17:20Z</time>
      </trkpt>
      <trkpt lat="43.44889" lon="6.06963">
        <ele>285</ele>
        <time>2015-12-16T15:17:21Z</time>
      </trkpt>
      <trkpt lat="43.44885" lon="6.06967">
        <ele>284.60000610352</ele>
        <time>2015-12-16T15:17:22Z</time>
      </trkpt>
      <trkpt lat="43.44877" lon="6.06976">
        <ele>283.79998779297</ele>
        <time>2015-12-16T15:17:24Z</time>
      </trkpt>
      <trkpt lat="43.44869" lon="6.06984">
        <ele>283.39999389648</ele>
        <time>2015-12-16T15:17:26Z</time>
      </trkpt>
      <trkpt lat="43.44866" lon="6.06988">
        <ele>283</ele>
        <time>2015-12-16T15:17:27Z</time>
      </trkpt>
      <trkpt lat="43.44862" lon="6.06993">
        <ele>282.20001220703</ele>
        <time>2015-12-16T15:17:28Z</time>
      </trkpt>
      <trkpt lat="43.44856" lon="6.07007">
        <ele>280.39999389648</ele>
        <time>2015-12-16T15:17:30Z</time>
      </trkpt>
      <trkpt lat="43.44854" lon="6.07013">
        <ele>279.79998779297</ele>
        <time>2015-12-16T15:17:31Z</time>
      </trkpt>
      <trkpt lat="43.44852" lon="6.0702">
        <ele>279.39999389648</ele>
        <time>2015-12-16T15:17:32Z</time>
      </trkpt>
      <trkpt lat="43.4485" lon="6.07027">
        <ele>279.20001220703</ele>
        <time>2015-12-16T15:17:33Z</time>
      </trkpt>
      <trkpt lat="43.44847" lon="6.07035">
        <ele>279.20001220703</ele>
        <time>2015-12-16T15:17:34Z</time>
      </trkpt>
      <trkpt lat="43.44843" lon="6.07048">
        <ele>278.79998779297</ele>
        <time>2015-12-16T15:17:36Z</time>
      </trkpt>
      <trkpt lat="43.4484" lon="6.07053">
        <ele>278.20001220703</ele>
        <time>2015-12-16T15:17:37Z</time>
      </trkpt>
      <trkpt lat="43.44835" lon="6.07058">
        <ele>277.39999389648</ele>
        <time>2015-12-16T15:17:38Z</time>
      </trkpt>
      <trkpt lat="43.44831" lon="6.07061">
        <ele>276.60000610352</ele>
        <time>2015-12-16T15:17:39Z</time>
      </trkpt>
      <trkpt lat="43.44825" lon="6.07064">
        <ele>275.60000610352</ele>
        <time>2015-12-16T15:17:40Z</time>
      </trkpt>
      <trkpt lat="43.44821" lon="6.07066">
        <ele>275</ele>
        <time>2015-12-16T15:17:41Z</time>
      </trkpt>
      <trkpt lat="43.44816" lon="6.07068">
        <ele>274.79998779297</ele>
        <time>2015-12-16T15:17:42Z</time>
      </trkpt>
      <trkpt lat="43.44807" lon="6.07072">
        <ele>274.39999389648</ele>
        <time>2015-12-16T15:17:44Z</time>
      </trkpt>
      <trkpt lat="43.44803" lon="6.07075">
        <ele>273.79998779297</ele>
        <time>2015-12-16T15:17:45Z</time>
      </trkpt>
      <trkpt lat="43.44799" lon="6.0708">
        <ele>273.20001220703</ele>
        <time>2015-12-16T15:17:46Z</time>
      </trkpt>
      <trkpt lat="43.44792" lon="6.0709">
        <ele>272</ele>
        <time>2015-12-16T15:17:48Z</time>
      </trkpt>
      <trkpt lat="43.44785" lon="6.071">
        <ele>271</ele>
        <time>2015-12-16T15:17:50Z</time>
      </trkpt>
      <trkpt lat="43.44777" lon="6.07111">
        <ele>269.60000610352</ele>
        <time>2015-12-16T15:17:52Z</time>
      </trkpt>
      <trkpt lat="43.44767" lon="6.07122">
        <ele>268.60000610352</ele>
        <time>2015-12-16T15:17:54Z</time>
      </trkpt>
      <trkpt lat="43.44762" lon="6.07127">
        <ele>267.79998779297</ele>
        <time>2015-12-16T15:17:55Z</time>
      </trkpt>
      <trkpt lat="43.44745" lon="6.07142">
        <ele>265.20001220703</ele>
        <time>2015-12-16T15:17:58Z</time>
      </trkpt>
      <trkpt lat="43.44739" lon="6.07147">
        <ele>264.60000610352</ele>
        <time>2015-12-16T15:17:59Z</time>
      </trkpt>
      <trkpt lat="43.44732" lon="6.07153">
        <ele>264</ele>
        <time>2015-12-16T15:18:00Z</time>
      </trkpt>
      <trkpt lat="43.44725" lon="6.07158">
        <ele>263.79998779297</ele>
        <time>2015-12-16T15:18:01Z</time>
      </trkpt>
      <trkpt lat="43.44717" lon="6.07163">
        <ele>263.39999389648</ele>
        <time>2015-12-16T15:18:02Z</time>
      </trkpt>
      <trkpt lat="43.4471" lon="6.07165">
        <ele>262.60000610352</ele>
        <time>2015-12-16T15:18:03Z</time>
      </trkpt>
      <trkpt lat="43.44701" lon="6.07167">
        <ele>262</ele>
        <time>2015-12-16T15:18:04Z</time>
      </trkpt>
      <trkpt lat="43.44684" lon="6.07166">
        <ele>260.79998779297</ele>
        <time>2015-12-16T15:18:06Z</time>
      </trkpt>
      <trkpt lat="43.44676" lon="6.07165">
        <ele>260.39999389648</ele>
        <time>2015-12-16T15:18:07Z</time>
      </trkpt>
      <trkpt lat="43.44668" lon="6.07165">
        <ele>260</ele>
        <time>2015-12-16T15:18:08Z</time>
      </trkpt>
      <trkpt lat="43.44653" lon="6.07166">
        <ele>259.60000610352</ele>
        <time>2015-12-16T15:18:10Z</time>
      </trkpt>
      <trkpt lat="43.44639" lon="6.07171">
        <ele>258.39999389648</ele>
        <time>2015-12-16T15:18:12Z</time>
      </trkpt>
      <trkpt lat="43.44623" lon="6.07174">
        <ele>257.79998779297</ele>
        <time>2015-12-16T15:18:14Z</time>
      </trkpt>
      <trkpt lat="43.44609" lon="6.07174">
        <ele>257.20001220703</ele>
        <time>2015-12-16T15:18:16Z</time>
      </trkpt>
      <trkpt lat="43.44597" lon="6.07174">
        <ele>256.60000610352</ele>
        <time>2015-12-16T15:18:18Z</time>
      </trkpt>
      <trkpt lat="43.44591" lon="6.07176">
        <ele>256.20001220703</ele>
        <time>2015-12-16T15:18:19Z</time>
      </trkpt>
      <trkpt lat="43.44585" lon="6.07176">
        <ele>255.60000610352</ele>
        <time>2015-12-16T15:18:20Z</time>
      </trkpt>
      <trkpt lat="43.44571" lon="6.07176">
        <ele>254.60000610352</ele>
        <time>2015-12-16T15:18:22Z</time>
      </trkpt>
      <trkpt lat="43.44555" lon="6.07177">
        <ele>252.60000610352</ele>
        <time>2015-12-16T15:18:24Z</time>
      </trkpt>
      <trkpt lat="43.4454" lon="6.07181">
        <ele>251</ele>
        <time>2015-12-16T15:18:26Z</time>
      </trkpt>
      <trkpt lat="43.44532" lon="6.07187">
        <ele>250</ele>
        <time>2015-12-16T15:18:27Z</time>
      </trkpt>
      <trkpt lat="43.44521" lon="6.07193">
        <ele>249.60000610352</ele>
        <time>2015-12-16T15:18:28Z</time>
      </trkpt>
      <trkpt lat="43.44503" lon="6.07203">
        <ele>247.19999694824</ele>
        <time>2015-12-16T15:18:30Z</time>
      </trkpt>
      <trkpt lat="43.44494" lon="6.07206">
        <ele>246.19999694824</ele>
        <time>2015-12-16T15:18:31Z</time>
      </trkpt>
      <trkpt lat="43.44485" lon="6.07206">
        <ele>245.19999694824</ele>
        <time>2015-12-16T15:18:32Z</time>
      </trkpt>
      <trkpt lat="43.44477" lon="6.07203">
        <ele>244.39999389648</ele>
        <time>2015-12-16T15:18:33Z</time>
      </trkpt>
      <trkpt lat="43.44469" lon="6.07198">
        <ele>243.60000610352</ele>
        <time>2015-12-16T15:18:34Z</time>
      </trkpt>
      <trkpt lat="43.4446" lon="6.07195">
        <ele>243</ele>
        <time>2015-12-16T15:18:35Z</time>
      </trkpt>
      <trkpt lat="43.4445" lon="6.07192">
        <ele>242.39999389648</ele>
        <time>2015-12-16T15:18:36Z</time>
      </trkpt>
      <trkpt lat="43.44442" lon="6.0719">
        <ele>241.80000305176</ele>
        <time>2015-12-16T15:18:37Z</time>
      </trkpt>
      <trkpt lat="43.44433" lon="6.0719">
        <ele>241.39999389648</ele>
        <time>2015-12-16T15:18:38Z</time>
      </trkpt>
      <trkpt lat="43.44425" lon="6.07189">
        <ele>240.80000305176</ele>
        <time>2015-12-16T15:18:39Z</time>
      </trkpt>
      <trkpt lat="43.44417" lon="6.07187">
        <ele>240.60000610352</ele>
        <time>2015-12-16T15:18:40Z</time>
      </trkpt>
      <trkpt lat="43.44405" lon="6.07183">
        <ele>239.80000305176</ele>
        <time>2015-12-16T15:18:42Z</time>
      </trkpt>
      <trkpt lat="43.44401" lon="6.07182">
        <ele>239.60000610352</ele>
        <time>2015-12-16T15:18:43Z</time>
      </trkpt>
      <trkpt lat="43.44398" lon="6.07182">
        <ele>239.39999389648</ele>
        <time>2015-12-16T15:18:44Z</time>
      </trkpt>
      <trkpt lat="43.44396" lon="6.07183">
        <ele>239</ele>
        <time>2015-12-16T15:18:46Z</time>
      </trkpt>
      <trkpt lat="43.44397" lon="6.07184">
        <ele>239</ele>
        <time>2015-12-16T15:18:48Z</time>
      </trkpt>
      <trkpt lat="43.44396" lon="6.07184">
        <ele>239</ele>
        <time>2015-12-16T15:18:50Z</time>
      </trkpt>
      <trkpt lat="43.44396" lon="6.07184">
        <ele>239</ele>
        <time>2015-12-16T15:18:52Z</time>
      </trkpt>
      <trkpt lat="43.44396" lon="6.07184">
        <ele>239</ele>
        <time>2015-12-16T15:18:54Z</time>
      </trkpt>
      <trkpt lat="43.44396" lon="6.07184">
        <ele>239</ele>
        <time>2015-12-16T15:18:56Z</time>
      </trkpt>
      <trkpt lat="43.44397" lon="6.07184">
        <ele>238.80000305176</ele>
        <time>2015-12-16T15:18:58Z</time>
      </trkpt>
      <trkpt lat="43.44396" lon="6.07184">
        <ele>238.80000305176</ele>
        <time>2015-12-16T15:19:00Z</time>
      </trkpt>
      <trkpt lat="43.44396" lon="6.07184">
        <ele>239</ele>
        <time>2015-12-16T15:19:01Z</time>
      </trkpt>
      <trkpt lat="43.44396" lon="6.07184">
        <ele>239.19999694824</ele>
        <time>2015-12-16T15:19:04Z</time>
      </trkpt>
      <trkpt lat="43.44396" lon="6.07184">
        <ele>239</ele>
        <time>2015-12-16T15:19:08Z</time>
      </trkpt>
      <trkpt lat="43.44397" lon="6.07184">
        <ele>239</ele>
        <time>2015-12-16T15:19:10Z</time>
      </trkpt>
      <trkpt lat="43.44397" lon="6.07184">
        <ele>239</ele>
        <time>2015-12-16T15:19:16Z</time>
      </trkpt>
      <trkpt lat="43.44397" lon="6.07184">
        <ele>239</ele>
        <time>2015-12-16T15:19:22Z</time>
      </trkpt>
      <trkpt lat="43.44397" lon="6.07184">
        <ele>239</ele>
        <time>2015-12-16T15:19:24Z</time>
      </trkpt>
      <trkpt lat="43.44397" lon="6.07184">
        <ele>239</ele>
        <time>2015-12-16T15:19:26Z</time>
      </trkpt>
      <trkpt lat="43.44396" lon="6.07184">
        <ele>238.80000305176</ele>
        <time>2015-12-16T15:19:28Z</time>
      </trkpt>
      <trkpt lat="43.44396" lon="6.07184">
        <ele>238.80000305176</ele>
        <time>2015-12-16T15:19:29Z</time>
      </trkpt>
      <trkpt lat="43.44396" lon="6.07184">
        <ele>238.80000305176</ele>
        <time>2015-12-16T15:19:30Z</time>
      </trkpt>
      <trkpt lat="43.44396" lon="6.07185">
        <ele>238.80000305176</ele>
        <time>2015-12-16T15:19:32Z</time>
      </trkpt>
      <trkpt lat="43.44393" lon="6.07188">
        <ele>238.80000305176</ele>
        <time>2015-12-16T15:19:34Z</time>
      </trkpt>
      <trkpt lat="43.44389" lon="6.07192">
        <ele>238.60000610352</ele>
        <time>2015-12-16T15:19:36Z</time>
      </trkpt>
      <trkpt lat="43.44384" lon="6.07192">
        <ele>238.39999389648</ele>
        <time>2015-12-16T15:19:38Z</time>
      </trkpt>
      <trkpt lat="43.4438" lon="6.07192">
        <ele>238.19999694824</ele>
        <time>2015-12-16T15:19:39Z</time>
      </trkpt>
      <trkpt lat="43.44376" lon="6.07192">
        <ele>238</ele>
        <time>2015-12-16T15:19:40Z</time>
      </trkpt>
      <trkpt lat="43.44371" lon="6.0719">
        <ele>237.60000610352</ele>
        <time>2015-12-16T15:19:42Z</time>
      </trkpt>
      <trkpt lat="43.44368" lon="6.0719">
        <ele>237.39999389648</ele>
        <time>2015-12-16T15:19:43Z</time>
      </trkpt>
      <trkpt lat="43.44366" lon="6.07189">
        <ele>237.39999389648</ele>
        <time>2015-12-16T15:19:44Z</time>
      </trkpt>
      <trkpt lat="43.4436" lon="6.07188">
        <ele>237.39999389648</ele>
        <time>2015-12-16T15:19:46Z</time>
      </trkpt>
      <trkpt lat="43.44353" lon="6.07186">
        <ele>236.80000305176</ele>
        <time>2015-12-16T15:19:48Z</time>
      </trkpt>
      <trkpt lat="43.44345" lon="6.07183">
        <ele>237</ele>
        <time>2015-12-16T15:19:50Z</time>
      </trkpt>
      <trkpt lat="43.44337" lon="6.07179">
        <ele>237</ele>
        <time>2015-12-16T15:19:52Z</time>
      </trkpt>
      <trkpt lat="43.44329" lon="6.07176">
        <ele>236.80000305176</ele>
        <time>2015-12-16T15:19:54Z</time>
      </trkpt>
      <trkpt lat="43.4432" lon="6.07175">
        <ele>236.19999694824</ele>
        <time>2015-12-16T15:19:56Z</time>
      </trkpt>
      <trkpt lat="43.44313" lon="6.07169">
        <ele>235.80000305176</ele>
        <time>2015-12-16T15:19:58Z</time>
      </trkpt>
      <trkpt lat="43.44308" lon="6.0716">
        <ele>235.80000305176</ele>
        <time>2015-12-16T15:20:00Z</time>
      </trkpt>
      <trkpt lat="43.44306" lon="6.07155">
        <ele>235.80000305176</ele>
        <time>2015-12-16T15:20:01Z</time>
      </trkpt>
      <trkpt lat="43.44304" lon="6.0715">
        <ele>236</ele>
        <time>2015-12-16T15:20:02Z</time>
      </trkpt>
      <trkpt lat="43.44299" lon="6.07138">
        <ele>236</ele>
        <time>2015-12-16T15:20:04Z</time>
      </trkpt>
      <trkpt lat="43.44292" lon="6.07128">
        <ele>236</ele>
        <time>2015-12-16T15:20:06Z</time>
      </trkpt>
      <trkpt lat="43.44289" lon="6.07123">
        <ele>236</ele>
        <time>2015-12-16T15:20:07Z</time>
      </trkpt>
      <trkpt lat="43.44279" lon="6.07108">
        <ele>236.19999694824</ele>
        <time>2015-12-16T15:20:10Z</time>
      </trkpt>
      <trkpt lat="43.44271" lon="6.07098">
        <ele>236.19999694824</ele>
        <time>2015-12-16T15:20:12Z</time>
      </trkpt>
      <trkpt lat="43.44264" lon="6.07088">
        <ele>236.19999694824</ele>
        <time>2015-12-16T15:20:14Z</time>
      </trkpt>
      <trkpt lat="43.4426" lon="6.07084">
        <ele>236.19999694824</ele>
        <time>2015-12-16T15:20:15Z</time>
      </trkpt>
      <trkpt lat="43.44255" lon="6.07079">
        <ele>236</ele>
        <time>2015-12-16T15:20:16Z</time>
      </trkpt>
      <trkpt lat="43.44246" lon="6.0707">
        <ele>235.80000305176</ele>
        <time>2015-12-16T15:20:18Z</time>
      </trkpt>
      <trkpt lat="43.44237" lon="6.07061">
        <ele>236.39999389648</ele>
        <time>2015-12-16T15:20:20Z</time>
      </trkpt>
      <trkpt lat="43.44228" lon="6.07051">
        <ele>236.60000610352</ele>
        <time>2015-12-16T15:20:22Z</time>
      </trkpt>
      <trkpt lat="43.44212" lon="6.07034">
        <ele>236.80000305176</ele>
        <time>2015-12-16T15:20:26Z</time>
      </trkpt>
      <trkpt lat="43.44205" lon="6.07026">
        <ele>237</ele>
        <time>2015-12-16T15:20:28Z</time>
      </trkpt>
      <trkpt lat="43.44197" lon="6.07018">
        <ele>236.80000305176</ele>
        <time>2015-12-16T15:20:30Z</time>
      </trkpt>
      <trkpt lat="43.44189" lon="6.0701">
        <ele>237</ele>
        <time>2015-12-16T15:20:32Z</time>
      </trkpt>
      <trkpt lat="43.44185" lon="6.07006">
        <ele>237.19999694824</ele>
        <time>2015-12-16T15:20:33Z</time>
      </trkpt>
      <trkpt lat="43.44181" lon="6.07001">
        <ele>237.19999694824</ele>
        <time>2015-12-16T15:20:34Z</time>
      </trkpt>
      <trkpt lat="43.44173" lon="6.06993">
        <ele>237.39999389648</ele>
        <time>2015-12-16T15:20:36Z</time>
      </trkpt>
      <trkpt lat="43.44166" lon="6.06986">
        <ele>237.60000610352</ele>
        <time>2015-12-16T15:20:38Z</time>
      </trkpt>
      <trkpt lat="43.44159" lon="6.06979">
        <ele>237.60000610352</ele>
        <time>2015-12-16T15:20:40Z</time>
      </trkpt>
      <trkpt lat="43.44152" lon="6.06973">
        <ele>238</ele>
        <time>2015-12-16T15:20:42Z</time>
      </trkpt>
      <trkpt lat="43.44144" lon="6.06967">
        <ele>237.80000305176</ele>
        <time>2015-12-16T15:20:44Z</time>
      </trkpt>
      <trkpt lat="43.44136" lon="6.0696">
        <ele>238.19999694824</ele>
        <time>2015-12-16T15:20:46Z</time>
      </trkpt>
      <trkpt lat="43.44128" lon="6.06954">
        <ele>238.60000610352</ele>
        <time>2015-12-16T15:20:48Z</time>
      </trkpt>
      <trkpt lat="43.44123" lon="6.06952">
        <ele>238.60000610352</ele>
        <time>2015-12-16T15:20:49Z</time>
      </trkpt>
      <trkpt lat="43.44109" lon="6.06943">
        <ele>238.80000305176</ele>
        <time>2015-12-16T15:20:52Z</time>
      </trkpt>
      <trkpt lat="43.44099" lon="6.06938">
        <ele>238.60000610352</ele>
        <time>2015-12-16T15:20:54Z</time>
      </trkpt>
      <trkpt lat="43.44088" lon="6.06934">
        <ele>238.60000610352</ele>
        <time>2015-12-16T15:20:56Z</time>
      </trkpt>
      <trkpt lat="43.44078" lon="6.06931">
        <ele>238.39999389648</ele>
        <time>2015-12-16T15:20:58Z</time>
      </trkpt>
      <trkpt lat="43.44068" lon="6.06929">
        <ele>238.60000610352</ele>
        <time>2015-12-16T15:21:00Z</time>
      </trkpt>
      <trkpt lat="43.44057" lon="6.06927">
        <ele>238.60000610352</ele>
        <time>2015-12-16T15:21:02Z</time>
      </trkpt>
      <trkpt lat="43.44046" lon="6.06925">
        <ele>238.39999389648</ele>
        <time>2015-12-16T15:21:04Z</time>
      </trkpt>
      <trkpt lat="43.44041" lon="6.06924">
        <ele>238.39999389648</ele>
        <time>2015-12-16T15:21:05Z</time>
      </trkpt>
      <trkpt lat="43.44035" lon="6.06923">
        <ele>238.39999389648</ele>
        <time>2015-12-16T15:21:06Z</time>
      </trkpt>
      <trkpt lat="43.44025" lon="6.06923">
        <ele>238</ele>
        <time>2015-12-16T15:21:08Z</time>
      </trkpt>
      <trkpt lat="43.44014" lon="6.06922">
        <ele>237.80000305176</ele>
        <time>2015-12-16T15:21:10Z</time>
      </trkpt>
      <trkpt lat="43.44003" lon="6.06922">
        <ele>237.60000610352</ele>
        <time>2015-12-16T15:21:12Z</time>
      </trkpt>
      <trkpt lat="43.43994" lon="6.06922">
        <ele>237.39999389648</ele>
        <time>2015-12-16T15:21:14Z</time>
      </trkpt>
      <trkpt lat="43.43984" lon="6.06922">
        <ele>237.60000610352</ele>
        <time>2015-12-16T15:21:16Z</time>
      </trkpt>
      <trkpt lat="43.43965" lon="6.06922">
        <ele>237.39999389648</ele>
        <time>2015-12-16T15:21:20Z</time>
      </trkpt>
      <trkpt lat="43.43955" lon="6.06923">
        <ele>237.19999694824</ele>
        <time>2015-12-16T15:21:22Z</time>
      </trkpt>
      <trkpt lat="43.43946" lon="6.06924">
        <ele>237.19999694824</ele>
        <time>2015-12-16T15:21:24Z</time>
      </trkpt>
      <trkpt lat="43.43937" lon="6.06926">
        <ele>237.39999389648</ele>
        <time>2015-12-16T15:21:26Z</time>
      </trkpt>
      <trkpt lat="43.43927" lon="6.06928">
        <ele>237.19999694824</ele>
        <time>2015-12-16T15:21:28Z</time>
      </trkpt>
      <trkpt lat="43.43922" lon="6.0693">
        <ele>237.19999694824</ele>
        <time>2015-12-16T15:21:29Z</time>
      </trkpt>
      <trkpt lat="43.43917" lon="6.06931">
        <ele>237.19999694824</ele>
        <time>2015-12-16T15:21:30Z</time>
      </trkpt>
      <trkpt lat="43.43908" lon="6.06934">
        <ele>237</ele>
        <time>2015-12-16T15:21:32Z</time>
      </trkpt>
      <trkpt lat="43.43903" lon="6.06936">
        <ele>237</ele>
        <time>2015-12-16T15:21:33Z</time>
      </trkpt>
      <trkpt lat="43.43888" lon="6.06944">
        <ele>236.80000305176</ele>
        <time>2015-12-16T15:21:36Z</time>
      </trkpt>
      <trkpt lat="43.43882" lon="6.06944">
        <ele>236.60000610352</ele>
        <time>2015-12-16T15:21:37Z</time>
      </trkpt>
      <trkpt lat="43.43877" lon="6.06942">
        <ele>236.80000305176</ele>
        <time>2015-12-16T15:21:38Z</time>
      </trkpt>
      <trkpt lat="43.43872" lon="6.0694">
        <ele>237</ele>
        <time>2015-12-16T15:21:39Z</time>
      </trkpt>
      <trkpt lat="43.43867" lon="6.0694">
        <ele>237</ele>
        <time>2015-12-16T15:21:40Z</time>
      </trkpt>
      <trkpt lat="43.43856" lon="6.06944">
        <ele>236.80000305176</ele>
        <time>2015-12-16T15:21:42Z</time>
      </trkpt>
      <trkpt lat="43.43852" lon="6.06948">
        <ele>236.80000305176</ele>
        <time>2015-12-16T15:21:43Z</time>
      </trkpt>
      <trkpt lat="43.43849" lon="6.06953">
        <ele>237</ele>
        <time>2015-12-16T15:21:44Z</time>
      </trkpt>
      <trkpt lat="43.43844" lon="6.06966">
        <ele>236.80000305176</ele>
        <time>2015-12-16T15:21:46Z</time>
      </trkpt>
      <trkpt lat="43.43839" lon="6.06979">
        <ele>236.60000610352</ele>
        <time>2015-12-16T15:21:48Z</time>
      </trkpt>
      <trkpt lat="43.43831" lon="6.06992">
        <ele>236.60000610352</ele>
        <time>2015-12-16T15:21:50Z</time>
      </trkpt>
      <trkpt lat="43.43827" lon="6.06998">
        <ele>236.39999389648</ele>
        <time>2015-12-16T15:21:51Z</time>
      </trkpt>
      <trkpt lat="43.43822" lon="6.07004">
        <ele>236.39999389648</ele>
        <time>2015-12-16T15:21:52Z</time>
      </trkpt>
      <trkpt lat="43.43817" lon="6.07009">
        <ele>236.39999389648</ele>
        <time>2015-12-16T15:21:53Z</time>
      </trkpt>
      <trkpt lat="43.43812" lon="6.07015">
        <ele>236.19999694824</ele>
        <time>2015-12-16T15:21:54Z</time>
      </trkpt>
      <trkpt lat="43.43806" lon="6.0702">
        <ele>236</ele>
        <time>2015-12-16T15:21:55Z</time>
      </trkpt>
      <trkpt lat="43.43791" lon="6.07037">
        <ele>235.60000610352</ele>
        <time>2015-12-16T15:21:58Z</time>
      </trkpt>
      <trkpt lat="43.43781" lon="6.07048">
        <ele>235.39999389648</ele>
        <time>2015-12-16T15:22:00Z</time>
      </trkpt>
      <trkpt lat="43.43771" lon="6.07058">
        <ele>235.39999389648</ele>
        <time>2015-12-16T15:22:02Z</time>
      </trkpt>
      <trkpt lat="43.4376" lon="6.07067">
        <ele>235</ele>
        <time>2015-12-16T15:22:04Z</time>
      </trkpt>
      <trkpt lat="43.4375" lon="6.07077">
        <ele>234.80000305176</ele>
        <time>2015-12-16T15:22:06Z</time>
      </trkpt>
      <trkpt lat="43.4374" lon="6.07088">
        <ele>234.60000610352</ele>
        <time>2015-12-16T15:22:08Z</time>
      </trkpt>
      <trkpt lat="43.43724" lon="6.07102">
        <ele>233.80000305176</ele>
        <time>2015-12-16T15:22:11Z</time>
      </trkpt>
      <trkpt lat="43.43719" lon="6.07107">
        <ele>233.60000610352</ele>
        <time>2015-12-16T15:22:12Z</time>
      </trkpt>
      <trkpt lat="43.43707" lon="6.07115">
        <ele>233.19999694824</ele>
        <time>2015-12-16T15:22:14Z</time>
      </trkpt>
      <trkpt lat="43.43696" lon="6.07119">
        <ele>232.80000305176</ele>
        <time>2015-12-16T15:22:16Z</time>
      </trkpt>
      <trkpt lat="43.43685" lon="6.07122">
        <ele>232.39999389648</ele>
        <time>2015-12-16T15:22:18Z</time>
      </trkpt>
      <trkpt lat="43.43674" lon="6.07123">
        <ele>232.60000610352</ele>
        <time>2015-12-16T15:22:20Z</time>
      </trkpt>
      <trkpt lat="43.43668" lon="6.07122">
        <ele>232.80000305176</ele>
        <time>2015-12-16T15:22:21Z</time>
      </trkpt>
      <trkpt lat="43.43662" lon="6.07121">
        <ele>232.80000305176</ele>
        <time>2015-12-16T15:22:22Z</time>
      </trkpt>
      <trkpt lat="43.4365" lon="6.07118">
        <ele>232.60000610352</ele>
        <time>2015-12-16T15:22:24Z</time>
      </trkpt>
      <trkpt lat="43.43644" lon="6.07116">
        <ele>232.39999389648</ele>
        <time>2015-12-16T15:22:25Z</time>
      </trkpt>
      <trkpt lat="43.43626" lon="6.07112">
        <ele>232.39999389648</ele>
        <time>2015-12-16T15:22:28Z</time>
      </trkpt>
      <trkpt lat="43.43614" lon="6.07109">
        <ele>232.39999389648</ele>
        <time>2015-12-16T15:22:30Z</time>
      </trkpt>
      <trkpt lat="43.43592" lon="6.07102">
        <ele>233</ele>
        <time>2015-12-16T15:22:34Z</time>
      </trkpt>
      <trkpt lat="43.43587" lon="6.07101">
        <ele>233</ele>
        <time>2015-12-16T15:22:35Z</time>
      </trkpt>
      <trkpt lat="43.43582" lon="6.07099">
        <ele>233.19999694824</ele>
        <time>2015-12-16T15:22:36Z</time>
      </trkpt>
      <trkpt lat="43.43572" lon="6.07097">
        <ele>233.39999389648</ele>
        <time>2015-12-16T15:22:38Z</time>
      </trkpt>
      <trkpt lat="43.43567" lon="6.07095">
        <ele>233.60000610352</ele>
        <time>2015-12-16T15:22:39Z</time>
      </trkpt>
      <trkpt lat="43.43562" lon="6.07094">
        <ele>234</ele>
        <time>2015-12-16T15:22:40Z</time>
      </trkpt>
      <trkpt lat="43.43548" lon="6.07089">
        <ele>234.39999389648</ele>
        <time>2015-12-16T15:22:43Z</time>
      </trkpt>
      <trkpt lat="43.43543" lon="6.07088">
        <ele>234.80000305176</ele>
        <time>2015-12-16T15:22:44Z</time>
      </trkpt>
      <trkpt lat="43.43534" lon="6.07085">
        <ele>235</ele>
        <time>2015-12-16T15:22:46Z</time>
      </trkpt>
      <trkpt lat="43.43521" lon="6.07079">
        <ele>235.80000305176</ele>
        <time>2015-12-16T15:22:49Z</time>
      </trkpt>
      <trkpt lat="43.43516" lon="6.07078">
        <ele>236</ele>
        <time>2015-12-16T15:22:50Z</time>
      </trkpt>
      <trkpt lat="43.43507" lon="6.07074">
        <ele>236.19999694824</ele>
        <time>2015-12-16T15:22:52Z</time>
      </trkpt>
      <trkpt lat="43.43499" lon="6.07072">
        <ele>236.60000610352</ele>
        <time>2015-12-16T15:22:54Z</time>
      </trkpt>
      <trkpt lat="43.43491" lon="6.07069">
        <ele>236.80000305176</ele>
        <time>2015-12-16T15:22:56Z</time>
      </trkpt>
      <trkpt lat="43.43484" lon="6.07065">
        <ele>237</ele>
        <time>2015-12-16T15:22:58Z</time>
      </trkpt>
      <trkpt lat="43.4348" lon="6.07065">
        <ele>237.19999694824</ele>
        <time>2015-12-16T15:22:59Z</time>
      </trkpt>
      <trkpt lat="43.43475" lon="6.07064">
        <ele>237.19999694824</ele>
        <time>2015-12-16T15:23:00Z</time>
      </trkpt>
      <trkpt lat="43.43466" lon="6.07063">
        <ele>237</ele>
        <time>2015-12-16T15:23:02Z</time>
      </trkpt>
      <trkpt lat="43.43462" lon="6.07062">
        <ele>237</ele>
        <time>2015-12-16T15:23:03Z</time>
      </trkpt>
      <trkpt lat="43.43445" lon="6.07056">
        <ele>236.80000305176</ele>
        <time>2015-12-16T15:23:06Z</time>
      </trkpt>
      <trkpt lat="43.43439" lon="6.07055">
        <ele>236.60000610352</ele>
        <time>2015-12-16T15:23:07Z</time>
      </trkpt>
      <trkpt lat="43.43433" lon="6.07053">
        <ele>236.39999389648</ele>
        <time>2015-12-16T15:23:08Z</time>
      </trkpt>
      <trkpt lat="43.43421" lon="6.0705">
        <ele>236</ele>
        <time>2015-12-16T15:23:10Z</time>
      </trkpt>
      <trkpt lat="43.43415" lon="6.07048">
        <ele>235.60000610352</ele>
        <time>2015-12-16T15:23:11Z</time>
      </trkpt>
      <trkpt lat="43.43408" lon="6.07046">
        <ele>235.19999694824</ele>
        <time>2015-12-16T15:23:12Z</time>
      </trkpt>
      <trkpt lat="43.43394" lon="6.07041">
        <ele>234.60000610352</ele>
        <time>2015-12-16T15:23:14Z</time>
      </trkpt>
      <trkpt lat="43.43389" lon="6.07039">
        <ele>234.39999389648</ele>
        <time>2015-12-16T15:23:15Z</time>
      </trkpt>
      <trkpt lat="43.43383" lon="6.07036">
        <ele>234</ele>
        <time>2015-12-16T15:23:16Z</time>
      </trkpt>
      <trkpt lat="43.4337" lon="6.07033">
        <ele>233.60000610352</ele>
        <time>2015-12-16T15:23:18Z</time>
      </trkpt>
      <trkpt lat="43.43366" lon="6.0703">
        <ele>233.39999389648</ele>
        <time>2015-12-16T15:23:19Z</time>
      </trkpt>
      <trkpt lat="43.43362" lon="6.07029">
        <ele>233.19999694824</ele>
        <time>2015-12-16T15:23:20Z</time>
      </trkpt>
      <trkpt lat="43.43353" lon="6.07026">
        <ele>232.60000610352</ele>
        <time>2015-12-16T15:23:22Z</time>
      </trkpt>
      <trkpt lat="43.43344" lon="6.07022">
        <ele>232.60000610352</ele>
        <time>2015-12-16T15:23:24Z</time>
      </trkpt>
      <trkpt lat="43.4334" lon="6.0702">
        <ele>232.60000610352</ele>
        <time>2015-12-16T15:23:25Z</time>
      </trkpt>
      <trkpt lat="43.43328" lon="6.07016">
        <ele>232.39999389648</ele>
        <time>2015-12-16T15:23:28Z</time>
      </trkpt>
      <trkpt lat="43.43321" lon="6.07013">
        <ele>232.19999694824</ele>
        <time>2015-12-16T15:23:30Z</time>
      </trkpt>
      <trkpt lat="43.43314" lon="6.07011">
        <ele>232.39999389648</ele>
        <time>2015-12-16T15:23:32Z</time>
      </trkpt>
      <trkpt lat="43.43307" lon="6.0701">
        <ele>232.39999389648</ele>
        <time>2015-12-16T15:23:34Z</time>
      </trkpt>
      <trkpt lat="43.43301" lon="6.07012">
        <ele>232.39999389648</ele>
        <time>2015-12-16T15:23:36Z</time>
      </trkpt>
      <trkpt lat="43.43291" lon="6.07014">
        <ele>232.60000610352</ele>
        <time>2015-12-16T15:23:40Z</time>
      </trkpt>
      <trkpt lat="43.43287" lon="6.07013">
        <ele>232.60000610352</ele>
        <time>2015-12-16T15:23:42Z</time>
      </trkpt>
      <trkpt lat="43.43285" lon="6.07009">
        <ele>233</ele>
        <time>2015-12-16T15:23:44Z</time>
      </trkpt>
      <trkpt lat="43.43283" lon="6.07006">
        <ele>233.19999694824</ele>
        <time>2015-12-16T15:23:46Z</time>
      </trkpt>
      <trkpt lat="43.43283" lon="6.07002">
        <ele>233.39999389648</ele>
        <time>2015-12-16T15:23:48Z</time>
      </trkpt>
      <trkpt lat="43.43282" lon="6.06997">
        <ele>233.60000610352</ele>
        <time>2015-12-16T15:23:50Z</time>
      </trkpt>
      <trkpt lat="43.43282" lon="6.06994">
        <ele>233.60000610352</ele>
        <time>2015-12-16T15:23:52Z</time>
      </trkpt>
      <trkpt lat="43.43283" lon="6.06992">
        <ele>233.60000610352</ele>
        <time>2015-12-16T15:23:54Z</time>
      </trkpt>
      <trkpt lat="43.43282" lon="6.06992">
        <ele>233.60000610352</ele>
        <time>2015-12-16T15:23:56Z</time>
      </trkpt>
      <trkpt lat="43.43282" lon="6.06992">
        <ele>233.80000305176</ele>
        <time>2015-12-16T15:23:58Z</time>
      </trkpt>
      <trkpt lat="43.43282" lon="6.06992">
        <ele>233.80000305176</ele>
        <time>2015-12-16T15:24:00Z</time>
      </trkpt>
      <trkpt lat="43.43282" lon="6.06992">
        <ele>233.80000305176</ele>
        <time>2015-12-16T15:24:04Z</time>
      </trkpt>
      <trkpt lat="43.43282" lon="6.06992">
        <ele>233.60000610352</ele>
        <time>2015-12-16T15:24:06Z</time>
      </trkpt>
      <trkpt lat="43.43282" lon="6.06992">
        <ele>233.80000305176</ele>
        <time>2015-12-16T15:24:08Z</time>
      </trkpt>
      <trkpt lat="43.43282" lon="6.06992">
        <ele>233.80000305176</ele>
        <time>2015-12-16T15:24:10Z</time>
      </trkpt>
      <trkpt lat="43.43282" lon="6.06992">
        <ele>233.60000610352</ele>
        <time>2015-12-16T15:24:12Z</time>
      </trkpt>
      <trkpt lat="43.43282" lon="6.06992">
        <ele>233.60000610352</ele>
        <time>2015-12-16T15:24:14Z</time>
      </trkpt>
      <trkpt lat="43.43282" lon="6.06992">
        <ele>233.60000610352</ele>
        <time>2015-12-16T15:24:17Z</time>
      </trkpt>
      <trkpt lat="43.43282" lon="6.06992">
        <ele>233.60000610352</ele>
        <time>2015-12-16T15:24:18Z</time>
      </trkpt>
      <trkpt lat="43.43284" lon="6.06985">
        <ele>233.80000305176</ele>
        <time>2015-12-16T15:24:21Z</time>
      </trkpt>
      <trkpt lat="43.43285" lon="6.06981">
        <ele>233.80000305176</ele>
        <time>2015-12-16T15:24:22Z</time>
      </trkpt>
      <trkpt lat="43.43285" lon="6.06974">
        <ele>233.80000305176</ele>
        <time>2015-12-16T15:24:24Z</time>
      </trkpt>
      <trkpt lat="43.43286" lon="6.06966">
        <ele>234</ele>
        <time>2015-12-16T15:24:26Z</time>
      </trkpt>
      <trkpt lat="43.43286" lon="6.06959">
        <ele>234</ele>
        <time>2015-12-16T15:24:28Z</time>
      </trkpt>
      <trkpt lat="43.43287" lon="6.06952">
        <ele>234.19999694824</ele>
        <time>2015-12-16T15:24:30Z</time>
      </trkpt>
      <trkpt lat="43.43287" lon="6.06946">
        <ele>234.19999694824</ele>
        <time>2015-12-16T15:24:32Z</time>
      </trkpt>
      <trkpt lat="43.43287" lon="6.06943">
        <ele>234.19999694824</ele>
        <time>2015-12-16T15:24:33Z</time>
      </trkpt>
      <trkpt lat="43.43287" lon="6.0694">
        <ele>234.80000305176</ele>
        <time>2015-12-16T15:24:34Z</time>
      </trkpt>
      <trkpt lat="43.43287" lon="6.06935">
        <ele>235.19999694824</ele>
        <time>2015-12-16T15:24:36Z</time>
      </trkpt>
      <trkpt lat="43.43287" lon="6.0693">
        <ele>235.60000610352</ele>
        <time>2015-12-16T15:24:38Z</time>
      </trkpt>
      <trkpt lat="43.43286" lon="6.06927">
        <ele>235.80000305176</ele>
        <time>2015-12-16T15:24:40Z</time>
      </trkpt>
      <trkpt lat="43.43285" lon="6.06923">
        <ele>236</ele>
        <time>2015-12-16T15:24:42Z</time>
      </trkpt>
      <trkpt lat="43.43285" lon="6.06921">
        <ele>236.19999694824</ele>
        <time>2015-12-16T15:24:43Z</time>
      </trkpt>
      <trkpt lat="43.43285" lon="6.06919">
        <ele>236.39999389648</ele>
        <time>2015-12-16T15:24:44Z</time>
      </trkpt>
      <trkpt lat="43.43284" lon="6.06914">
        <ele>236.80000305176</ele>
        <time>2015-12-16T15:24:46Z</time>
      </trkpt>
      <trkpt lat="43.43284" lon="6.0691">
        <ele>237.60000610352</ele>
        <time>2015-12-16T15:24:48Z</time>
      </trkpt>
      <trkpt lat="43.43285" lon="6.06909">
        <ele>237.80000305176</ele>
        <time>2015-12-16T15:24:49Z</time>
      </trkpt>
      <trkpt lat="43.43284" lon="6.06899">
        <ele>238.60000610352</ele>
        <time>2015-12-16T15:24:54Z</time>
      </trkpt>
      <trkpt lat="43.43285" lon="6.06895">
        <ele>239</ele>
        <time>2015-12-16T15:24:56Z</time>
      </trkpt>
      <trkpt lat="43.43285" lon="6.06889">
        <ele>239.80000305176</ele>
        <time>2015-12-16T15:24:59Z</time>
      </trkpt>
      <trkpt lat="43.43285" lon="6.06887">
        <ele>240</ele>
        <time>2015-12-16T15:25:00Z</time>
      </trkpt>
      <trkpt lat="43.43284" lon="6.06883">
        <ele>240.60000610352</ele>
        <time>2015-12-16T15:25:02Z</time>
      </trkpt>
      <trkpt lat="43.43283" lon="6.0688">
        <ele>240.80000305176</ele>
        <time>2015-12-16T15:25:03Z</time>
      </trkpt>
      <trkpt lat="43.43283" lon="6.06873">
        <ele>241.39999389648</ele>
        <time>2015-12-16T15:25:06Z</time>
      </trkpt>
      <trkpt lat="43.43283" lon="6.06869">
        <ele>242</ele>
        <time>2015-12-16T15:25:08Z</time>
      </trkpt>
      <trkpt lat="43.43281" lon="6.0686">
        <ele>242.60000610352</ele>
        <time>2015-12-16T15:25:12Z</time>
      </trkpt>
      <trkpt lat="43.4328" lon="6.06858">
        <ele>242.80000305176</ele>
        <time>2015-12-16T15:25:13Z</time>
      </trkpt>
      <trkpt lat="43.4328" lon="6.06856">
        <ele>243</ele>
        <time>2015-12-16T15:25:14Z</time>
      </trkpt>
      <trkpt lat="43.4328" lon="6.06854">
        <ele>243.39999389648</ele>
        <time>2015-12-16T15:25:16Z</time>
      </trkpt>
      <trkpt lat="43.43279" lon="6.06851">
        <ele>243.80000305176</ele>
        <time>2015-12-16T15:25:18Z</time>
      </trkpt>
      <trkpt lat="43.43279" lon="6.06849">
        <ele>243.60000610352</ele>
        <time>2015-12-16T15:25:20Z</time>
      </trkpt>
      <trkpt lat="43.43278" lon="6.06844">
        <ele>243.80000305176</ele>
        <time>2015-12-16T15:25:22Z</time>
      </trkpt>
      <trkpt lat="43.43277" lon="6.06841">
        <ele>244</ele>
        <time>2015-12-16T15:25:24Z</time>
      </trkpt>
      <trkpt lat="43.43276" lon="6.06838">
        <ele>244.39999389648</ele>
        <time>2015-12-16T15:25:26Z</time>
      </trkpt>
      <trkpt lat="43.43276" lon="6.06836">
        <ele>244.60000610352</ele>
        <time>2015-12-16T15:25:27Z</time>
      </trkpt>
      <trkpt lat="43.43275" lon="6.06834">
        <ele>244.60000610352</ele>
        <time>2015-12-16T15:25:28Z</time>
      </trkpt>
      <trkpt lat="43.43274" lon="6.06831">
        <ele>244.60000610352</ele>
        <time>2015-12-16T15:25:30Z</time>
      </trkpt>
      <trkpt lat="43.43273" lon="6.06827">
        <ele>244.80000305176</ele>
        <time>2015-12-16T15:25:32Z</time>
      </trkpt>
      <trkpt lat="43.43273" lon="6.06826">
        <ele>244.80000305176</ele>
        <time>2015-12-16T15:25:33Z</time>
      </trkpt>
      <trkpt lat="43.43272" lon="6.0682">
        <ele>244.80000305176</ele>
        <time>2015-12-16T15:25:36Z</time>
      </trkpt>
      <trkpt lat="43.4327" lon="6.06816">
        <ele>245</ele>
        <time>2015-12-16T15:25:38Z</time>
      </trkpt>
      <trkpt lat="43.4327" lon="6.06813">
        <ele>245.39999389648</ele>
        <time>2015-12-16T15:25:40Z</time>
      </trkpt>
      <trkpt lat="43.43269" lon="6.06809">
        <ele>245.60000610352</ele>
        <time>2015-12-16T15:25:42Z</time>
      </trkpt>
      <trkpt lat="43.43268" lon="6.06805">
        <ele>245.80000305176</ele>
        <time>2015-12-16T15:25:44Z</time>
      </trkpt>
      <trkpt lat="43.43267" lon="6.068">
        <ele>245.80000305176</ele>
        <time>2015-12-16T15:25:46Z</time>
      </trkpt>
      <trkpt lat="43.43266" lon="6.06796">
        <ele>245.80000305176</ele>
        <time>2015-12-16T15:25:48Z</time>
      </trkpt>
      <trkpt lat="43.43265" lon="6.06791">
        <ele>245.80000305176</ele>
        <time>2015-12-16T15:25:50Z</time>
      </trkpt>
      <trkpt lat="43.43264" lon="6.06787">
        <ele>246</ele>
        <time>2015-12-16T15:25:52Z</time>
      </trkpt>
      <trkpt lat="43.43263" lon="6.06783">
        <ele>246.19999694824</ele>
        <time>2015-12-16T15:25:54Z</time>
      </trkpt>
      <trkpt lat="43.43261" lon="6.06779">
        <ele>246</ele>
        <time>2015-12-16T15:25:56Z</time>
      </trkpt>
      <trkpt lat="43.43261" lon="6.06777">
        <ele>246</ele>
        <time>2015-12-16T15:25:57Z</time>
      </trkpt>
      <trkpt lat="43.43259" lon="6.06771">
        <ele>246.80000305176</ele>
        <time>2015-12-16T15:26:00Z</time>
      </trkpt>
      <trkpt lat="43.43257" lon="6.06768">
        <ele>247.19999694824</ele>
        <time>2015-12-16T15:26:02Z</time>
      </trkpt>
      <trkpt lat="43.43256" lon="6.06764">
        <ele>247</ele>
        <time>2015-12-16T15:26:04Z</time>
      </trkpt>
      <trkpt lat="43.43254" lon="6.0676">
        <ele>247</ele>
        <time>2015-12-16T15:26:06Z</time>
      </trkpt>
      <trkpt lat="43.43251" lon="6.06756">
        <ele>247.19999694824</ele>
        <time>2015-12-16T15:26:08Z</time>
      </trkpt>
      <trkpt lat="43.43248" lon="6.0675">
        <ele>248</ele>
        <time>2015-12-16T15:26:12Z</time>
      </trkpt>
      <trkpt lat="43.43247" lon="6.06748">
        <ele>247.80000305176</ele>
        <time>2015-12-16T15:26:13Z</time>
      </trkpt>
      <trkpt lat="43.43246" lon="6.06747">
        <ele>247.60000610352</ele>
        <time>2015-12-16T15:26:14Z</time>
      </trkpt>
      <trkpt lat="43.43244" lon="6.06743">
        <ele>247.39999389648</ele>
        <time>2015-12-16T15:26:16Z</time>
      </trkpt>
      <trkpt lat="43.43241" lon="6.06735">
        <ele>247.60000610352</ele>
        <time>2015-12-16T15:26:20Z</time>
      </trkpt>
      <trkpt lat="43.43238" lon="6.06731">
        <ele>247.80000305176</ele>
        <time>2015-12-16T15:26:22Z</time>
      </trkpt>
      <trkpt lat="43.43236" lon="6.06727">
        <ele>247.60000610352</ele>
        <time>2015-12-16T15:26:24Z</time>
      </trkpt>
      <trkpt lat="43.43233" lon="6.06723">
        <ele>247.80000305176</ele>
        <time>2015-12-16T15:26:26Z</time>
      </trkpt>
      <trkpt lat="43.43231" lon="6.0672">
        <ele>247.80000305176</ele>
        <time>2015-12-16T15:26:28Z</time>
      </trkpt>
      <trkpt lat="43.43225" lon="6.0671">
        <ele>248</ele>
        <time>2015-12-16T15:26:32Z</time>
      </trkpt>
      <trkpt lat="43.43222" lon="6.06705">
        <ele>247.80000305176</ele>
        <time>2015-12-16T15:26:34Z</time>
      </trkpt>
      <trkpt lat="43.4322" lon="6.06701">
        <ele>247.60000610352</ele>
        <time>2015-12-16T15:26:36Z</time>
      </trkpt>
      <trkpt lat="43.43217" lon="6.06696">
        <ele>247.60000610352</ele>
        <time>2015-12-16T15:26:38Z</time>
      </trkpt>
      <trkpt lat="43.43214" lon="6.06691">
        <ele>247.80000305176</ele>
        <time>2015-12-16T15:26:40Z</time>
      </trkpt>
      <trkpt lat="43.43211" lon="6.06685">
        <ele>247.60000610352</ele>
        <time>2015-12-16T15:26:42Z</time>
      </trkpt>
      <trkpt lat="43.43209" lon="6.06679">
        <ele>247.80000305176</ele>
        <time>2015-12-16T15:26:44Z</time>
      </trkpt>
      <trkpt lat="43.43208" lon="6.06673">
        <ele>247.60000610352</ele>
        <time>2015-12-16T15:26:46Z</time>
      </trkpt>
      <trkpt lat="43.43206" lon="6.06667">
        <ele>247.80000305176</ele>
        <time>2015-12-16T15:26:48Z</time>
      </trkpt>
      <trkpt lat="43.43205" lon="6.06661">
        <ele>247.60000610352</ele>
        <time>2015-12-16T15:26:50Z</time>
      </trkpt>
      <trkpt lat="43.43203" lon="6.06654">
        <ele>247.80000305176</ele>
        <time>2015-12-16T15:26:52Z</time>
      </trkpt>
      <trkpt lat="43.43203" lon="6.06651">
        <ele>247.80000305176</ele>
        <time>2015-12-16T15:26:53Z</time>
      </trkpt>
      <trkpt lat="43.43203" lon="6.06647">
        <ele>247.80000305176</ele>
        <time>2015-12-16T15:26:54Z</time>
      </trkpt>
      <trkpt lat="43.43202" lon="6.06642">
        <ele>247.80000305176</ele>
        <time>2015-12-16T15:26:56Z</time>
      </trkpt>
      <trkpt lat="43.43201" lon="6.06637">
        <ele>247.80000305176</ele>
        <time>2015-12-16T15:26:58Z</time>
      </trkpt>
      <trkpt lat="43.43201" lon="6.06634">
        <ele>248</ele>
        <time>2015-12-16T15:26:59Z</time>
      </trkpt>
      <trkpt lat="43.43198" lon="6.06625">
        <ele>248.19999694824</ele>
        <time>2015-12-16T15:27:02Z</time>
      </trkpt>
      <trkpt lat="43.43196" lon="6.0662">
        <ele>248.19999694824</ele>
        <time>2015-12-16T15:27:04Z</time>
      </trkpt>
      <trkpt lat="43.43195" lon="6.06617">
        <ele>248.39999389648</ele>
        <time>2015-12-16T15:27:05Z</time>
      </trkpt>
      <trkpt lat="43.43193" lon="6.06614">
        <ele>248.60000610352</ele>
        <time>2015-12-16T15:27:06Z</time>
      </trkpt>
      <trkpt lat="43.43191" lon="6.06609">
        <ele>248.80000305176</ele>
        <time>2015-12-16T15:27:08Z</time>
      </trkpt>
      <trkpt lat="43.4319" lon="6.06604">
        <ele>249</ele>
        <time>2015-12-16T15:27:10Z</time>
      </trkpt>
      <trkpt lat="43.43189" lon="6.06601">
        <ele>249.19999694824</ele>
        <time>2015-12-16T15:27:11Z</time>
      </trkpt>
      <trkpt lat="43.43188" lon="6.06599">
        <ele>249.19999694824</ele>
        <time>2015-12-16T15:27:12Z</time>
      </trkpt>
      <trkpt lat="43.43185" lon="6.06593">
        <ele>249.19999694824</ele>
        <time>2015-12-16T15:27:14Z</time>
      </trkpt>
      <trkpt lat="43.43184" lon="6.06587">
        <ele>249.80000305176</ele>
        <time>2015-12-16T15:27:16Z</time>
      </trkpt>
      <trkpt lat="43.43182" lon="6.06581">
        <ele>250</ele>
        <time>2015-12-16T15:27:18Z</time>
      </trkpt>
      <trkpt lat="43.4318" lon="6.06575">
        <ele>250.19999694824</ele>
        <time>2015-12-16T15:27:20Z</time>
      </trkpt>
      <trkpt lat="43.43179" lon="6.06569">
        <ele>250.60000610352</ele>
        <time>2015-12-16T15:27:22Z</time>
      </trkpt>
      <trkpt lat="43.43177" lon="6.06565">
        <ele>250.80000305176</ele>
        <time>2015-12-16T15:27:24Z</time>
      </trkpt>
      <trkpt lat="43.43175" lon="6.06563">
        <ele>251.19999694824</ele>
        <time>2015-12-16T15:27:26Z</time>
      </trkpt>
      <trkpt lat="43.43169" lon="6.06556">
        <ele>251.80000305176</ele>
        <time>2015-12-16T15:27:32Z</time>
      </trkpt>
      <trkpt lat="43.43167" lon="6.06554">
        <ele>251.80000305176</ele>
        <time>2015-12-16T15:27:34Z</time>
      </trkpt>
      <trkpt lat="43.43166" lon="6.06553">
        <ele>252</ele>
        <time>2015-12-16T15:27:35Z</time>
      </trkpt>
      <trkpt lat="43.43165" lon="6.06552">
        <ele>252.39999389648</ele>
        <time>2015-12-16T15:27:36Z</time>
      </trkpt>
      <trkpt lat="43.43161" lon="6.06546">
        <ele>253.19999694824</ele>
        <time>2015-12-16T15:27:40Z</time>
      </trkpt>
      <trkpt lat="43.43159" lon="6.06543">
        <ele>253.39999389648</ele>
        <time>2015-12-16T15:27:42Z</time>
      </trkpt>
      <trkpt lat="43.43158" lon="6.0654">
        <ele>253.39999389648</ele>
        <time>2015-12-16T15:27:44Z</time>
      </trkpt>
      <trkpt lat="43.43156" lon="6.06536">
        <ele>254.19999694824</ele>
        <time>2015-12-16T15:27:46Z</time>
      </trkpt>
      <trkpt lat="43.43154" lon="6.06532">
        <ele>254.60000610352</ele>
        <time>2015-12-16T15:27:48Z</time>
      </trkpt>
      <trkpt lat="43.43152" lon="6.06528">
        <ele>254.80000305176</ele>
        <time>2015-12-16T15:27:50Z</time>
      </trkpt>
      <trkpt lat="43.43149" lon="6.06524">
        <ele>255.19999694824</ele>
        <time>2015-12-16T15:27:52Z</time>
      </trkpt>
      <trkpt lat="43.43147" lon="6.06521">
        <ele>255.39999389648</ele>
        <time>2015-12-16T15:27:54Z</time>
      </trkpt>
      <trkpt lat="43.43139" lon="6.06513">
        <ele>256</ele>
        <time>2015-12-16T15:28:00Z</time>
      </trkpt>
      <trkpt lat="43.43136" lon="6.0651">
        <ele>256.20001220703</ele>
        <time>2015-12-16T15:28:02Z</time>
      </trkpt>
      <trkpt lat="43.43134" lon="6.06508">
        <ele>256.60000610352</ele>
        <time>2015-12-16T15:28:04Z</time>
      </trkpt>
      <trkpt lat="43.43133" lon="6.06507">
        <ele>256.60000610352</ele>
        <time>2015-12-16T15:28:05Z</time>
      </trkpt>
      <trkpt lat="43.43132" lon="6.06506">
        <ele>256.79998779297</ele>
        <time>2015-12-16T15:28:06Z</time>
      </trkpt>
      <trkpt lat="43.4313" lon="6.06504">
        <ele>257</ele>
        <time>2015-12-16T15:28:08Z</time>
      </trkpt>
      <trkpt lat="43.43127" lon="6.06501">
        <ele>257</ele>
        <time>2015-12-16T15:28:10Z</time>
      </trkpt>
      <trkpt lat="43.43126" lon="6.065">
        <ele>257.39999389648</ele>
        <time>2015-12-16T15:28:11Z</time>
      </trkpt>
      <trkpt lat="43.43124" lon="6.065">
        <ele>257.60000610352</ele>
        <time>2015-12-16T15:28:12Z</time>
      </trkpt>
      <trkpt lat="43.43122" lon="6.06498">
        <ele>257.39999389648</ele>
        <time>2015-12-16T15:28:14Z</time>
      </trkpt>
      <trkpt lat="43.4312" lon="6.06496">
        <ele>257.79998779297</ele>
        <time>2015-12-16T15:28:16Z</time>
      </trkpt>
      <trkpt lat="43.43118" lon="6.06493">
        <ele>258.20001220703</ele>
        <time>2015-12-16T15:28:18Z</time>
      </trkpt>
      <trkpt lat="43.43117" lon="6.0649">
        <ele>258.39999389648</ele>
        <time>2015-12-16T15:28:20Z</time>
      </trkpt>
      <trkpt lat="43.43115" lon="6.06486">
        <ele>258.60000610352</ele>
        <time>2015-12-16T15:28:22Z</time>
      </trkpt>
      <trkpt lat="43.43114" lon="6.06483">
        <ele>259</ele>
        <time>2015-12-16T15:28:24Z</time>
      </trkpt>
      <trkpt lat="43.43113" lon="6.06479">
        <ele>259.20001220703</ele>
        <time>2015-12-16T15:28:26Z</time>
      </trkpt>
      <trkpt lat="43.43113" lon="6.06476">
        <ele>259.60000610352</ele>
        <time>2015-12-16T15:28:28Z</time>
      </trkpt>
      <trkpt lat="43.43112" lon="6.06473">
        <ele>260</ele>
        <time>2015-12-16T15:28:30Z</time>
      </trkpt>
      <trkpt lat="43.43111" lon="6.06469">
        <ele>260.20001220703</ele>
        <time>2015-12-16T15:28:32Z</time>
      </trkpt>
      <trkpt lat="43.43111" lon="6.06466">
        <ele>260.60000610352</ele>
        <time>2015-12-16T15:28:34Z</time>
      </trkpt>
      <trkpt lat="43.4311" lon="6.06463">
        <ele>260.60000610352</ele>
        <time>2015-12-16T15:28:36Z</time>
      </trkpt>
      <trkpt lat="43.43108" lon="6.06459">
        <ele>260.79998779297</ele>
        <time>2015-12-16T15:28:38Z</time>
      </trkpt>
      <trkpt lat="43.43107" lon="6.06456">
        <ele>261</ele>
        <time>2015-12-16T15:28:39Z</time>
      </trkpt>
      <trkpt lat="43.43106" lon="6.06454">
        <ele>261</ele>
        <time>2015-12-16T15:28:40Z</time>
      </trkpt>
      <trkpt lat="43.43105" lon="6.06453">
        <ele>261.20001220703</ele>
        <time>2015-12-16T15:28:41Z</time>
      </trkpt>
      <trkpt lat="43.43105" lon="6.06451">
        <ele>261.60000610352</ele>
        <time>2015-12-16T15:28:42Z</time>
      </trkpt>
      <trkpt lat="43.43104" lon="6.06447">
        <ele>261.60000610352</ele>
        <time>2015-12-16T15:28:44Z</time>
      </trkpt>
      <trkpt lat="43.43102" lon="6.06444">
        <ele>262</ele>
        <time>2015-12-16T15:28:46Z</time>
      </trkpt>
      <trkpt lat="43.43101" lon="6.0644">
        <ele>262</ele>
        <time>2015-12-16T15:28:48Z</time>
      </trkpt>
      <trkpt lat="43.431" lon="6.06437">
        <ele>262.20001220703</ele>
        <time>2015-12-16T15:28:50Z</time>
      </trkpt>
      <trkpt lat="43.43098" lon="6.06435">
        <ele>262.39999389648</ele>
        <time>2015-12-16T15:28:51Z</time>
      </trkpt>
      <trkpt lat="43.43096" lon="6.0643">
        <ele>262.79998779297</ele>
        <time>2015-12-16T15:28:54Z</time>
      </trkpt>
      <trkpt lat="43.43095" lon="6.06426">
        <ele>262.79998779297</ele>
        <time>2015-12-16T15:28:56Z</time>
      </trkpt>
      <trkpt lat="43.43094" lon="6.06422">
        <ele>263.20001220703</ele>
        <time>2015-12-16T15:28:58Z</time>
      </trkpt>
      <trkpt lat="43.43093" lon="6.06418">
        <ele>263.20001220703</ele>
        <time>2015-12-16T15:29:00Z</time>
      </trkpt>
      <trkpt lat="43.43092" lon="6.06413">
        <ele>263.39999389648</ele>
        <time>2015-12-16T15:29:02Z</time>
      </trkpt>
      <trkpt lat="43.43091" lon="6.06408">
        <ele>263.60000610352</ele>
        <time>2015-12-16T15:29:04Z</time>
      </trkpt>
      <trkpt lat="43.4309" lon="6.06404">
        <ele>263.79998779297</ele>
        <time>2015-12-16T15:29:06Z</time>
      </trkpt>
      <trkpt lat="43.4309" lon="6.064">
        <ele>264.20001220703</ele>
        <time>2015-12-16T15:29:08Z</time>
      </trkpt>
      <trkpt lat="43.43089" lon="6.06396">
        <ele>264</ele>
        <time>2015-12-16T15:29:10Z</time>
      </trkpt>
      <trkpt lat="43.43089" lon="6.06392">
        <ele>264.20001220703</ele>
        <time>2015-12-16T15:29:12Z</time>
      </trkpt>
      <trkpt lat="43.43088" lon="6.06388">
        <ele>264.39999389648</ele>
        <time>2015-12-16T15:29:14Z</time>
      </trkpt>
      <trkpt lat="43.43085" lon="6.06378">
        <ele>264.39999389648</ele>
        <time>2015-12-16T15:29:18Z</time>
      </trkpt>
      <trkpt lat="43.43083" lon="6.06371">
        <ele>264.39999389648</ele>
        <time>2015-12-16T15:29:21Z</time>
      </trkpt>
      <trkpt lat="43.43082" lon="6.06368">
        <ele>264.60000610352</ele>
        <time>2015-12-16T15:29:22Z</time>
      </trkpt>
      <trkpt lat="43.43079" lon="6.06364">
        <ele>264.60000610352</ele>
        <time>2015-12-16T15:29:24Z</time>
      </trkpt>
      <trkpt lat="43.43073" lon="6.06357">
        <ele>264.60000610352</ele>
        <time>2015-12-16T15:29:28Z</time>
      </trkpt>
      <trkpt lat="43.43069" lon="6.06355">
        <ele>264.60000610352</ele>
        <time>2015-12-16T15:29:30Z</time>
      </trkpt>
      <trkpt lat="43.43065" lon="6.06353">
        <ele>264.79998779297</ele>
        <time>2015-12-16T15:29:32Z</time>
      </trkpt>
      <trkpt lat="43.43061" lon="6.06351">
        <ele>264.79998779297</ele>
        <time>2015-12-16T15:29:34Z</time>
      </trkpt>
      <trkpt lat="43.43057" lon="6.06348">
        <ele>265</ele>
        <time>2015-12-16T15:29:36Z</time>
      </trkpt>
      <trkpt lat="43.43053" lon="6.06346">
        <ele>265.60000610352</ele>
        <time>2015-12-16T15:29:38Z</time>
      </trkpt>
      <trkpt lat="43.43052" lon="6.06345">
        <ele>265.60000610352</ele>
        <time>2015-12-16T15:29:39Z</time>
      </trkpt>
      <trkpt lat="43.43051" lon="6.06344">
        <ele>265.60000610352</ele>
        <time>2015-12-16T15:29:40Z</time>
      </trkpt>
      <trkpt lat="43.43048" lon="6.06342">
        <ele>265.60000610352</ele>
        <time>2015-12-16T15:29:42Z</time>
      </trkpt>
      <trkpt lat="43.43044" lon="6.06339">
        <ele>265.60000610352</ele>
        <time>2015-12-16T15:29:44Z</time>
      </trkpt>
      <trkpt lat="43.43043" lon="6.06336">
        <ele>265.79998779297</ele>
        <time>2015-12-16T15:29:45Z</time>
      </trkpt>
      <trkpt lat="43.43041" lon="6.06333">
        <ele>265.79998779297</ele>
        <time>2015-12-16T15:29:46Z</time>
      </trkpt>
      <trkpt lat="43.43038" lon="6.06328">
        <ele>265.60000610352</ele>
        <time>2015-12-16T15:29:48Z</time>
      </trkpt>
      <trkpt lat="43.43036" lon="6.06323">
        <ele>265.79998779297</ele>
        <time>2015-12-16T15:29:50Z</time>
      </trkpt>
      <trkpt lat="43.43034" lon="6.06319">
        <ele>265.79998779297</ele>
        <time>2015-12-16T15:29:52Z</time>
      </trkpt>
      <trkpt lat="43.43031" lon="6.06316">
        <ele>266.20001220703</ele>
        <time>2015-12-16T15:29:54Z</time>
      </trkpt>
      <trkpt lat="43.43028" lon="6.06313">
        <ele>266.39999389648</ele>
        <time>2015-12-16T15:29:56Z</time>
      </trkpt>
      <trkpt lat="43.43025" lon="6.06312">
        <ele>266.60000610352</ele>
        <time>2015-12-16T15:29:58Z</time>
      </trkpt>
      <trkpt lat="43.43021" lon="6.06312">
        <ele>267</ele>
        <time>2015-12-16T15:30:00Z</time>
      </trkpt>
      <trkpt lat="43.43018" lon="6.06311">
        <ele>267.20001220703</ele>
        <time>2015-12-16T15:30:02Z</time>
      </trkpt>
      <trkpt lat="43.43009" lon="6.0631">
        <ele>267.20001220703</ele>
        <time>2015-12-16T15:30:06Z</time>
      </trkpt>
      <trkpt lat="43.43004" lon="6.06307">
        <ele>268</ele>
        <time>2015-12-16T15:30:09Z</time>
      </trkpt>
      <trkpt lat="43.43002" lon="6.06307">
        <ele>268</ele>
        <time>2015-12-16T15:30:10Z</time>
      </trkpt>
      <trkpt lat="43.42998" lon="6.06307">
        <ele>268.20001220703</ele>
        <time>2015-12-16T15:30:12Z</time>
      </trkpt>
      <trkpt lat="43.42994" lon="6.06306">
        <ele>268.39999389648</ele>
        <time>2015-12-16T15:30:14Z</time>
      </trkpt>
      <trkpt lat="43.42992" lon="6.06304">
        <ele>268.60000610352</ele>
        <time>2015-12-16T15:30:15Z</time>
      </trkpt>
      <trkpt lat="43.42986" lon="6.06301">
        <ele>268.39999389648</ele>
        <time>2015-12-16T15:30:18Z</time>
      </trkpt>
      <trkpt lat="43.42982" lon="6.063">
        <ele>268.60000610352</ele>
        <time>2015-12-16T15:30:20Z</time>
      </trkpt>
      <trkpt lat="43.42978" lon="6.06301">
        <ele>269</ele>
        <time>2015-12-16T15:30:22Z</time>
      </trkpt>
      <trkpt lat="43.42976" lon="6.06302">
        <ele>269.20001220703</ele>
        <time>2015-12-16T15:30:23Z</time>
      </trkpt>
      <trkpt lat="43.42974" lon="6.06303">
        <ele>269.39999389648</ele>
        <time>2015-12-16T15:30:24Z</time>
      </trkpt>
      <trkpt lat="43.42969" lon="6.06304">
        <ele>269.79998779297</ele>
        <time>2015-12-16T15:30:26Z</time>
      </trkpt>
      <trkpt lat="43.42966" lon="6.06304">
        <ele>270</ele>
        <time>2015-12-16T15:30:28Z</time>
      </trkpt>
      <trkpt lat="43.42965" lon="6.06304">
        <ele>269.79998779297</ele>
        <time>2015-12-16T15:30:29Z</time>
      </trkpt>
      <trkpt lat="43.42963" lon="6.06303">
        <ele>270</ele>
        <time>2015-12-16T15:30:30Z</time>
      </trkpt>
      <trkpt lat="43.4296" lon="6.06301">
        <ele>270</ele>
        <time>2015-12-16T15:30:32Z</time>
      </trkpt>
      <trkpt lat="43.42957" lon="6.06298">
        <ele>270.20001220703</ele>
        <time>2015-12-16T15:30:34Z</time>
      </trkpt>
      <trkpt lat="43.42955" lon="6.06296">
        <ele>270.60000610352</ele>
        <time>2015-12-16T15:30:36Z</time>
      </trkpt>
      <trkpt lat="43.42953" lon="6.06293">
        <ele>270.79998779297</ele>
        <time>2015-12-16T15:30:38Z</time>
      </trkpt>
      <trkpt lat="43.4295" lon="6.0629">
        <ele>271</ele>
        <time>2015-12-16T15:30:40Z</time>
      </trkpt>
      <trkpt lat="43.42949" lon="6.06289">
        <ele>271</ele>
        <time>2015-12-16T15:30:41Z</time>
      </trkpt>
      <trkpt lat="43.42948" lon="6.06288">
        <ele>271</ele>
        <time>2015-12-16T15:30:42Z</time>
      </trkpt>
      <trkpt lat="43.42946" lon="6.06286">
        <ele>271.20001220703</ele>
        <time>2015-12-16T15:30:44Z</time>
      </trkpt>
      <trkpt lat="43.42944" lon="6.06284">
        <ele>271.60000610352</ele>
        <time>2015-12-16T15:30:46Z</time>
      </trkpt>
      <trkpt lat="43.42941" lon="6.06282">
        <ele>272</ele>
        <time>2015-12-16T15:30:49Z</time>
      </trkpt>
      <trkpt lat="43.42939" lon="6.06282">
        <ele>272.39999389648</ele>
        <time>2015-12-16T15:30:50Z</time>
      </trkpt>
      <trkpt lat="43.42937" lon="6.06283">
        <ele>272.79998779297</ele>
        <time>2015-12-16T15:30:52Z</time>
      </trkpt>
      <trkpt lat="43.42936" lon="6.06284">
        <ele>273</ele>
        <time>2015-12-16T15:30:54Z</time>
      </trkpt>
      <trkpt lat="43.42934" lon="6.06288">
        <ele>273.60000610352</ele>
        <time>2015-12-16T15:30:56Z</time>
      </trkpt>
      <trkpt lat="43.42933" lon="6.06289">
        <ele>273.79998779297</ele>
        <time>2015-12-16T15:30:57Z</time>
      </trkpt>
      <trkpt lat="43.42932" lon="6.0629">
        <ele>274.20001220703</ele>
        <time>2015-12-16T15:30:58Z</time>
      </trkpt>
      <trkpt lat="43.42928" lon="6.06294">
        <ele>274.39999389648</ele>
        <time>2015-12-16T15:31:00Z</time>
      </trkpt>
      <trkpt lat="43.42926" lon="6.06296">
        <ele>275.20001220703</ele>
        <time>2015-12-16T15:31:02Z</time>
      </trkpt>
      <trkpt lat="43.42924" lon="6.06299">
        <ele>275.60000610352</ele>
        <time>2015-12-16T15:31:04Z</time>
      </trkpt>
      <trkpt lat="43.42922" lon="6.06301">
        <ele>276.20001220703</ele>
        <time>2015-12-16T15:31:06Z</time>
      </trkpt>
      <trkpt lat="43.4292" lon="6.06303">
        <ele>277</ele>
        <time>2015-12-16T15:31:08Z</time>
      </trkpt>
      <trkpt lat="43.4292" lon="6.06304">
        <ele>277.20001220703</ele>
        <time>2015-12-16T15:31:09Z</time>
      </trkpt>
      <trkpt lat="43.4292" lon="6.06304">
        <ele>277.39999389648</ele>
        <time>2015-12-16T15:31:10Z</time>
      </trkpt>
      <trkpt lat="43.42919" lon="6.06304">
        <ele>277.39999389648</ele>
        <time>2015-12-16T15:31:12Z</time>
      </trkpt>
      <trkpt lat="43.42919" lon="6.06304">
        <ele>277.20001220703</ele>
        <time>2015-12-16T15:31:16Z</time>
      </trkpt>
      <trkpt lat="43.42919" lon="6.06304">
        <ele>277.20001220703</ele>
        <time>2015-12-16T15:31:20Z</time>
      </trkpt>
      <trkpt lat="43.42919" lon="6.06304">
        <ele>277.39999389648</ele>
        <time>2015-12-16T15:31:22Z</time>
      </trkpt>
      <trkpt lat="43.42919" lon="6.06305">
        <ele>277.39999389648</ele>
        <time>2015-12-16T15:31:24Z</time>
      </trkpt>
      <trkpt lat="43.42919" lon="6.06305">
        <ele>277.79998779297</ele>
        <time>2015-12-16T15:31:26Z</time>
      </trkpt>
      <trkpt lat="43.42919" lon="6.06305">
        <ele>277.79998779297</ele>
        <time>2015-12-16T15:31:27Z</time>
      </trkpt>
      <trkpt lat="43.42919" lon="6.06305">
        <ele>277.79998779297</ele>
        <time>2015-12-16T15:31:28Z</time>
      </trkpt>
      <trkpt lat="43.42918" lon="6.06307">
        <ele>278.20001220703</ele>
        <time>2015-12-16T15:31:30Z</time>
      </trkpt>
      <trkpt lat="43.42918" lon="6.06307">
        <ele>278.20001220703</ele>
        <time>2015-12-16T15:31:32Z</time>
      </trkpt>
      <trkpt lat="43.42918" lon="6.06308">
        <ele>278.39999389648</ele>
        <time>2015-12-16T15:31:34Z</time>
      </trkpt>
      <trkpt lat="43.42918" lon="6.06308">
        <ele>278.79998779297</ele>
        <time>2015-12-16T15:31:36Z</time>
      </trkpt>
      <trkpt lat="43.42917" lon="6.06309">
        <ele>278.79998779297</ele>
        <time>2015-12-16T15:31:38Z</time>
      </trkpt>
      <trkpt lat="43.42917" lon="6.06309">
        <ele>278.79998779297</ele>
        <time>2015-12-16T15:31:44Z</time>
      </trkpt>
      <trkpt lat="43.42916" lon="6.06309">
        <ele>279</ele>
        <time>2015-12-16T15:31:45Z</time>
      </trkpt>
      <trkpt lat="43.42916" lon="6.06309">
        <ele>279.39999389648</ele>
        <time>2015-12-16T15:31:46Z</time>
      </trkpt>
      <trkpt lat="43.42916" lon="6.06309">
        <ele>279.20001220703</ele>
        <time>2015-12-16T15:31:47Z</time>
      </trkpt>
      <trkpt lat="43.42916" lon="6.06309">
        <ele>279.20001220703</ele>
        <time>2015-12-16T15:31:48Z</time>
      </trkpt>
      <trkpt lat="43.42916" lon="6.0631">
        <ele>279.39999389648</ele>
        <time>2015-12-16T15:31:50Z</time>
      </trkpt>
      <trkpt lat="43.42916" lon="6.0631">
        <ele>279.39999389648</ele>
        <time>2015-12-16T15:31:52Z</time>
      </trkpt>
      <trkpt lat="43.42916" lon="6.0631">
        <ele>279.60000610352</ele>
        <time>2015-12-16T15:31:54Z</time>
      </trkpt>
      <trkpt lat="43.42915" lon="6.06311">
        <ele>279.60000610352</ele>
        <time>2015-12-16T15:31:58Z</time>
      </trkpt>
      <trkpt lat="43.42914" lon="6.06311">
        <ele>279.79998779297</ele>
        <time>2015-12-16T15:32:00Z</time>
      </trkpt>
      <trkpt lat="43.42914" lon="6.06311">
        <ele>280</ele>
        <time>2015-12-16T15:32:01Z</time>
      </trkpt>
      <trkpt lat="43.42913" lon="6.06312">
        <ele>280.20001220703</ele>
        <time>2015-12-16T15:32:02Z</time>
      </trkpt>
      <trkpt lat="43.42912" lon="6.06313">
        <ele>280.39999389648</ele>
        <time>2015-12-16T15:32:04Z</time>
      </trkpt>
      <trkpt lat="43.42913" lon="6.06313">
        <ele>280.39999389648</ele>
        <time>2015-12-16T15:32:06Z</time>
      </trkpt>
      <trkpt lat="43.42913" lon="6.06313">
        <ele>280.39999389648</ele>
        <time>2015-12-16T15:32:08Z</time>
      </trkpt>
      <trkpt lat="43.42913" lon="6.06313">
        <ele>280</ele>
        <time>2015-12-16T15:32:10Z</time>
      </trkpt>
      <trkpt lat="43.42913" lon="6.06313">
        <ele>279.79998779297</ele>
        <time>2015-12-16T15:32:12Z</time>
      </trkpt>
      <trkpt lat="43.42913" lon="6.06313">
        <ele>279.79998779297</ele>
        <time>2015-12-16T15:32:14Z</time>
      </trkpt>
      <trkpt lat="43.42913" lon="6.06313">
        <ele>279.79998779297</ele>
        <time>2015-12-16T15:32:16Z</time>
      </trkpt>
      <trkpt lat="43.42913" lon="6.06313">
        <ele>280</ele>
        <time>2015-12-16T15:32:18Z</time>
      </trkpt>
      <trkpt lat="43.42913" lon="6.06313">
        <ele>280</ele>
        <time>2015-12-16T15:32:22Z</time>
      </trkpt>
      <trkpt lat="43.42913" lon="6.06313">
        <ele>280.20001220703</ele>
        <time>2015-12-16T15:32:28Z</time>
      </trkpt>
      <trkpt lat="43.42913" lon="6.06313">
        <ele>280</ele>
        <time>2015-12-16T15:32:32Z</time>
      </trkpt>
      <trkpt lat="43.42913" lon="6.06313">
        <ele>279.79998779297</ele>
        <time>2015-12-16T15:32:34Z</time>
      </trkpt>
      <trkpt lat="43.42913" lon="6.06313">
        <ele>279.79998779297</ele>
        <time>2015-12-16T15:32:36Z</time>
      </trkpt>
      <trkpt lat="43.42913" lon="6.06313">
        <ele>279.60000610352</ele>
        <time>2015-12-16T15:32:38Z</time>
      </trkpt>
      <trkpt lat="43.42913" lon="6.06313">
        <ele>279.79998779297</ele>
        <time>2015-12-16T15:32:44Z</time>
      </trkpt>
      <trkpt lat="43.42913" lon="6.06313">
        <ele>279.79998779297</ele>
        <time>2015-12-16T15:33:06Z</time>
      </trkpt>
      <trkpt lat="43.42913" lon="6.06313">
        <ele>280</ele>
        <time>2015-12-16T15:33:10Z</time>
      </trkpt>
      <trkpt lat="43.42913" lon="6.06313">
        <ele>280</ele>
        <time>2015-12-16T15:33:12Z</time>
      </trkpt>
      <trkpt lat="43.42913" lon="6.06313">
        <ele>280</ele>
        <time>2015-12-16T15:33:16Z</time>
      </trkpt>
      <trkpt lat="43.42913" lon="6.06313">
        <ele>279.79998779297</ele>
        <time>2015-12-16T15:33:20Z</time>
      </trkpt>
      <trkpt lat="43.42913" lon="6.06313">
        <ele>280</ele>
        <time>2015-12-16T15:33:22Z</time>
      </trkpt>
      <trkpt lat="43.42913" lon="6.06313">
        <ele>280</ele>
        <time>2015-12-16T15:33:28Z</time>
      </trkpt>
      <trkpt lat="43.42913" lon="6.06313">
        <ele>280</ele>
        <time>2015-12-16T15:33:36Z</time>
      </trkpt>
      <trkpt lat="43.42913" lon="6.06313">
        <ele>279.79998779297</ele>
        <time>2015-12-16T15:33:38Z</time>
      </trkpt>
      <trkpt lat="43.42913" lon="6.06313">
        <ele>279.79998779297</ele>
        <time>2015-12-16T15:33:40Z</time>
      </trkpt>
      <trkpt lat="43.42913" lon="6.06313">
        <ele>279.79998779297</ele>
        <time>2015-12-16T15:33:42Z</time>
      </trkpt>
      <trkpt lat="43.42913" lon="6.06313">
        <ele>280</ele>
        <time>2015-12-16T15:33:48Z</time>
      </trkpt>
      <trkpt lat="43.42913" lon="6.06313">
        <ele>280</ele>
        <time>2015-12-16T15:33:52Z</time>
      </trkpt>
      <trkpt lat="43.42913" lon="6.06313">
        <ele>280.20001220703</ele>
        <time>2015-12-16T15:33:56Z</time>
      </trkpt>
      <trkpt lat="43.42913" lon="6.06313">
        <ele>280.20001220703</ele>
        <time>2015-12-16T15:33:58Z</time>
      </trkpt>
      <trkpt lat="43.42913" lon="6.06313">
        <ele>280</ele>
        <time>2015-12-16T15:34:00Z</time>
      </trkpt>
      <trkpt lat="43.42913" lon="6.06313">
        <ele>280.20001220703</ele>
        <time>2015-12-16T15:34:02Z</time>
      </trkpt>
      <trkpt lat="43.42913" lon="6.06313">
        <ele>280.20001220703</ele>
        <time>2015-12-16T15:34:04Z</time>
      </trkpt>
      <trkpt lat="43.42913" lon="6.06313">
        <ele>279.79998779297</ele>
        <time>2015-12-16T15:34:06Z</time>
      </trkpt>
      <trkpt lat="43.42913" lon="6.06313">
        <ele>280</ele>
        <time>2015-12-16T15:34:08Z</time>
      </trkpt>
      <trkpt lat="43.42913" lon="6.06313">
        <ele>280</ele>
        <time>2015-12-16T15:34:10Z</time>
      </trkpt>
      <trkpt lat="43.42913" lon="6.06313">
        <ele>280</ele>
        <time>2015-12-16T15:34:12Z</time>
      </trkpt>
      <trkpt lat="43.42913" lon="6.06313">
        <ele>280</ele>
        <time>2015-12-16T15:34:14Z</time>
      </trkpt>
      <trkpt lat="43.42913" lon="6.06313">
        <ele>280</ele>
        <time>2015-12-16T15:34:16Z</time>
      </trkpt>
      <trkpt lat="43.42913" lon="6.06313">
        <ele>280</ele>
        <time>2015-12-16T15:34:20Z</time>
      </trkpt>
      <trkpt lat="43.42913" lon="6.06313">
        <ele>280</ele>
        <time>2015-12-16T15:34:24Z</time>
      </trkpt>
      <trkpt lat="43.42913" lon="6.06313">
        <ele>280</ele>
        <time>2015-12-16T15:34:26Z</time>
      </trkpt>
      <trkpt lat="43.42913" lon="6.06313">
        <ele>280.20001220703</ele>
        <time>2015-12-16T15:34:30Z</time>
      </trkpt>
      <trkpt lat="43.42913" lon="6.06313">
        <ele>280</ele>
        <time>2015-12-16T15:34:36Z</time>
      </trkpt>
      <trkpt lat="43.42913" lon="6.06313">
        <ele>279.79998779297</ele>
        <time>2015-12-16T15:34:42Z</time>
      </trkpt>
      <trkpt lat="43.42913" lon="6.06313">
        <ele>280</ele>
        <time>2015-12-16T15:34:59Z</time>
      </trkpt>
      <trkpt lat="43.42912" lon="6.06313">
        <ele>280.20001220703</ele>
        <time>2015-12-16T15:35:02Z</time>
      </trkpt>
      <trkpt lat="43.42912" lon="6.06313">
        <ele>280.20001220703</ele>
        <time>2015-12-16T15:35:04Z</time>
      </trkpt>
      <trkpt lat="43.42912" lon="6.06313">
        <ele>280</ele>
        <time>2015-12-16T15:35:08Z</time>
      </trkpt>
      <trkpt lat="43.42912" lon="6.06313">
        <ele>280.20001220703</ele>
        <time>2015-12-16T15:35:10Z</time>
      </trkpt>
      <trkpt lat="43.42913" lon="6.06313">
        <ele>280</ele>
        <time>2015-12-16T15:35:12Z</time>
      </trkpt>
      <trkpt lat="43.42913" lon="6.06313">
        <ele>280</ele>
        <time>2015-12-16T15:35:20Z</time>
      </trkpt>
      <trkpt lat="43.42913" lon="6.06313">
        <ele>279.79998779297</ele>
        <time>2015-12-16T15:35:30Z</time>
      </trkpt>
      <trkpt lat="43.42913" lon="6.06313">
        <ele>279.79998779297</ele>
        <time>2015-12-16T15:35:44Z</time>
      </trkpt>
      <trkpt lat="43.42913" lon="6.06313">
        <ele>280.20001220703</ele>
        <time>2015-12-16T15:35:46Z</time>
      </trkpt>
      <trkpt lat="43.42912" lon="6.06313">
        <ele>280.60000610352</ele>
        <time>2015-12-16T15:35:48Z</time>
      </trkpt>
      <trkpt lat="43.4291" lon="6.06313">
        <ele>281</ele>
        <time>2015-12-16T15:35:51Z</time>
      </trkpt>
      <trkpt lat="43.42908" lon="6.06314">
        <ele>281.20001220703</ele>
        <time>2015-12-16T15:35:54Z</time>
      </trkpt>
      <trkpt lat="43.42907" lon="6.06313">
        <ele>281.39999389648</ele>
        <time>2015-12-16T15:35:56Z</time>
      </trkpt>
      <trkpt lat="43.42906" lon="6.06312">
        <ele>281.20001220703</ele>
        <time>2015-12-16T15:35:58Z</time>
      </trkpt>
      <trkpt lat="43.42906" lon="6.06312">
        <ele>281.20001220703</ele>
        <time>2015-12-16T15:36:00Z</time>
      </trkpt>
      <trkpt lat="43.42905" lon="6.06312">
        <ele>281.20001220703</ele>
        <time>2015-12-16T15:36:02Z</time>
      </trkpt>
      <trkpt lat="43.42905" lon="6.06312">
        <ele>281.20001220703</ele>
        <time>2015-12-16T15:36:04Z</time>
      </trkpt>
      <trkpt lat="43.42905" lon="6.06312">
        <ele>281.39999389648</ele>
        <time>2015-12-16T15:36:06Z</time>
      </trkpt>
      <trkpt lat="43.42906" lon="6.06311">
        <ele>281.20001220703</ele>
        <time>2015-12-16T15:36:08Z</time>
      </trkpt>
      <trkpt lat="43.42906" lon="6.06311">
        <ele>281.20001220703</ele>
        <time>2015-12-16T15:36:10Z</time>
      </trkpt>
      <trkpt lat="43.42906" lon="6.06311">
        <ele>281.20001220703</ele>
        <time>2015-12-16T15:36:12Z</time>
      </trkpt>
      <trkpt lat="43.42906" lon="6.06311">
        <ele>281.39999389648</ele>
        <time>2015-12-16T15:36:13Z</time>
      </trkpt>
      <trkpt lat="43.42906" lon="6.0631">
        <ele>281.60000610352</ele>
        <time>2015-12-16T15:36:14Z</time>
      </trkpt>
      <trkpt lat="43.42906" lon="6.0631">
        <ele>281.60000610352</ele>
        <time>2015-12-16T15:36:16Z</time>
      </trkpt>
      <trkpt lat="43.42906" lon="6.0631">
        <ele>281.39999389648</ele>
        <time>2015-12-16T15:36:18Z</time>
      </trkpt>
      <trkpt lat="43.42905" lon="6.06311">
        <ele>281.39999389648</ele>
        <time>2015-12-16T15:36:20Z</time>
      </trkpt>
      <trkpt lat="43.42905" lon="6.06311">
        <ele>281.39999389648</ele>
        <time>2015-12-16T15:36:22Z</time>
      </trkpt>
      <trkpt lat="43.42905" lon="6.06312">
        <ele>281.20001220703</ele>
        <time>2015-12-16T15:36:26Z</time>
      </trkpt>
      <trkpt lat="43.42905" lon="6.06312">
        <ele>281.20001220703</ele>
        <time>2015-12-16T15:36:27Z</time>
      </trkpt>
      <trkpt lat="43.42905" lon="6.06312">
        <ele>281</ele>
        <time>2015-12-16T15:36:28Z</time>
      </trkpt>
      <trkpt lat="43.42903" lon="6.06315">
        <ele>281.20001220703</ele>
        <time>2015-12-16T15:36:30Z</time>
      </trkpt>
      <trkpt lat="43.42903" lon="6.06315">
        <ele>281.39999389648</ele>
        <time>2015-12-16T15:36:32Z</time>
      </trkpt>
      <trkpt lat="43.42902" lon="6.06317">
        <ele>281.39999389648</ele>
        <time>2015-12-16T15:36:33Z</time>
      </trkpt>
      <trkpt lat="43.42902" lon="6.06317">
        <ele>281.39999389648</ele>
        <time>2015-12-16T15:36:34Z</time>
      </trkpt>
      <trkpt lat="43.42902" lon="6.06318">
        <ele>281.39999389648</ele>
        <time>2015-12-16T15:36:36Z</time>
      </trkpt>
      <trkpt lat="43.42902" lon="6.06318">
        <ele>281.60000610352</ele>
        <time>2015-12-16T15:36:38Z</time>
      </trkpt>
      <trkpt lat="43.42902" lon="6.06318">
        <ele>281.60000610352</ele>
        <time>2015-12-16T15:36:40Z</time>
      </trkpt>
      <trkpt lat="43.42902" lon="6.06318">
        <ele>281.20001220703</ele>
        <time>2015-12-16T15:36:42Z</time>
      </trkpt>
      <trkpt lat="43.42901" lon="6.0632">
        <ele>281.39999389648</ele>
        <time>2015-12-16T15:36:44Z</time>
      </trkpt>
      <trkpt lat="43.42901" lon="6.0632">
        <ele>281.20001220703</ele>
        <time>2015-12-16T15:36:46Z</time>
      </trkpt>
      <trkpt lat="43.42901" lon="6.0632">
        <ele>281.39999389648</ele>
        <time>2015-12-16T15:36:48Z</time>
      </trkpt>
      <trkpt lat="43.42901" lon="6.0632">
        <ele>281.39999389648</ele>
        <time>2015-12-16T15:36:50Z</time>
      </trkpt>
      <trkpt lat="43.429" lon="6.0632">
        <ele>281.39999389648</ele>
        <time>2015-12-16T15:36:52Z</time>
      </trkpt>
      <trkpt lat="43.429" lon="6.0632">
        <ele>281.39999389648</ele>
        <time>2015-12-16T15:36:54Z</time>
      </trkpt>
      <trkpt lat="43.429" lon="6.0632">
        <ele>281.39999389648</ele>
        <time>2015-12-16T15:36:56Z</time>
      </trkpt>
      <trkpt lat="43.42898" lon="6.0632">
        <ele>281.60000610352</ele>
        <time>2015-12-16T15:36:58Z</time>
      </trkpt>
      <trkpt lat="43.42897" lon="6.06321">
        <ele>281.79998779297</ele>
        <time>2015-12-16T15:36:59Z</time>
      </trkpt>
      <trkpt lat="43.42896" lon="6.06322">
        <ele>282</ele>
        <time>2015-12-16T15:37:00Z</time>
      </trkpt>
      <trkpt lat="43.42894" lon="6.06323">
        <ele>282</ele>
        <time>2015-12-16T15:37:02Z</time>
      </trkpt>
      <trkpt lat="43.42891" lon="6.06323">
        <ele>282</ele>
        <time>2015-12-16T15:37:04Z</time>
      </trkpt>
      <trkpt lat="43.42887" lon="6.06322">
        <ele>282.39999389648</ele>
        <time>2015-12-16T15:37:08Z</time>
      </trkpt>
      <trkpt lat="43.42884" lon="6.06323">
        <ele>282.79998779297</ele>
        <time>2015-12-16T15:37:10Z</time>
      </trkpt>
      <trkpt lat="43.42882" lon="6.06322">
        <ele>283</ele>
        <time>2015-12-16T15:37:12Z</time>
      </trkpt>
      <trkpt lat="43.42881" lon="6.06321">
        <ele>283</ele>
        <time>2015-12-16T15:37:14Z</time>
      </trkpt>
      <trkpt lat="43.42878" lon="6.06321">
        <ele>283.20001220703</ele>
        <time>2015-12-16T15:37:16Z</time>
      </trkpt>
      <trkpt lat="43.42876" lon="6.0632">
        <ele>283.20001220703</ele>
        <time>2015-12-16T15:37:18Z</time>
      </trkpt>
      <trkpt lat="43.42876" lon="6.06318">
        <ele>283.20001220703</ele>
        <time>2015-12-16T15:37:20Z</time>
      </trkpt>
      <trkpt lat="43.42875" lon="6.06318">
        <ele>283.39999389648</ele>
        <time>2015-12-16T15:37:21Z</time>
      </trkpt>
      <trkpt lat="43.42875" lon="6.06318">
        <ele>283.39999389648</ele>
        <time>2015-12-16T15:37:22Z</time>
      </trkpt>
      <trkpt lat="43.42875" lon="6.06317">
        <ele>283.39999389648</ele>
        <time>2015-12-16T15:37:23Z</time>
      </trkpt>
      <trkpt lat="43.42875" lon="6.06317">
        <ele>283.60000610352</ele>
        <time>2015-12-16T15:37:24Z</time>
      </trkpt>
      <trkpt lat="43.42875" lon="6.06317">
        <ele>283.39999389648</ele>
        <time>2015-12-16T15:37:26Z</time>
      </trkpt>
      <trkpt lat="43.42875" lon="6.06317">
        <ele>283.39999389648</ele>
        <time>2015-12-16T15:37:32Z</time>
      </trkpt>
      <trkpt lat="43.42875" lon="6.06317">
        <ele>283.60000610352</ele>
        <time>2015-12-16T15:37:40Z</time>
      </trkpt>
      <trkpt lat="43.42875" lon="6.06317">
        <ele>283.39999389648</ele>
        <time>2015-12-16T15:37:42Z</time>
      </trkpt>
      <trkpt lat="43.42875" lon="6.06317">
        <ele>283.39999389648</ele>
        <time>2015-12-16T15:37:46Z</time>
      </trkpt>
      <trkpt lat="43.42875" lon="6.06317">
        <ele>283.60000610352</ele>
        <time>2015-12-16T15:37:56Z</time>
      </trkpt>
      <trkpt lat="43.42875" lon="6.06317">
        <ele>283.60000610352</ele>
        <time>2015-12-16T15:37:58Z</time>
      </trkpt>
      <trkpt lat="43.42875" lon="6.06317">
        <ele>283.60000610352</ele>
        <time>2015-12-16T15:38:00Z</time>
      </trkpt>
      <trkpt lat="43.42875" lon="6.06316">
        <ele>283.60000610352</ele>
        <time>2015-12-16T15:38:02Z</time>
      </trkpt>
      <trkpt lat="43.42873" lon="6.06315">
        <ele>283.60000610352</ele>
        <time>2015-12-16T15:38:03Z</time>
      </trkpt>
      <trkpt lat="43.42873" lon="6.06315">
        <ele>283.60000610352</ele>
        <time>2015-12-16T15:38:04Z</time>
      </trkpt>
      <trkpt lat="43.42868" lon="6.06313">
        <ele>283.60000610352</ele>
        <time>2015-12-16T15:38:08Z</time>
      </trkpt>
      <trkpt lat="43.42865" lon="6.06313">
        <ele>283.79998779297</ele>
        <time>2015-12-16T15:38:10Z</time>
      </trkpt>
      <trkpt lat="43.42862" lon="6.06312">
        <ele>284</ele>
        <time>2015-12-16T15:38:12Z</time>
      </trkpt>
      <trkpt lat="43.42858" lon="6.06312">
        <ele>283.79998779297</ele>
        <time>2015-12-16T15:38:14Z</time>
      </trkpt>
      <trkpt lat="43.42855" lon="6.06314">
        <ele>284</ele>
        <time>2015-12-16T15:38:16Z</time>
      </trkpt>
      <trkpt lat="43.42851" lon="6.06316">
        <ele>283.79998779297</ele>
        <time>2015-12-16T15:38:18Z</time>
      </trkpt>
      <trkpt lat="43.42848" lon="6.06319">
        <ele>284.20001220703</ele>
        <time>2015-12-16T15:38:20Z</time>
      </trkpt>
      <trkpt lat="43.4284" lon="6.06326">
        <ele>284.20001220703</ele>
        <time>2015-12-16T15:38:24Z</time>
      </trkpt>
      <trkpt lat="43.42834" lon="6.0633">
        <ele>284</ele>
        <time>2015-12-16T15:38:26Z</time>
      </trkpt>
      <trkpt lat="43.42831" lon="6.06334">
        <ele>283.20001220703</ele>
        <time>2015-12-16T15:38:27Z</time>
      </trkpt>
      <trkpt lat="43.42827" lon="6.06339">
        <ele>282.79998779297</ele>
        <time>2015-12-16T15:38:28Z</time>
      </trkpt>
      <trkpt lat="43.42819" lon="6.06348">
        <ele>281.79998779297</ele>
        <time>2015-12-16T15:38:30Z</time>
      </trkpt>
      <trkpt lat="43.42812" lon="6.0635">
        <ele>281</ele>
        <time>2015-12-16T15:38:32Z</time>
      </trkpt>
      <trkpt lat="43.4281" lon="6.06349">
        <ele>280.79998779297</ele>
        <time>2015-12-16T15:38:33Z</time>
      </trkpt>
      <trkpt lat="43.42807" lon="6.06347">
        <ele>280.39999389648</ele>
        <time>2015-12-16T15:38:34Z</time>
      </trkpt>
      <trkpt lat="43.42801" lon="6.06345">
        <ele>279.60000610352</ele>
        <time>2015-12-16T15:38:36Z</time>
      </trkpt>
      <trkpt lat="43.42793" lon="6.06343">
        <ele>279</ele>
        <time>2015-12-16T15:38:38Z</time>
      </trkpt>
      <trkpt lat="43.42789" lon="6.06343">
        <ele>278.60000610352</ele>
        <time>2015-12-16T15:38:39Z</time>
      </trkpt>
      <trkpt lat="43.42785" lon="6.06341">
        <ele>277.79998779297</ele>
        <time>2015-12-16T15:38:40Z</time>
      </trkpt>
      <trkpt lat="43.42777" lon="6.06338">
        <ele>276.79998779297</ele>
        <time>2015-12-16T15:38:42Z</time>
      </trkpt>
      <trkpt lat="43.42772" lon="6.06336">
        <ele>277.20001220703</ele>
        <time>2015-12-16T15:38:43Z</time>
      </trkpt>
      <trkpt lat="43.42766" lon="6.06337">
        <ele>277.20001220703</ele>
        <time>2015-12-16T15:38:44Z</time>
      </trkpt>
      <trkpt lat="43.42756" lon="6.06339">
        <ele>276.79998779297</ele>
        <time>2015-12-16T15:38:46Z</time>
      </trkpt>
      <trkpt lat="43.42746" lon="6.06343">
        <ele>275.20001220703</ele>
        <time>2015-12-16T15:38:48Z</time>
      </trkpt>
      <trkpt lat="43.42735" lon="6.06344">
        <ele>274.39999389648</ele>
        <time>2015-12-16T15:38:50Z</time>
      </trkpt>
      <trkpt lat="43.42724" lon="6.06344">
        <ele>274</ele>
        <time>2015-12-16T15:38:52Z</time>
      </trkpt>
      <trkpt lat="43.42714" lon="6.06344">
        <ele>273.39999389648</ele>
        <time>2015-12-16T15:38:54Z</time>
      </trkpt>
      <trkpt lat="43.42705" lon="6.06339">
        <ele>273.20001220703</ele>
        <time>2015-12-16T15:38:56Z</time>
      </trkpt>
      <trkpt lat="43.42701" lon="6.06337">
        <ele>273</ele>
        <time>2015-12-16T15:38:57Z</time>
      </trkpt>
      <trkpt lat="43.42697" lon="6.06334">
        <ele>273.20001220703</ele>
        <time>2015-12-16T15:38:58Z</time>
      </trkpt>
      <trkpt lat="43.42692" lon="6.06331">
        <ele>273.39999389648</ele>
        <time>2015-12-16T15:39:00Z</time>
      </trkpt>
      <trkpt lat="43.4269" lon="6.06331">
        <ele>273.39999389648</ele>
        <time>2015-12-16T15:39:01Z</time>
      </trkpt>
      <trkpt lat="43.42688" lon="6.06331">
        <ele>273.39999389648</ele>
        <time>2015-12-16T15:39:02Z</time>
      </trkpt>
      <trkpt lat="43.42686" lon="6.0633">
        <ele>273.39999389648</ele>
        <time>2015-12-16T15:39:04Z</time>
      </trkpt>
      <trkpt lat="43.42684" lon="6.06329">
        <ele>273.60000610352</ele>
        <time>2015-12-16T15:39:06Z</time>
      </trkpt>
      <trkpt lat="43.42683" lon="6.06329">
        <ele>273.79998779297</ele>
        <time>2015-12-16T15:39:08Z</time>
      </trkpt>
      <trkpt lat="43.42679" lon="6.06325">
        <ele>273.60000610352</ele>
        <time>2015-12-16T15:39:10Z</time>
      </trkpt>
      <trkpt lat="43.42676" lon="6.06324">
        <ele>273.39999389648</ele>
        <time>2015-12-16T15:39:11Z</time>
      </trkpt>
      <trkpt lat="43.42672" lon="6.06322">
        <ele>273</ele>
        <time>2015-12-16T15:39:12Z</time>
      </trkpt>
      <trkpt lat="43.42664" lon="6.06319">
        <ele>272.20001220703</ele>
        <time>2015-12-16T15:39:14Z</time>
      </trkpt>
      <trkpt lat="43.42661" lon="6.06319">
        <ele>271.60000610352</ele>
        <time>2015-12-16T15:39:15Z</time>
      </trkpt>
      <trkpt lat="43.42655" lon="6.0632">
        <ele>271.39999389648</ele>
        <time>2015-12-16T15:39:16Z</time>
      </trkpt>
      <trkpt lat="43.42647" lon="6.06317">
        <ele>271</ele>
        <time>2015-12-16T15:39:18Z</time>
      </trkpt>
      <trkpt lat="43.42639" lon="6.06316">
        <ele>270.39999389648</ele>
        <time>2015-12-16T15:39:20Z</time>
      </trkpt>
      <trkpt lat="43.4263" lon="6.06314">
        <ele>270.39999389648</ele>
        <time>2015-12-16T15:39:22Z</time>
      </trkpt>
      <trkpt lat="43.42622" lon="6.06309">
        <ele>269.60000610352</ele>
        <time>2015-12-16T15:39:24Z</time>
      </trkpt>
      <trkpt lat="43.42618" lon="6.06307">
        <ele>269.20001220703</ele>
        <time>2015-12-16T15:39:25Z</time>
      </trkpt>
      <trkpt lat="43.42615" lon="6.06306">
        <ele>269</ele>
        <time>2015-12-16T15:39:26Z</time>
      </trkpt>
      <trkpt lat="43.42607" lon="6.06305">
        <ele>268.60000610352</ele>
        <time>2015-12-16T15:39:28Z</time>
      </trkpt>
      <trkpt lat="43.42604" lon="6.06306">
        <ele>267.60000610352</ele>
        <time>2015-12-16T15:39:29Z</time>
      </trkpt>
      <trkpt lat="43.426" lon="6.06309">
        <ele>266.60000610352</ele>
        <time>2015-12-16T15:39:30Z</time>
      </trkpt>
      <trkpt lat="43.42597" lon="6.06312">
        <ele>267.79998779297</ele>
        <time>2015-12-16T15:39:31Z</time>
      </trkpt>
      <trkpt lat="43.42594" lon="6.06315">
        <ele>269.39999389648</ele>
        <time>2015-12-16T15:39:32Z</time>
      </trkpt>
      <trkpt lat="43.42586" lon="6.06321">
        <ele>269.20001220703</ele>
        <time>2015-12-16T15:39:34Z</time>
      </trkpt>
      <trkpt lat="43.4258" lon="6.06326">
        <ele>267.79998779297</ele>
        <time>2015-12-16T15:39:36Z</time>
      </trkpt>
      <trkpt lat="43.42574" lon="6.06333">
        <ele>266.39999389648</ele>
        <time>2015-12-16T15:39:38Z</time>
      </trkpt>
      <trkpt lat="43.4257" lon="6.06335">
        <ele>266</ele>
        <time>2015-12-16T15:39:39Z</time>
      </trkpt>
      <trkpt lat="43.42566" lon="6.06338">
        <ele>266</ele>
        <time>2015-12-16T15:39:40Z</time>
      </trkpt>
      <trkpt lat="43.42563" lon="6.0634">
        <ele>266.20001220703</ele>
        <time>2015-12-16T15:39:41Z</time>
      </trkpt>
      <trkpt lat="43.4256" lon="6.06343">
        <ele>266.20001220703</ele>
        <time>2015-12-16T15:39:42Z</time>
      </trkpt>
      <trkpt lat="43.4255" lon="6.06347">
        <ele>265.39999389648</ele>
        <time>2015-12-16T15:39:45Z</time>
      </trkpt>
      <trkpt lat="43.42546" lon="6.0635">
        <ele>265</ele>
        <time>2015-12-16T15:39:46Z</time>
      </trkpt>
      <trkpt lat="43.42543" lon="6.06352">
        <ele>265</ele>
        <time>2015-12-16T15:39:47Z</time>
      </trkpt>
      <trkpt lat="43.4254" lon="6.06353">
        <ele>265</ele>
        <time>2015-12-16T15:39:48Z</time>
      </trkpt>
      <trkpt lat="43.42531" lon="6.06356">
        <ele>264.20001220703</ele>
        <time>2015-12-16T15:39:50Z</time>
      </trkpt>
      <trkpt lat="43.42522" lon="6.06358">
        <ele>263.79998779297</ele>
        <time>2015-12-16T15:39:52Z</time>
      </trkpt>
      <trkpt lat="43.42517" lon="6.06359">
        <ele>263.60000610352</ele>
        <time>2015-12-16T15:39:53Z</time>
      </trkpt>
      <trkpt lat="43.42501" lon="6.06369">
        <ele>262</ele>
        <time>2015-12-16T15:39:56Z</time>
      </trkpt>
      <trkpt lat="43.42496" lon="6.06371">
        <ele>261.79998779297</ele>
        <time>2015-12-16T15:39:57Z</time>
      </trkpt>
      <trkpt lat="43.42491" lon="6.06371">
        <ele>261.60000610352</ele>
        <time>2015-12-16T15:39:58Z</time>
      </trkpt>
      <trkpt lat="43.42474" lon="6.06371">
        <ele>261.79998779297</ele>
        <time>2015-12-16T15:40:01Z</time>
      </trkpt>
      <trkpt lat="43.42468" lon="6.06372">
        <ele>261.39999389648</ele>
        <time>2015-12-16T15:40:02Z</time>
      </trkpt>
      <trkpt lat="43.42456" lon="6.06375">
        <ele>261</ele>
        <time>2015-12-16T15:40:04Z</time>
      </trkpt>
      <trkpt lat="43.42451" lon="6.06379">
        <ele>260.79998779297</ele>
        <time>2015-12-16T15:40:05Z</time>
      </trkpt>
      <trkpt lat="43.42446" lon="6.06384">
        <ele>260.79998779297</ele>
        <time>2015-12-16T15:40:06Z</time>
      </trkpt>
      <trkpt lat="43.42436" lon="6.06393">
        <ele>260.60000610352</ele>
        <time>2015-12-16T15:40:08Z</time>
      </trkpt>
      <trkpt lat="43.42426" lon="6.06401">
        <ele>260.39999389648</ele>
        <time>2015-12-16T15:40:10Z</time>
      </trkpt>
      <trkpt lat="43.42421" lon="6.06402">
        <ele>260.20001220703</ele>
        <time>2015-12-16T15:40:11Z</time>
      </trkpt>
      <trkpt lat="43.42415" lon="6.06402">
        <ele>260.39999389648</ele>
        <time>2015-12-16T15:40:12Z</time>
      </trkpt>
      <trkpt lat="43.42404" lon="6.06397">
        <ele>260.39999389648</ele>
        <time>2015-12-16T15:40:14Z</time>
      </trkpt>
      <trkpt lat="43.42398" lon="6.06395">
        <ele>260.20001220703</ele>
        <time>2015-12-16T15:40:15Z</time>
      </trkpt>
      <trkpt lat="43.42392" lon="6.06393">
        <ele>259.60000610352</ele>
        <time>2015-12-16T15:40:16Z</time>
      </trkpt>
      <trkpt lat="43.42385" lon="6.06394">
        <ele>259.20001220703</ele>
        <time>2015-12-16T15:40:17Z</time>
      </trkpt>
      <trkpt lat="43.42379" lon="6.06396">
        <ele>258.60000610352</ele>
        <time>2015-12-16T15:40:18Z</time>
      </trkpt>
      <trkpt lat="43.42374" lon="6.06401">
        <ele>258.39999389648</ele>
        <time>2015-12-16T15:40:19Z</time>
      </trkpt>
      <trkpt lat="43.42369" lon="6.06408">
        <ele>258.39999389648</ele>
        <time>2015-12-16T15:40:20Z</time>
      </trkpt>
      <trkpt lat="43.42364" lon="6.06413">
        <ele>258</ele>
        <time>2015-12-16T15:40:21Z</time>
      </trkpt>
      <trkpt lat="43.42359" lon="6.06419">
        <ele>257.79998779297</ele>
        <time>2015-12-16T15:40:22Z</time>
      </trkpt>
      <trkpt lat="43.4235" lon="6.06427">
        <ele>257.79998779297</ele>
        <time>2015-12-16T15:40:24Z</time>
      </trkpt>
      <trkpt lat="43.42339" lon="6.06433">
        <ele>257.60000610352</ele>
        <time>2015-12-16T15:40:26Z</time>
      </trkpt>
      <trkpt lat="43.42331" lon="6.06439">
        <ele>258</ele>
        <time>2015-12-16T15:40:28Z</time>
      </trkpt>
      <trkpt lat="43.42323" lon="6.06447">
        <ele>257.79998779297</ele>
        <time>2015-12-16T15:40:30Z</time>
      </trkpt>
      <trkpt lat="43.42313" lon="6.06456">
        <ele>257.20001220703</ele>
        <time>2015-12-16T15:40:32Z</time>
      </trkpt>
      <trkpt lat="43.42303" lon="6.06467">
        <ele>257</ele>
        <time>2015-12-16T15:40:34Z</time>
      </trkpt>
      <trkpt lat="43.42299" lon="6.06472">
        <ele>256.39999389648</ele>
        <time>2015-12-16T15:40:35Z</time>
      </trkpt>
      <trkpt lat="43.42294" lon="6.0648">
        <ele>255.60000610352</ele>
        <time>2015-12-16T15:40:36Z</time>
      </trkpt>
      <trkpt lat="43.42284" lon="6.06493">
        <ele>254.60000610352</ele>
        <time>2015-12-16T15:40:38Z</time>
      </trkpt>
      <trkpt lat="43.42278" lon="6.06499">
        <ele>254</ele>
        <time>2015-12-16T15:40:39Z</time>
      </trkpt>
      <trkpt lat="43.42272" lon="6.06504">
        <ele>253.39999389648</ele>
        <time>2015-12-16T15:40:40Z</time>
      </trkpt>
      <trkpt lat="43.42254" lon="6.06512">
        <ele>252.60000610352</ele>
        <time>2015-12-16T15:40:43Z</time>
      </trkpt>
      <trkpt lat="43.42249" lon="6.06511">
        <ele>251.80000305176</ele>
        <time>2015-12-16T15:40:44Z</time>
      </trkpt>
      <trkpt lat="43.42243" lon="6.0651">
        <ele>251.19999694824</ele>
        <time>2015-12-16T15:40:45Z</time>
      </trkpt>
      <trkpt lat="43.42236" lon="6.06508">
        <ele>250.80000305176</ele>
        <time>2015-12-16T15:40:46Z</time>
      </trkpt>
      <trkpt lat="43.42231" lon="6.06506">
        <ele>250.80000305176</ele>
        <time>2015-12-16T15:40:47Z</time>
      </trkpt>
      <trkpt lat="43.42225" lon="6.06504">
        <ele>250.19999694824</ele>
        <time>2015-12-16T15:40:48Z</time>
      </trkpt>
      <trkpt lat="43.4222" lon="6.06502">
        <ele>249.60000610352</ele>
        <time>2015-12-16T15:40:49Z</time>
      </trkpt>
      <trkpt lat="43.42214" lon="6.06501">
        <ele>249</ele>
        <time>2015-12-16T15:40:50Z</time>
      </trkpt>
      <trkpt lat="43.4221" lon="6.06502">
        <ele>248.39999389648</ele>
        <time>2015-12-16T15:40:51Z</time>
      </trkpt>
      <trkpt lat="43.422" lon="6.06501">
        <ele>247.19999694824</ele>
        <time>2015-12-16T15:40:53Z</time>
      </trkpt>
      <trkpt lat="43.42197" lon="6.06496">
        <ele>247</ele>
        <time>2015-12-16T15:40:54Z</time>
      </trkpt>
      <trkpt lat="43.42196" lon="6.06486">
        <ele>247.19999694824</ele>
        <time>2015-12-16T15:40:56Z</time>
      </trkpt>
      <trkpt lat="43.42195" lon="6.06482">
        <ele>247.19999694824</ele>
        <time>2015-12-16T15:40:57Z</time>
      </trkpt>
      <trkpt lat="43.42194" lon="6.06477">
        <ele>247.19999694824</ele>
        <time>2015-12-16T15:40:58Z</time>
      </trkpt>
      <trkpt lat="43.42191" lon="6.06466">
        <ele>247</ele>
        <time>2015-12-16T15:41:00Z</time>
      </trkpt>
      <trkpt lat="43.42189" lon="6.06454">
        <ele>246.80000305176</ele>
        <time>2015-12-16T15:41:02Z</time>
      </trkpt>
      <trkpt lat="43.42186" lon="6.06441">
        <ele>246.60000610352</ele>
        <time>2015-12-16T15:41:04Z</time>
      </trkpt>
      <trkpt lat="43.42183" lon="6.06427">
        <ele>247</ele>
        <time>2015-12-16T15:41:06Z</time>
      </trkpt>
      <trkpt lat="43.42181" lon="6.06415">
        <ele>247.19999694824</ele>
        <time>2015-12-16T15:41:08Z</time>
      </trkpt>
      <trkpt lat="43.42178" lon="6.06401">
        <ele>247.19999694824</ele>
        <time>2015-12-16T15:41:10Z</time>
      </trkpt>
      <trkpt lat="43.42176" lon="6.06386">
        <ele>247</ele>
        <time>2015-12-16T15:41:12Z</time>
      </trkpt>
      <trkpt lat="43.42173" lon="6.06372">
        <ele>246.80000305176</ele>
        <time>2015-12-16T15:41:14Z</time>
      </trkpt>
      <trkpt lat="43.4217" lon="6.06356">
        <ele>247</ele>
        <time>2015-12-16T15:41:16Z</time>
      </trkpt>
      <trkpt lat="43.42167" lon="6.06339">
        <ele>246.80000305176</ele>
        <time>2015-12-16T15:41:18Z</time>
      </trkpt>
      <trkpt lat="43.42165" lon="6.06323">
        <ele>246.80000305176</ele>
        <time>2015-12-16T15:41:20Z</time>
      </trkpt>
      <trkpt lat="43.42163" lon="6.06308">
        <ele>247.60000610352</ele>
        <time>2015-12-16T15:41:22Z</time>
      </trkpt>
      <trkpt lat="43.42162" lon="6.06294">
        <ele>248.19999694824</ele>
        <time>2015-12-16T15:41:24Z</time>
      </trkpt>
      <trkpt lat="43.42162" lon="6.06281">
        <ele>249.39999389648</ele>
        <time>2015-12-16T15:41:26Z</time>
      </trkpt>
      <trkpt lat="43.42162" lon="6.06269">
        <ele>250.39999389648</ele>
        <time>2015-12-16T15:41:28Z</time>
      </trkpt>
      <trkpt lat="43.42162" lon="6.06264">
        <ele>250.80000305176</ele>
        <time>2015-12-16T15:41:29Z</time>
      </trkpt>
      <trkpt lat="43.4216" lon="6.06247">
        <ele>252</ele>
        <time>2015-12-16T15:41:32Z</time>
      </trkpt>
      <trkpt lat="43.4216" lon="6.06237">
        <ele>252.39999389648</ele>
        <time>2015-12-16T15:41:34Z</time>
      </trkpt>
      <trkpt lat="43.42159" lon="6.0623">
        <ele>253</ele>
        <time>2015-12-16T15:41:36Z</time>
      </trkpt>
      <trkpt lat="43.42159" lon="6.06225">
        <ele>253.60000610352</ele>
        <time>2015-12-16T15:41:38Z</time>
      </trkpt>
      <trkpt lat="43.42159" lon="6.06223">
        <ele>253.60000610352</ele>
        <time>2015-12-16T15:41:39Z</time>
      </trkpt>
      <trkpt lat="43.42158" lon="6.06222">
        <ele>253.80000305176</ele>
        <time>2015-12-16T15:41:40Z</time>
      </trkpt>
      <trkpt lat="43.42156" lon="6.06219">
        <ele>253.80000305176</ele>
        <time>2015-12-16T15:41:42Z</time>
      </trkpt>
      <trkpt lat="43.42155" lon="6.06219">
        <ele>254.19999694824</ele>
        <time>2015-12-16T15:41:43Z</time>
      </trkpt>
      <trkpt lat="43.42154" lon="6.06219">
        <ele>254.19999694824</ele>
        <time>2015-12-16T15:41:44Z</time>
      </trkpt>
      <trkpt lat="43.42153" lon="6.06218">
        <ele>254.19999694824</ele>
        <time>2015-12-16T15:41:45Z</time>
      </trkpt>
      <trkpt lat="43.42152" lon="6.06219">
        <ele>254</ele>
        <time>2015-12-16T15:41:46Z</time>
      </trkpt>
      <trkpt lat="43.42149" lon="6.06218">
        <ele>253.80000305176</ele>
        <time>2015-12-16T15:41:48Z</time>
      </trkpt>
      <trkpt lat="43.42147" lon="6.06218">
        <ele>253.80000305176</ele>
        <time>2015-12-16T15:41:50Z</time>
      </trkpt>
      <trkpt lat="43.42144" lon="6.06218">
        <ele>253.80000305176</ele>
        <time>2015-12-16T15:41:52Z</time>
      </trkpt>
      <trkpt lat="43.42144" lon="6.06218">
        <ele>253.80000305176</ele>
        <time>2015-12-16T15:41:54Z</time>
      </trkpt>
      <trkpt lat="43.42144" lon="6.06218">
        <ele>253.60000610352</ele>
        <time>2015-12-16T15:41:55Z</time>
      </trkpt>
      <trkpt lat="43.42144" lon="6.06218">
        <ele>253.60000610352</ele>
        <time>2015-12-16T15:41:56Z</time>
      </trkpt>
      <trkpt lat="43.42144" lon="6.06218">
        <ele>253.80000305176</ele>
        <time>2015-12-16T15:41:58Z</time>
      </trkpt>
      <trkpt lat="43.42144" lon="6.06218">
        <ele>253.60000610352</ele>
        <time>2015-12-16T15:42:00Z</time>
      </trkpt>
      <trkpt lat="43.42144" lon="6.06218">
        <ele>253.80000305176</ele>
        <time>2015-12-16T15:42:04Z</time>
      </trkpt>
      <trkpt lat="43.42144" lon="6.06218">
        <ele>253.80000305176</ele>
        <time>2015-12-16T15:42:05Z</time>
      </trkpt>
      <trkpt lat="43.42144" lon="6.06218">
        <ele>253.80000305176</ele>
        <time>2015-12-16T15:42:06Z</time>
      </trkpt>
      <trkpt lat="43.42144" lon="6.06218">
        <ele>253.80000305176</ele>
        <time>2015-12-16T15:42:08Z</time>
      </trkpt>
      <trkpt lat="43.42143" lon="6.06218">
        <ele>253.80000305176</ele>
        <time>2015-12-16T15:42:12Z</time>
      </trkpt>
      <trkpt lat="43.42142" lon="6.06219">
        <ele>253.60000610352</ele>
        <time>2015-12-16T15:42:14Z</time>
      </trkpt>
      <trkpt lat="43.42139" lon="6.06221">
        <ele>253.60000610352</ele>
        <time>2015-12-16T15:42:16Z</time>
      </trkpt>
      <trkpt lat="43.42136" lon="6.06222">
        <ele>253.39999389648</ele>
        <time>2015-12-16T15:42:18Z</time>
      </trkpt>
      <trkpt lat="43.42133" lon="6.06223">
        <ele>253.19999694824</ele>
        <time>2015-12-16T15:42:20Z</time>
      </trkpt>
      <trkpt lat="43.42129" lon="6.06223">
        <ele>253</ele>
        <time>2015-12-16T15:42:22Z</time>
      </trkpt>
      <trkpt lat="43.42128" lon="6.06223">
        <ele>252.80000305176</ele>
        <time>2015-12-16T15:42:24Z</time>
      </trkpt>
      <trkpt lat="43.42126" lon="6.06224">
        <ele>252.80000305176</ele>
        <time>2015-12-16T15:42:26Z</time>
      </trkpt>
      <trkpt lat="43.42126" lon="6.06224">
        <ele>252.80000305176</ele>
        <time>2015-12-16T15:42:27Z</time>
      </trkpt>
      <trkpt lat="43.42125" lon="6.06224">
        <ele>252.80000305176</ele>
        <time>2015-12-16T15:42:28Z</time>
      </trkpt>
      <trkpt lat="43.42122" lon="6.06225">
        <ele>252.39999389648</ele>
        <time>2015-12-16T15:42:30Z</time>
      </trkpt>
      <trkpt lat="43.42118" lon="6.06227">
        <ele>252.39999389648</ele>
        <time>2015-12-16T15:42:32Z</time>
      </trkpt>
      <trkpt lat="43.42115" lon="6.06227">
        <ele>252.19999694824</ele>
        <time>2015-12-16T15:42:33Z</time>
      </trkpt>
      <trkpt lat="43.42113" lon="6.06228">
        <ele>251.80000305176</ele>
        <time>2015-12-16T15:42:34Z</time>
      </trkpt>
      <trkpt lat="43.42107" lon="6.0623">
        <ele>251.60000610352</ele>
        <time>2015-12-16T15:42:36Z</time>
      </trkpt>
      <trkpt lat="43.42099" lon="6.06233">
        <ele>251</ele>
        <time>2015-12-16T15:42:38Z</time>
      </trkpt>
      <trkpt lat="43.42095" lon="6.06235">
        <ele>250.60000610352</ele>
        <time>2015-12-16T15:42:39Z</time>
      </trkpt>
      <trkpt lat="43.42091" lon="6.06236">
        <ele>250.39999389648</ele>
        <time>2015-12-16T15:42:40Z</time>
      </trkpt>
      <trkpt lat="43.42081" lon="6.0624">
        <ele>249.39999389648</ele>
        <time>2015-12-16T15:42:42Z</time>
      </trkpt>
      <trkpt lat="43.42069" lon="6.06245">
        <ele>248.60000610352</ele>
        <time>2015-12-16T15:42:44Z</time>
      </trkpt>
      <trkpt lat="43.42063" lon="6.06246">
        <ele>247.80000305176</ele>
        <time>2015-12-16T15:42:45Z</time>
      </trkpt>
      <trkpt lat="43.42056" lon="6.06248">
        <ele>247.19999694824</ele>
        <time>2015-12-16T15:42:46Z</time>
      </trkpt>
      <trkpt lat="43.4205" lon="6.06249">
        <ele>246.60000610352</ele>
        <time>2015-12-16T15:42:47Z</time>
      </trkpt>
      <trkpt lat="43.42044" lon="6.0625">
        <ele>245.80000305176</ele>
        <time>2015-12-16T15:42:48Z</time>
      </trkpt>
      <trkpt lat="43.42035" lon="6.06253">
        <ele>244.60000610352</ele>
        <time>2015-12-16T15:42:50Z</time>
      </trkpt>
      <trkpt lat="43.42031" lon="6.06255">
        <ele>243.60000610352</ele>
        <time>2015-12-16T15:42:51Z</time>
      </trkpt>
      <trkpt lat="43.42026" lon="6.06256">
        <ele>243</ele>
        <time>2015-12-16T15:42:52Z</time>
      </trkpt>
      <trkpt lat="43.42021" lon="6.06258">
        <ele>242.39999389648</ele>
        <time>2015-12-16T15:42:53Z</time>
      </trkpt>
      <trkpt lat="43.42016" lon="6.0626">
        <ele>241.80000305176</ele>
        <time>2015-12-16T15:42:54Z</time>
      </trkpt>
      <trkpt lat="43.42011" lon="6.06261">
        <ele>241.19999694824</ele>
        <time>2015-12-16T15:42:55Z</time>
      </trkpt>
      <trkpt lat="43.42006" lon="6.06263">
        <ele>240.80000305176</ele>
        <time>2015-12-16T15:42:56Z</time>
      </trkpt>
      <trkpt lat="43.41993" lon="6.06268">
        <ele>240</ele>
        <time>2015-12-16T15:42:58Z</time>
      </trkpt>
      <trkpt lat="43.41976" lon="6.06274">
        <ele>237.60000610352</ele>
        <time>2015-12-16T15:43:00Z</time>
      </trkpt>
      <trkpt lat="43.41967" lon="6.06277">
        <ele>236.39999389648</ele>
        <time>2015-12-16T15:43:01Z</time>
      </trkpt>
      <trkpt lat="43.41959" lon="6.0628">
        <ele>235.80000305176</ele>
        <time>2015-12-16T15:43:02Z</time>
      </trkpt>
      <trkpt lat="43.41941" lon="6.06285">
        <ele>235</ele>
        <time>2015-12-16T15:43:04Z</time>
      </trkpt>
      <trkpt lat="43.41926" lon="6.06289">
        <ele>234.19999694824</ele>
        <time>2015-12-16T15:43:06Z</time>
      </trkpt>
      <trkpt lat="43.4192" lon="6.06289">
        <ele>233.60000610352</ele>
        <time>2015-12-16T15:43:07Z</time>
      </trkpt>
      <trkpt lat="43.41914" lon="6.0629">
        <ele>233.39999389648</ele>
        <time>2015-12-16T15:43:08Z</time>
      </trkpt>
      <trkpt lat="43.41901" lon="6.0629">
        <ele>232.60000610352</ele>
        <time>2015-12-16T15:43:10Z</time>
      </trkpt>
      <trkpt lat="43.41896" lon="6.0629">
        <ele>232.19999694824</ele>
        <time>2015-12-16T15:43:11Z</time>
      </trkpt>
      <trkpt lat="43.41891" lon="6.06289">
        <ele>231.80000305176</ele>
        <time>2015-12-16T15:43:12Z</time>
      </trkpt>
      <trkpt lat="43.41882" lon="6.06289">
        <ele>231.19999694824</ele>
        <time>2015-12-16T15:43:14Z</time>
      </trkpt>
      <trkpt lat="43.41871" lon="6.06289">
        <ele>230.19999694824</ele>
        <time>2015-12-16T15:43:16Z</time>
      </trkpt>
      <trkpt lat="43.41865" lon="6.06288">
        <ele>230</ele>
        <time>2015-12-16T15:43:17Z</time>
      </trkpt>
      <trkpt lat="43.41844" lon="6.06287">
        <ele>229.19999694824</ele>
        <time>2015-12-16T15:43:20Z</time>
      </trkpt>
      <trkpt lat="43.41837" lon="6.06287">
        <ele>228.39999389648</ele>
        <time>2015-12-16T15:43:21Z</time>
      </trkpt>
      <trkpt lat="43.41829" lon="6.06287">
        <ele>227.80000305176</ele>
        <time>2015-12-16T15:43:22Z</time>
      </trkpt>
      <trkpt lat="43.41822" lon="6.06287">
        <ele>227.39999389648</ele>
        <time>2015-12-16T15:43:23Z</time>
      </trkpt>
      <trkpt lat="43.41813" lon="6.06286">
        <ele>227.19999694824</ele>
        <time>2015-12-16T15:43:24Z</time>
      </trkpt>
      <trkpt lat="43.41807" lon="6.06284">
        <ele>226.80000305176</ele>
        <time>2015-12-16T15:43:25Z</time>
      </trkpt>
      <trkpt lat="43.41802" lon="6.0628">
        <ele>226.60000610352</ele>
        <time>2015-12-16T15:43:26Z</time>
      </trkpt>
      <trkpt lat="43.41796" lon="6.06275">
        <ele>226</ele>
        <time>2015-12-16T15:43:28Z</time>
      </trkpt>
      <trkpt lat="43.41794" lon="6.06273">
        <ele>226</ele>
        <time>2015-12-16T15:43:29Z</time>
      </trkpt>
      <trkpt lat="43.41792" lon="6.0627">
        <ele>225.60000610352</ele>
        <time>2015-12-16T15:43:30Z</time>
      </trkpt>
      <trkpt lat="43.41787" lon="6.06265">
        <ele>225.19999694824</ele>
        <time>2015-12-16T15:43:32Z</time>
      </trkpt>
      <trkpt lat="43.41781" lon="6.06263">
        <ele>225</ele>
        <time>2015-12-16T15:43:34Z</time>
      </trkpt>
      <trkpt lat="43.41775" lon="6.06259">
        <ele>224.60000610352</ele>
        <time>2015-12-16T15:43:36Z</time>
      </trkpt>
      <trkpt lat="43.41767" lon="6.06254">
        <ele>224.60000610352</ele>
        <time>2015-12-16T15:43:38Z</time>
      </trkpt>
      <trkpt lat="43.41763" lon="6.06253">
        <ele>224.19999694824</ele>
        <time>2015-12-16T15:43:39Z</time>
      </trkpt>
      <trkpt lat="43.41758" lon="6.06251">
        <ele>224</ele>
        <time>2015-12-16T15:43:40Z</time>
      </trkpt>
      <trkpt lat="43.41748" lon="6.06249">
        <ele>223.39999389648</ele>
        <time>2015-12-16T15:43:42Z</time>
      </trkpt>
      <trkpt lat="43.41742" lon="6.06248">
        <ele>223.19999694824</ele>
        <time>2015-12-16T15:43:43Z</time>
      </trkpt>
      <trkpt lat="43.41736" lon="6.06247">
        <ele>222.80000305176</ele>
        <time>2015-12-16T15:43:44Z</time>
      </trkpt>
      <trkpt lat="43.41723" lon="6.06246">
        <ele>222.19999694824</ele>
        <time>2015-12-16T15:43:46Z</time>
      </trkpt>
      <trkpt lat="43.41717" lon="6.06246">
        <ele>222.19999694824</ele>
        <time>2015-12-16T15:43:47Z</time>
      </trkpt>
      <trkpt lat="43.41711" lon="6.06247">
        <ele>221.80000305176</ele>
        <time>2015-12-16T15:43:48Z</time>
      </trkpt>
      <trkpt lat="43.41698" lon="6.06247">
        <ele>221.39999389648</ele>
        <time>2015-12-16T15:43:50Z</time>
      </trkpt>
      <trkpt lat="43.41693" lon="6.06247">
        <ele>221.39999389648</ele>
        <time>2015-12-16T15:43:51Z</time>
      </trkpt>
      <trkpt lat="43.41687" lon="6.06246">
        <ele>221.39999389648</ele>
        <time>2015-12-16T15:43:52Z</time>
      </trkpt>
      <trkpt lat="43.41682" lon="6.06244">
        <ele>221.39999389648</ele>
        <time>2015-12-16T15:43:53Z</time>
      </trkpt>
      <trkpt lat="43.41666" lon="6.06241">
        <ele>221.19999694824</ele>
        <time>2015-12-16T15:43:56Z</time>
      </trkpt>
      <trkpt lat="43.41657" lon="6.06238">
        <ele>221</ele>
        <time>2015-12-16T15:43:58Z</time>
      </trkpt>
      <trkpt lat="43.41648" lon="6.06234">
        <ele>221</ele>
        <time>2015-12-16T15:44:00Z</time>
      </trkpt>
      <trkpt lat="43.4164" lon="6.0623">
        <ele>220.80000305176</ele>
        <time>2015-12-16T15:44:02Z</time>
      </trkpt>
      <trkpt lat="43.41637" lon="6.06229">
        <ele>220.60000610352</ele>
        <time>2015-12-16T15:44:03Z</time>
      </trkpt>
      <trkpt lat="43.41635" lon="6.06228">
        <ele>220.39999389648</ele>
        <time>2015-12-16T15:44:04Z</time>
      </trkpt>
      <trkpt lat="43.41633" lon="6.06228">
        <ele>220</ele>
        <time>2015-12-16T15:44:06Z</time>
      </trkpt>
      <trkpt lat="43.41631" lon="6.06227">
        <ele>220</ele>
        <time>2015-12-16T15:44:07Z</time>
      </trkpt>
      <trkpt lat="43.41629" lon="6.06226">
        <ele>220</ele>
        <time>2015-12-16T15:44:08Z</time>
      </trkpt>
      <trkpt lat="43.41626" lon="6.06226">
        <ele>219.60000610352</ele>
        <time>2015-12-16T15:44:10Z</time>
      </trkpt>
      <trkpt lat="43.41622" lon="6.06228">
        <ele>219.60000610352</ele>
        <time>2015-12-16T15:44:12Z</time>
      </trkpt>
      <trkpt lat="43.41617" lon="6.0623">
        <ele>219.60000610352</ele>
        <time>2015-12-16T15:44:14Z</time>
      </trkpt>
      <trkpt lat="43.41615" lon="6.06231">
        <ele>219.19999694824</ele>
        <time>2015-12-16T15:44:16Z</time>
      </trkpt>
      <trkpt lat="43.41615" lon="6.06232">
        <ele>219</ele>
        <time>2015-12-16T15:44:17Z</time>
      </trkpt>
      <trkpt lat="43.41615" lon="6.06233">
        <ele>219</ele>
        <time>2015-12-16T15:44:18Z</time>
      </trkpt>
      <trkpt lat="43.41613" lon="6.06233">
        <ele>218.80000305176</ele>
        <time>2015-12-16T15:44:20Z</time>
      </trkpt>
      <trkpt lat="43.41611" lon="6.06235">
        <ele>218.60000610352</ele>
        <time>2015-12-16T15:44:22Z</time>
      </trkpt>
      <trkpt lat="43.41612" lon="6.06235">
        <ele>218.60000610352</ele>
        <time>2015-12-16T15:44:24Z</time>
      </trkpt>
      <trkpt lat="43.4161" lon="6.06238">
        <ele>218.80000305176</ele>
        <time>2015-12-16T15:44:26Z</time>
      </trkpt>
      <trkpt lat="43.41608" lon="6.06244">
        <ele>218.80000305176</ele>
        <time>2015-12-16T15:44:28Z</time>
      </trkpt>
      <trkpt lat="43.41607" lon="6.06249">
        <ele>218.60000610352</ele>
        <time>2015-12-16T15:44:30Z</time>
      </trkpt>
      <trkpt lat="43.41607" lon="6.0625">
        <ele>218.80000305176</ele>
        <time>2015-12-16T15:44:31Z</time>
      </trkpt>
      <trkpt lat="43.41606" lon="6.06251">
        <ele>218.80000305176</ele>
        <time>2015-12-16T15:44:32Z</time>
      </trkpt>
      <trkpt lat="43.41606" lon="6.06253">
        <ele>218.80000305176</ele>
        <time>2015-12-16T15:44:34Z</time>
      </trkpt>
      <trkpt lat="43.41605" lon="6.06254">
        <ele>218.80000305176</ele>
        <time>2015-12-16T15:44:36Z</time>
      </trkpt>
      <trkpt lat="43.41602" lon="6.06257">
        <ele>218.60000610352</ele>
        <time>2015-12-16T15:44:38Z</time>
      </trkpt>
      <trkpt lat="43.41597" lon="6.0626">
        <ele>218.39999389648</ele>
        <time>2015-12-16T15:44:40Z</time>
      </trkpt>
      <trkpt lat="43.41594" lon="6.06264">
        <ele>218</ele>
        <time>2015-12-16T15:44:42Z</time>
      </trkpt>
      <trkpt lat="43.41589" lon="6.0627">
        <ele>218</ele>
        <time>2015-12-16T15:44:44Z</time>
      </trkpt>
      <trkpt lat="43.41589" lon="6.06274">
        <ele>218</ele>
        <time>2015-12-16T15:44:45Z</time>
      </trkpt>
      <trkpt lat="43.41589" lon="6.0628">
        <ele>217.80000305176</ele>
        <time>2015-12-16T15:44:46Z</time>
      </trkpt>
      <trkpt lat="43.41589" lon="6.06285">
        <ele>217.80000305176</ele>
        <time>2015-12-16T15:44:47Z</time>
      </trkpt>
      <trkpt lat="43.41589" lon="6.06291">
        <ele>217.80000305176</ele>
        <time>2015-12-16T15:44:48Z</time>
      </trkpt>
      <trkpt lat="43.41589" lon="6.06303">
        <ele>217.19999694824</ele>
        <time>2015-12-16T15:44:50Z</time>
      </trkpt>
      <trkpt lat="43.41586" lon="6.06315">
        <ele>216.80000305176</ele>
        <time>2015-12-16T15:44:52Z</time>
      </trkpt>
      <trkpt lat="43.41583" lon="6.06321">
        <ele>216.80000305176</ele>
        <time>2015-12-16T15:44:53Z</time>
      </trkpt>
      <trkpt lat="43.41571" lon="6.06339">
        <ele>215.80000305176</ele>
        <time>2015-12-16T15:44:56Z</time>
      </trkpt>
      <trkpt lat="43.41568" lon="6.06345">
        <ele>215.60000610352</ele>
        <time>2015-12-16T15:44:57Z</time>
      </trkpt>
      <trkpt lat="43.41565" lon="6.06353">
        <ele>215.39999389648</ele>
        <time>2015-12-16T15:44:58Z</time>
      </trkpt>
      <trkpt lat="43.41558" lon="6.06376">
        <ele>214.19999694824</ele>
        <time>2015-12-16T15:45:01Z</time>
      </trkpt>
      <trkpt lat="43.41557" lon="6.06385">
        <ele>213.60000610352</ele>
        <time>2015-12-16T15:45:02Z</time>
      </trkpt>
      <trkpt lat="43.41555" lon="6.06393">
        <ele>213</ele>
        <time>2015-12-16T15:45:03Z</time>
      </trkpt>
      <trkpt lat="43.41554" lon="6.06402">
        <ele>212.60000610352</ele>
        <time>2015-12-16T15:45:04Z</time>
      </trkpt>
      <trkpt lat="43.41551" lon="6.06417">
        <ele>211.60000610352</ele>
        <time>2015-12-16T15:45:06Z</time>
      </trkpt>
      <trkpt lat="43.4155" lon="6.06424">
        <ele>211.19999694824</ele>
        <time>2015-12-16T15:45:07Z</time>
      </trkpt>
      <trkpt lat="43.41548" lon="6.06431">
        <ele>210.80000305176</ele>
        <time>2015-12-16T15:45:08Z</time>
      </trkpt>
      <trkpt lat="43.41547" lon="6.06438">
        <ele>210.60000610352</ele>
        <time>2015-12-16T15:45:09Z</time>
      </trkpt>
      <trkpt lat="43.41547" lon="6.06446">
        <ele>210.19999694824</ele>
        <time>2015-12-16T15:45:10Z</time>
      </trkpt>
      <trkpt lat="43.41546" lon="6.06457">
        <ele>209.80000305176</ele>
        <time>2015-12-16T15:45:12Z</time>
      </trkpt>
      <trkpt lat="43.41546" lon="6.06461">
        <ele>209.60000610352</ele>
        <time>2015-12-16T15:45:13Z</time>
      </trkpt>
      <trkpt lat="43.41545" lon="6.06464">
        <ele>209.60000610352</ele>
        <time>2015-12-16T15:45:14Z</time>
      </trkpt>
      <trkpt lat="43.41544" lon="6.06465">
        <ele>209.60000610352</ele>
        <time>2015-12-16T15:45:15Z</time>
      </trkpt>
      <trkpt lat="43.41542" lon="6.06465">
        <ele>209.39999389648</ele>
        <time>2015-12-16T15:45:16Z</time>
      </trkpt>
      <trkpt lat="43.41537" lon="6.0647">
        <ele>208.19999694824</ele>
        <time>2015-12-16T15:45:18Z</time>
      </trkpt>
      <trkpt lat="43.41534" lon="6.06482">
        <ele>207.39999389648</ele>
        <time>2015-12-16T15:45:20Z</time>
      </trkpt>
      <trkpt lat="43.41533" lon="6.06488">
        <ele>207.39999389648</ele>
        <time>2015-12-16T15:45:21Z</time>
      </trkpt>
      <trkpt lat="43.41531" lon="6.06494">
        <ele>207.60000610352</ele>
        <time>2015-12-16T15:45:22Z</time>
      </trkpt>
      <trkpt lat="43.41528" lon="6.06506">
        <ele>208</ele>
        <time>2015-12-16T15:45:24Z</time>
      </trkpt>
      <trkpt lat="43.41526" lon="6.06511">
        <ele>208.19999694824</ele>
        <time>2015-12-16T15:45:25Z</time>
      </trkpt>
      <trkpt lat="43.41526" lon="6.06517">
        <ele>208.39999389648</ele>
        <time>2015-12-16T15:45:26Z</time>
      </trkpt>
      <trkpt lat="43.41525" lon="6.0653">
        <ele>208.19999694824</ele>
        <time>2015-12-16T15:45:28Z</time>
      </trkpt>
      <trkpt lat="43.41525" lon="6.06536">
        <ele>208</ele>
        <time>2015-12-16T15:45:29Z</time>
      </trkpt>
      <trkpt lat="43.41523" lon="6.06543">
        <ele>208.39999389648</ele>
        <time>2015-12-16T15:45:30Z</time>
      </trkpt>
      <trkpt lat="43.4152" lon="6.06568">
        <ele>208</ele>
        <time>2015-12-16T15:45:34Z</time>
      </trkpt>
      <trkpt lat="43.41518" lon="6.06581">
        <ele>208</ele>
        <time>2015-12-16T15:45:36Z</time>
      </trkpt>
      <trkpt lat="43.41516" lon="6.06593">
        <ele>208</ele>
        <time>2015-12-16T15:45:38Z</time>
      </trkpt>
      <trkpt lat="43.41514" lon="6.06605">
        <ele>207.80000305176</ele>
        <time>2015-12-16T15:45:40Z</time>
      </trkpt>
      <trkpt lat="43.41512" lon="6.06617">
        <ele>207.80000305176</ele>
        <time>2015-12-16T15:45:42Z</time>
      </trkpt>
      <trkpt lat="43.4151" lon="6.06628">
        <ele>207.80000305176</ele>
        <time>2015-12-16T15:45:44Z</time>
      </trkpt>
      <trkpt lat="43.41509" lon="6.06633">
        <ele>207.80000305176</ele>
        <time>2015-12-16T15:45:45Z</time>
      </trkpt>
      <trkpt lat="43.41508" lon="6.06637">
        <ele>207.80000305176</ele>
        <time>2015-12-16T15:45:46Z</time>
      </trkpt>
      <trkpt lat="43.41507" lon="6.06644">
        <ele>207.60000610352</ele>
        <time>2015-12-16T15:45:48Z</time>
      </trkpt>
      <trkpt lat="43.41507" lon="6.06651">
        <ele>207.80000305176</ele>
        <time>2015-12-16T15:45:50Z</time>
      </trkpt>
      <trkpt lat="43.41505" lon="6.06659">
        <ele>207.60000610352</ele>
        <time>2015-12-16T15:45:52Z</time>
      </trkpt>
      <trkpt lat="43.41503" lon="6.06669">
        <ele>207.39999389648</ele>
        <time>2015-12-16T15:45:54Z</time>
      </trkpt>
      <trkpt lat="43.41502" lon="6.06674">
        <ele>207.39999389648</ele>
        <time>2015-12-16T15:45:55Z</time>
      </trkpt>
      <trkpt lat="43.41501" lon="6.06681">
        <ele>207.19999694824</ele>
        <time>2015-12-16T15:45:56Z</time>
      </trkpt>
      <trkpt lat="43.41501" lon="6.06695">
        <ele>207.19999694824</ele>
        <time>2015-12-16T15:45:58Z</time>
      </trkpt>
      <trkpt lat="43.415" lon="6.06709">
        <ele>207</ele>
        <time>2015-12-16T15:46:00Z</time>
      </trkpt>
      <trkpt lat="43.415" lon="6.06717">
        <ele>207</ele>
        <time>2015-12-16T15:46:01Z</time>
      </trkpt>
      <trkpt lat="43.415" lon="6.06725">
        <ele>207</ele>
        <time>2015-12-16T15:46:02Z</time>
      </trkpt>
      <trkpt lat="43.41499" lon="6.0674">
        <ele>206.39999389648</ele>
        <time>2015-12-16T15:46:04Z</time>
      </trkpt>
      <trkpt lat="43.41498" lon="6.06748">
        <ele>206.19999694824</ele>
        <time>2015-12-16T15:46:05Z</time>
      </trkpt>
      <trkpt lat="43.41497" lon="6.06756">
        <ele>205.80000305176</ele>
        <time>2015-12-16T15:46:06Z</time>
      </trkpt>
      <trkpt lat="43.41496" lon="6.06771">
        <ele>205.60000610352</ele>
        <time>2015-12-16T15:46:08Z</time>
      </trkpt>
      <trkpt lat="43.41494" lon="6.06783">
        <ele>205.19999694824</ele>
        <time>2015-12-16T15:46:10Z</time>
      </trkpt>
      <trkpt lat="43.41492" lon="6.06794">
        <ele>204.80000305176</ele>
        <time>2015-12-16T15:46:12Z</time>
      </trkpt>
      <trkpt lat="43.4149" lon="6.06799">
        <ele>205</ele>
        <time>2015-12-16T15:46:13Z</time>
      </trkpt>
      <trkpt lat="43.41489" lon="6.06805">
        <ele>205</ele>
        <time>2015-12-16T15:46:14Z</time>
      </trkpt>
      <trkpt lat="43.41486" lon="6.06816">
        <ele>204.80000305176</ele>
        <time>2015-12-16T15:46:16Z</time>
      </trkpt>
      <trkpt lat="43.41483" lon="6.06825">
        <ele>204.60000610352</ele>
        <time>2015-12-16T15:46:18Z</time>
      </trkpt>
      <trkpt lat="43.4148" lon="6.06836">
        <ele>204.39999389648</ele>
        <time>2015-12-16T15:46:21Z</time>
      </trkpt>
      <trkpt lat="43.41479" lon="6.06839">
        <ele>204.39999389648</ele>
        <time>2015-12-16T15:46:22Z</time>
      </trkpt>
      <trkpt lat="43.41477" lon="6.06853">
        <ele>204.39999389648</ele>
        <time>2015-12-16T15:46:26Z</time>
      </trkpt>
      <trkpt lat="43.41476" lon="6.06859">
        <ele>204.80000305176</ele>
        <time>2015-12-16T15:46:28Z</time>
      </trkpt>
      <trkpt lat="43.41477" lon="6.06865">
        <ele>204.80000305176</ele>
        <time>2015-12-16T15:46:30Z</time>
      </trkpt>
      <trkpt lat="43.41478" lon="6.06871">
        <ele>205</ele>
        <time>2015-12-16T15:46:32Z</time>
      </trkpt>
      <trkpt lat="43.41478" lon="6.06875">
        <ele>205</ele>
        <time>2015-12-16T15:46:34Z</time>
      </trkpt>
      <trkpt lat="43.41477" lon="6.06878">
        <ele>204.80000305176</ele>
        <time>2015-12-16T15:46:36Z</time>
      </trkpt>
      <trkpt lat="43.41477" lon="6.06881">
        <ele>204.80000305176</ele>
        <time>2015-12-16T15:46:38Z</time>
      </trkpt>
      <trkpt lat="43.41477" lon="6.06881">
        <ele>204.80000305176</ele>
        <time>2015-12-16T15:46:40Z</time>
      </trkpt>
      <trkpt lat="43.41477" lon="6.06881">
        <ele>204.80000305176</ele>
        <time>2015-12-16T15:46:42Z</time>
      </trkpt>
      <trkpt lat="43.41477" lon="6.06881">
        <ele>204.39999389648</ele>
        <time>2015-12-16T15:46:44Z</time>
      </trkpt>
      <trkpt lat="43.41477" lon="6.06882">
        <ele>204.60000610352</ele>
        <time>2015-12-16T15:46:46Z</time>
      </trkpt>
      <trkpt lat="43.41477" lon="6.06882">
        <ele>204.60000610352</ele>
        <time>2015-12-16T15:46:47Z</time>
      </trkpt>
      <trkpt lat="43.41477" lon="6.06882">
        <ele>204.60000610352</ele>
        <time>2015-12-16T15:46:48Z</time>
      </trkpt>
      <trkpt lat="43.41476" lon="6.06887">
        <ele>204.80000305176</ele>
        <time>2015-12-16T15:46:50Z</time>
      </trkpt>
      <trkpt lat="43.41477" lon="6.0689">
        <ele>204.80000305176</ele>
        <time>2015-12-16T15:46:51Z</time>
      </trkpt>
      <trkpt lat="43.41477" lon="6.06893">
        <ele>204.60000610352</ele>
        <time>2015-12-16T15:46:52Z</time>
      </trkpt>
      <trkpt lat="43.41478" lon="6.06898">
        <ele>204.80000305176</ele>
        <time>2015-12-16T15:46:54Z</time>
      </trkpt>
      <trkpt lat="43.41477" lon="6.06907">
        <ele>205</ele>
        <time>2015-12-16T15:46:56Z</time>
      </trkpt>
      <trkpt lat="43.41473" lon="6.06916">
        <ele>204.60000610352</ele>
        <time>2015-12-16T15:46:58Z</time>
      </trkpt>
      <trkpt lat="43.4147" lon="6.06925">
        <ele>204.60000610352</ele>
        <time>2015-12-16T15:47:00Z</time>
      </trkpt>
      <trkpt lat="43.4147" lon="6.06929">
        <ele>204.60000610352</ele>
        <time>2015-12-16T15:47:01Z</time>
      </trkpt>
      <trkpt lat="43.41471" lon="6.06934">
        <ele>204.60000610352</ele>
        <time>2015-12-16T15:47:02Z</time>
      </trkpt>
      <trkpt lat="43.41476" lon="6.06942">
        <ele>204.19999694824</ele>
        <time>2015-12-16T15:47:04Z</time>
      </trkpt>
      <trkpt lat="43.41479" lon="6.06945">
        <ele>204</ele>
        <time>2015-12-16T15:47:05Z</time>
      </trkpt>
      <trkpt lat="43.41482" lon="6.06948">
        <ele>204</ele>
        <time>2015-12-16T15:47:06Z</time>
      </trkpt>
      <trkpt lat="43.41487" lon="6.06955">
        <ele>204</ele>
        <time>2015-12-16T15:47:08Z</time>
      </trkpt>
      <trkpt lat="43.41489" lon="6.06957">
        <ele>204</ele>
        <time>2015-12-16T15:47:09Z</time>
      </trkpt>
      <trkpt lat="43.41492" lon="6.0696">
        <ele>204</ele>
        <time>2015-12-16T15:47:10Z</time>
      </trkpt>
      <trkpt lat="43.41497" lon="6.06964">
        <ele>204</ele>
        <time>2015-12-16T15:47:12Z</time>
      </trkpt>
      <trkpt lat="43.41502" lon="6.06967">
        <ele>204</ele>
        <time>2015-12-16T15:47:14Z</time>
      </trkpt>
      <trkpt lat="43.41506" lon="6.0697">
        <ele>204</ele>
        <time>2015-12-16T15:47:16Z</time>
      </trkpt>
      <trkpt lat="43.4151" lon="6.06972">
        <ele>203.80000305176</ele>
        <time>2015-12-16T15:47:18Z</time>
      </trkpt>
      <trkpt lat="43.41512" lon="6.06972">
        <ele>203.80000305176</ele>
        <time>2015-12-16T15:47:19Z</time>
      </trkpt>
      <trkpt lat="43.41515" lon="6.06972">
        <ele>203.60000610352</ele>
        <time>2015-12-16T15:47:20Z</time>
      </trkpt>
      <trkpt lat="43.41523" lon="6.06972">
        <ele>203.60000610352</ele>
        <time>2015-12-16T15:47:22Z</time>
      </trkpt>
      <trkpt lat="43.41531" lon="6.0697">
        <ele>204</ele>
        <time>2015-12-16T15:47:24Z</time>
      </trkpt>
      <trkpt lat="43.41539" lon="6.06969">
        <ele>204</ele>
        <time>2015-12-16T15:47:26Z</time>
      </trkpt>
      <trkpt lat="43.41547" lon="6.06968">
        <ele>204.19999694824</ele>
        <time>2015-12-16T15:47:28Z</time>
      </trkpt>
      <trkpt lat="43.41553" lon="6.06967">
        <ele>204.39999389648</ele>
        <time>2015-12-16T15:47:30Z</time>
      </trkpt>
      <trkpt lat="43.41557" lon="6.06967">
        <ele>204.39999389648</ele>
        <time>2015-12-16T15:47:31Z</time>
      </trkpt>
      <trkpt lat="43.4156" lon="6.06967">
        <ele>204.60000610352</ele>
        <time>2015-12-16T15:47:32Z</time>
      </trkpt>
      <trkpt lat="43.41564" lon="6.06967">
        <ele>205</ele>
        <time>2015-12-16T15:47:34Z</time>
      </trkpt>
      <trkpt lat="43.41565" lon="6.06966">
        <ele>205</ele>
        <time>2015-12-16T15:47:36Z</time>
      </trkpt>
      <trkpt lat="43.41565" lon="6.06966">
        <ele>204.80000305176</ele>
        <time>2015-12-16T15:47:38Z</time>
      </trkpt>
      <trkpt lat="43.41565" lon="6.06966">
        <ele>205</ele>
        <time>2015-12-16T15:47:40Z</time>
      </trkpt>
      <trkpt lat="43.41565" lon="6.06966">
        <ele>204.80000305176</ele>
        <time>2015-12-16T15:47:44Z</time>
      </trkpt>
      <trkpt lat="43.41565" lon="6.06966">
        <ele>204.80000305176</ele>
        <time>2015-12-16T15:47:46Z</time>
      </trkpt>
      <trkpt lat="43.41565" lon="6.06966">
        <ele>205</ele>
        <time>2015-12-16T15:47:48Z</time>
      </trkpt>
      <trkpt lat="43.41565" lon="6.06966">
        <ele>204.80000305176</ele>
        <time>2015-12-16T15:47:54Z</time>
      </trkpt>
      <trkpt lat="43.41565" lon="6.06966">
        <ele>204.80000305176</ele>
        <time>2015-12-16T15:47:58Z</time>
      </trkpt>
      <trkpt lat="43.41565" lon="6.06966">
        <ele>205</ele>
        <time>2015-12-16T15:48:00Z</time>
      </trkpt>
      <trkpt lat="43.41566" lon="6.06967">
        <ele>205</ele>
        <time>2015-12-16T15:48:02Z</time>
      </trkpt>
      <trkpt lat="43.41566" lon="6.06968">
        <ele>204.80000305176</ele>
        <time>2015-12-16T15:48:04Z</time>
      </trkpt>
      <trkpt lat="43.41566" lon="6.06968">
        <ele>204.80000305176</ele>
        <time>2015-12-16T15:48:05Z</time>
      </trkpt>
      <trkpt lat="43.41566" lon="6.06968">
        <ele>205</ele>
        <time>2015-12-16T15:48:08Z</time>
      </trkpt>
      <trkpt lat="43.41566" lon="6.06968">
        <ele>205.19999694824</ele>
        <time>2015-12-16T15:48:10Z</time>
      </trkpt>
      <trkpt lat="43.41566" lon="6.06968">
        <ele>205</ele>
        <time>2015-12-16T15:48:14Z</time>
      </trkpt>
      <trkpt lat="43.41566" lon="6.06968">
        <ele>205.19999694824</ele>
        <time>2015-12-16T15:48:18Z</time>
      </trkpt>
      <trkpt lat="43.41566" lon="6.06968">
        <ele>205</ele>
        <time>2015-12-16T15:48:22Z</time>
      </trkpt>
      <trkpt lat="43.41566" lon="6.06968">
        <ele>205.19999694824</ele>
        <time>2015-12-16T15:48:26Z</time>
      </trkpt>
      <trkpt lat="43.41566" lon="6.06968">
        <ele>205.19999694824</ele>
        <time>2015-12-16T15:48:28Z</time>
      </trkpt>
      <trkpt lat="43.41566" lon="6.06968">
        <ele>205</ele>
        <time>2015-12-16T15:48:30Z</time>
      </trkpt>
      <trkpt lat="43.41568" lon="6.06967">
        <ele>205</ele>
        <time>2015-12-16T15:48:32Z</time>
      </trkpt>
      <trkpt lat="43.41571" lon="6.06966">
        <ele>205.19999694824</ele>
        <time>2015-12-16T15:48:34Z</time>
      </trkpt>
      <trkpt lat="43.41573" lon="6.06968">
        <ele>205.19999694824</ele>
        <time>2015-12-16T15:48:36Z</time>
      </trkpt>
      <trkpt lat="43.41573" lon="6.06971">
        <ele>205.39999389648</ele>
        <time>2015-12-16T15:48:37Z</time>
      </trkpt>
      <trkpt lat="43.41573" lon="6.06975">
        <ele>205.60000610352</ele>
        <time>2015-12-16T15:48:38Z</time>
      </trkpt>
      <trkpt lat="43.41575" lon="6.06984">
        <ele>204.80000305176</ele>
        <time>2015-12-16T15:48:40Z</time>
      </trkpt>
      <trkpt lat="43.41576" lon="6.06991">
        <ele>204.60000610352</ele>
        <time>2015-12-16T15:48:42Z</time>
      </trkpt>
      <trkpt lat="43.41578" lon="6.06999">
        <ele>204.80000305176</ele>
        <time>2015-12-16T15:48:44Z</time>
      </trkpt>
      <trkpt lat="43.41579" lon="6.07007">
        <ele>204.80000305176</ele>
        <time>2015-12-16T15:48:46Z</time>
      </trkpt>
      <trkpt lat="43.41581" lon="6.07015">
        <ele>205</ele>
        <time>2015-12-16T15:48:48Z</time>
      </trkpt>
      <trkpt lat="43.41581" lon="6.07022">
        <ele>205</ele>
        <time>2015-12-16T15:48:50Z</time>
      </trkpt>
      <trkpt lat="43.41582" lon="6.07026">
        <ele>205</ele>
        <time>2015-12-16T15:48:52Z</time>
      </trkpt>
      <trkpt lat="43.41583" lon="6.07028">
        <ele>205</ele>
        <time>2015-12-16T15:48:54Z</time>
      </trkpt>
      <trkpt lat="43.41583" lon="6.07028">
        <ele>205</ele>
        <time>2015-12-16T15:48:56Z</time>
      </trkpt>
      <trkpt lat="43.41583" lon="6.07027">
        <ele>205</ele>
        <time>2015-12-16T15:48:58Z</time>
      </trkpt>
      <trkpt lat="43.41584" lon="6.07027">
        <ele>205</ele>
        <time>2015-12-16T15:49:00Z</time>
      </trkpt>
      <trkpt lat="43.41584" lon="6.07029">
        <ele>205</ele>
        <time>2015-12-16T15:49:02Z</time>
      </trkpt>
      <trkpt lat="43.41584" lon="6.07032">
        <ele>205</ele>
        <time>2015-12-16T15:49:04Z</time>
      </trkpt>
      <trkpt lat="43.41584" lon="6.07034">
        <ele>204.80000305176</ele>
        <time>2015-12-16T15:49:06Z</time>
      </trkpt>
      <trkpt lat="43.41584" lon="6.07034">
        <ele>204.80000305176</ele>
        <time>2015-12-16T15:49:08Z</time>
      </trkpt>
      <trkpt lat="43.41584" lon="6.07034">
        <ele>205</ele>
        <time>2015-12-16T15:49:10Z</time>
      </trkpt>
      <trkpt lat="43.41584" lon="6.07034">
        <ele>205</ele>
        <time>2015-12-16T15:49:12Z</time>
      </trkpt>
      <trkpt lat="43.41584" lon="6.07033">
        <ele>205</ele>
        <time>2015-12-16T15:49:20Z</time>
      </trkpt>
      <trkpt lat="43.41584" lon="6.07034">
        <ele>205.19999694824</ele>
        <time>2015-12-16T15:49:22Z</time>
      </trkpt>
      <trkpt lat="43.41584" lon="6.07033">
        <ele>205</ele>
        <time>2015-12-16T15:49:24Z</time>
      </trkpt>
      <trkpt lat="43.41584" lon="6.07034">
        <ele>205</ele>
        <time>2015-12-16T15:49:26Z</time>
      </trkpt>
      <trkpt lat="43.41584" lon="6.07034">
        <ele>205</ele>
        <time>2015-12-16T15:49:28Z</time>
      </trkpt>
      <trkpt lat="43.41584" lon="6.07034">
        <ele>205</ele>
        <time>2015-12-16T15:49:30Z</time>
      </trkpt>
      <trkpt lat="43.41584" lon="6.07033">
        <ele>204.80000305176</ele>
        <time>2015-12-16T15:49:32Z</time>
      </trkpt>
      <trkpt lat="43.41584" lon="6.07033">
        <ele>204.80000305176</ele>
        <time>2015-12-16T15:49:34Z</time>
      </trkpt>
      <trkpt lat="43.41584" lon="6.07033">
        <ele>205</ele>
        <time>2015-12-16T15:49:36Z</time>
      </trkpt>
      <trkpt lat="43.41584" lon="6.07033">
        <ele>205</ele>
        <time>2015-12-16T15:49:38Z</time>
      </trkpt>
      <trkpt lat="43.41584" lon="6.07034">
        <ele>205</ele>
        <time>2015-12-16T15:49:40Z</time>
      </trkpt>
      <trkpt lat="43.41584" lon="6.07034">
        <ele>204.80000305176</ele>
        <time>2015-12-16T15:49:41Z</time>
      </trkpt>
      <trkpt lat="43.41584" lon="6.07034">
        <ele>204.80000305176</ele>
        <time>2015-12-16T15:49:42Z</time>
      </trkpt>
      <trkpt lat="43.41584" lon="6.07034">
        <ele>204.80000305176</ele>
        <time>2015-12-16T15:49:44Z</time>
      </trkpt>
      <trkpt lat="43.41584" lon="6.07034">
        <ele>204.80000305176</ele>
        <time>2015-12-16T15:49:46Z</time>
      </trkpt>
      <trkpt lat="43.41584" lon="6.07034">
        <ele>205.19999694824</ele>
        <time>2015-12-16T15:49:48Z</time>
      </trkpt>
      <trkpt lat="43.41584" lon="6.07034">
        <ele>205</ele>
        <time>2015-12-16T15:49:50Z</time>
      </trkpt>
      <trkpt lat="43.41584" lon="6.07034">
        <ele>205</ele>
        <time>2015-12-16T15:49:52Z</time>
      </trkpt>
      <trkpt lat="43.41584" lon="6.07034">
        <ele>204.80000305176</ele>
        <time>2015-12-16T15:49:53Z</time>
      </trkpt>
      <trkpt lat="43.41584" lon="6.07034">
        <ele>204.80000305176</ele>
        <time>2015-12-16T15:49:54Z</time>
      </trkpt>
      <trkpt lat="43.41584" lon="6.07034">
        <ele>205</ele>
        <time>2015-12-16T15:49:58Z</time>
      </trkpt>
      <trkpt lat="43.41584" lon="6.07034">
        <ele>205</ele>
        <time>2015-12-16T15:50:08Z</time>
      </trkpt>
      <trkpt lat="43.41584" lon="6.07034">
        <ele>205</ele>
        <time>2015-12-16T15:50:10Z</time>
      </trkpt>
      <trkpt lat="43.41584" lon="6.07034">
        <ele>204.80000305176</ele>
        <time>2015-12-16T15:50:12Z</time>
      </trkpt>
    </trkseg>
  </trk>
</gpx>